<?xml version='1.0' encoding='UTF-8'?><gpx version="1.1" creator="JPX - https://github.com/jenetics/jpx" xmlns="http://www.topografix.com/GPX/1/1"><trk><trkseg><trkpt lat="43.883903" lon="7.9971467"><ele>42.0</ele><time>2026-04-26T06:10:40.141Z</time></trkpt><trkpt lat="43.8838473" lon="7.997194"><ele>42.0</ele><time>2026-04-26T06:11:19.252Z</time></trkpt><trkpt lat="43.8837904" lon="7.9972346"><ele>42.0</ele><time>2026-04-26T06:11:49.244Z</time></trkpt><trkpt lat="43.8838237" lon="7.9971555"><ele>42.0</ele><time>2026-04-26T06:13:12.259Z</time></trkpt><trkpt lat="43.8839291" lon="7.9971671"><ele>42.0</ele><time>2026-04-26T06:15:13.222Z</time></trkpt><trkpt lat="43.8839919" lon="7.9972104"><ele>42.0</ele><time>2026-04-26T06:15:19.56Z</time></trkpt><trkpt lat="43.883963" lon="7.9971192"><ele>42.0</ele><time>2026-04-26T06:15:24.459Z</time></trkpt><trkpt lat="43.8840355" lon="7.9971073"><ele>42.0</ele><time>2026-04-26T06:15:29.296Z</time></trkpt><trkpt lat="43.883907" lon="7.9971219"><ele>42.0</ele><time>2026-04-26T06:16:47.167Z</time></trkpt><trkpt lat="43.883849" lon="7.9971563"><ele>42.0</ele><time>2026-04-26T06:21:08.148Z</time></trkpt><trkpt lat="43.8839475" lon="7.9971717"><ele>42.0</ele><time>2026-04-26T06:21:53.304Z</time></trkpt><trkpt lat="43.8840469" lon="7.9972061"><ele>42.0</ele><time>2026-04-26T06:21:59.22Z</time></trkpt><trkpt lat="43.8841053" lon="7.9972812"><ele>29.0</ele><time>2026-04-26T06:22:01.292Z</time></trkpt><trkpt lat="43.8832983" lon="7.9966183"><ele>28.999999999999996</ele><time>2026-04-26T06:22:04.048Z</time></trkpt><trkpt lat="43.8832417" lon="7.9965617"><ele>29.0</ele><time>2026-04-26T06:22:05.047Z</time></trkpt><trkpt lat="43.883185" lon="7.9965017"><ele>29.0</ele><time>2026-04-26T06:22:06.047Z</time></trkpt><trkpt lat="43.883125" lon="7.9964433"><ele>29.0</ele><time>2026-04-26T06:22:07.047Z</time></trkpt><trkpt lat="43.8830717" lon="7.996385"><ele>28.999999999999996</ele><time>2026-04-26T06:22:08.047Z</time></trkpt><trkpt lat="43.88298" lon="7.9962867"><ele>29.0</ele><time>2026-04-26T06:22:10.047Z</time></trkpt><trkpt lat="43.88291" lon="7.9962183"><ele>29.000000000000004</ele><time>2026-04-26T06:22:12.047Z</time></trkpt><trkpt lat="43.8828567" lon="7.9961633"><ele>29.0</ele><time>2026-04-26T06:22:15.047Z</time></trkpt><trkpt lat="43.882875" lon="7.9960617"><ele>29.000000000000004</ele><time>2026-04-26T06:22:19.047Z</time></trkpt><trkpt lat="43.882925" lon="7.99596"><ele>29.000000000000004</ele><time>2026-04-26T06:22:22.047Z</time></trkpt><trkpt lat="43.8829567" lon="7.9958817"><ele>29.0</ele><time>2026-04-26T06:22:24.047Z</time></trkpt><trkpt lat="43.88299" lon="7.9958017"><ele>29.000000000000004</ele><time>2026-04-26T06:22:26.047Z</time></trkpt><trkpt lat="43.883025" lon="7.99572"><ele>29.000000000000004</ele><time>2026-04-26T06:22:28.047Z</time></trkpt><trkpt lat="43.883065" lon="7.9956417"><ele>28.428571428571434</ele><time>2026-04-26T06:22:30.047Z</time></trkpt><trkpt lat="43.883105" lon="7.9955617"><ele>27.857142857142858</ele><time>2026-04-26T06:22:32.047Z</time></trkpt><trkpt lat="43.88315" lon="7.995475"><ele>27.28571428571429</ele><time>2026-04-26T06:22:34.047Z</time></trkpt><trkpt lat="43.8831967" lon="7.9953983"><ele>26.714285714285715</ele><time>2026-04-26T06:22:36.048Z</time></trkpt><trkpt lat="43.8832467" lon="7.9953217"><ele>26.142857142857146</ele><time>2026-04-26T06:22:38.047Z</time></trkpt><trkpt lat="43.8833" lon="7.9952483"><ele>25.571428571428573</ele><time>2026-04-26T06:22:40.047Z</time></trkpt><trkpt lat="43.8833583" lon="7.99519"><ele>25.0</ele><time>2026-04-26T06:22:42.047Z</time></trkpt><trkpt lat="43.8834183" lon="7.99514"><ele>25.28571428571429</ele><time>2026-04-26T06:22:44.047Z</time></trkpt><trkpt lat="43.8834783" lon="7.9951033"><ele>25.571428571428573</ele><time>2026-04-26T06:22:46.047Z</time></trkpt><trkpt lat="43.8835417" lon="7.9950733"><ele>25.857142857142858</ele><time>2026-04-26T06:22:48.047Z</time></trkpt><trkpt lat="43.8836083" lon="7.99505"><ele>26.142857142857146</ele><time>2026-04-26T06:22:50.047Z</time></trkpt><trkpt lat="43.883675" lon="7.9950267"><ele>26.428571428571427</ele><time>2026-04-26T06:22:52.047Z</time></trkpt><trkpt lat="43.88374" lon="7.995015"><ele>26.714285714285715</ele><time>2026-04-26T06:22:54.048Z</time></trkpt><trkpt lat="43.8838267" lon="7.99498"><ele>27.0</ele><time>2026-04-26T06:22:57.047Z</time></trkpt><trkpt lat="43.8838933" lon="7.99494"><ele>27.0</ele><time>2026-04-26T06:22:59.047Z</time></trkpt><trkpt lat="43.8839583" lon="7.9948917"><ele>27.0</ele><time>2026-04-26T06:23:01.047Z</time></trkpt><trkpt lat="43.8840233" lon="7.994845"><ele>27.0</ele><time>2026-04-26T06:23:03.048Z</time></trkpt><trkpt lat="43.8840883" lon="7.994805"><ele>27.0</ele><time>2026-04-26T06:23:05.048Z</time></trkpt><trkpt lat="43.884155" lon="7.994765"><ele>27.0</ele><time>2026-04-26T06:23:07.047Z</time></trkpt><trkpt lat="43.8842217" lon="7.9947333"><ele>27.0</ele><time>2026-04-26T06:23:09.047Z</time></trkpt><trkpt lat="43.8842817" lon="7.994705"><ele>27.0</ele><time>2026-04-26T06:23:11.047Z</time></trkpt><trkpt lat="43.884375" lon="7.994675"><ele>28.666666666666668</ele><time>2026-04-26T06:23:14.047Z</time></trkpt><trkpt lat="43.8844683" lon="7.9946383"><ele>30.333333333333336</ele><time>2026-04-26T06:23:17.047Z</time></trkpt><trkpt lat="43.88454" lon="7.9945967"><ele>32.0</ele><time>2026-04-26T06:23:19.047Z</time></trkpt><trkpt lat="43.8846117" lon="7.9945683"><ele>33.66666666666667</ele><time>2026-04-26T06:23:21.047Z</time></trkpt><trkpt lat="43.8846817" lon="7.9945233"><ele>35.333333333333336</ele><time>2026-04-26T06:23:23.047Z</time></trkpt><trkpt lat="43.8847517" lon="7.99448"><ele>37.0</ele><time>2026-04-26T06:23:25.047Z</time></trkpt><trkpt lat="43.88482" lon="7.99444"><ele>37.0</ele><time>2026-04-26T06:23:27.047Z</time></trkpt><trkpt lat="43.8848883" lon="7.9943917"><ele>37.0</ele><time>2026-04-26T06:23:29.047Z</time></trkpt><trkpt lat="43.8849533" lon="7.9943467"><ele>37.0</ele><time>2026-04-26T06:23:31.047Z</time></trkpt><trkpt lat="43.88502" lon="7.9942983"><ele>37.0</ele><time>2026-04-26T06:23:33.048Z</time></trkpt><trkpt lat="43.8850883" lon="7.99425"><ele>37.0</ele><time>2026-04-26T06:23:35.047Z</time></trkpt><trkpt lat="43.8851517" lon="7.9941983"><ele>37.0</ele><time>2026-04-26T06:23:37.047Z</time></trkpt><trkpt lat="43.8852117" lon="7.9941467"><ele>37.0</ele><time>2026-04-26T06:23:39.048Z</time></trkpt><trkpt lat="43.88528" lon="7.9941017"><ele>36.714285714285715</ele><time>2026-04-26T06:23:41.047Z</time></trkpt><trkpt lat="43.8853467" lon="7.994055"><ele>36.42857142857143</ele><time>2026-04-26T06:23:43.047Z</time></trkpt><trkpt lat="43.8854083" lon="7.9939983"><ele>36.14285714285714</ele><time>2026-04-26T06:23:45.048Z</time></trkpt><trkpt lat="43.885465" lon="7.99394"><ele>35.85714285714286</ele><time>2026-04-26T06:23:47.047Z</time></trkpt><trkpt lat="43.8855233" lon="7.9938833"><ele>35.57142857142857</ele><time>2026-04-26T06:23:49.047Z</time></trkpt><trkpt lat="43.8855867" lon="7.9938317"><ele>35.285714285714285</ele><time>2026-04-26T06:23:51.047Z</time></trkpt><trkpt lat="43.88565" lon="7.993785"><ele>35.0</ele><time>2026-04-26T06:23:53.047Z</time></trkpt><trkpt lat="43.8857167" lon="7.993745"><ele>35.0</ele><time>2026-04-26T06:23:55.047Z</time></trkpt><trkpt lat="43.885785" lon="7.9937117"><ele>35.0</ele><time>2026-04-26T06:23:57.047Z</time></trkpt><trkpt lat="43.885865" lon="7.9936833"><ele>35.0</ele><time>2026-04-26T06:23:59.047Z</time></trkpt><trkpt lat="43.88594" lon="7.9936483"><ele>35.0</ele><time>2026-04-26T06:24:01.047Z</time></trkpt><trkpt lat="43.88601" lon="7.9936067"><ele>35.0</ele><time>2026-04-26T06:24:03.047Z</time></trkpt><trkpt lat="43.88608" lon="7.993555"><ele>35.0</ele><time>2026-04-26T06:24:05.047Z</time></trkpt><trkpt lat="43.8861433" lon="7.99349"><ele>34.83333333333333</ele><time>2026-04-26T06:24:07.047Z</time></trkpt><trkpt lat="43.8862067" lon="7.9934267"><ele>34.666666666666664</ele><time>2026-04-26T06:24:09.047Z</time></trkpt><trkpt lat="43.8862633" lon="7.9933533"><ele>34.5</ele><time>2026-04-26T06:24:11.047Z</time></trkpt><trkpt lat="43.88633" lon="7.99327"><ele>34.333333333333336</ele><time>2026-04-26T06:24:13.047Z</time></trkpt><trkpt lat="43.8863933" lon="7.9931967"><ele>34.16666666666667</ele><time>2026-04-26T06:24:15.048Z</time></trkpt><trkpt lat="43.8864533" lon="7.9931083"><ele>34.0</ele><time>2026-04-26T06:24:17.047Z</time></trkpt><trkpt lat="43.88651" lon="7.993045"><ele>33.99999999999999</ele><time>2026-04-26T06:24:19.047Z</time></trkpt><trkpt lat="43.8865767" lon="7.9929917"><ele>34.0</ele><time>2026-04-26T06:24:21.048Z</time></trkpt><trkpt lat="43.8866433" lon="7.992935"><ele>34.0</ele><time>2026-04-26T06:24:23.047Z</time></trkpt><trkpt lat="43.8867067" lon="7.992885"><ele>34.0</ele><time>2026-04-26T06:24:25.047Z</time></trkpt><trkpt lat="43.886765" lon="7.9928317"><ele>34.0</ele><time>2026-04-26T06:24:27.047Z</time></trkpt><trkpt lat="43.88682" lon="7.9927833"><ele>33.99999999999999</ele><time>2026-04-26T06:24:29.047Z</time></trkpt><trkpt lat="43.886875" lon="7.9927383"><ele>34.0</ele><time>2026-04-26T06:24:31.047Z</time></trkpt><trkpt lat="43.8869417" lon="7.9926617"><ele>33.8</ele><time>2026-04-26T06:24:34.047Z</time></trkpt><trkpt lat="43.8869983" lon="7.9925917"><ele>33.599999999999994</ele><time>2026-04-26T06:24:37.047Z</time></trkpt><trkpt lat="43.8871667" lon="7.992555"><ele>33.4</ele><time>2026-04-26T06:25:51.047Z</time></trkpt><trkpt lat="43.8872467" lon="7.99251"><ele>33.199999999999996</ele><time>2026-04-26T06:37:18.047Z</time></trkpt><trkpt lat="43.8872883" lon="7.9924367"><ele>33.0</ele><time>2026-04-26T06:37:21.047Z</time></trkpt><trkpt lat="43.8873667" lon="7.9923667"><ele>33.0</ele><time>2026-04-26T06:37:24.047Z</time></trkpt><trkpt lat="43.88743" lon="7.9922933"><ele>33.0</ele><time>2026-04-26T06:37:26.047Z</time></trkpt><trkpt lat="43.8874817" lon="7.9922317"><ele>33.0</ele><time>2026-04-26T06:37:28.047Z</time></trkpt><trkpt lat="43.887535" lon="7.9921717"><ele>33.0</ele><time>2026-04-26T06:37:30.047Z</time></trkpt><trkpt lat="43.8875883" lon="7.9921083"><ele>33.0</ele><time>2026-04-26T06:37:32.047Z</time></trkpt><trkpt lat="43.8876483" lon="7.9920383"><ele>33.0</ele><time>2026-04-26T06:37:34.048Z</time></trkpt><trkpt lat="43.8877033" lon="7.99197"><ele>33.0</ele><time>2026-04-26T06:37:36.047Z</time></trkpt><trkpt lat="43.8877533" lon="7.991885"><ele>33.0</ele><time>2026-04-26T06:37:39.047Z</time></trkpt><trkpt lat="43.887795" lon="7.9918067"><ele>33.0</ele><time>2026-04-26T06:37:45.047Z</time></trkpt><trkpt lat="43.8877483" lon="7.9917267"><ele>33.0</ele><time>2026-04-26T06:37:47.047Z</time></trkpt><trkpt lat="43.8876867" lon="7.9916433"><ele>33.0</ele><time>2026-04-26T06:37:49.048Z</time></trkpt><trkpt lat="43.8876267" lon="7.9915683"><ele>33.0</ele><time>2026-04-26T06:37:51.047Z</time></trkpt><trkpt lat="43.8875567" lon="7.991475"><ele>33.0</ele><time>2026-04-26T06:37:53.047Z</time></trkpt><trkpt lat="43.8874817" lon="7.9913533"><ele>32.666666666666664</ele><time>2026-04-26T06:37:55.048Z</time></trkpt><trkpt lat="43.8874183" lon="7.9912617"><ele>32.333333333333336</ele><time>2026-04-26T06:37:57.047Z</time></trkpt><trkpt lat="43.8873683" lon="7.9911867"><ele>32.0</ele><time>2026-04-26T06:37:59.047Z</time></trkpt><trkpt lat="43.8873233" lon="7.9911183"><ele>31.666666666666668</ele><time>2026-04-26T06:38:01.047Z</time></trkpt><trkpt lat="43.88724" lon="7.991025"><ele>31.333333333333336</ele><time>2026-04-26T06:38:03.047Z</time></trkpt><trkpt lat="43.887185" lon="7.990935"><ele>31.0</ele><time>2026-04-26T06:38:05.047Z</time></trkpt><trkpt lat="43.8871317" lon="7.990855"><ele>30.666666666666668</ele><time>2026-04-26T06:38:07.047Z</time></trkpt><trkpt lat="43.8870717" lon="7.99078"><ele>30.333333333333336</ele><time>2026-04-26T06:38:09.047Z</time></trkpt><trkpt lat="43.8870233" lon="7.9907117"><ele>30.0</ele><time>2026-04-26T06:38:11.047Z</time></trkpt><trkpt lat="43.8869717" lon="7.99061"><ele>29.666666666666664</ele><time>2026-04-26T06:38:14.047Z</time></trkpt><trkpt lat="43.8869317" lon="7.9905383"><ele>29.333333333333332</ele><time>2026-04-26T06:38:16.047Z</time></trkpt><trkpt lat="43.88688" lon="7.9904383"><ele>29.0</ele><time>2026-04-26T06:38:19.047Z</time></trkpt><trkpt lat="43.8868233" lon="7.99034"><ele>28.999999999999996</ele><time>2026-04-26T06:38:22.047Z</time></trkpt><trkpt lat="43.88677" lon="7.99024"><ele>29.0</ele><time>2026-04-26T06:38:25.048Z</time></trkpt><trkpt lat="43.88675" lon="7.9901267"><ele>29.0</ele><time>2026-04-26T06:38:28.048Z</time></trkpt><trkpt lat="43.88675" lon="7.990005"><ele>29.0</ele><time>2026-04-26T06:38:31.047Z</time></trkpt><trkpt lat="43.886785" lon="7.989905"><ele>28.999999999999996</ele><time>2026-04-26T06:38:34.047Z</time></trkpt><trkpt lat="43.8868417" lon="7.9898217"><ele>29.0</ele><time>2026-04-26T06:38:37.047Z</time></trkpt><trkpt lat="43.8868933" lon="7.989745"><ele>28.999999999999996</ele><time>2026-04-26T06:38:40.047Z</time></trkpt><trkpt lat="43.886945" lon="7.9896533"><ele>29.0</ele><time>2026-04-26T06:38:43.047Z</time></trkpt><trkpt lat="43.8870017" lon="7.989565"><ele>29.0</ele><time>2026-04-26T06:38:46.048Z</time></trkpt><trkpt lat="43.8870583" lon="7.9894733"><ele>29.0</ele><time>2026-04-26T06:38:49.048Z</time></trkpt><trkpt lat="43.8871117" lon="7.98937"><ele>28.999999999999996</ele><time>2026-04-26T06:38:52.047Z</time></trkpt><trkpt lat="43.88716" lon="7.989275"><ele>29.0</ele><time>2026-04-26T06:38:55.048Z</time></trkpt><trkpt lat="43.8872117" lon="7.98918"><ele>30.166666666666664</ele><time>2026-04-26T06:38:58.047Z</time></trkpt><trkpt lat="43.88727" lon="7.9890817"><ele>31.333333333333332</ele><time>2026-04-26T06:39:01.048Z</time></trkpt><trkpt lat="43.8873317" lon="7.98899"><ele>32.5</ele><time>2026-04-26T06:39:04.048Z</time></trkpt><trkpt lat="43.8873867" lon="7.9888883"><ele>33.666666666666664</ele><time>2026-04-26T06:39:07.047Z</time></trkpt><trkpt lat="43.88744" lon="7.988795"><ele>34.833333333333336</ele><time>2026-04-26T06:39:10.047Z</time></trkpt><trkpt lat="43.88748" lon="7.988725"><ele>36.0</ele><time>2026-04-26T06:39:12.048Z</time></trkpt><trkpt lat="43.8875383" lon="7.9886367"><ele>35.714285714285715</ele><time>2026-04-26T06:39:15.047Z</time></trkpt><trkpt lat="43.887595" lon="7.98854"><ele>35.42857142857143</ele><time>2026-04-26T06:39:18.047Z</time></trkpt><trkpt lat="43.8876467" lon="7.9884383"><ele>35.14285714285714</ele><time>2026-04-26T06:39:21.047Z</time></trkpt><trkpt lat="43.8876883" lon="7.9883667"><ele>34.85714285714286</ele><time>2026-04-26T06:39:23.047Z</time></trkpt><trkpt lat="43.88773" lon="7.9882983"><ele>34.57142857142857</ele><time>2026-04-26T06:39:25.047Z</time></trkpt><trkpt lat="43.8877683" lon="7.9882267"><ele>34.285714285714285</ele><time>2026-04-26T06:39:27.047Z</time></trkpt><trkpt lat="43.8878067" lon="7.9881567"><ele>34.0</ele><time>2026-04-26T06:39:29.047Z</time></trkpt><trkpt lat="43.887855" lon="7.98805"><ele>34.0</ele><time>2026-04-26T06:39:32.047Z</time></trkpt><trkpt lat="43.88791" lon="7.98795"><ele>34.0</ele><time>2026-04-26T06:39:35.047Z</time></trkpt><trkpt lat="43.8879683" lon="7.9878533"><ele>34.0</ele><time>2026-04-26T06:39:38.047Z</time></trkpt><trkpt lat="43.8879967" lon="7.98777"><ele>34.0</ele><time>2026-04-26T06:39:40.047Z</time></trkpt><trkpt lat="43.8880183" lon="7.98768"><ele>34.0</ele><time>2026-04-26T06:39:42.047Z</time></trkpt><trkpt lat="43.8880317" lon="7.9875917"><ele>34.0</ele><time>2026-04-26T06:39:44.047Z</time></trkpt><trkpt lat="43.8880333" lon="7.9874767"><ele>34.833333333333336</ele><time>2026-04-26T06:39:47.047Z</time></trkpt><trkpt lat="43.8880283" lon="7.9873633"><ele>35.66666666666667</ele><time>2026-04-26T06:39:50.048Z</time></trkpt><trkpt lat="43.88801" lon="7.9872333"><ele>36.5</ele><time>2026-04-26T06:39:53.047Z</time></trkpt><trkpt lat="43.8879967" lon="7.9871467"><ele>37.333333333333336</ele><time>2026-04-26T06:39:55.047Z</time></trkpt><trkpt lat="43.88797" lon="7.9870217"><ele>38.166666666666664</ele><time>2026-04-26T06:39:58.047Z</time></trkpt><trkpt lat="43.8879517" lon="7.986935"><ele>39.0</ele><time>2026-04-26T06:40:00.047Z</time></trkpt><trkpt lat="43.8879233" lon="7.9868133"><ele>39.0</ele><time>2026-04-26T06:40:03.047Z</time></trkpt><trkpt lat="43.8879083" lon="7.9867267"><ele>39.0</ele><time>2026-04-26T06:40:05.047Z</time></trkpt><trkpt lat="43.88789" lon="7.9866033"><ele>39.0</ele><time>2026-04-26T06:40:08.047Z</time></trkpt><trkpt lat="43.8878717" lon="7.9864767"><ele>39.0</ele><time>2026-04-26T06:40:11.047Z</time></trkpt><trkpt lat="43.8878517" lon="7.9863633"><ele>39.0</ele><time>2026-04-26T06:40:14.047Z</time></trkpt><trkpt lat="43.88783" lon="7.9862517"><ele>39.0</ele><time>2026-04-26T06:40:17.047Z</time></trkpt><trkpt lat="43.8878133" lon="7.9861317"><ele>39.5</ele><time>2026-04-26T06:40:20.047Z</time></trkpt><trkpt lat="43.8878" lon="7.98602"><ele>40.0</ele><time>2026-04-26T06:40:23.047Z</time></trkpt><trkpt lat="43.8877883" lon="7.9858933"><ele>40.5</ele><time>2026-04-26T06:40:26.047Z</time></trkpt><trkpt lat="43.8877883" lon="7.985765"><ele>41.0</ele><time>2026-04-26T06:40:29.047Z</time></trkpt><trkpt lat="43.8878133" lon="7.9856533"><ele>41.5</ele><time>2026-04-26T06:40:32.047Z</time></trkpt><trkpt lat="43.8878417" lon="7.98554"><ele>42.0</ele><time>2026-04-26T06:40:35.047Z</time></trkpt><trkpt lat="43.8878767" lon="7.9854233"><ele>43.0</ele><time>2026-04-26T06:40:38.047Z</time></trkpt><trkpt lat="43.88791" lon="7.9853033"><ele>44.0</ele><time>2026-04-26T06:40:41.047Z</time></trkpt><trkpt lat="43.8879583" lon="7.9851933"><ele>45.0</ele><time>2026-04-26T06:40:44.047Z</time></trkpt><trkpt lat="43.8879967" lon="7.9851233"><ele>46.0</ele><time>2026-04-26T06:40:46.047Z</time></trkpt><trkpt lat="43.8880333" lon="7.9850483"><ele>47.0</ele><time>2026-04-26T06:40:48.047Z</time></trkpt><trkpt lat="43.8880917" lon="7.98495"><ele>48.0</ele><time>2026-04-26T06:40:51.047Z</time></trkpt><trkpt lat="43.8881367" lon="7.984845"><ele>49.0</ele><time>2026-04-26T06:40:54.047Z</time></trkpt><trkpt lat="43.8881733" lon="7.9847217"><ele>50.0</ele><time>2026-04-26T06:40:57.047Z</time></trkpt><trkpt lat="43.8881883" lon="7.9846367"><ele>51.0</ele><time>2026-04-26T06:40:59.047Z</time></trkpt><trkpt lat="43.8882017" lon="7.98455"><ele>52.0</ele><time>2026-04-26T06:41:01.047Z</time></trkpt><trkpt lat="43.8882233" lon="7.9844367"><ele>53.0</ele><time>2026-04-26T06:41:04.047Z</time></trkpt><trkpt lat="43.8882383" lon="7.9843267"><ele>54.0</ele><time>2026-04-26T06:41:07.047Z</time></trkpt><trkpt lat="43.888255" lon="7.98424"><ele>55.333333333333336</ele><time>2026-04-26T06:41:09.047Z</time></trkpt><trkpt lat="43.888265" lon="7.98414"><ele>56.66666666666667</ele><time>2026-04-26T06:41:11.048Z</time></trkpt><trkpt lat="43.888275" lon="7.9840417"><ele>58.0</ele><time>2026-04-26T06:41:13.047Z</time></trkpt><trkpt lat="43.888295" lon="7.9839217"><ele>59.333333333333336</ele><time>2026-04-26T06:41:16.047Z</time></trkpt><trkpt lat="43.8883117" lon="7.983795"><ele>60.66666666666667</ele><time>2026-04-26T06:41:19.047Z</time></trkpt><trkpt lat="43.8883233" lon="7.98367"><ele>62.0</ele><time>2026-04-26T06:41:22.047Z</time></trkpt><trkpt lat="43.888315" lon="7.9835433"><ele>62.0</ele><time>2026-04-26T06:41:25.047Z</time></trkpt><trkpt lat="43.8883033" lon="7.983455"><ele>62.00000000000001</ele><time>2026-04-26T06:41:27.047Z</time></trkpt><trkpt lat="43.8882933" lon="7.9833683"><ele>62.0</ele><time>2026-04-26T06:41:29.048Z</time></trkpt><trkpt lat="43.8882883" lon="7.98328"><ele>62.0</ele><time>2026-04-26T06:41:31.047Z</time></trkpt><trkpt lat="43.8882917" lon="7.9831567"><ele>62.00000000000001</ele><time>2026-04-26T06:41:34.047Z</time></trkpt><trkpt lat="43.88832" lon="7.9830317"><ele>62.0</ele><time>2026-04-26T06:41:37.047Z</time></trkpt><trkpt lat="43.8883467" lon="7.98295"><ele>62.0</ele><time>2026-04-26T06:41:39.047Z</time></trkpt><trkpt lat="43.8883783" lon="7.9828717"><ele>61.16666666666667</ele><time>2026-04-26T06:41:41.047Z</time></trkpt><trkpt lat="43.88843" lon="7.982765"><ele>60.333333333333336</ele><time>2026-04-26T06:41:44.048Z</time></trkpt><trkpt lat="43.8884617" lon="7.9826867"><ele>59.5</ele><time>2026-04-26T06:41:46.047Z</time></trkpt><trkpt lat="43.88851" lon="7.9825767"><ele>58.66666666666667</ele><time>2026-04-26T06:41:49.047Z</time></trkpt><trkpt lat="43.8885533" lon="7.982465"><ele>57.833333333333336</ele><time>2026-04-26T06:41:52.048Z</time></trkpt><trkpt lat="43.8885933" lon="7.98236"><ele>57.0</ele><time>2026-04-26T06:41:55.047Z</time></trkpt><trkpt lat="43.8886317" lon="7.98225"><ele>57.0</ele><time>2026-04-26T06:41:58.047Z</time></trkpt><trkpt lat="43.8886617" lon="7.9821417"><ele>57.0</ele><time>2026-04-26T06:42:01.047Z</time></trkpt><trkpt lat="43.888695" lon="7.982025"><ele>57.0</ele><time>2026-04-26T06:42:04.047Z</time></trkpt><trkpt lat="43.8887283" lon="7.98195"><ele>57.0</ele><time>2026-04-26T06:42:06.047Z</time></trkpt><trkpt lat="43.8887883" lon="7.9818517"><ele>57.0</ele><time>2026-04-26T06:42:09.047Z</time></trkpt><trkpt lat="43.8888517" lon="7.9817667"><ele>57.0</ele><time>2026-04-26T06:42:12.048Z</time></trkpt><trkpt lat="43.8889217" lon="7.9816883"><ele>59.833333333333336</ele><time>2026-04-26T06:42:15.047Z</time></trkpt><trkpt lat="43.8889883" lon="7.9816017"><ele>62.66666666666667</ele><time>2026-04-26T06:42:18.047Z</time></trkpt><trkpt lat="43.8890283" lon="7.9815217"><ele>65.5</ele><time>2026-04-26T06:42:20.047Z</time></trkpt><trkpt lat="43.889065" lon="7.981445"><ele>68.33333333333334</ele><time>2026-04-26T06:42:22.047Z</time></trkpt><trkpt lat="43.8890967" lon="7.981365"><ele>71.16666666666667</ele><time>2026-04-26T06:42:24.047Z</time></trkpt><trkpt lat="43.889135" lon="7.9812533"><ele>74.0</ele><time>2026-04-26T06:42:27.048Z</time></trkpt><trkpt lat="43.8891683" lon="7.9811433"><ele>74.0</ele><time>2026-04-26T06:42:30.047Z</time></trkpt><trkpt lat="43.8891867" lon="7.9810533"><ele>74.0</ele><time>2026-04-26T06:42:32.047Z</time></trkpt><trkpt lat="43.889195" lon="7.9809667"><ele>74.0</ele><time>2026-04-26T06:42:34.047Z</time></trkpt><trkpt lat="43.8892017" lon="7.980875"><ele>74.0</ele><time>2026-04-26T06:42:36.047Z</time></trkpt><trkpt lat="43.8892083" lon="7.9807833"><ele>74.0</ele><time>2026-04-26T06:42:38.047Z</time></trkpt><trkpt lat="43.88921" lon="7.9806867"><ele>74.0</ele><time>2026-04-26T06:42:40.047Z</time></trkpt><trkpt lat="43.8892117" lon="7.9805983"><ele>74.0</ele><time>2026-04-26T06:42:42.048Z</time></trkpt><trkpt lat="43.8892133" lon="7.9804717"><ele>74.16666666666667</ele><time>2026-04-26T06:42:45.047Z</time></trkpt><trkpt lat="43.8892167" lon="7.9803433"><ele>74.33333333333334</ele><time>2026-04-26T06:42:48.047Z</time></trkpt><trkpt lat="43.8892317" lon="7.9802133"><ele>74.5</ele><time>2026-04-26T06:42:51.047Z</time></trkpt><trkpt lat="43.8892583" lon="7.9801283"><ele>74.66666666666667</ele><time>2026-04-26T06:42:53.048Z</time></trkpt><trkpt lat="43.88929" lon="7.98005"><ele>74.83333333333333</ele><time>2026-04-26T06:42:55.047Z</time></trkpt><trkpt lat="43.889345" lon="7.9799483"><ele>75.0</ele><time>2026-04-26T06:42:58.047Z</time></trkpt><trkpt lat="43.8894017" lon="7.9798517"><ele>75.0</ele><time>2026-04-26T06:43:01.047Z</time></trkpt><trkpt lat="43.8894567" lon="7.97975"><ele>75.0</ele><time>2026-04-26T06:43:04.047Z</time></trkpt><trkpt lat="43.8895067" lon="7.9796517"><ele>75.0</ele><time>2026-04-26T06:43:07.047Z</time></trkpt><trkpt lat="43.8895617" lon="7.9795583"><ele>75.0</ele><time>2026-04-26T06:43:10.047Z</time></trkpt><trkpt lat="43.88961" lon="7.97945"><ele>75.0</ele><time>2026-04-26T06:43:13.047Z</time></trkpt><trkpt lat="43.8896483" lon="7.979335"><ele>75.0</ele><time>2026-04-26T06:43:16.047Z</time></trkpt><trkpt lat="43.8896767" lon="7.979255"><ele>76.83333333333333</ele><time>2026-04-26T06:43:18.047Z</time></trkpt><trkpt lat="43.88971" lon="7.9791317"><ele>78.66666666666667</ele><time>2026-04-26T06:43:21.047Z</time></trkpt><trkpt lat="43.8897317" lon="7.9790433"><ele>80.5</ele><time>2026-04-26T06:43:23.047Z</time></trkpt><trkpt lat="43.8897567" lon="7.978925"><ele>82.33333333333334</ele><time>2026-04-26T06:43:26.047Z</time></trkpt><trkpt lat="43.88979" lon="7.9788133"><ele>84.16666666666667</ele><time>2026-04-26T06:43:29.047Z</time></trkpt><trkpt lat="43.889845" lon="7.978705"><ele>86.0</ele><time>2026-04-26T06:43:32.047Z</time></trkpt><trkpt lat="43.8899033" lon="7.9786217"><ele>86.00000000000001</ele><time>2026-04-26T06:43:35.047Z</time></trkpt><trkpt lat="43.8899667" lon="7.97857"><ele>86.0</ele><time>2026-04-26T06:43:37.047Z</time></trkpt><trkpt lat="43.8900283" lon="7.9785433"><ele>86.0</ele><time>2026-04-26T06:43:39.047Z</time></trkpt><trkpt lat="43.8900933" lon="7.9785267"><ele>86.0</ele><time>2026-04-26T06:43:41.047Z</time></trkpt><trkpt lat="43.8901567" lon="7.9785267"><ele>86.0</ele><time>2026-04-26T06:43:43.047Z</time></trkpt><trkpt lat="43.8902417" lon="7.9785233"><ele>86.00000000000001</ele><time>2026-04-26T06:43:46.047Z</time></trkpt><trkpt lat="43.8903067" lon="7.9785183"><ele>86.0</ele><time>2026-04-26T06:43:48.047Z</time></trkpt><trkpt lat="43.8903767" lon="7.9785133"><ele>86.14285714285715</ele><time>2026-04-26T06:43:50.047Z</time></trkpt><trkpt lat="43.8904433" lon="7.9785133"><ele>86.28571428571429</ele><time>2026-04-26T06:43:52.047Z</time></trkpt><trkpt lat="43.8905083" lon="7.97851"><ele>86.42857142857143</ele><time>2026-04-26T06:43:54.047Z</time></trkpt><trkpt lat="43.8906033" lon="7.9785283"><ele>86.57142857142858</ele><time>2026-04-26T06:43:57.047Z</time></trkpt><trkpt lat="43.89067" lon="7.978555"><ele>86.71428571428572</ele><time>2026-04-26T06:43:59.047Z</time></trkpt><trkpt lat="43.8907383" lon="7.9785867"><ele>86.85714285714286</ele><time>2026-04-26T06:44:01.047Z</time></trkpt><trkpt lat="43.8908083" lon="7.9786017"><ele>87.0</ele><time>2026-04-26T06:44:03.047Z</time></trkpt><trkpt lat="43.8908833" lon="7.978565"><ele>87.0</ele><time>2026-04-26T06:44:06.047Z</time></trkpt><trkpt lat="43.8908917" lon="7.9784383"><ele>87.0</ele><time>2026-04-26T06:44:09.047Z</time></trkpt><trkpt lat="43.8908633" lon="7.97836"><ele>87.0</ele><time>2026-04-26T06:44:11.047Z</time></trkpt><trkpt lat="43.8908033" lon="7.9783033"><ele>87.0</ele><time>2026-04-26T06:44:13.047Z</time></trkpt><trkpt lat="43.8907317" lon="7.97826"><ele>87.0</ele><time>2026-04-26T06:44:15.047Z</time></trkpt><trkpt lat="43.8906617" lon="7.9782217"><ele>87.0</ele><time>2026-04-26T06:44:17.047Z</time></trkpt><trkpt lat="43.8905933" lon="7.9781867"><ele>89.0</ele><time>2026-04-26T06:44:19.047Z</time></trkpt><trkpt lat="43.8905317" lon="7.9781517"><ele>91.0</ele><time>2026-04-26T06:44:21.047Z</time></trkpt><trkpt lat="43.890445" lon="7.9781033"><ele>93.0</ele><time>2026-04-26T06:44:24.047Z</time></trkpt><trkpt lat="43.89038" lon="7.9780667"><ele>95.0</ele><time>2026-04-26T06:44:26.047Z</time></trkpt><trkpt lat="43.89031" lon="7.9780333"><ele>97.0</ele><time>2026-04-26T06:44:28.047Z</time></trkpt><trkpt lat="43.8902483" lon="7.9780133"><ele>99.0</ele><time>2026-04-26T06:44:30.048Z</time></trkpt><trkpt lat="43.8901867" lon="7.9779833"><ele>101.0</ele><time>2026-04-26T06:44:32.047Z</time></trkpt><trkpt lat="43.8901217" lon="7.9779633"><ele>100.71428571428571</ele><time>2026-04-26T06:44:34.047Z</time></trkpt><trkpt lat="43.89005" lon="7.977945"><ele>100.42857142857142</ele><time>2026-04-26T06:44:36.047Z</time></trkpt><trkpt lat="43.8899883" lon="7.9779267"><ele>100.14285714285714</ele><time>2026-04-26T06:44:38.047Z</time></trkpt><trkpt lat="43.8899167" lon="7.97791"><ele>99.85714285714286</ele><time>2026-04-26T06:44:40.047Z</time></trkpt><trkpt lat="43.8898483" lon="7.9779167"><ele>99.57142857142857</ele><time>2026-04-26T06:44:42.047Z</time></trkpt><trkpt lat="43.8897817" lon="7.9779367"><ele>99.28571428571429</ele><time>2026-04-26T06:44:44.047Z</time></trkpt><trkpt lat="43.8897167" lon="7.9779667"><ele>99.0</ele><time>2026-04-26T06:44:46.047Z</time></trkpt><trkpt lat="43.88963" lon="7.9779967"><ele>99.0</ele><time>2026-04-26T06:44:48.047Z</time></trkpt><trkpt lat="43.889565" lon="7.978035"><ele>99.0</ele><time>2026-04-26T06:44:50.047Z</time></trkpt><trkpt lat="43.8894917" lon="7.9781167"><ele>99.0</ele><time>2026-04-26T06:44:53.048Z</time></trkpt><trkpt lat="43.8894233" lon="7.978215"><ele>99.0</ele><time>2026-04-26T06:44:56.047Z</time></trkpt><trkpt lat="43.8893767" lon="7.9782833"><ele>99.0</ele><time>2026-04-26T06:44:58.047Z</time></trkpt><trkpt lat="43.8893083" lon="7.978385"><ele>99.0</ele><time>2026-04-26T06:45:01.047Z</time></trkpt><trkpt lat="43.8892517" lon="7.9784467"><ele>98.83333333333333</ele><time>2026-04-26T06:45:03.048Z</time></trkpt><trkpt lat="43.889205" lon="7.97851"><ele>98.66666666666666</ele><time>2026-04-26T06:45:05.047Z</time></trkpt><trkpt lat="43.889155" lon="7.9785717"><ele>98.5</ele><time>2026-04-26T06:45:07.047Z</time></trkpt><trkpt lat="43.8890817" lon="7.97865"><ele>98.33333333333333</ele><time>2026-04-26T06:45:10.047Z</time></trkpt><trkpt lat="43.8890067" lon="7.978695"><ele>98.16666666666666</ele><time>2026-04-26T06:45:13.047Z</time></trkpt><trkpt lat="43.8889383" lon="7.9786967"><ele>98.0</ele><time>2026-04-26T06:45:16.047Z</time></trkpt><trkpt lat="43.8888667" lon="7.9787333"><ele>97.99999999999999</ele><time>2026-04-26T06:45:19.047Z</time></trkpt><trkpt lat="43.888815" lon="7.9787967"><ele>98.0</ele><time>2026-04-26T06:45:21.047Z</time></trkpt><trkpt lat="43.8887667" lon="7.9788817"><ele>98.0</ele><time>2026-04-26T06:45:23.047Z</time></trkpt><trkpt lat="43.8887233" lon="7.9789783"><ele>98.0</ele><time>2026-04-26T06:45:25.047Z</time></trkpt><trkpt lat="43.8886817" lon="7.97908"><ele>97.99999999999999</ele><time>2026-04-26T06:45:27.047Z</time></trkpt><trkpt lat="43.8886367" lon="7.97919"><ele>98.0</ele><time>2026-04-26T06:45:29.047Z</time></trkpt><trkpt lat="43.8885867" lon="7.9792917"><ele>99.0</ele><time>2026-04-26T06:45:31.047Z</time></trkpt><trkpt lat="43.8885183" lon="7.9793683"><ele>100.0</ele><time>2026-04-26T06:45:33.047Z</time></trkpt><trkpt lat="43.8884167" lon="7.9793917"><ele>101.0</ele><time>2026-04-26T06:45:35.047Z</time></trkpt><trkpt lat="43.888305" lon="7.97941"><ele>102.0</ele><time>2026-04-26T06:45:37.047Z</time></trkpt><trkpt lat="43.8882183" lon="7.9794183"><ele>103.0</ele><time>2026-04-26T06:45:39.047Z</time></trkpt><trkpt lat="43.8881617" lon="7.9793333"><ele>101.80000000000001</ele><time>2026-04-26T06:45:41.048Z</time></trkpt><trkpt lat="43.88817" lon="7.97914"><ele>100.6</ele><time>2026-04-26T06:45:43.047Z</time></trkpt><trkpt lat="43.8881883" lon="7.9790267"><ele>99.4</ele><time>2026-04-26T06:45:44.048Z</time></trkpt><trkpt lat="43.888205" lon="7.97891"><ele>98.19999999999999</ele><time>2026-04-26T06:45:45.047Z</time></trkpt><trkpt lat="43.8882167" lon="7.9787967"><ele>97.0</ele><time>2026-04-26T06:45:46.048Z</time></trkpt><trkpt lat="43.8882233" lon="7.97868"><ele>97.0</ele><time>2026-04-26T06:45:47.047Z</time></trkpt><trkpt lat="43.8882267" lon="7.97856"><ele>97.0</ele><time>2026-04-26T06:45:48.047Z</time></trkpt><trkpt lat="43.8882367" lon="7.9784367"><ele>97.0</ele><time>2026-04-26T06:45:49.047Z</time></trkpt><trkpt lat="43.8882433" lon="7.9783017"><ele>97.0</ele><time>2026-04-26T06:45:50.047Z</time></trkpt><trkpt lat="43.8882517" lon="7.9781717"><ele>97.0</ele><time>2026-04-26T06:45:51.047Z</time></trkpt><trkpt lat="43.8882567" lon="7.9780433"><ele>95.33333333333334</ele><time>2026-04-26T06:45:52.047Z</time></trkpt><trkpt lat="43.88827" lon="7.9779217"><ele>93.66666666666667</ele><time>2026-04-26T06:45:53.047Z</time></trkpt><trkpt lat="43.88828" lon="7.9778183"><ele>92.0</ele><time>2026-04-26T06:45:54.047Z</time></trkpt><trkpt lat="43.888295" lon="7.977725"><ele>90.33333333333334</ele><time>2026-04-26T06:45:55.047Z</time></trkpt><trkpt lat="43.8883183" lon="7.9776433"><ele>88.66666666666667</ele><time>2026-04-26T06:45:56.048Z</time></trkpt><trkpt lat="43.8883617" lon="7.9775033"><ele>87.0</ele><time>2026-04-26T06:45:58.047Z</time></trkpt><trkpt lat="43.88838" lon="7.977385"><ele>85.66666666666667</ele><time>2026-04-26T06:46:00.047Z</time></trkpt><trkpt lat="43.8883633" lon="7.977275"><ele>84.33333333333333</ele><time>2026-04-26T06:46:02.047Z</time></trkpt><trkpt lat="43.8883517" lon="7.9771767"><ele>83.0</ele><time>2026-04-26T06:46:04.047Z</time></trkpt><trkpt lat="43.8883683" lon="7.9770467"><ele>81.66666666666666</ele><time>2026-04-26T06:46:07.047Z</time></trkpt><trkpt lat="43.8884067" lon="7.9769483"><ele>80.33333333333333</ele><time>2026-04-26T06:46:09.047Z</time></trkpt><trkpt lat="43.888445" lon="7.9768433"><ele>79.0</ele><time>2026-04-26T06:46:11.047Z</time></trkpt><trkpt lat="43.88848" lon="7.9767283"><ele>83.16666666666666</ele><time>2026-04-26T06:46:13.047Z</time></trkpt><trkpt lat="43.8885133" lon="7.9766167"><ele>87.33333333333333</ele><time>2026-04-26T06:46:15.047Z</time></trkpt><trkpt lat="43.88854" lon="7.9765033"><ele>91.5</ele><time>2026-04-26T06:46:17.047Z</time></trkpt><trkpt lat="43.8885767" lon="7.9764033"><ele>95.66666666666666</ele><time>2026-04-26T06:46:19.047Z</time></trkpt><trkpt lat="43.8886033" lon="7.9762967"><ele>99.83333333333333</ele><time>2026-04-26T06:46:21.047Z</time></trkpt><trkpt lat="43.8886267" lon="7.976185"><ele>104.0</ele><time>2026-04-26T06:46:23.047Z</time></trkpt><trkpt lat="43.8886467" lon="7.9760683"><ele>103.99999999999999</ele><time>2026-04-26T06:46:25.047Z</time></trkpt><trkpt lat="43.8886683" lon="7.9759783"><ele>104.0</ele><time>2026-04-26T06:46:27.047Z</time></trkpt><trkpt lat="43.888695" lon="7.975855"><ele>104.0</ele><time>2026-04-26T06:46:30.047Z</time></trkpt><trkpt lat="43.888705" lon="7.9757517"><ele>104.0</ele><time>2026-04-26T06:46:32.047Z</time></trkpt><trkpt lat="43.8887183" lon="7.9756367"><ele>103.99999999999999</ele><time>2026-04-26T06:46:34.047Z</time></trkpt><trkpt lat="43.88873" lon="7.9755117"><ele>104.0</ele><time>2026-04-26T06:46:36.048Z</time></trkpt><trkpt lat="43.8887483" lon="7.9753833"><ele>102.0</ele><time>2026-04-26T06:46:38.047Z</time></trkpt><trkpt lat="43.8887683" lon="7.9752533"><ele>100.0</ele><time>2026-04-26T06:46:40.047Z</time></trkpt><trkpt lat="43.8887783" lon="7.9751333"><ele>98.0</ele><time>2026-04-26T06:46:42.047Z</time></trkpt><trkpt lat="43.8888" lon="7.9750067"><ele>96.0</ele><time>2026-04-26T06:46:44.047Z</time></trkpt><trkpt lat="43.8888467" lon="7.97487"><ele>94.0</ele><time>2026-04-26T06:46:46.047Z</time></trkpt><trkpt lat="43.8889017" lon="7.9747583"><ele>91.66666666666666</ele><time>2026-04-26T06:46:48.047Z</time></trkpt><trkpt lat="43.8889417" lon="7.974665"><ele>89.33333333333333</ele><time>2026-04-26T06:46:50.047Z</time></trkpt><trkpt lat="43.8889883" lon="7.9745733"><ele>87.0</ele><time>2026-04-26T06:46:52.047Z</time></trkpt><trkpt lat="43.8890383" lon="7.97448"><ele>84.66666666666667</ele><time>2026-04-26T06:46:55.048Z</time></trkpt><trkpt lat="43.8890933" lon="7.9743833"><ele>82.33333333333334</ele><time>2026-04-26T06:46:58.047Z</time></trkpt><trkpt lat="43.8891483" lon="7.9743"><ele>80.0</ele><time>2026-04-26T06:47:01.047Z</time></trkpt><trkpt lat="43.889205" lon="7.97425"><ele>77.33333333333334</ele><time>2026-04-26T06:47:03.047Z</time></trkpt><trkpt lat="43.8892817" lon="7.974185"><ele>74.66666666666667</ele><time>2026-04-26T06:47:06.047Z</time></trkpt><trkpt lat="43.8893383" lon="7.9741183"><ele>72.0</ele><time>2026-04-26T06:47:09.047Z</time></trkpt><trkpt lat="43.889415" lon="7.97407"><ele>69.33333333333333</ele><time>2026-04-26T06:47:12.047Z</time></trkpt><trkpt lat="43.8894767" lon="7.9740317"><ele>66.66666666666666</ele><time>2026-04-26T06:47:14.047Z</time></trkpt><trkpt lat="43.8895433" lon="7.9739967"><ele>64.0</ele><time>2026-04-26T06:47:16.047Z</time></trkpt><trkpt lat="43.8896183" lon="7.9739583"><ele>63.99999999999999</ele><time>2026-04-26T06:47:19.047Z</time></trkpt><trkpt lat="43.8896883" lon="7.973925"><ele>64.0</ele><time>2026-04-26T06:47:22.047Z</time></trkpt><trkpt lat="43.889765" lon="7.9739183"><ele>64.0</ele><time>2026-04-26T06:47:25.048Z</time></trkpt><trkpt lat="43.88984" lon="7.973935"><ele>64.0</ele><time>2026-04-26T06:47:28.047Z</time></trkpt><trkpt lat="43.8899333" lon="7.9739017"><ele>63.99999999999999</ele><time>2026-04-26T06:47:31.047Z</time></trkpt><trkpt lat="43.8900083" lon="7.9738667"><ele>64.0</ele><time>2026-04-26T06:47:33.047Z</time></trkpt><trkpt lat="43.890075" lon="7.9738383"><ele>65.83333333333333</ele><time>2026-04-26T06:47:35.047Z</time></trkpt><trkpt lat="43.89014" lon="7.9738"><ele>67.66666666666666</ele><time>2026-04-26T06:47:37.047Z</time></trkpt><trkpt lat="43.8902017" lon="7.97376"><ele>69.5</ele><time>2026-04-26T06:47:39.047Z</time></trkpt><trkpt lat="43.89027" lon="7.9737083"><ele>71.33333333333333</ele><time>2026-04-26T06:47:41.047Z</time></trkpt><trkpt lat="43.89035" lon="7.973645"><ele>73.16666666666667</ele><time>2026-04-26T06:47:43.047Z</time></trkpt><trkpt lat="43.89043" lon="7.97358"><ele>75.0</ele><time>2026-04-26T06:47:45.047Z</time></trkpt><trkpt lat="43.8905033" lon="7.973515"><ele>75.0</ele><time>2026-04-26T06:47:47.047Z</time></trkpt><trkpt lat="43.8905767" lon="7.9734717"><ele>75.0</ele><time>2026-04-26T06:47:49.047Z</time></trkpt><trkpt lat="43.8906333" lon="7.9734283"><ele>75.0</ele><time>2026-04-26T06:47:51.047Z</time></trkpt><trkpt lat="43.89068" lon="7.9733667"><ele>75.0</ele><time>2026-04-26T06:47:53.047Z</time></trkpt><trkpt lat="43.8907333" lon="7.9732567"><ele>75.0</ele><time>2026-04-26T06:47:56.047Z</time></trkpt><trkpt lat="43.8907533" lon="7.97317"><ele>75.0</ele><time>2026-04-26T06:47:58.047Z</time></trkpt><trkpt lat="43.8907767" lon="7.973055"><ele>74.99999999999999</ele><time>2026-04-26T06:48:01.047Z</time></trkpt><trkpt lat="43.8908067" lon="7.9729717"><ele>75.0</ele><time>2026-04-26T06:48:04.047Z</time></trkpt><trkpt lat="43.89086" lon="7.97292"><ele>75.0</ele><time>2026-04-26T06:48:07.047Z</time></trkpt><trkpt lat="43.890915" lon="7.972855"><ele>75.0</ele><time>2026-04-26T06:48:09.047Z</time></trkpt><trkpt lat="43.8909667" lon="7.97277"><ele>75.0</ele><time>2026-04-26T06:48:11.048Z</time></trkpt><trkpt lat="43.890985" lon="7.9726683"><ele>74.99999999999999</ele><time>2026-04-26T06:48:14.047Z</time></trkpt><trkpt lat="43.890925" lon="7.9725783"><ele>75.0</ele><time>2026-04-26T06:48:17.047Z</time></trkpt><trkpt lat="43.8908533" lon="7.9725017"><ele>71.66666666666667</ele><time>2026-04-26T06:48:19.047Z</time></trkpt><trkpt lat="43.89081" lon="7.9724117"><ele>68.33333333333333</ele><time>2026-04-26T06:48:21.047Z</time></trkpt><trkpt lat="43.8908683" lon="7.972335"><ele>65.0</ele><time>2026-04-26T06:48:24.048Z</time></trkpt><trkpt lat="43.8909317" lon="7.97225"><ele>61.666666666666664</ele><time>2026-04-26T06:48:27.048Z</time></trkpt><trkpt lat="43.8909683" lon="7.972145"><ele>58.33333333333333</ele><time>2026-04-26T06:48:30.047Z</time></trkpt><trkpt lat="43.890965" lon="7.97201"><ele>55.0</ele><time>2026-04-26T06:48:33.047Z</time></trkpt><trkpt lat="43.8909333" lon="7.97192"><ele>53.14285714285714</ele><time>2026-04-26T06:48:35.047Z</time></trkpt><trkpt lat="43.8908917" lon="7.9718383"><ele>51.285714285714285</ele><time>2026-04-26T06:48:37.047Z</time></trkpt><trkpt lat="43.8908633" lon="7.97175"><ele>49.42857142857143</ele><time>2026-04-26T06:48:40.047Z</time></trkpt><trkpt lat="43.8908133" lon="7.9716717"><ele>47.57142857142857</ele><time>2026-04-26T06:48:43.047Z</time></trkpt><trkpt lat="43.8907733" lon="7.97159"><ele>45.714285714285715</ele><time>2026-04-26T06:48:46.048Z</time></trkpt><trkpt lat="43.8907417" lon="7.9714833"><ele>43.857142857142854</ele><time>2026-04-26T06:48:49.047Z</time></trkpt><trkpt lat="43.8907217" lon="7.9713933"><ele>42.0</ele><time>2026-04-26T06:48:52.047Z</time></trkpt><trkpt lat="43.8906683" lon="7.971295"><ele>42.0</ele><time>2026-04-26T06:48:56.047Z</time></trkpt><trkpt lat="43.890655" lon="7.9711917"><ele>42.0</ele><time>2026-04-26T06:49:00.048Z</time></trkpt><trkpt lat="43.8906583" lon="7.9710917"><ele>42.0</ele><time>2026-04-26T06:49:03.047Z</time></trkpt><trkpt lat="43.890655" lon="7.97099"><ele>42.0</ele><time>2026-04-26T06:49:06.047Z</time></trkpt><trkpt lat="43.890645" lon="7.9708783"><ele>42.0</ele><time>2026-04-26T06:49:09.048Z</time></trkpt><trkpt lat="43.8906517" lon="7.970765"><ele>42.0</ele><time>2026-04-26T06:49:12.047Z</time></trkpt><trkpt lat="43.8906883" lon="7.9706833"><ele>42.333333333333336</ele><time>2026-04-26T06:49:17.047Z</time></trkpt><trkpt lat="43.8907617" lon="7.9706967"><ele>42.666666666666664</ele><time>2026-04-26T06:49:19.047Z</time></trkpt><trkpt lat="43.89086" lon="7.9707217"><ele>43.0</ele><time>2026-04-26T06:49:21.047Z</time></trkpt><trkpt lat="43.8909467" lon="7.9707383"><ele>43.33333333333333</ele><time>2026-04-26T06:49:23.047Z</time></trkpt><trkpt lat="43.8910283" lon="7.9707683"><ele>43.666666666666664</ele><time>2026-04-26T06:49:25.047Z</time></trkpt><trkpt lat="43.8910917" lon="7.9707617"><ele>44.0</ele><time>2026-04-26T06:49:27.047Z</time></trkpt><trkpt lat="43.89116" lon="7.9707383"><ele>44.0</ele><time>2026-04-26T06:49:29.047Z</time></trkpt><trkpt lat="43.8912467" lon="7.9706767"><ele>44.0</ele><time>2026-04-26T06:49:31.047Z</time></trkpt><trkpt lat="43.8913267" lon="7.9705867"><ele>44.0</ele><time>2026-04-26T06:49:33.047Z</time></trkpt><trkpt lat="43.89139" lon="7.9704667"><ele>44.0</ele><time>2026-04-26T06:49:35.047Z</time></trkpt><trkpt lat="43.8914767" lon="7.9702583"><ele>44.0</ele><time>2026-04-26T06:49:39.047Z</time></trkpt><trkpt lat="43.891515" lon="7.9701617"><ele>44.0</ele><time>2026-04-26T06:49:41.047Z</time></trkpt><trkpt lat="43.8915583" lon="7.9700617"><ele>44.0</ele><time>2026-04-26T06:49:43.047Z</time></trkpt><trkpt lat="43.8915967" lon="7.9699583"><ele>44.0</ele><time>2026-04-26T06:49:45.047Z</time></trkpt><trkpt lat="43.891635" lon="7.9698633"><ele>44.0</ele><time>2026-04-26T06:49:47.047Z</time></trkpt><trkpt lat="43.891675" lon="7.969765"><ele>44.0</ele><time>2026-04-26T06:49:49.047Z</time></trkpt><trkpt lat="43.8917133" lon="7.9696633"><ele>43.800000000000004</ele><time>2026-04-26T06:49:51.047Z</time></trkpt><trkpt lat="43.89175" lon="7.9695533"><ele>43.6</ele><time>2026-04-26T06:49:53.047Z</time></trkpt><trkpt lat="43.8917783" lon="7.9694333"><ele>43.4</ele><time>2026-04-26T06:49:55.047Z</time></trkpt><trkpt lat="43.8918333" lon="7.969205"><ele>43.2</ele><time>2026-04-26T06:49:59.047Z</time></trkpt><trkpt lat="43.8918583" lon="7.9690883"><ele>43.0</ele><time>2026-04-26T06:50:01.047Z</time></trkpt><trkpt lat="43.891885" lon="7.9689717"><ele>43.0</ele><time>2026-04-26T06:50:03.048Z</time></trkpt><trkpt lat="43.8919083" lon="7.96886"><ele>43.0</ele><time>2026-04-26T06:50:05.047Z</time></trkpt><trkpt lat="43.8919483" lon="7.96875"><ele>43.0</ele><time>2026-04-26T06:50:07.047Z</time></trkpt><trkpt lat="43.8919883" lon="7.9686417"><ele>43.0</ele><time>2026-04-26T06:50:09.047Z</time></trkpt><trkpt lat="43.8920383" lon="7.9685283"><ele>43.0</ele><time>2026-04-26T06:50:11.047Z</time></trkpt><trkpt lat="43.8920833" lon="7.96842"><ele>43.0</ele><time>2026-04-26T06:50:13.047Z</time></trkpt><trkpt lat="43.89213" lon="7.9683133"><ele>43.5</ele><time>2026-04-26T06:50:15.048Z</time></trkpt><trkpt lat="43.8921783" lon="7.968215"><ele>44.0</ele><time>2026-04-26T06:50:17.047Z</time></trkpt><trkpt lat="43.892225" lon="7.968105"><ele>44.5</ele><time>2026-04-26T06:50:19.047Z</time></trkpt><trkpt lat="43.89227" lon="7.9679967"><ele>45.0</ele><time>2026-04-26T06:50:21.047Z</time></trkpt><trkpt lat="43.8923" lon="7.9678883"><ele>45.5</ele><time>2026-04-26T06:50:23.047Z</time></trkpt><trkpt lat="43.8923217" lon="7.9677717"><ele>46.0</ele><time>2026-04-26T06:50:25.047Z</time></trkpt><trkpt lat="43.8923283" lon="7.9676483"><ele>46.199999999999996</ele><time>2026-04-26T06:50:27.048Z</time></trkpt><trkpt lat="43.8923217" lon="7.9675217"><ele>46.4</ele><time>2026-04-26T06:50:29.047Z</time></trkpt><trkpt lat="43.8923117" lon="7.9674033"><ele>46.6</ele><time>2026-04-26T06:50:31.047Z</time></trkpt><trkpt lat="43.8922933" lon="7.967285"><ele>46.8</ele><time>2026-04-26T06:50:33.047Z</time></trkpt><trkpt lat="43.8922683" lon="7.96716"><ele>47.0</ele><time>2026-04-26T06:50:35.047Z</time></trkpt><trkpt lat="43.8922383" lon="7.967035"><ele>47.0</ele><time>2026-04-26T06:50:37.047Z</time></trkpt><trkpt lat="43.8922167" lon="7.966905"><ele>47.0</ele><time>2026-04-26T06:50:39.047Z</time></trkpt><trkpt lat="43.8922317" lon="7.9667817"><ele>47.0</ele><time>2026-04-26T06:50:41.047Z</time></trkpt><trkpt lat="43.892275" lon="7.966665"><ele>47.0</ele><time>2026-04-26T06:50:43.047Z</time></trkpt><trkpt lat="43.892335" lon="7.966565"><ele>47.0</ele><time>2026-04-26T06:50:45.047Z</time></trkpt><trkpt lat="43.892395" lon="7.9664683"><ele>47.666666666666664</ele><time>2026-04-26T06:50:47.047Z</time></trkpt><trkpt lat="43.8924533" lon="7.9663717"><ele>48.33333333333333</ele><time>2026-04-26T06:50:49.048Z</time></trkpt><trkpt lat="43.8925117" lon="7.9662733"><ele>49.0</ele><time>2026-04-26T06:50:51.047Z</time></trkpt><trkpt lat="43.8925717" lon="7.9661833"><ele>49.666666666666664</ele><time>2026-04-26T06:50:53.047Z</time></trkpt><trkpt lat="43.8926283" lon="7.9660917"><ele>50.333333333333336</ele><time>2026-04-26T06:50:55.047Z</time></trkpt><trkpt lat="43.8926833" lon="7.966"><ele>51.0</ele><time>2026-04-26T06:50:57.048Z</time></trkpt><trkpt lat="43.8927383" lon="7.96591"><ele>50.0</ele><time>2026-04-26T06:50:59.047Z</time></trkpt><trkpt lat="43.89279" lon="7.96581"><ele>49.0</ele><time>2026-04-26T06:51:01.048Z</time></trkpt><trkpt lat="43.8928467" lon="7.96571"><ele>48.0</ele><time>2026-04-26T06:51:03.047Z</time></trkpt><trkpt lat="43.89291" lon="7.9656133"><ele>47.0</ele><time>2026-04-26T06:51:05.047Z</time></trkpt><trkpt lat="43.8929767" lon="7.9655183"><ele>46.0</ele><time>2026-04-26T06:51:07.047Z</time></trkpt><trkpt lat="43.8930333" lon="7.965415"><ele>46.0</ele><time>2026-04-26T06:51:09.047Z</time></trkpt><trkpt lat="43.8930917" lon="7.9653167"><ele>46.0</ele><time>2026-04-26T06:51:11.047Z</time></trkpt><trkpt lat="43.8931533" lon="7.9652183"><ele>46.0</ele><time>2026-04-26T06:51:13.047Z</time></trkpt><trkpt lat="43.8932117" lon="7.9651167"><ele>46.0</ele><time>2026-04-26T06:51:15.047Z</time></trkpt><trkpt lat="43.8932733" lon="7.965035"><ele>46.0</ele><time>2026-04-26T06:51:17.047Z</time></trkpt><trkpt lat="43.8933467" lon="7.96497"><ele>46.199999999999996</ele><time>2026-04-26T06:51:19.047Z</time></trkpt><trkpt lat="43.89342" lon="7.9649033"><ele>46.4</ele><time>2026-04-26T06:51:21.047Z</time></trkpt><trkpt lat="43.89349" lon="7.96482"><ele>46.6</ele><time>2026-04-26T06:51:23.047Z</time></trkpt><trkpt lat="43.893545" lon="7.9647083"><ele>46.8</ele><time>2026-04-26T06:51:25.047Z</time></trkpt><trkpt lat="43.89358" lon="7.9645833"><ele>47.0</ele><time>2026-04-26T06:51:27.048Z</time></trkpt><trkpt lat="43.89362" lon="7.9644617"><ele>47.0</ele><time>2026-04-26T06:51:29.047Z</time></trkpt><trkpt lat="43.8936817" lon="7.9643683"><ele>47.0</ele><time>2026-04-26T06:51:31.047Z</time></trkpt><trkpt lat="43.8937683" lon="7.9643133"><ele>47.0</ele><time>2026-04-26T06:51:33.047Z</time></trkpt><trkpt lat="43.89386" lon="7.9642783"><ele>47.0</ele><time>2026-04-26T06:51:35.048Z</time></trkpt><trkpt lat="43.8939483" lon="7.9642417"><ele>47.0</ele><time>2026-04-26T06:51:37.047Z</time></trkpt><trkpt lat="43.89403" lon="7.9642"><ele>47.2</ele><time>2026-04-26T06:51:39.047Z</time></trkpt><trkpt lat="43.8941017" lon="7.9641433"><ele>47.400000000000006</ele><time>2026-04-26T06:51:41.048Z</time></trkpt><trkpt lat="43.8941717" lon="7.9640617"><ele>47.599999999999994</ele><time>2026-04-26T06:51:43.047Z</time></trkpt><trkpt lat="43.8942383" lon="7.9639733"><ele>47.8</ele><time>2026-04-26T06:51:45.047Z</time></trkpt><trkpt lat="43.8943033" lon="7.96389"><ele>48.0</ele><time>2026-04-26T06:51:47.047Z</time></trkpt><trkpt lat="43.8943717" lon="7.9637783"><ele>48.0</ele><time>2026-04-26T06:51:49.047Z</time></trkpt><trkpt lat="43.8944417" lon="7.963675"><ele>48.0</ele><time>2026-04-26T06:51:51.047Z</time></trkpt><trkpt lat="43.8945083" lon="7.96357"><ele>48.0</ele><time>2026-04-26T06:51:53.047Z</time></trkpt><trkpt lat="43.8945733" lon="7.9634733"><ele>48.0</ele><time>2026-04-26T06:51:55.047Z</time></trkpt><trkpt lat="43.894645" lon="7.96338"><ele>48.0</ele><time>2026-04-26T06:51:57.047Z</time></trkpt><trkpt lat="43.89472" lon="7.9632817"><ele>49.599999999999994</ele><time>2026-04-26T06:51:59.047Z</time></trkpt><trkpt lat="43.8947883" lon="7.9631767"><ele>51.199999999999996</ele><time>2026-04-26T06:52:01.047Z</time></trkpt><trkpt lat="43.894855" lon="7.963075"><ele>52.8</ele><time>2026-04-26T06:52:03.048Z</time></trkpt><trkpt lat="43.8949183" lon="7.9629717"><ele>54.4</ele><time>2026-04-26T06:52:05.047Z</time></trkpt><trkpt lat="43.8949833" lon="7.96287"><ele>56.0</ele><time>2026-04-26T06:52:07.047Z</time></trkpt><trkpt lat="43.8950533" lon="7.9627767"><ele>56.0</ele><time>2026-04-26T06:52:09.047Z</time></trkpt><trkpt lat="43.8951283" lon="7.962685"><ele>55.99999999999999</ele><time>2026-04-26T06:52:11.048Z</time></trkpt><trkpt lat="43.8952017" lon="7.9625967"><ele>55.99999999999999</ele><time>2026-04-26T06:52:13.047Z</time></trkpt><trkpt lat="43.8952783" lon="7.9625233"><ele>56.0</ele><time>2026-04-26T06:52:15.047Z</time></trkpt><trkpt lat="43.895365" lon="7.962455"><ele>56.0</ele><time>2026-04-26T06:52:17.047Z</time></trkpt><trkpt lat="43.8954483" lon="7.962395"><ele>56.0</ele><time>2026-04-26T06:52:19.047Z</time></trkpt><trkpt lat="43.8955367" lon="7.96234"><ele>55.99999999999999</ele><time>2026-04-26T06:52:21.047Z</time></trkpt><trkpt lat="43.8956233" lon="7.962275"><ele>55.99999999999999</ele><time>2026-04-26T06:52:23.047Z</time></trkpt><trkpt lat="43.8957017" lon="7.9622083"><ele>56.0</ele><time>2026-04-26T06:52:25.048Z</time></trkpt><trkpt lat="43.8957833" lon="7.962135"><ele>56.0</ele><time>2026-04-26T06:52:27.047Z</time></trkpt><trkpt lat="43.8958567" lon="7.9620533"><ele>56.199999999999996</ele><time>2026-04-26T06:52:29.047Z</time></trkpt><trkpt lat="43.8959217" lon="7.96196"><ele>56.39999999999999</ele><time>2026-04-26T06:52:31.048Z</time></trkpt><trkpt lat="43.895985" lon="7.9618667"><ele>56.6</ele><time>2026-04-26T06:52:33.047Z</time></trkpt><trkpt lat="43.8960433" lon="7.961765"><ele>56.8</ele><time>2026-04-26T06:52:35.047Z</time></trkpt><trkpt lat="43.8960933" lon="7.9616517"><ele>57.0</ele><time>2026-04-26T06:52:37.047Z</time></trkpt><trkpt lat="43.8961317" lon="7.9615333"><ele>57.0</ele><time>2026-04-26T06:52:39.047Z</time></trkpt><trkpt lat="43.8961633" lon="7.9614117"><ele>57.0</ele><time>2026-04-26T06:52:41.048Z</time></trkpt><trkpt lat="43.896195" lon="7.9612967"><ele>57.0</ele><time>2026-04-26T06:52:43.047Z</time></trkpt><trkpt lat="43.8962333" lon="7.9611867"><ele>57.0</ele><time>2026-04-26T06:52:45.047Z</time></trkpt><trkpt lat="43.8962833" lon="7.9610733"><ele>57.0</ele><time>2026-04-26T06:52:47.047Z</time></trkpt><trkpt lat="43.8963483" lon="7.9609833"><ele>57.0</ele><time>2026-04-26T06:52:49.047Z</time></trkpt><trkpt lat="43.89643" lon="7.9609183"><ele>57.0</ele><time>2026-04-26T06:52:51.047Z</time></trkpt><trkpt lat="43.896515" lon="7.96087"><ele>57.0</ele><time>2026-04-26T06:52:53.047Z</time></trkpt><trkpt lat="43.8965983" lon="7.9608267"><ele>57.0</ele><time>2026-04-26T06:52:55.047Z</time></trkpt><trkpt lat="43.89668" lon="7.9607783"><ele>57.0</ele><time>2026-04-26T06:52:57.047Z</time></trkpt><trkpt lat="43.89676" lon="7.9607183"><ele>57.333333333333336</ele><time>2026-04-26T06:52:59.047Z</time></trkpt><trkpt lat="43.8968333" lon="7.960655"><ele>57.66666666666667</ele><time>2026-04-26T06:53:01.048Z</time></trkpt><trkpt lat="43.8969" lon="7.9605817"><ele>58.0</ele><time>2026-04-26T06:53:03.047Z</time></trkpt><trkpt lat="43.89697" lon="7.9605133"><ele>58.333333333333336</ele><time>2026-04-26T06:53:05.047Z</time></trkpt><trkpt lat="43.8970433" lon="7.960435"><ele>58.66666666666667</ele><time>2026-04-26T06:53:07.048Z</time></trkpt><trkpt lat="43.89711" lon="7.9603583"><ele>59.0</ele><time>2026-04-26T06:53:09.047Z</time></trkpt><trkpt lat="43.8971783" lon="7.9602733"><ele>59.00000000000001</ele><time>2026-04-26T06:53:11.047Z</time></trkpt><trkpt lat="43.8972433" lon="7.9601917"><ele>59.0</ele><time>2026-04-26T06:53:13.047Z</time></trkpt><trkpt lat="43.8973133" lon="7.9601067"><ele>59.0</ele><time>2026-04-26T06:53:15.047Z</time></trkpt><trkpt lat="43.8973767" lon="7.96003"><ele>59.0</ele><time>2026-04-26T06:53:17.047Z</time></trkpt><trkpt lat="43.8974433" lon="7.959945"><ele>59.00000000000001</ele><time>2026-04-26T06:53:19.047Z</time></trkpt><trkpt lat="43.8975083" lon="7.95986"><ele>59.0</ele><time>2026-04-26T06:53:21.047Z</time></trkpt><trkpt lat="43.897575" lon="7.959775"><ele>59.50000000000001</ele><time>2026-04-26T06:53:23.047Z</time></trkpt><trkpt lat="43.897635" lon="7.9596883"><ele>60.0</ele><time>2026-04-26T06:53:25.047Z</time></trkpt><trkpt lat="43.8976917" lon="7.9596"><ele>60.5</ele><time>2026-04-26T06:53:27.048Z</time></trkpt><trkpt lat="43.89775" lon="7.9595033"><ele>61.0</ele><time>2026-04-26T06:53:29.048Z</time></trkpt><trkpt lat="43.8977983" lon="7.9594017"><ele>61.50000000000001</ele><time>2026-04-26T06:53:31.048Z</time></trkpt><trkpt lat="43.89784" lon="7.9593"><ele>62.0</ele><time>2026-04-26T06:53:33.047Z</time></trkpt><trkpt lat="43.8978733" lon="7.9591883"><ele>62.0</ele><time>2026-04-26T06:53:35.047Z</time></trkpt><trkpt lat="43.8979117" lon="7.95907"><ele>62.0</ele><time>2026-04-26T06:53:37.048Z</time></trkpt><trkpt lat="43.89795" lon="7.9589567"><ele>62.0</ele><time>2026-04-26T06:53:39.047Z</time></trkpt><trkpt lat="43.8979817" lon="7.9588433"><ele>62.0</ele><time>2026-04-26T06:53:41.048Z</time></trkpt><trkpt lat="43.8980317" lon="7.9587333"><ele>62.0</ele><time>2026-04-26T06:53:43.047Z</time></trkpt><trkpt lat="43.8980833" lon="7.958635"><ele>62.00000000000001</ele><time>2026-04-26T06:53:45.048Z</time></trkpt><trkpt lat="43.8981433" lon="7.9585417"><ele>62.0</ele><time>2026-04-26T06:53:47.047Z</time></trkpt><trkpt lat="43.8982033" lon="7.9584583"><ele>62.0</ele><time>2026-04-26T06:53:49.047Z</time></trkpt><trkpt lat="43.8982617" lon="7.95837"><ele>62.0</ele><time>2026-04-26T06:53:51.047Z</time></trkpt><trkpt lat="43.8983233" lon="7.9582767"><ele>62.00000000000001</ele><time>2026-04-26T06:53:53.048Z</time></trkpt><trkpt lat="43.8983867" lon="7.9581817"><ele>62.0</ele><time>2026-04-26T06:53:55.048Z</time></trkpt><trkpt lat="43.898445" lon="7.958085"><ele>61.6</ele><time>2026-04-26T06:53:57.048Z</time></trkpt><trkpt lat="43.8985033" lon="7.9579933"><ele>61.2</ele><time>2026-04-26T06:53:59.047Z</time></trkpt><trkpt lat="43.898555" lon="7.957895"><ele>60.8</ele><time>2026-04-26T06:54:01.048Z</time></trkpt><trkpt lat="43.89861" lon="7.9577933"><ele>60.4</ele><time>2026-04-26T06:54:03.047Z</time></trkpt><trkpt lat="43.8986667" lon="7.957695"><ele>60.0</ele><time>2026-04-26T06:54:05.047Z</time></trkpt><trkpt lat="43.8987317" lon="7.9575833"><ele>61.2</ele><time>2026-04-26T06:54:07.047Z</time></trkpt><trkpt lat="43.8987917" lon="7.9574783"><ele>62.4</ele><time>2026-04-26T06:54:09.047Z</time></trkpt><trkpt lat="43.898845" lon="7.9573667"><ele>63.599999999999994</ele><time>2026-04-26T06:54:11.047Z</time></trkpt><trkpt lat="43.8989083" lon="7.9572583"><ele>64.8</ele><time>2026-04-26T06:54:13.047Z</time></trkpt><trkpt lat="43.8989717" lon="7.9571467"><ele>66.0</ele><time>2026-04-26T06:54:15.047Z</time></trkpt><trkpt lat="43.8990367" lon="7.9570433"><ele>66.0</ele><time>2026-04-26T06:54:17.047Z</time></trkpt><trkpt lat="43.8991033" lon="7.9569467"><ele>66.0</ele><time>2026-04-26T06:54:19.048Z</time></trkpt><trkpt lat="43.8991783" lon="7.95687"><ele>66.0</ele><time>2026-04-26T06:54:21.047Z</time></trkpt><trkpt lat="43.8992633" lon="7.9568217"><ele>66.0</ele><time>2026-04-26T06:54:23.047Z</time></trkpt><trkpt lat="43.8993567" lon="7.9567983"><ele>66.0</ele><time>2026-04-26T06:54:25.047Z</time></trkpt><trkpt lat="43.89944" lon="7.9567933"><ele>65.33333333333333</ele><time>2026-04-26T06:54:27.048Z</time></trkpt><trkpt lat="43.89952" lon="7.9567767"><ele>64.66666666666667</ele><time>2026-04-26T06:54:29.047Z</time></trkpt><trkpt lat="43.899595" lon="7.956755"><ele>64.0</ele><time>2026-04-26T06:54:31.047Z</time></trkpt><trkpt lat="43.8996717" lon="7.9567167"><ele>63.333333333333336</ele><time>2026-04-26T06:54:33.047Z</time></trkpt><trkpt lat="43.8997417" lon="7.956655"><ele>62.66666666666667</ele><time>2026-04-26T06:54:35.047Z</time></trkpt><trkpt lat="43.899805" lon="7.9565817"><ele>62.0</ele><time>2026-04-26T06:54:37.048Z</time></trkpt><trkpt lat="43.8998633" lon="7.9564833"><ele>62.16666666666667</ele><time>2026-04-26T06:54:39.047Z</time></trkpt><trkpt lat="43.89992" lon="7.95637"><ele>62.333333333333336</ele><time>2026-04-26T06:54:41.047Z</time></trkpt><trkpt lat="43.8999733" lon="7.9562733"><ele>62.5</ele><time>2026-04-26T06:54:43.047Z</time></trkpt><trkpt lat="43.900015" lon="7.9561783"><ele>62.66666666666667</ele><time>2026-04-26T06:54:45.047Z</time></trkpt><trkpt lat="43.9000633" lon="7.9560817"><ele>62.833333333333336</ele><time>2026-04-26T06:54:47.047Z</time></trkpt><trkpt lat="43.9001183" lon="7.9559867"><ele>63.0</ele><time>2026-04-26T06:54:49.047Z</time></trkpt><trkpt lat="43.9001783" lon="7.9558917"><ele>64.66666666666667</ele><time>2026-04-26T06:54:51.047Z</time></trkpt><trkpt lat="43.90024" lon="7.9557967"><ele>66.33333333333333</ele><time>2026-04-26T06:54:53.047Z</time></trkpt><trkpt lat="43.9003017" lon="7.955715"><ele>68.0</ele><time>2026-04-26T06:54:55.047Z</time></trkpt><trkpt lat="43.90037" lon="7.9556517"><ele>69.66666666666666</ele><time>2026-04-26T06:54:57.047Z</time></trkpt><trkpt lat="43.9004483" lon="7.955595"><ele>71.33333333333333</ele><time>2026-04-26T06:54:59.047Z</time></trkpt><trkpt lat="43.9005267" lon="7.9555483"><ele>73.0</ele><time>2026-04-26T06:55:01.047Z</time></trkpt><trkpt lat="43.900595" lon="7.9555167"><ele>73.0</ele><time>2026-04-26T06:55:03.047Z</time></trkpt><trkpt lat="43.900675" lon="7.95548"><ele>73.0</ele><time>2026-04-26T06:55:05.047Z</time></trkpt><trkpt lat="43.90075" lon="7.9554317"><ele>73.0</ele><time>2026-04-26T06:55:07.047Z</time></trkpt><trkpt lat="43.9008317" lon="7.95535"><ele>73.0</ele><time>2026-04-26T06:55:09.047Z</time></trkpt><trkpt lat="43.9009117" lon="7.9552567"><ele>73.0</ele><time>2026-04-26T06:55:11.047Z</time></trkpt><trkpt lat="43.900985" lon="7.9551717"><ele>72.5</ele><time>2026-04-26T06:55:13.047Z</time></trkpt><trkpt lat="43.9010533" lon="7.9550867"><ele>72.0</ele><time>2026-04-26T06:55:15.047Z</time></trkpt><trkpt lat="43.9011183" lon="7.9550033"><ele>71.5</ele><time>2026-04-26T06:55:17.047Z</time></trkpt><trkpt lat="43.9011883" lon="7.95493"><ele>71.0</ele><time>2026-04-26T06:55:19.047Z</time></trkpt><trkpt lat="43.90125" lon="7.95486"><ele>70.5</ele><time>2026-04-26T06:55:21.047Z</time></trkpt><trkpt lat="43.9013117" lon="7.9547783"><ele>70.0</ele><time>2026-04-26T06:55:23.048Z</time></trkpt><trkpt lat="43.9013833" lon="7.95468"><ele>70.0</ele><time>2026-04-26T06:55:25.047Z</time></trkpt><trkpt lat="43.9014583" lon="7.95458"><ele>70.0</ele><time>2026-04-26T06:55:27.047Z</time></trkpt><trkpt lat="43.901535" lon="7.954485"><ele>70.0</ele><time>2026-04-26T06:55:29.048Z</time></trkpt><trkpt lat="43.901615" lon="7.9543833"><ele>70.0</ele><time>2026-04-26T06:55:31.047Z</time></trkpt><trkpt lat="43.9016983" lon="7.9542767"><ele>70.0</ele><time>2026-04-26T06:55:33.048Z</time></trkpt><trkpt lat="43.9017833" lon="7.954165"><ele>70.5</ele><time>2026-04-26T06:55:35.049Z</time></trkpt><trkpt lat="43.9018317" lon="7.9541083"><ele>71.0</ele><time>2026-04-26T06:55:36.047Z</time></trkpt><trkpt lat="43.9018817" lon="7.9540533"><ele>71.5</ele><time>2026-04-26T06:55:37.048Z</time></trkpt><trkpt lat="43.9019867" lon="7.9539567"><ele>72.0</ele><time>2026-04-26T06:55:39.047Z</time></trkpt><trkpt lat="43.90204" lon="7.95391"><ele>72.5</ele><time>2026-04-26T06:55:40.047Z</time></trkpt><trkpt lat="43.9021467" lon="7.9538183"><ele>73.0</ele><time>2026-04-26T06:55:42.047Z</time></trkpt><trkpt lat="43.9022567" lon="7.9537367"><ele>73.0</ele><time>2026-04-26T06:55:44.047Z</time></trkpt><trkpt lat="43.9023733" lon="7.9536733"><ele>73.0</ele><time>2026-04-26T06:55:46.047Z</time></trkpt><trkpt lat="43.9024383" lon="7.9536433"><ele>73.0</ele><time>2026-04-26T06:55:47.047Z</time></trkpt><trkpt lat="43.9025083" lon="7.953625"><ele>73.0</ele><time>2026-04-26T06:55:48.047Z</time></trkpt><trkpt lat="43.9025717" lon="7.953625"><ele>73.0</ele><time>2026-04-26T06:55:49.047Z</time></trkpt><trkpt lat="43.902635" lon="7.95363"><ele>73.0</ele><time>2026-04-26T06:55:50.048Z</time></trkpt><trkpt lat="43.9027583" lon="7.9536383"><ele>72.4</ele><time>2026-04-26T06:55:52.047Z</time></trkpt><trkpt lat="43.9028767" lon="7.9536383"><ele>71.8</ele><time>2026-04-26T06:55:54.047Z</time></trkpt><trkpt lat="43.9029883" lon="7.9536483"><ele>71.2</ele><time>2026-04-26T06:55:56.047Z</time></trkpt><trkpt lat="43.9030983" lon="7.95366"><ele>70.6</ele><time>2026-04-26T06:55:58.047Z</time></trkpt><trkpt lat="43.903205" lon="7.9536667"><ele>70.0</ele><time>2026-04-26T06:56:00.047Z</time></trkpt><trkpt lat="43.903315" lon="7.953675"><ele>70.0</ele><time>2026-04-26T06:56:02.047Z</time></trkpt><trkpt lat="43.903425" lon="7.9536833"><ele>70.0</ele><time>2026-04-26T06:56:04.048Z</time></trkpt><trkpt lat="43.903535" lon="7.95368"><ele>70.0</ele><time>2026-04-26T06:56:06.048Z</time></trkpt><trkpt lat="43.9036433" lon="7.9536717"><ele>70.0</ele><time>2026-04-26T06:56:08.047Z</time></trkpt><trkpt lat="43.9037567" lon="7.9536617"><ele>70.0</ele><time>2026-04-26T06:56:10.047Z</time></trkpt><trkpt lat="43.9038617" lon="7.9536467"><ele>70.0</ele><time>2026-04-26T06:56:12.048Z</time></trkpt><trkpt lat="43.903965" lon="7.95363"><ele>70.0</ele><time>2026-04-26T06:56:14.047Z</time></trkpt><trkpt lat="43.9040717" lon="7.9535917"><ele>70.0</ele><time>2026-04-26T06:56:16.047Z</time></trkpt><trkpt lat="43.90418" lon="7.9535183"><ele>70.0</ele><time>2026-04-26T06:56:18.047Z</time></trkpt><trkpt lat="43.90428" lon="7.9534567"><ele>70.0</ele><time>2026-04-26T06:56:20.047Z</time></trkpt><trkpt lat="43.9043767" lon="7.9533767"><ele>71.2</ele><time>2026-04-26T06:56:22.047Z</time></trkpt><trkpt lat="43.9044583" lon="7.9533083"><ele>72.4</ele><time>2026-04-26T06:56:24.048Z</time></trkpt><trkpt lat="43.904525" lon="7.9532233"><ele>73.6</ele><time>2026-04-26T06:56:26.047Z</time></trkpt><trkpt lat="43.9045833" lon="7.9531133"><ele>74.8</ele><time>2026-04-26T06:56:28.047Z</time></trkpt><trkpt lat="43.9046383" lon="7.9530183"><ele>76.0</ele><time>2026-04-26T06:56:30.047Z</time></trkpt><trkpt lat="43.904695" lon="7.952895"><ele>76.0</ele><time>2026-04-26T06:56:32.047Z</time></trkpt><trkpt lat="43.904755" lon="7.95278"><ele>76.0</ele><time>2026-04-26T06:56:34.047Z</time></trkpt><trkpt lat="43.90481" lon="7.9526767"><ele>76.0</ele><time>2026-04-26T06:56:36.047Z</time></trkpt><trkpt lat="43.9048567" lon="7.95257"><ele>76.0</ele><time>2026-04-26T06:56:38.047Z</time></trkpt><trkpt lat="43.9049183" lon="7.9524667"><ele>76.0</ele><time>2026-04-26T06:56:40.047Z</time></trkpt><trkpt lat="43.90498" lon="7.9523633"><ele>76.83333333333333</ele><time>2026-04-26T06:56:42.047Z</time></trkpt><trkpt lat="43.90505" lon="7.9522667"><ele>77.66666666666666</ele><time>2026-04-26T06:56:44.047Z</time></trkpt><trkpt lat="43.905115" lon="7.95218"><ele>78.5</ele><time>2026-04-26T06:56:46.047Z</time></trkpt><trkpt lat="43.905185" lon="7.9521067"><ele>79.33333333333333</ele><time>2026-04-26T06:56:48.047Z</time></trkpt><trkpt lat="43.9052483" lon="7.9520517"><ele>80.16666666666667</ele><time>2026-04-26T06:56:50.047Z</time></trkpt><trkpt lat="43.9053217" lon="7.9519733"><ele>81.0</ele><time>2026-04-26T06:56:52.047Z</time></trkpt><trkpt lat="43.9053917" lon="7.9518917"><ele>81.0</ele><time>2026-04-26T06:56:54.047Z</time></trkpt><trkpt lat="43.9054467" lon="7.9518283"><ele>81.0</ele><time>2026-04-26T06:56:56.047Z</time></trkpt><trkpt lat="43.90549" lon="7.9517333"><ele>81.0</ele><time>2026-04-26T06:56:59.047Z</time></trkpt><trkpt lat="43.905535" lon="7.9516583"><ele>81.0</ele><time>2026-04-26T06:57:02.047Z</time></trkpt><trkpt lat="43.9054617" lon="7.951645"><ele>81.0</ele><time>2026-04-26T06:57:52.047Z</time></trkpt><trkpt lat="43.9053933" lon="7.9516667"><ele>81.0</ele><time>2026-04-26T06:57:56.047Z</time></trkpt><trkpt lat="43.9053283" lon="7.951685"><ele>81.0</ele><time>2026-04-26T06:58:00.047Z</time></trkpt><trkpt lat="43.9052517" lon="7.9517083"><ele>81.0</ele><time>2026-04-26T06:58:06.047Z</time></trkpt><trkpt lat="43.9051767" lon="7.951735"><ele>81.0</ele><time>2026-04-26T06:58:10.047Z</time></trkpt><trkpt lat="43.9050933" lon="7.95176"><ele>81.0</ele><time>2026-04-26T06:58:15.047Z</time></trkpt><trkpt lat="43.9050217" lon="7.951795"><ele>81.0</ele><time>2026-04-26T06:58:19.047Z</time></trkpt><trkpt lat="43.904955" lon="7.9518167"><ele>81.0</ele><time>2026-04-26T06:58:23.047Z</time></trkpt><trkpt lat="43.9048767" lon="7.9518367"><ele>81.0</ele><time>2026-04-26T06:58:28.048Z</time></trkpt><trkpt lat="43.9048517" lon="7.95192"><ele>81.0</ele><time>2026-04-26T06:58:40.047Z</time></trkpt><trkpt lat="43.9049133" lon="7.9518717"><ele>81.0</ele><time>2026-04-26T06:58:44.047Z</time></trkpt><trkpt lat="43.90498" lon="7.9518433"><ele>81.0</ele><time>2026-04-26T06:58:49.047Z</time></trkpt><trkpt lat="43.90505" lon="7.951825"><ele>81.0</ele><time>2026-04-26T06:58:54.047Z</time></trkpt><trkpt lat="43.9051217" lon="7.951805"><ele>81.0</ele><time>2026-04-26T06:58:58.047Z</time></trkpt><trkpt lat="43.9051917" lon="7.951815"><ele>81.0</ele><time>2026-04-26T06:59:03.047Z</time></trkpt><trkpt lat="43.9051183" lon="7.9517967"><ele>81.0</ele><time>2026-04-26T06:59:16.047Z</time></trkpt><trkpt lat="43.9050517" lon="7.9518117"><ele>81.85714285714286</ele><time>2026-04-26T06:59:19.047Z</time></trkpt><trkpt lat="43.9049767" lon="7.9518183"><ele>82.71428571428571</ele><time>2026-04-26T06:59:23.047Z</time></trkpt><trkpt lat="43.904915" lon="7.951845"><ele>83.57142857142857</ele><time>2026-04-26T06:59:26.047Z</time></trkpt><trkpt lat="43.9048433" lon="7.9518817"><ele>84.42857142857143</ele><time>2026-04-26T06:59:30.047Z</time></trkpt><trkpt lat="43.9047867" lon="7.9519333"><ele>85.28571428571429</ele><time>2026-04-26T06:59:33.047Z</time></trkpt><trkpt lat="43.9047333" lon="7.952015"><ele>86.14285714285714</ele><time>2026-04-26T06:59:36.047Z</time></trkpt><trkpt lat="43.9046917" lon="7.9521133"><ele>87.0</ele><time>2026-04-26T06:59:39.047Z</time></trkpt><trkpt lat="43.90464" lon="7.9522083"><ele>87.0</ele><time>2026-04-26T06:59:43.047Z</time></trkpt><trkpt lat="43.9045867" lon="7.9522967"><ele>87.0</ele><time>2026-04-26T06:59:47.047Z</time></trkpt><trkpt lat="43.9045517" lon="7.952375"><ele>87.0</ele><time>2026-04-26T06:59:50.047Z</time></trkpt><trkpt lat="43.9045" lon="7.9524433"><ele>87.0</ele><time>2026-04-26T06:59:53.047Z</time></trkpt><trkpt lat="43.9044533" lon="7.95254"><ele>87.0</ele><time>2026-04-26T06:59:56.048Z</time></trkpt><trkpt lat="43.9044067" lon="7.9526017"><ele>87.0</ele><time>2026-04-26T06:59:58.047Z</time></trkpt><trkpt lat="43.904335" lon="7.9526817"><ele>86.5</ele><time>2026-04-26T07:00:01.048Z</time></trkpt><trkpt lat="43.9042783" lon="7.9527267"><ele>86.0</ele><time>2026-04-26T07:00:03.047Z</time></trkpt><trkpt lat="43.9042017" lon="7.9527883"><ele>85.5</ele><time>2026-04-26T07:00:06.047Z</time></trkpt><trkpt lat="43.9041333" lon="7.9528283"><ele>85.0</ele><time>2026-04-26T07:00:09.047Z</time></trkpt><trkpt lat="43.9041" lon="7.95274"><ele>84.5</ele><time>2026-04-26T07:00:12.047Z</time></trkpt><trkpt lat="43.9041583" lon="7.952655"><ele>84.0</ele><time>2026-04-26T07:00:15.047Z</time></trkpt><trkpt lat="43.90421" lon="7.9525967"><ele>84.5</ele><time>2026-04-26T07:00:17.047Z</time></trkpt><trkpt lat="43.9042633" lon="7.9525183"><ele>85.0</ele><time>2026-04-26T07:00:20.047Z</time></trkpt><trkpt lat="43.9043183" lon="7.9524433"><ele>85.5</ele><time>2026-04-26T07:00:23.047Z</time></trkpt><trkpt lat="43.9043867" lon="7.9523683"><ele>86.0</ele><time>2026-04-26T07:00:26.048Z</time></trkpt><trkpt lat="43.9044367" lon="7.952265"><ele>86.5</ele><time>2026-04-26T07:00:29.048Z</time></trkpt><trkpt lat="43.9044567" lon="7.9521517"><ele>87.0</ele><time>2026-04-26T07:00:32.047Z</time></trkpt><trkpt lat="43.9044633" lon="7.95203"><ele>87.0</ele><time>2026-04-26T07:00:35.047Z</time></trkpt><trkpt lat="43.9044667" lon="7.9519017"><ele>87.0</ele><time>2026-04-26T07:00:38.047Z</time></trkpt><trkpt lat="43.90447" lon="7.95178"><ele>87.0</ele><time>2026-04-26T07:00:41.047Z</time></trkpt><trkpt lat="43.9044967" lon="7.95166"><ele>87.0</ele><time>2026-04-26T07:00:44.047Z</time></trkpt><trkpt lat="43.9045267" lon="7.9515467"><ele>87.0</ele><time>2026-04-26T07:00:47.047Z</time></trkpt><trkpt lat="43.9045867" lon="7.951465"><ele>87.0</ele><time>2026-04-26T07:00:50.047Z</time></trkpt><trkpt lat="43.9046733" lon="7.95142"><ele>87.57142857142857</ele><time>2026-04-26T07:00:53.047Z</time></trkpt><trkpt lat="43.9047617" lon="7.9513983"><ele>88.14285714285714</ele><time>2026-04-26T07:00:56.047Z</time></trkpt><trkpt lat="43.90484" lon="7.95138"><ele>88.71428571428572</ele><time>2026-04-26T07:00:59.047Z</time></trkpt><trkpt lat="43.9049017" lon="7.9513617"><ele>89.28571428571428</ele><time>2026-04-26T07:01:01.047Z</time></trkpt><trkpt lat="43.9049817" lon="7.9513417"><ele>89.85714285714286</ele><time>2026-04-26T07:01:04.047Z</time></trkpt><trkpt lat="43.9050433" lon="7.9513167"><ele>90.42857142857143</ele><time>2026-04-26T07:01:06.047Z</time></trkpt><trkpt lat="43.9051017" lon="7.95128"><ele>91.0</ele><time>2026-04-26T07:01:08.047Z</time></trkpt><trkpt lat="43.90517" lon="7.95123"><ele>91.0</ele><time>2026-04-26T07:01:11.047Z</time></trkpt><trkpt lat="43.9052317" lon="7.9511683"><ele>91.0</ele><time>2026-04-26T07:01:14.048Z</time></trkpt><trkpt lat="43.9053033" lon="7.9511233"><ele>91.0</ele><time>2026-04-26T07:01:17.047Z</time></trkpt><trkpt lat="43.9053833" lon="7.9511"><ele>91.0</ele><time>2026-04-26T07:01:20.047Z</time></trkpt><trkpt lat="43.9054617" lon="7.95107"><ele>91.0</ele><time>2026-04-26T07:01:23.047Z</time></trkpt><trkpt lat="43.9055433" lon="7.9510533"><ele>91.0</ele><time>2026-04-26T07:01:29.047Z</time></trkpt><trkpt lat="43.9056333" lon="7.9510583"><ele>91.0</ele><time>2026-04-26T07:01:36.047Z</time></trkpt><trkpt lat="43.9057217" lon="7.9510517"><ele>91.0</ele><time>2026-04-26T07:01:37.047Z</time></trkpt><trkpt lat="43.9058317" lon="7.9510867"><ele>91.0</ele><time>2026-04-26T07:01:38.047Z</time></trkpt><trkpt lat="43.90593" lon="7.951095"><ele>91.0</ele><time>2026-04-26T07:01:39.047Z</time></trkpt><trkpt lat="43.9060317" lon="7.9510967"><ele>91.0</ele><time>2026-04-26T07:01:40.048Z</time></trkpt><trkpt lat="43.90611" lon="7.9510883"><ele>90.85714285714286</ele><time>2026-04-26T07:01:41.047Z</time></trkpt><trkpt lat="43.90618" lon="7.9510767"><ele>90.71428571428572</ele><time>2026-04-26T07:01:42.048Z</time></trkpt><trkpt lat="43.906255" lon="7.95104"><ele>90.57142857142857</ele><time>2026-04-26T07:01:43.047Z</time></trkpt><trkpt lat="43.9063183" lon="7.9509983"><ele>90.42857142857143</ele><time>2026-04-26T07:01:44.047Z</time></trkpt><trkpt lat="43.9063867" lon="7.9509617"><ele>90.28571428571429</ele><time>2026-04-26T07:01:45.048Z</time></trkpt><trkpt lat="43.9064483" lon="7.950985"><ele>90.14285714285714</ele><time>2026-04-26T07:01:47.048Z</time></trkpt><trkpt lat="43.9064617" lon="7.95109"><ele>90.0</ele><time>2026-04-26T07:01:49.047Z</time></trkpt><trkpt lat="43.9065283" lon="7.9511767"><ele>90.0</ele><time>2026-04-26T07:01:51.047Z</time></trkpt><trkpt lat="43.906615" lon="7.9512083"><ele>90.0</ele><time>2026-04-26T07:01:54.048Z</time></trkpt><trkpt lat="43.9066817" lon="7.9512033"><ele>90.0</ele><time>2026-04-26T07:01:57.047Z</time></trkpt><trkpt lat="43.90674" lon="7.9511567"><ele>90.0</ele><time>2026-04-26T07:01:58.047Z</time></trkpt><trkpt lat="43.9068067" lon="7.9510883"><ele>90.0</ele><time>2026-04-26T07:02:00.047Z</time></trkpt><trkpt lat="43.9068967" lon="7.951005"><ele>90.0</ele><time>2026-04-26T07:02:02.047Z</time></trkpt><trkpt lat="43.9069433" lon="7.9509383"><ele>89.0</ele><time>2026-04-26T07:02:04.047Z</time></trkpt><trkpt lat="43.90694" lon="7.9507883"><ele>88.0</ele><time>2026-04-26T07:02:07.048Z</time></trkpt><trkpt lat="43.90693" lon="7.9506367"><ele>87.0</ele><time>2026-04-26T07:02:09.048Z</time></trkpt><trkpt lat="43.9069617" lon="7.95048"><ele>86.0</ele><time>2026-04-26T07:02:11.047Z</time></trkpt><trkpt lat="43.9071267" lon="7.9501483"><ele>86.0</ele><time>2026-04-26T07:02:12.047Z</time></trkpt><trkpt lat="43.9071233" lon="7.9500017"><ele>86.0</ele><time>2026-04-26T07:02:14.047Z</time></trkpt><trkpt lat="43.907125" lon="7.9498683"><ele>86.0</ele><time>2026-04-26T07:02:16.047Z</time></trkpt><trkpt lat="43.90713" lon="7.949745"><ele>86.0</ele><time>2026-04-26T07:02:18.047Z</time></trkpt><trkpt lat="43.9071517" lon="7.949625"><ele>86.0</ele><time>2026-04-26T07:02:20.048Z</time></trkpt><trkpt lat="43.9071283" lon="7.9494717"><ele>86.0</ele><time>2026-04-26T07:02:22.047Z</time></trkpt><trkpt lat="43.907145" lon="7.949335"><ele>86.0</ele><time>2026-04-26T07:02:24.047Z</time></trkpt><trkpt lat="43.9071633" lon="7.9492117"><ele>86.0</ele><time>2026-04-26T07:02:26.047Z</time></trkpt><trkpt lat="43.90718" lon="7.9490983"><ele>86.0</ele><time>2026-04-26T07:02:28.048Z</time></trkpt><trkpt lat="43.9072083" lon="7.9489717"><ele>86.0</ele><time>2026-04-26T07:02:31.047Z</time></trkpt><trkpt lat="43.9072333" lon="7.9488667"><ele>86.0</ele><time>2026-04-26T07:02:33.047Z</time></trkpt><trkpt lat="43.90726" lon="7.9487617"><ele>87.0</ele><time>2026-04-26T07:02:35.047Z</time></trkpt><trkpt lat="43.9072733" lon="7.9486517"><ele>88.0</ele><time>2026-04-26T07:02:37.047Z</time></trkpt><trkpt lat="43.9072783" lon="7.9485317"><ele>89.0</ele><time>2026-04-26T07:02:39.047Z</time></trkpt><trkpt lat="43.9072633" lon="7.9484183"><ele>90.0</ele><time>2026-04-26T07:02:41.047Z</time></trkpt><trkpt lat="43.9072483" lon="7.9483033"><ele>91.0</ele><time>2026-04-26T07:02:43.047Z</time></trkpt><trkpt lat="43.9072117" lon="7.9482083"><ele>92.0</ele><time>2026-04-26T07:02:45.047Z</time></trkpt><trkpt lat="43.90718" lon="7.948115"><ele>93.0</ele><time>2026-04-26T07:02:47.047Z</time></trkpt><trkpt lat="43.90715" lon="7.9480217"><ele>94.0</ele><time>2026-04-26T07:02:49.047Z</time></trkpt><trkpt lat="43.90712" lon="7.947925"><ele>95.0</ele><time>2026-04-26T07:02:51.047Z</time></trkpt><trkpt lat="43.90711" lon="7.9478233"><ele>96.0</ele><time>2026-04-26T07:02:53.047Z</time></trkpt><trkpt lat="43.9070983" lon="7.9477167"><ele>96.99999999999999</ele><time>2026-04-26T07:02:55.047Z</time></trkpt><trkpt lat="43.9070967" lon="7.94761"><ele>98.0</ele><time>2026-04-26T07:02:57.047Z</time></trkpt><trkpt lat="43.907095" lon="7.9475083"><ele>98.49999999999999</ele><time>2026-04-26T07:02:59.047Z</time></trkpt><trkpt lat="43.9070983" lon="7.9473933"><ele>99.0</ele><time>2026-04-26T07:03:01.047Z</time></trkpt><trkpt lat="43.9070683" lon="7.9472733"><ele>99.5</ele><time>2026-04-26T07:03:04.047Z</time></trkpt><trkpt lat="43.9070367" lon="7.9471717"><ele>100.0</ele><time>2026-04-26T07:03:08.047Z</time></trkpt><trkpt lat="43.9070083" lon="7.947065"><ele>100.49999999999999</ele><time>2026-04-26T07:03:12.047Z</time></trkpt><trkpt lat="43.9070133" lon="7.94695"><ele>101.0</ele><time>2026-04-26T07:03:15.047Z</time></trkpt><trkpt lat="43.9070333" lon="7.9468217"><ele>100.99999999999999</ele><time>2026-04-26T07:03:18.047Z</time></trkpt><trkpt lat="43.9070467" lon="7.94673"><ele>101.0</ele><time>2026-04-26T07:03:20.047Z</time></trkpt><trkpt lat="43.9070583" lon="7.9466433"><ele>101.0</ele><time>2026-04-26T07:03:22.047Z</time></trkpt><trkpt lat="43.9070967" lon="7.9465317"><ele>101.0</ele><time>2026-04-26T07:03:25.047Z</time></trkpt><trkpt lat="43.9071283" lon="7.9464083"><ele>100.99999999999999</ele><time>2026-04-26T07:03:28.047Z</time></trkpt><trkpt lat="43.9071483" lon="7.9463183"><ele>101.0</ele><time>2026-04-26T07:03:30.047Z</time></trkpt><trkpt lat="43.9071667" lon="7.9462233"><ele>101.66666666666666</ele><time>2026-04-26T07:03:32.047Z</time></trkpt><trkpt lat="43.90718" lon="7.9461367"><ele>102.33333333333333</ele><time>2026-04-26T07:03:34.047Z</time></trkpt><trkpt lat="43.9071983" lon="7.9460133"><ele>103.0</ele><time>2026-04-26T07:03:37.047Z</time></trkpt><trkpt lat="43.9072333" lon="7.9458967"><ele>103.66666666666666</ele><time>2026-04-26T07:03:40.047Z</time></trkpt><trkpt lat="43.9072817" lon="7.9458033"><ele>104.33333333333333</ele><time>2026-04-26T07:03:43.047Z</time></trkpt><trkpt lat="43.9073567" lon="7.9457483"><ele>105.0</ele><time>2026-04-26T07:03:47.047Z</time></trkpt><trkpt lat="43.9074217" lon="7.9457133"><ele>105.42857142857143</ele><time>2026-04-26T07:03:50.047Z</time></trkpt><trkpt lat="43.907475" lon="7.94564"><ele>105.85714285714286</ele><time>2026-04-26T07:03:53.047Z</time></trkpt><trkpt lat="43.9075233" lon="7.9455567"><ele>106.28571428571428</ele><time>2026-04-26T07:03:56.047Z</time></trkpt><trkpt lat="43.9075383" lon="7.9454667"><ele>106.71428571428572</ele><time>2026-04-26T07:03:59.047Z</time></trkpt><trkpt lat="43.9074817" lon="7.9453867"><ele>107.14285714285714</ele><time>2026-04-26T07:04:04.047Z</time></trkpt><trkpt lat="43.9074267" lon="7.9453183"><ele>107.57142857142857</ele><time>2026-04-26T07:04:08.047Z</time></trkpt><trkpt lat="43.907435" lon="7.9452167"><ele>108.0</ele><time>2026-04-26T07:04:12.047Z</time></trkpt><trkpt lat="43.907425" lon="7.9451283"><ele>109.42857142857143</ele><time>2026-04-26T07:04:15.047Z</time></trkpt><trkpt lat="43.9073983" lon="7.9450367"><ele>110.85714285714286</ele><time>2026-04-26T07:04:18.047Z</time></trkpt><trkpt lat="43.9073767" lon="7.9449467"><ele>112.28571428571428</ele><time>2026-04-26T07:04:21.047Z</time></trkpt><trkpt lat="43.9073367" lon="7.9448483"><ele>113.71428571428572</ele><time>2026-04-26T07:04:25.047Z</time></trkpt><trkpt lat="43.90731" lon="7.9447467"><ele>115.14285714285715</ele><time>2026-04-26T07:04:29.047Z</time></trkpt><trkpt lat="43.9073083" lon="7.9446467"><ele>116.57142857142857</ele><time>2026-04-26T07:04:32.048Z</time></trkpt><trkpt lat="43.9073333" lon="7.9445533"><ele>118.0</ele><time>2026-04-26T07:04:35.047Z</time></trkpt><trkpt lat="43.9073667" lon="7.9444667"><ele>118.0</ele><time>2026-04-26T07:04:38.048Z</time></trkpt><trkpt lat="43.9073967" lon="7.9443683"><ele>118.0</ele><time>2026-04-26T07:04:41.048Z</time></trkpt><trkpt lat="43.90743" lon="7.9442733"><ele>118.0</ele><time>2026-04-26T07:04:44.047Z</time></trkpt><trkpt lat="43.9074567" lon="7.9441833"><ele>118.0</ele><time>2026-04-26T07:04:47.047Z</time></trkpt><trkpt lat="43.907495" lon="7.9441017"><ele>118.0</ele><time>2026-04-26T07:04:50.047Z</time></trkpt><trkpt lat="43.9075317" lon="7.94402"><ele>118.0</ele><time>2026-04-26T07:04:53.047Z</time></trkpt><trkpt lat="43.90757" lon="7.9439433"><ele>118.0</ele><time>2026-04-26T07:04:56.047Z</time></trkpt><trkpt lat="43.9076117" lon="7.9438683"><ele>119.0</ele><time>2026-04-26T07:04:59.047Z</time></trkpt><trkpt lat="43.9076583" lon="7.94379"><ele>120.0</ele><time>2026-04-26T07:05:02.048Z</time></trkpt><trkpt lat="43.90769" lon="7.9437133"><ele>121.0</ele><time>2026-04-26T07:05:05.047Z</time></trkpt><trkpt lat="43.90773" lon="7.94363"><ele>122.0</ele><time>2026-04-26T07:05:08.047Z</time></trkpt><trkpt lat="43.9077817" lon="7.9435667"><ele>123.0</ele><time>2026-04-26T07:05:11.047Z</time></trkpt><trkpt lat="43.9078217" lon="7.9434883"><ele>124.0</ele><time>2026-04-26T07:05:14.048Z</time></trkpt><trkpt lat="43.9078667" lon="7.9433983"><ele>125.0</ele><time>2026-04-26T07:05:17.047Z</time></trkpt><trkpt lat="43.907915" lon="7.9433233"><ele>128.16666666666666</ele><time>2026-04-26T07:05:20.047Z</time></trkpt><trkpt lat="43.907945" lon="7.943245"><ele>131.33333333333331</ele><time>2026-04-26T07:05:23.047Z</time></trkpt><trkpt lat="43.9079867" lon="7.9431633"><ele>134.5</ele><time>2026-04-26T07:05:26.047Z</time></trkpt><trkpt lat="43.9080383" lon="7.9431017"><ele>137.66666666666666</ele><time>2026-04-26T07:05:29.047Z</time></trkpt><trkpt lat="43.9080967" lon="7.94303"><ele>140.83333333333334</ele><time>2026-04-26T07:05:32.047Z</time></trkpt><trkpt lat="43.9081683" lon="7.942965"><ele>144.0</ele><time>2026-04-26T07:05:35.047Z</time></trkpt><trkpt lat="43.9082367" lon="7.9428833"><ele>144.0</ele><time>2026-04-26T07:05:38.047Z</time></trkpt><trkpt lat="43.9083083" lon="7.9428267"><ele>144.0</ele><time>2026-04-26T07:05:41.047Z</time></trkpt><trkpt lat="43.90839" lon="7.9428017"><ele>144.0</ele><time>2026-04-26T07:05:44.047Z</time></trkpt><trkpt lat="43.9084683" lon="7.94277"><ele>144.0</ele><time>2026-04-26T07:05:47.047Z</time></trkpt><trkpt lat="43.9085417" lon="7.9427133"><ele>144.0</ele><time>2026-04-26T07:05:50.047Z</time></trkpt><trkpt lat="43.9085883" lon="7.9426467"><ele>144.0</ele><time>2026-04-26T07:05:52.047Z</time></trkpt><trkpt lat="43.9086167" lon="7.9425667"><ele>144.0</ele><time>2026-04-26T07:05:54.047Z</time></trkpt><trkpt lat="43.9086383" lon="7.9424467"><ele>144.0</ele><time>2026-04-26T07:05:57.048Z</time></trkpt><trkpt lat="43.9086717" lon="7.9423367"><ele>144.0</ele><time>2026-04-26T07:06:00.047Z</time></trkpt><trkpt lat="43.9086917" lon="7.9422467"><ele>144.0</ele><time>2026-04-26T07:06:02.047Z</time></trkpt><trkpt lat="43.9087383" lon="7.94214"><ele>144.0</ele><time>2026-04-26T07:06:05.047Z</time></trkpt><trkpt lat="43.9088033" lon="7.9420783"><ele>144.0</ele><time>2026-04-26T07:06:08.047Z</time></trkpt><trkpt lat="43.90888" lon="7.9420883"><ele>144.0</ele><time>2026-04-26T07:06:11.047Z</time></trkpt><trkpt lat="43.90896" lon="7.94209"><ele>144.0</ele><time>2026-04-26T07:06:14.048Z</time></trkpt><trkpt lat="43.9090433" lon="7.942055"><ele>144.0</ele><time>2026-04-26T07:06:17.047Z</time></trkpt><trkpt lat="43.909105" lon="7.9419967"><ele>144.0</ele><time>2026-04-26T07:06:19.048Z</time></trkpt><trkpt lat="43.9091567" lon="7.941945"><ele>144.0</ele><time>2026-04-26T07:06:21.047Z</time></trkpt><trkpt lat="43.90921" lon="7.9418667"><ele>144.0</ele><time>2026-04-26T07:06:23.047Z</time></trkpt><trkpt lat="43.90927" lon="7.941755"><ele>142.16666666666666</ele><time>2026-04-26T07:06:26.047Z</time></trkpt><trkpt lat="43.909305" lon="7.9416517"><ele>140.33333333333334</ele><time>2026-04-26T07:06:28.047Z</time></trkpt><trkpt lat="43.9093333" lon="7.94155"><ele>138.5</ele><time>2026-04-26T07:06:30.047Z</time></trkpt><trkpt lat="43.9093583" lon="7.9414517"><ele>136.66666666666669</ele><time>2026-04-26T07:06:32.047Z</time></trkpt><trkpt lat="43.909385" lon="7.9413533"><ele>134.83333333333334</ele><time>2026-04-26T07:06:34.047Z</time></trkpt><trkpt lat="43.90941" lon="7.9412567"><ele>133.0</ele><time>2026-04-26T07:06:36.047Z</time></trkpt><trkpt lat="43.9094533" lon="7.9411533"><ele>133.0</ele><time>2026-04-26T07:06:38.047Z</time></trkpt><trkpt lat="43.9094917" lon="7.9410567"><ele>133.0</ele><time>2026-04-26T07:06:40.047Z</time></trkpt><trkpt lat="43.9095317" lon="7.9409483"><ele>133.0</ele><time>2026-04-26T07:06:43.047Z</time></trkpt><trkpt lat="43.9095733" lon="7.9408367"><ele>133.0</ele><time>2026-04-26T07:06:46.048Z</time></trkpt><trkpt lat="43.90962" lon="7.940735"><ele>133.0</ele><time>2026-04-26T07:06:49.047Z</time></trkpt><trkpt lat="43.9096583" lon="7.9406433"><ele>133.0</ele><time>2026-04-26T07:06:53.047Z</time></trkpt><trkpt lat="43.909675" lon="7.9405267"><ele>133.5</ele><time>2026-04-26T07:06:56.048Z</time></trkpt><trkpt lat="43.9097117" lon="7.9404217"><ele>134.0</ele><time>2026-04-26T07:06:59.047Z</time></trkpt><trkpt lat="43.909775" lon="7.9403617"><ele>134.5</ele><time>2026-04-26T07:07:02.047Z</time></trkpt><trkpt lat="43.9098317" lon="7.94031"><ele>135.0</ele><time>2026-04-26T07:07:04.047Z</time></trkpt><trkpt lat="43.909875" lon="7.940235"><ele>135.5</ele><time>2026-04-26T07:07:06.047Z</time></trkpt><trkpt lat="43.9099117" lon="7.9401483"><ele>136.0</ele><time>2026-04-26T07:07:08.047Z</time></trkpt><trkpt lat="43.9099433" lon="7.9400333"><ele>136.14285714285714</ele><time>2026-04-26T07:07:11.047Z</time></trkpt><trkpt lat="43.909975" lon="7.9399467"><ele>136.28571428571428</ele><time>2026-04-26T07:07:15.047Z</time></trkpt><trkpt lat="43.9100067" lon="7.9398633"><ele>136.42857142857144</ele><time>2026-04-26T07:07:19.047Z</time></trkpt><trkpt lat="43.9100483" lon="7.9397967"><ele>136.57142857142856</ele><time>2026-04-26T07:07:24.047Z</time></trkpt><trkpt lat="43.9100983" lon="7.9397117"><ele>136.71428571428572</ele><time>2026-04-26T07:07:27.047Z</time></trkpt><trkpt lat="43.9101533" lon="7.9396417"><ele>136.85714285714286</ele><time>2026-04-26T07:07:29.047Z</time></trkpt><trkpt lat="43.91023" lon="7.9395817"><ele>137.0</ele><time>2026-04-26T07:07:31.047Z</time></trkpt><trkpt lat="43.9103017" lon="7.93952"><ele>137.0</ele><time>2026-04-26T07:07:33.047Z</time></trkpt><trkpt lat="43.9103533" lon="7.9394333"><ele>137.0</ele><time>2026-04-26T07:07:35.047Z</time></trkpt><trkpt lat="43.9103933" lon="7.939345"><ele>137.0</ele><time>2026-04-26T07:07:37.047Z</time></trkpt><trkpt lat="43.9104467" lon="7.939265"><ele>137.0</ele><time>2026-04-26T07:07:39.047Z</time></trkpt><trkpt lat="43.9105067" lon="7.9392167"><ele>137.0</ele><time>2026-04-26T07:07:41.047Z</time></trkpt><trkpt lat="43.9105717" lon="7.9391583"><ele>137.0</ele><time>2026-04-26T07:07:43.047Z</time></trkpt><trkpt lat="43.9106217" lon="7.939085"><ele>137.71428571428572</ele><time>2026-04-26T07:07:45.048Z</time></trkpt><trkpt lat="43.91066" lon="7.9389967"><ele>138.42857142857144</ele><time>2026-04-26T07:07:47.047Z</time></trkpt><trkpt lat="43.91069" lon="7.9389"><ele>139.14285714285714</ele><time>2026-04-26T07:07:49.047Z</time></trkpt><trkpt lat="43.9107217" lon="7.9388133"><ele>139.85714285714286</ele><time>2026-04-26T07:07:51.047Z</time></trkpt><trkpt lat="43.9107417" lon="7.93872"><ele>140.57142857142856</ele><time>2026-04-26T07:07:53.047Z</time></trkpt><trkpt lat="43.9107617" lon="7.9386133"><ele>141.28571428571428</ele><time>2026-04-26T07:07:55.047Z</time></trkpt><trkpt lat="43.910795" lon="7.93852"><ele>142.0</ele><time>2026-04-26T07:07:57.047Z</time></trkpt><trkpt lat="43.9108117" lon="7.9384283"><ele>142.14285714285714</ele><time>2026-04-26T07:07:59.048Z</time></trkpt><trkpt lat="43.9108117" lon="7.9383317"><ele>142.28571428571428</ele><time>2026-04-26T07:08:01.047Z</time></trkpt><trkpt lat="43.9108117" lon="7.9382383"><ele>142.42857142857142</ele><time>2026-04-26T07:08:03.047Z</time></trkpt><trkpt lat="43.9108133" lon="7.9381433"><ele>142.57142857142856</ele><time>2026-04-26T07:08:05.048Z</time></trkpt><trkpt lat="43.9108233" lon="7.9380517"><ele>142.71428571428572</ele><time>2026-04-26T07:08:07.048Z</time></trkpt><trkpt lat="43.9108517" lon="7.9379683"><ele>142.85714285714283</ele><time>2026-04-26T07:08:09.047Z</time></trkpt><trkpt lat="43.9108983" lon="7.9379067"><ele>143.0</ele><time>2026-04-26T07:08:11.047Z</time></trkpt><trkpt lat="43.91095" lon="7.9378417"><ele>142.99999999999997</ele><time>2026-04-26T07:08:13.048Z</time></trkpt><trkpt lat="43.9109933" lon="7.93777"><ele>143.0</ele><time>2026-04-26T07:08:15.047Z</time></trkpt><trkpt lat="43.9110433" lon="7.9377167"><ele>143.0</ele><time>2026-04-26T07:08:17.047Z</time></trkpt><trkpt lat="43.9111167" lon="7.93765"><ele>143.0</ele><time>2026-04-26T07:08:20.048Z</time></trkpt><trkpt lat="43.9111383" lon="7.9375583"><ele>143.0</ele><time>2026-04-26T07:08:22.047Z</time></trkpt><trkpt lat="43.911165" lon="7.9374683"><ele>142.99999999999997</ele><time>2026-04-26T07:08:24.047Z</time></trkpt><trkpt lat="43.9111883" lon="7.9373817"><ele>143.0</ele><time>2026-04-26T07:08:26.047Z</time></trkpt><trkpt lat="43.911215" lon="7.9372983"><ele>144.4</ele><time>2026-04-26T07:08:28.047Z</time></trkpt><trkpt lat="43.9112583" lon="7.93718"><ele>145.8</ele><time>2026-04-26T07:08:31.048Z</time></trkpt><trkpt lat="43.9112917" lon="7.9370583"><ele>147.2</ele><time>2026-04-26T07:08:34.047Z</time></trkpt><trkpt lat="43.9113483" lon="7.936965"><ele>148.6</ele><time>2026-04-26T07:08:37.048Z</time></trkpt><trkpt lat="43.911405" lon="7.93688"><ele>150.0</ele><time>2026-04-26T07:08:40.047Z</time></trkpt><trkpt lat="43.91147" lon="7.93678"><ele>150.83333333333334</ele><time>2026-04-26T07:08:43.047Z</time></trkpt><trkpt lat="43.9115383" lon="7.936705"><ele>151.66666666666666</ele><time>2026-04-26T07:08:46.047Z</time></trkpt><trkpt lat="43.9116117" lon="7.9366683"><ele>152.5</ele><time>2026-04-26T07:08:49.047Z</time></trkpt><trkpt lat="43.9116717" lon="7.9365667"><ele>153.33333333333331</ele><time>2026-04-26T07:08:52.048Z</time></trkpt><trkpt lat="43.9117117" lon="7.9364783"><ele>154.16666666666666</ele><time>2026-04-26T07:08:54.047Z</time></trkpt><trkpt lat="43.911765" lon="7.93638"><ele>155.0</ele><time>2026-04-26T07:08:57.047Z</time></trkpt><trkpt lat="43.9118217" lon="7.9362817"><ele>155.0</ele><time>2026-04-26T07:09:00.047Z</time></trkpt><trkpt lat="43.9118783" lon="7.936195"><ele>155.0</ele><time>2026-04-26T07:09:03.047Z</time></trkpt><trkpt lat="43.9119533" lon="7.9361267"><ele>155.0</ele><time>2026-04-26T07:09:06.047Z</time></trkpt><trkpt lat="43.9120033" lon="7.9360717"><ele>155.0</ele><time>2026-04-26T07:09:08.047Z</time></trkpt><trkpt lat="43.91206" lon="7.935965"><ele>155.0</ele><time>2026-04-26T07:09:11.047Z</time></trkpt><trkpt lat="43.9120817" lon="7.935865"><ele>155.0</ele><time>2026-04-26T07:09:13.047Z</time></trkpt><trkpt lat="43.9120967" lon="7.93577"><ele>156.0</ele><time>2026-04-26T07:09:15.047Z</time></trkpt><trkpt lat="43.91211" lon="7.935675"><ele>157.0</ele><time>2026-04-26T07:09:17.047Z</time></trkpt><trkpt lat="43.9121217" lon="7.9355817"><ele>158.0</ele><time>2026-04-26T07:09:19.047Z</time></trkpt><trkpt lat="43.91214" lon="7.9354967"><ele>159.0</ele><time>2026-04-26T07:09:21.047Z</time></trkpt><trkpt lat="43.912165" lon="7.9354133"><ele>160.0</ele><time>2026-04-26T07:09:23.047Z</time></trkpt><trkpt lat="43.912185" lon="7.935325"><ele>161.0</ele><time>2026-04-26T07:09:25.047Z</time></trkpt><trkpt lat="43.912205" lon="7.9352383"><ele>162.0</ele><time>2026-04-26T07:09:27.047Z</time></trkpt><trkpt lat="43.91222" lon="7.9351467"><ele>163.0</ele><time>2026-04-26T07:09:29.047Z</time></trkpt><trkpt lat="43.9122417" lon="7.9350267"><ele>164.0</ele><time>2026-04-26T07:09:32.047Z</time></trkpt><trkpt lat="43.91226" lon="7.9349083"><ele>165.0</ele><time>2026-04-26T07:09:35.048Z</time></trkpt><trkpt lat="43.9122833" lon="7.9347917"><ele>166.0</ele><time>2026-04-26T07:09:38.047Z</time></trkpt><trkpt lat="43.9123117" lon="7.93468"><ele>167.0</ele><time>2026-04-26T07:09:41.048Z</time></trkpt><trkpt lat="43.9123417" lon="7.9345633"><ele>168.0</ele><time>2026-04-26T07:09:44.048Z</time></trkpt><trkpt lat="43.9123533" lon="7.9344367"><ele>168.0</ele><time>2026-04-26T07:09:47.047Z</time></trkpt><trkpt lat="43.9123533" lon="7.9343067"><ele>168.0</ele><time>2026-04-26T07:09:50.047Z</time></trkpt><trkpt lat="43.9123467" lon="7.9341817"><ele>168.0</ele><time>2026-04-26T07:09:53.047Z</time></trkpt><trkpt lat="43.9123583" lon="7.93407"><ele>168.0</ele><time>2026-04-26T07:09:56.047Z</time></trkpt><trkpt lat="43.9124233" lon="7.934"><ele>168.0</ele><time>2026-04-26T07:10:00.047Z</time></trkpt><trkpt lat="43.9124867" lon="7.9339667"><ele>168.0</ele><time>2026-04-26T07:10:03.047Z</time></trkpt><trkpt lat="43.912535" lon="7.9338833"><ele>167.66666666666666</ele><time>2026-04-26T07:10:06.047Z</time></trkpt><trkpt lat="43.9125733" lon="7.9337783"><ele>167.33333333333334</ele><time>2026-04-26T07:10:09.047Z</time></trkpt><trkpt lat="43.9126017" lon="7.9336767"><ele>167.0</ele><time>2026-04-26T07:10:12.048Z</time></trkpt><trkpt lat="43.912615" lon="7.9335833"><ele>166.66666666666669</ele><time>2026-04-26T07:10:15.047Z</time></trkpt><trkpt lat="43.9126233" lon="7.9334717"><ele>166.33333333333334</ele><time>2026-04-26T07:10:19.047Z</time></trkpt><trkpt lat="43.9126083" lon="7.9333767"><ele>166.0</ele><time>2026-04-26T07:10:22.048Z</time></trkpt><trkpt lat="43.912585" lon="7.93328"><ele>166.0</ele><time>2026-04-26T07:10:25.047Z</time></trkpt><trkpt lat="43.912575" lon="7.9331833"><ele>166.0</ele><time>2026-04-26T07:10:28.047Z</time></trkpt><trkpt lat="43.9125567" lon="7.9330917"><ele>166.0</ele><time>2026-04-26T07:10:31.047Z</time></trkpt><trkpt lat="43.9125633" lon="7.9329933"><ele>166.0</ele><time>2026-04-26T07:10:34.048Z</time></trkpt><trkpt lat="43.9125917" lon="7.93289"><ele>166.0</ele><time>2026-04-26T07:10:38.048Z</time></trkpt><trkpt lat="43.9126317" lon="7.9328"><ele>166.0</ele><time>2026-04-26T07:10:41.048Z</time></trkpt><trkpt lat="43.9126767" lon="7.9327017"><ele>166.0</ele><time>2026-04-26T07:10:44.047Z</time></trkpt><trkpt lat="43.9127067" lon="7.932605"><ele>166.0</ele><time>2026-04-26T07:10:47.047Z</time></trkpt><trkpt lat="43.9127367" lon="7.932515"><ele>166.0</ele><time>2026-04-26T07:10:50.047Z</time></trkpt><trkpt lat="43.912765" lon="7.932425"><ele>166.0</ele><time>2026-04-26T07:10:53.047Z</time></trkpt><trkpt lat="43.91279" lon="7.9323367"><ele>166.0</ele><time>2026-04-26T07:10:56.047Z</time></trkpt><trkpt lat="43.91281" lon="7.9322433"><ele>166.0</ele><time>2026-04-26T07:10:59.047Z</time></trkpt><trkpt lat="43.912835" lon="7.9321533"><ele>166.0</ele><time>2026-04-26T07:11:02.047Z</time></trkpt><trkpt lat="43.912865" lon="7.9320583"><ele>168.0</ele><time>2026-04-26T07:11:05.048Z</time></trkpt><trkpt lat="43.9128933" lon="7.931975"><ele>170.0</ele><time>2026-04-26T07:11:08.047Z</time></trkpt><trkpt lat="43.9129017" lon="7.9318883"><ele>172.0</ele><time>2026-04-26T07:11:11.047Z</time></trkpt><trkpt lat="43.9129133" lon="7.931795"><ele>174.0</ele><time>2026-04-26T07:11:14.047Z</time></trkpt><trkpt lat="43.9129217" lon="7.9316967"><ele>176.0</ele><time>2026-04-26T07:11:17.047Z</time></trkpt><trkpt lat="43.9129183" lon="7.9316033"><ele>178.0</ele><time>2026-04-26T07:11:20.047Z</time></trkpt><trkpt lat="43.91292" lon="7.93151"><ele>180.0</ele><time>2026-04-26T07:11:23.047Z</time></trkpt><trkpt lat="43.912915" lon="7.9314117"><ele>181.85714285714286</ele><time>2026-04-26T07:11:26.047Z</time></trkpt><trkpt lat="43.9128867" lon="7.9313167"><ele>183.71428571428572</ele><time>2026-04-26T07:11:31.047Z</time></trkpt><trkpt lat="43.912835" lon="7.9312433"><ele>185.57142857142858</ele><time>2026-04-26T07:11:35.047Z</time></trkpt><trkpt lat="43.91277" lon="7.9312083"><ele>187.42857142857144</ele><time>2026-04-26T07:11:38.047Z</time></trkpt><trkpt lat="43.9127133" lon="7.9311567"><ele>189.28571428571428</ele><time>2026-04-26T07:11:41.047Z</time></trkpt><trkpt lat="43.9126483" lon="7.931085"><ele>191.14285714285717</ele><time>2026-04-26T07:11:44.047Z</time></trkpt><trkpt lat="43.9125967" lon="7.9310233"><ele>193.0</ele><time>2026-04-26T07:11:47.047Z</time></trkpt><trkpt lat="43.912535" lon="7.9309683"><ele>195.85714285714286</ele><time>2026-04-26T07:11:50.047Z</time></trkpt><trkpt lat="43.91248" lon="7.9308967"><ele>198.71428571428572</ele><time>2026-04-26T07:11:53.047Z</time></trkpt><trkpt lat="43.9124467" lon="7.930795"><ele>201.57142857142856</ele><time>2026-04-26T07:11:57.047Z</time></trkpt><trkpt lat="43.912435" lon="7.9307"><ele>204.42857142857144</ele><time>2026-04-26T07:12:01.047Z</time></trkpt><trkpt lat="43.9125017" lon="7.9307017"><ele>207.28571428571428</ele><time>2026-04-26T07:12:09.048Z</time></trkpt><trkpt lat="43.9125583" lon="7.9307633"><ele>210.14285714285714</ele><time>2026-04-26T07:12:12.047Z</time></trkpt><trkpt lat="43.91263" lon="7.9307917"><ele>213.0</ele><time>2026-04-26T07:12:15.047Z</time></trkpt><trkpt lat="43.9126933" lon="7.9307833"><ele>213.0</ele><time>2026-04-26T07:12:19.047Z</time></trkpt><trkpt lat="43.9127367" lon="7.9307133"><ele>213.0</ele><time>2026-04-26T07:12:22.047Z</time></trkpt><trkpt lat="43.9128133" lon="7.930695"><ele>213.0</ele><time>2026-04-26T07:12:26.047Z</time></trkpt><trkpt lat="43.9128967" lon="7.93067"><ele>213.0</ele><time>2026-04-26T07:12:30.047Z</time></trkpt><trkpt lat="43.91296" lon="7.930615"><ele>213.0</ele><time>2026-04-26T07:12:33.047Z</time></trkpt><trkpt lat="43.9130317" lon="7.9305567"><ele>213.0</ele><time>2026-04-26T07:12:36.047Z</time></trkpt><trkpt lat="43.9130917" lon="7.9304933"><ele>213.0</ele><time>2026-04-26T07:12:39.047Z</time></trkpt><trkpt lat="43.9131467" lon="7.930415"><ele>213.0</ele><time>2026-04-26T07:12:42.047Z</time></trkpt><trkpt lat="43.9131867" lon="7.93032"><ele>213.0</ele><time>2026-04-26T07:12:45.047Z</time></trkpt><trkpt lat="43.9132317" lon="7.93025"><ele>213.0</ele><time>2026-04-26T07:12:48.047Z</time></trkpt><trkpt lat="43.9132717" lon="7.9301367"><ele>213.0</ele><time>2026-04-26T07:12:51.047Z</time></trkpt><trkpt lat="43.9133067" lon="7.9300417"><ele>213.0</ele><time>2026-04-26T07:12:54.047Z</time></trkpt><trkpt lat="43.913335" lon="7.9299567"><ele>212.14285714285714</ele><time>2026-04-26T07:12:57.047Z</time></trkpt><trkpt lat="43.9133633" lon="7.9298667"><ele>211.28571428571428</ele><time>2026-04-26T07:13:00.047Z</time></trkpt><trkpt lat="43.9134" lon="7.9297833"><ele>210.42857142857144</ele><time>2026-04-26T07:13:03.047Z</time></trkpt><trkpt lat="43.9134383" lon="7.9297083"><ele>209.57142857142856</ele><time>2026-04-26T07:13:06.047Z</time></trkpt><trkpt lat="43.913485" lon="7.9296267"><ele>208.71428571428572</ele><time>2026-04-26T07:13:09.047Z</time></trkpt><trkpt lat="43.9135217" lon="7.9295417"><ele>207.85714285714286</ele><time>2026-04-26T07:13:12.047Z</time></trkpt><trkpt lat="43.913565" lon="7.9294583"><ele>207.0</ele><time>2026-04-26T07:13:15.047Z</time></trkpt><trkpt lat="43.913605" lon="7.9293733"><ele>207.00000000000003</ele><time>2026-04-26T07:13:18.047Z</time></trkpt><trkpt lat="43.9136417" lon="7.9292983"><ele>207.0</ele><time>2026-04-26T07:13:21.048Z</time></trkpt><trkpt lat="43.91366" lon="7.9292117"><ele>207.0</ele><time>2026-04-26T07:13:24.047Z</time></trkpt><trkpt lat="43.9136383" lon="7.9291183"><ele>207.0</ele><time>2026-04-26T07:13:27.047Z</time></trkpt><trkpt lat="43.9135983" lon="7.929015"><ele>207.0</ele><time>2026-04-26T07:13:30.048Z</time></trkpt><trkpt lat="43.913545" lon="7.92893"><ele>207.00000000000003</ele><time>2026-04-26T07:13:34.047Z</time></trkpt><trkpt lat="43.9135" lon="7.9288467"><ele>207.0</ele><time>2026-04-26T07:13:37.047Z</time></trkpt><trkpt lat="43.91346" lon="7.9287467"><ele>209.33333333333334</ele><time>2026-04-26T07:13:40.048Z</time></trkpt><trkpt lat="43.9134233" lon="7.9286483"><ele>211.66666666666669</ele><time>2026-04-26T07:13:43.047Z</time></trkpt><trkpt lat="43.9134" lon="7.928535"><ele>214.0</ele><time>2026-04-26T07:13:47.047Z</time></trkpt><trkpt lat="43.9134017" lon="7.9284367"><ele>216.33333333333334</ele><time>2026-04-26T07:13:50.048Z</time></trkpt><trkpt lat="43.91343" lon="7.928335"><ele>218.66666666666669</ele><time>2026-04-26T07:13:53.047Z</time></trkpt><trkpt lat="43.91347" lon="7.92823"><ele>221.0</ele><time>2026-04-26T07:13:56.048Z</time></trkpt><trkpt lat="43.91349" lon="7.928105"><ele>222.83333333333334</ele><time>2026-04-26T07:13:59.047Z</time></trkpt><trkpt lat="43.9135167" lon="7.92799"><ele>224.66666666666669</ele><time>2026-04-26T07:14:02.047Z</time></trkpt><trkpt lat="43.9135333" lon="7.92787"><ele>226.5</ele><time>2026-04-26T07:14:05.047Z</time></trkpt><trkpt lat="43.9135583" lon="7.9277467"><ele>228.33333333333331</ele><time>2026-04-26T07:14:08.047Z</time></trkpt><trkpt lat="43.91358" lon="7.9276267"><ele>230.16666666666666</ele><time>2026-04-26T07:14:11.047Z</time></trkpt><trkpt lat="43.913605" lon="7.9275083"><ele>232.0</ele><time>2026-04-26T07:14:14.047Z</time></trkpt><trkpt lat="43.9136317" lon="7.9274133"><ele>232.99999999999997</ele><time>2026-04-26T07:14:17.047Z</time></trkpt><trkpt lat="43.9136733" lon="7.9273317"><ele>234.0</ele><time>2026-04-26T07:14:20.047Z</time></trkpt><trkpt lat="43.9137233" lon="7.927235"><ele>235.0</ele><time>2026-04-26T07:14:23.047Z</time></trkpt><trkpt lat="43.913785" lon="7.9271467"><ele>236.0</ele><time>2026-04-26T07:14:26.047Z</time></trkpt><trkpt lat="43.913835" lon="7.927055"><ele>236.99999999999997</ele><time>2026-04-26T07:14:29.047Z</time></trkpt><trkpt lat="43.9138783" lon="7.926955"><ele>238.0</ele><time>2026-04-26T07:14:32.048Z</time></trkpt><trkpt lat="43.91389" lon="7.92683"><ele>238.99999999999997</ele><time>2026-04-26T07:14:35.047Z</time></trkpt><trkpt lat="43.91388" lon="7.9267183"><ele>240.0</ele><time>2026-04-26T07:14:38.047Z</time></trkpt><trkpt lat="43.9138217" lon="7.9266167"><ele>241.0</ele><time>2026-04-26T07:14:41.047Z</time></trkpt><trkpt lat="43.9137667" lon="7.9265567"><ele>242.0</ele><time>2026-04-26T07:14:43.047Z</time></trkpt><trkpt lat="43.9137133" lon="7.9264883"><ele>242.99999999999997</ele><time>2026-04-26T07:14:45.047Z</time></trkpt><trkpt lat="43.91365" lon="7.9263933"><ele>244.0</ele><time>2026-04-26T07:14:48.047Z</time></trkpt><trkpt lat="43.91359" lon="7.9263083"><ele>243.99999999999997</ele><time>2026-04-26T07:14:51.047Z</time></trkpt><trkpt lat="43.9135383" lon="7.92622"><ele>244.0</ele><time>2026-04-26T07:14:54.048Z</time></trkpt><trkpt lat="43.9135217" lon="7.9261217"><ele>244.0</ele><time>2026-04-26T07:14:57.047Z</time></trkpt><trkpt lat="43.9134533" lon="7.9261633"><ele>244.0</ele><time>2026-04-26T07:15:02.048Z</time></trkpt><trkpt lat="43.9134467" lon="7.9262683"><ele>243.99999999999997</ele><time>2026-04-26T07:15:06.047Z</time></trkpt><trkpt lat="43.91344" lon="7.9261683"><ele>244.0</ele><time>2026-04-26T07:15:11.047Z</time></trkpt><trkpt lat="43.9134383" lon="7.9260467"><ele>243.99999999999997</ele><time>2026-04-26T07:15:14.047Z</time></trkpt><trkpt lat="43.9134433" lon="7.9259383"><ele>244.0</ele><time>2026-04-26T07:15:17.047Z</time></trkpt><trkpt lat="43.9134367" lon="7.9258433"><ele>243.99999999999997</ele><time>2026-04-26T07:15:20.048Z</time></trkpt><trkpt lat="43.9134383" lon="7.9257483"><ele>243.99999999999997</ele><time>2026-04-26T07:15:23.047Z</time></trkpt><trkpt lat="43.91344" lon="7.9256383"><ele>244.0</ele><time>2026-04-26T07:15:27.047Z</time></trkpt><trkpt lat="43.913435" lon="7.925535"><ele>243.99999999999997</ele><time>2026-04-26T07:15:32.048Z</time></trkpt><trkpt lat="43.9133733" lon="7.925555"><ele>243.99999999999997</ele><time>2026-04-26T07:20:24.047Z</time></trkpt><trkpt lat="43.913365" lon="7.925655"><ele>246.99999999999997</ele><time>2026-04-26T07:20:28.048Z</time></trkpt><trkpt lat="43.9133667" lon="7.9257483"><ele>250.0</ele><time>2026-04-26T07:20:31.047Z</time></trkpt><trkpt lat="43.913385" lon="7.9258733"><ele>253.0</ele><time>2026-04-26T07:20:35.047Z</time></trkpt><trkpt lat="43.913385" lon="7.92598"><ele>256.0</ele><time>2026-04-26T07:20:38.047Z</time></trkpt><trkpt lat="43.913375" lon="7.926095"><ele>259.0</ele><time>2026-04-26T07:20:41.047Z</time></trkpt><trkpt lat="43.91338" lon="7.9261833"><ele>262.0</ele><time>2026-04-26T07:20:43.048Z</time></trkpt><trkpt lat="43.913375" lon="7.9263"><ele>262.0</ele><time>2026-04-26T07:20:46.047Z</time></trkpt><trkpt lat="43.9133567" lon="7.9264083"><ele>262.0</ele><time>2026-04-26T07:20:49.047Z</time></trkpt><trkpt lat="43.913345" lon="7.9265217"><ele>262.0</ele><time>2026-04-26T07:20:52.047Z</time></trkpt><trkpt lat="43.913315" lon="7.9266067"><ele>262.0</ele><time>2026-04-26T07:20:55.048Z</time></trkpt><trkpt lat="43.913275" lon="7.9267033"><ele>262.0</ele><time>2026-04-26T07:20:58.047Z</time></trkpt><trkpt lat="43.9132217" lon="7.9267517"><ele>262.0</ele><time>2026-04-26T07:21:00.047Z</time></trkpt><trkpt lat="43.9131617" lon="7.9267983"><ele>262.0</ele><time>2026-04-26T07:21:02.047Z</time></trkpt><trkpt lat="43.913095" lon="7.9268367"><ele>260.8333333333333</ele><time>2026-04-26T07:21:05.047Z</time></trkpt><trkpt lat="43.9130267" lon="7.9269"><ele>259.66666666666663</ele><time>2026-04-26T07:21:08.047Z</time></trkpt><trkpt lat="43.9129833" lon="7.926965"><ele>258.5</ele><time>2026-04-26T07:21:10.047Z</time></trkpt><trkpt lat="43.9129433" lon="7.9270717"><ele>257.3333333333333</ele><time>2026-04-26T07:21:13.047Z</time></trkpt><trkpt lat="43.9129367" lon="7.9272017"><ele>256.1666666666667</ele><time>2026-04-26T07:21:16.047Z</time></trkpt><trkpt lat="43.91294" lon="7.92729"><ele>255.0</ele><time>2026-04-26T07:21:18.047Z</time></trkpt><trkpt lat="43.9129367" lon="7.92742"><ele>255.0</ele><time>2026-04-26T07:21:21.047Z</time></trkpt><trkpt lat="43.9129233" lon="7.9275067"><ele>255.0</ele><time>2026-04-26T07:21:23.047Z</time></trkpt><trkpt lat="43.9128983" lon="7.9276267"><ele>255.0</ele><time>2026-04-26T07:21:26.047Z</time></trkpt><trkpt lat="43.9128667" lon="7.9277367"><ele>255.0</ele><time>2026-04-26T07:21:29.047Z</time></trkpt><trkpt lat="43.9128117" lon="7.9278283"><ele>255.0</ele><time>2026-04-26T07:21:32.048Z</time></trkpt><trkpt lat="43.9127433" lon="7.9279017"><ele>255.0</ele><time>2026-04-26T07:21:35.047Z</time></trkpt><trkpt lat="43.9126717" lon="7.9279617"><ele>255.57142857142858</ele><time>2026-04-26T07:21:38.047Z</time></trkpt><trkpt lat="43.9126067" lon="7.9279983"><ele>256.14285714285717</ele><time>2026-04-26T07:21:40.047Z</time></trkpt><trkpt lat="43.9125433" lon="7.9280167"><ele>256.7142857142857</ele><time>2026-04-26T07:21:42.047Z</time></trkpt><trkpt lat="43.9124567" lon="7.9280317"><ele>257.2857142857143</ele><time>2026-04-26T07:21:45.048Z</time></trkpt><trkpt lat="43.9123883" lon="7.928035"><ele>257.8571428571429</ele><time>2026-04-26T07:21:47.049Z</time></trkpt><trkpt lat="43.9123217" lon="7.928035"><ele>258.42857142857144</ele><time>2026-04-26T07:21:49.047Z</time></trkpt><trkpt lat="43.9122433" lon="7.9279983"><ele>259.0</ele><time>2026-04-26T07:21:52.047Z</time></trkpt><trkpt lat="43.9121717" lon="7.9279417"><ele>259.0</ele><time>2026-04-26T07:21:55.047Z</time></trkpt><trkpt lat="43.9121017" lon="7.9278733"><ele>259.0</ele><time>2026-04-26T07:21:58.047Z</time></trkpt><trkpt lat="43.9120083" lon="7.9278383"><ele>259.0</ele><time>2026-04-26T07:22:01.047Z</time></trkpt><trkpt lat="43.9119333" lon="7.92784"><ele>259.0</ele><time>2026-04-26T07:22:03.047Z</time></trkpt><trkpt lat="43.911865" lon="7.9278667"><ele>259.0</ele><time>2026-04-26T07:22:05.047Z</time></trkpt><trkpt lat="43.9118067" lon="7.9279167"><ele>259.0</ele><time>2026-04-26T07:22:07.047Z</time></trkpt><trkpt lat="43.9117683" lon="7.9279917"><ele>258.8333333333333</ele><time>2026-04-26T07:22:09.047Z</time></trkpt><trkpt lat="43.911725" lon="7.9281117"><ele>258.66666666666663</ele><time>2026-04-26T07:22:12.047Z</time></trkpt><trkpt lat="43.9117017" lon="7.9281983"><ele>258.5</ele><time>2026-04-26T07:22:14.047Z</time></trkpt><trkpt lat="43.9116733" lon="7.9282833"><ele>258.3333333333333</ele><time>2026-04-26T07:22:16.048Z</time></trkpt><trkpt lat="43.9116383" lon="7.9283733"><ele>258.1666666666667</ele><time>2026-04-26T07:22:18.047Z</time></trkpt><trkpt lat="43.9116117" lon="7.9284683"><ele>258.0</ele><time>2026-04-26T07:22:20.047Z</time></trkpt><trkpt lat="43.911585" lon="7.9285683"><ele>258.0</ele><time>2026-04-26T07:22:22.047Z</time></trkpt><trkpt lat="43.9115567" lon="7.9286667"><ele>258.0</ele><time>2026-04-26T07:22:24.047Z</time></trkpt><trkpt lat="43.9115033" lon="7.928755"><ele>258.0</ele><time>2026-04-26T07:22:27.047Z</time></trkpt><trkpt lat="43.91149" lon="7.92865"><ele>258.0</ele><time>2026-04-26T07:22:30.047Z</time></trkpt><trkpt lat="43.9114983" lon="7.9285267"><ele>258.0</ele><time>2026-04-26T07:22:33.047Z</time></trkpt><trkpt lat="43.9115217" lon="7.928415"><ele>258.0</ele><time>2026-04-26T07:22:36.048Z</time></trkpt><trkpt lat="43.911535" lon="7.9283133"><ele>258.0</ele><time>2026-04-26T07:22:39.047Z</time></trkpt><trkpt lat="43.9114817" lon="7.9282667"><ele>258.0</ele><time>2026-04-26T07:22:42.047Z</time></trkpt><trkpt lat="43.9114033" lon="7.9283"><ele>258.0</ele><time>2026-04-26T07:22:45.049Z</time></trkpt><trkpt lat="43.9113367" lon="7.9283683"><ele>258.0</ele><time>2026-04-26T07:22:48.048Z</time></trkpt><trkpt lat="43.91128" lon="7.92846"><ele>258.0</ele><time>2026-04-26T07:22:51.048Z</time></trkpt><trkpt lat="43.911235" lon="7.9285483"><ele>258.0</ele><time>2026-04-26T07:22:54.047Z</time></trkpt><trkpt lat="43.9112067" lon="7.92865"><ele>257.99999999999994</ele><time>2026-04-26T07:22:57.047Z</time></trkpt><trkpt lat="43.9111867" lon="7.9287533"><ele>258.0</ele><time>2026-04-26T07:23:00.047Z</time></trkpt><trkpt lat="43.9111783" lon="7.92885"><ele>258.0</ele><time>2026-04-26T07:23:03.048Z</time></trkpt><trkpt lat="43.9111733" lon="7.9289517"><ele>258.0</ele><time>2026-04-26T07:23:06.047Z</time></trkpt><trkpt lat="43.9111417" lon="7.9290467"><ele>258.0</ele><time>2026-04-26T07:23:09.047Z</time></trkpt><trkpt lat="43.9111017" lon="7.92912"><ele>257.99999999999994</ele><time>2026-04-26T07:23:12.047Z</time></trkpt><trkpt lat="43.9110433" lon="7.9291867"><ele>258.0</ele><time>2026-04-26T07:23:15.048Z</time></trkpt><trkpt lat="43.91098" lon="7.9292433"><ele>256.8333333333333</ele><time>2026-04-26T07:23:18.047Z</time></trkpt><trkpt lat="43.9109117" lon="7.9293083"><ele>255.66666666666669</ele><time>2026-04-26T07:23:21.048Z</time></trkpt><trkpt lat="43.9108433" lon="7.929365"><ele>254.5</ele><time>2026-04-26T07:23:24.047Z</time></trkpt><trkpt lat="43.910775" lon="7.92939"><ele>253.33333333333334</ele><time>2026-04-26T07:23:27.047Z</time></trkpt><trkpt lat="43.9106917" lon="7.929415"><ele>252.16666666666669</ele><time>2026-04-26T07:23:30.047Z</time></trkpt><trkpt lat="43.9106317" lon="7.92946"><ele>251.0</ele><time>2026-04-26T07:23:32.048Z</time></trkpt><trkpt lat="43.9105633" lon="7.9295117"><ele>254.66666666666669</ele><time>2026-04-26T07:23:34.047Z</time></trkpt><trkpt lat="43.9105067" lon="7.92957"><ele>258.33333333333337</ele><time>2026-04-26T07:23:36.048Z</time></trkpt><trkpt lat="43.9104533" lon="7.929645"><ele>262.0</ele><time>2026-04-26T07:23:38.047Z</time></trkpt><trkpt lat="43.9103967" lon="7.929715"><ele>265.6666666666667</ele><time>2026-04-26T07:23:40.047Z</time></trkpt><trkpt lat="43.9103333" lon="7.9298083"><ele>269.3333333333333</ele><time>2026-04-26T07:23:42.047Z</time></trkpt><trkpt lat="43.91027" lon="7.92989"><ele>273.0</ele><time>2026-04-26T07:23:44.047Z</time></trkpt><trkpt lat="43.9102317" lon="7.9299783"><ele>271.3333333333333</ele><time>2026-04-26T07:23:46.047Z</time></trkpt><trkpt lat="43.9101983" lon="7.9300583"><ele>269.6666666666667</ele><time>2026-04-26T07:23:48.047Z</time></trkpt><trkpt lat="43.9101683" lon="7.9301467"><ele>268.0</ele><time>2026-04-26T07:23:50.048Z</time></trkpt><trkpt lat="43.9101183" lon="7.9302367"><ele>266.33333333333337</ele><time>2026-04-26T07:23:53.047Z</time></trkpt><trkpt lat="43.9100633" lon="7.9303183"><ele>264.6666666666667</ele><time>2026-04-26T07:23:56.047Z</time></trkpt><trkpt lat="43.910015" lon="7.930405"><ele>263.0</ele><time>2026-04-26T07:23:59.047Z</time></trkpt><trkpt lat="43.9099817" lon="7.9305117"><ele>265.42857142857144</ele><time>2026-04-26T07:24:02.047Z</time></trkpt><trkpt lat="43.909955" lon="7.93061"><ele>267.85714285714283</ele><time>2026-04-26T07:24:04.047Z</time></trkpt><trkpt lat="43.9099217" lon="7.9307167"><ele>270.2857142857143</ele><time>2026-04-26T07:24:06.047Z</time></trkpt><trkpt lat="43.90989" lon="7.9308"><ele>272.7142857142857</ele><time>2026-04-26T07:24:08.047Z</time></trkpt><trkpt lat="43.90986" lon="7.9308783"><ele>275.1428571428571</ele><time>2026-04-26T07:24:10.047Z</time></trkpt><trkpt lat="43.9098217" lon="7.9309483"><ele>277.57142857142856</ele><time>2026-04-26T07:24:12.047Z</time></trkpt><trkpt lat="43.9097633" lon="7.9310267"><ele>280.0</ele><time>2026-04-26T07:24:15.047Z</time></trkpt><trkpt lat="43.9096867" lon="7.9310833"><ele>280.0</ele><time>2026-04-26T07:24:18.048Z</time></trkpt><trkpt lat="43.9096067" lon="7.9311567"><ele>280.0</ele><time>2026-04-26T07:24:21.047Z</time></trkpt><trkpt lat="43.9095317" lon="7.931225"><ele>280.0</ele><time>2026-04-26T07:24:23.047Z</time></trkpt><trkpt lat="43.9094767" lon="7.9312817"><ele>280.0</ele><time>2026-04-26T07:24:25.047Z</time></trkpt><trkpt lat="43.9093883" lon="7.931365"><ele>280.0</ele><time>2026-04-26T07:24:27.048Z</time></trkpt><trkpt lat="43.9093283" lon="7.9314217"><ele>280.0</ele><time>2026-04-26T07:24:28.047Z</time></trkpt><trkpt lat="43.90927" lon="7.9314817"><ele>282.0</ele><time>2026-04-26T07:24:29.047Z</time></trkpt><trkpt lat="43.9092183" lon="7.9315383"><ele>284.0</ele><time>2026-04-26T07:24:30.048Z</time></trkpt><trkpt lat="43.9091183" lon="7.9316367"><ele>286.0</ele><time>2026-04-26T07:24:32.047Z</time></trkpt><trkpt lat="43.9090367" lon="7.9316517"><ele>288.0</ele><time>2026-04-26T07:24:34.047Z</time></trkpt><trkpt lat="43.9089533" lon="7.9315767"><ele>290.0</ele><time>2026-04-26T07:24:37.048Z</time></trkpt><trkpt lat="43.9089167" lon="7.9314983"><ele>292.0</ele><time>2026-04-26T07:24:39.047Z</time></trkpt><trkpt lat="43.9089033" lon="7.9313917"><ele>292.0</ele><time>2026-04-26T07:24:42.047Z</time></trkpt><trkpt lat="43.908945" lon="7.931305"><ele>292.0</ele><time>2026-04-26T07:24:46.047Z</time></trkpt><trkpt lat="43.9089867" lon="7.93123"><ele>292.0</ele><time>2026-04-26T07:24:49.047Z</time></trkpt><trkpt lat="43.9090333" lon="7.9311467"><ele>292.0</ele><time>2026-04-26T07:24:52.047Z</time></trkpt><trkpt lat="43.9090867" lon="7.931095"><ele>292.0</ele><time>2026-04-26T07:24:55.047Z</time></trkpt><trkpt lat="43.9091517" lon="7.9310483"><ele>292.0</ele><time>2026-04-26T07:24:58.047Z</time></trkpt><trkpt lat="43.909215" lon="7.93098"><ele>292.0</ele><time>2026-04-26T07:25:01.047Z</time></trkpt><trkpt lat="43.9092783" lon="7.93089"><ele>291.66666666666663</ele><time>2026-04-26T07:25:04.047Z</time></trkpt><trkpt lat="43.9093267" lon="7.930785"><ele>291.3333333333333</ele><time>2026-04-26T07:25:07.047Z</time></trkpt><trkpt lat="43.9093467" lon="7.9307017"><ele>291.0</ele><time>2026-04-26T07:25:09.047Z</time></trkpt><trkpt lat="43.9093483" lon="7.9305867"><ele>290.6666666666667</ele><time>2026-04-26T07:25:12.047Z</time></trkpt><trkpt lat="43.909335" lon="7.9304733"><ele>290.33333333333337</ele><time>2026-04-26T07:25:15.047Z</time></trkpt><trkpt lat="43.9093733" lon="7.9303567"><ele>290.0</ele><time>2026-04-26T07:25:18.047Z</time></trkpt><trkpt lat="43.909405" lon="7.9302783"><ele>290.0</ele><time>2026-04-26T07:25:20.047Z</time></trkpt><trkpt lat="43.9094533" lon="7.930175"><ele>290.0</ele><time>2026-04-26T07:25:23.047Z</time></trkpt><trkpt lat="43.9095067" lon="7.9300767"><ele>290.0</ele><time>2026-04-26T07:25:26.047Z</time></trkpt><trkpt lat="43.9095283" lon="7.9299917"><ele>290.0</ele><time>2026-04-26T07:25:28.047Z</time></trkpt><trkpt lat="43.9095383" lon="7.9299017"><ele>290.0</ele><time>2026-04-26T07:25:30.047Z</time></trkpt><trkpt lat="43.90954" lon="7.9298133"><ele>290.0</ele><time>2026-04-26T07:25:32.048Z</time></trkpt><trkpt lat="43.9095417" lon="7.929725"><ele>290.0</ele><time>2026-04-26T07:25:34.047Z</time></trkpt><trkpt lat="43.90957" lon="7.92961"><ele>291.33333333333337</ele><time>2026-04-26T07:25:37.047Z</time></trkpt><trkpt lat="43.90959" lon="7.9294867"><ele>292.6666666666667</ele><time>2026-04-26T07:25:40.047Z</time></trkpt><trkpt lat="43.9096117" lon="7.9294"><ele>294.0</ele><time>2026-04-26T07:25:42.047Z</time></trkpt><trkpt lat="43.9096317" lon="7.9293167"><ele>295.3333333333333</ele><time>2026-04-26T07:25:44.047Z</time></trkpt><trkpt lat="43.9096517" lon="7.929195"><ele>296.66666666666663</ele><time>2026-04-26T07:25:47.047Z</time></trkpt><trkpt lat="43.9096667" lon="7.9290933"><ele>298.0</ele><time>2026-04-26T07:25:50.047Z</time></trkpt><trkpt lat="43.9097017" lon="7.9290083"><ele>300.5</ele><time>2026-04-26T07:25:53.047Z</time></trkpt><trkpt lat="43.9097433" lon="7.9289133"><ele>303.0</ele><time>2026-04-26T07:25:56.047Z</time></trkpt><trkpt lat="43.9097833" lon="7.9288267"><ele>305.5</ele><time>2026-04-26T07:25:59.047Z</time></trkpt><trkpt lat="43.9098383" lon="7.92875"><ele>308.0</ele><time>2026-04-26T07:26:02.048Z</time></trkpt><trkpt lat="43.90989" lon="7.9286533"><ele>310.5</ele><time>2026-04-26T07:26:05.047Z</time></trkpt><trkpt lat="43.909935" lon="7.9285633"><ele>313.0</ele><time>2026-04-26T07:26:08.047Z</time></trkpt><trkpt lat="43.9099733" lon="7.928475"><ele>315.57142857142856</ele><time>2026-04-26T07:26:11.047Z</time></trkpt><trkpt lat="43.909985" lon="7.9283683"><ele>318.14285714285717</ele><time>2026-04-26T07:26:15.047Z</time></trkpt><trkpt lat="43.9099933" lon="7.9282583"><ele>320.7142857142857</ele><time>2026-04-26T07:26:19.047Z</time></trkpt><trkpt lat="43.9099967" lon="7.9281483"><ele>323.2857142857143</ele><time>2026-04-26T07:26:23.047Z</time></trkpt><trkpt lat="43.90999" lon="7.9280383"><ele>325.85714285714283</ele><time>2026-04-26T07:26:27.047Z</time></trkpt><trkpt lat="43.9099767" lon="7.927945"><ele>328.42857142857144</ele><time>2026-04-26T07:26:30.048Z</time></trkpt><trkpt lat="43.9099617" lon="7.9278583"><ele>331.0</ele><time>2026-04-26T07:26:33.047Z</time></trkpt><trkpt lat="43.9099433" lon="7.9277533"><ele>331.0</ele><time>2026-04-26T07:26:37.047Z</time></trkpt><trkpt lat="43.9099083" lon="7.9276717"><ele>331.0</ele><time>2026-04-26T07:26:40.047Z</time></trkpt><trkpt lat="43.9098767" lon="7.9275667"><ele>331.0</ele><time>2026-04-26T07:26:44.047Z</time></trkpt><trkpt lat="43.9098633" lon="7.9274567"><ele>331.0</ele><time>2026-04-26T07:26:48.047Z</time></trkpt><trkpt lat="43.9098417" lon="7.927355"><ele>331.0</ele><time>2026-04-26T07:26:52.047Z</time></trkpt><trkpt lat="43.9098383" lon="7.9272467"><ele>331.0</ele><time>2026-04-26T07:26:56.047Z</time></trkpt><trkpt lat="43.9098433" lon="7.9271567"><ele>332.8571428571429</ele><time>2026-04-26T07:27:00.047Z</time></trkpt><trkpt lat="43.9098733" lon="7.9270583"><ele>334.7142857142857</ele><time>2026-04-26T07:27:04.047Z</time></trkpt><trkpt lat="43.9099183" lon="7.92697"><ele>336.57142857142856</ele><time>2026-04-26T07:27:08.047Z</time></trkpt><trkpt lat="43.9099667" lon="7.92688"><ele>338.42857142857144</ele><time>2026-04-26T07:27:12.047Z</time></trkpt><trkpt lat="43.9099983" lon="7.9267917"><ele>340.2857142857143</ele><time>2026-04-26T07:27:15.048Z</time></trkpt><trkpt lat="43.910025" lon="7.92671"><ele>342.14285714285717</ele><time>2026-04-26T07:27:18.047Z</time></trkpt><trkpt lat="43.9100417" lon="7.9266067"><ele>344.0</ele><time>2026-04-26T07:27:22.047Z</time></trkpt><trkpt lat="43.91002" lon="7.926505"><ele>345.5714285714286</ele><time>2026-04-26T07:27:26.047Z</time></trkpt><trkpt lat="43.9099983" lon="7.9264217"><ele>347.14285714285717</ele><time>2026-04-26T07:27:29.047Z</time></trkpt><trkpt lat="43.9099817" lon="7.92633"><ele>348.7142857142857</ele><time>2026-04-26T07:27:32.047Z</time></trkpt><trkpt lat="43.9099767" lon="7.926235"><ele>350.28571428571433</ele><time>2026-04-26T07:27:35.047Z</time></trkpt><trkpt lat="43.9099733" lon="7.9261433"><ele>351.8571428571429</ele><time>2026-04-26T07:27:38.048Z</time></trkpt><trkpt lat="43.9099467" lon="7.9260317"><ele>353.42857142857144</ele><time>2026-04-26T07:27:42.047Z</time></trkpt><trkpt lat="43.9099067" lon="7.9259567"><ele>355.0</ele><time>2026-04-26T07:27:45.047Z</time></trkpt><trkpt lat="43.9098633" lon="7.92586"><ele>355.5</ele><time>2026-04-26T07:27:49.047Z</time></trkpt><trkpt lat="43.909825" lon="7.9257833"><ele>356.0</ele><time>2026-04-26T07:27:53.047Z</time></trkpt><trkpt lat="43.9097683" lon="7.9257117"><ele>356.5</ele><time>2026-04-26T07:27:56.047Z</time></trkpt><trkpt lat="43.9097183" lon="7.9256383"><ele>357.0</ele><time>2026-04-26T07:27:59.048Z</time></trkpt><trkpt lat="43.9096717" lon="7.9255367"><ele>357.5</ele><time>2026-04-26T07:28:02.047Z</time></trkpt><trkpt lat="43.9096483" lon="7.925425"><ele>358.0</ele><time>2026-04-26T07:28:05.047Z</time></trkpt><trkpt lat="43.9096383" lon="7.9253317"><ele>358.0</ele><time>2026-04-26T07:28:08.047Z</time></trkpt><trkpt lat="43.909575" lon="7.925395"><ele>358.0</ele><time>2026-04-26T07:28:14.047Z</time></trkpt><trkpt lat="43.9095683" lon="7.9255267"><ele>358.0</ele><time>2026-04-26T07:28:17.047Z</time></trkpt><trkpt lat="43.909575" lon="7.9256467"><ele>358.0</ele><time>2026-04-26T07:28:20.047Z</time></trkpt><trkpt lat="43.9095933" lon="7.9257717"><ele>358.0</ele><time>2026-04-26T07:28:23.048Z</time></trkpt><trkpt lat="43.90961" lon="7.92588"><ele>358.0</ele><time>2026-04-26T07:28:26.047Z</time></trkpt><trkpt lat="43.9096317" lon="7.9259817"><ele>357.5</ele><time>2026-04-26T07:28:29.047Z</time></trkpt><trkpt lat="43.9096417" lon="7.926085"><ele>357.0</ele><time>2026-04-26T07:28:32.047Z</time></trkpt><trkpt lat="43.9096567" lon="7.926205"><ele>356.5</ele><time>2026-04-26T07:28:35.047Z</time></trkpt><trkpt lat="43.9096667" lon="7.9263267"><ele>356.0</ele><time>2026-04-26T07:28:38.047Z</time></trkpt><trkpt lat="43.9096467" lon="7.9264333"><ele>355.5</ele><time>2026-04-26T07:28:41.048Z</time></trkpt><trkpt lat="43.9096" lon="7.926495"><ele>355.0</ele><time>2026-04-26T07:28:43.047Z</time></trkpt><trkpt lat="43.9095417" lon="7.9265467"><ele>355.0</ele><time>2026-04-26T07:28:45.047Z</time></trkpt><trkpt lat="43.90946" lon="7.9266017"><ele>355.0</ele><time>2026-04-26T07:28:48.048Z</time></trkpt><trkpt lat="43.90939" lon="7.9266617"><ele>355.0</ele><time>2026-04-26T07:28:51.047Z</time></trkpt><trkpt lat="43.9093367" lon="7.9267183"><ele>355.0</ele><time>2026-04-26T07:28:53.047Z</time></trkpt><trkpt lat="43.909265" lon="7.9267917"><ele>355.0</ele><time>2026-04-26T07:28:56.047Z</time></trkpt><trkpt lat="43.909195" lon="7.9268683"><ele>355.0</ele><time>2026-04-26T07:28:59.047Z</time></trkpt><trkpt lat="43.909145" lon="7.9269733"><ele>357.16666666666663</ele><time>2026-04-26T07:29:02.047Z</time></trkpt><trkpt lat="43.9091317" lon="7.9270667"><ele>359.3333333333333</ele><time>2026-04-26T07:29:04.047Z</time></trkpt><trkpt lat="43.9091217" lon="7.9271617"><ele>361.5</ele><time>2026-04-26T07:29:06.048Z</time></trkpt><trkpt lat="43.9091067" lon="7.927255"><ele>363.6666666666667</ele><time>2026-04-26T07:29:08.047Z</time></trkpt><trkpt lat="43.9091167" lon="7.92738"><ele>365.83333333333337</ele><time>2026-04-26T07:29:10.047Z</time></trkpt><trkpt lat="43.90913" lon="7.9275033"><ele>368.0</ele><time>2026-04-26T07:29:12.047Z</time></trkpt><trkpt lat="43.90913" lon="7.9276183"><ele>368.0</ele><time>2026-04-26T07:29:14.047Z</time></trkpt><trkpt lat="43.9091333" lon="7.927735"><ele>368.0</ele><time>2026-04-26T07:29:16.047Z</time></trkpt><trkpt lat="43.9091283" lon="7.9278567"><ele>368.0</ele><time>2026-04-26T07:29:18.047Z</time></trkpt><trkpt lat="43.9090833" lon="7.927965"><ele>368.0</ele><time>2026-04-26T07:29:21.047Z</time></trkpt><trkpt lat="43.9090083" lon="7.9280233"><ele>368.0</ele><time>2026-04-26T07:29:24.047Z</time></trkpt><trkpt lat="43.9089333" lon="7.9280567"><ele>368.0</ele><time>2026-04-26T07:29:27.047Z</time></trkpt><trkpt lat="43.9088567" lon="7.9280567"><ele>368.0</ele><time>2026-04-26T07:29:30.047Z</time></trkpt><trkpt lat="43.9087867" lon="7.9280383"><ele>368.0</ele><time>2026-04-26T07:29:32.047Z</time></trkpt><trkpt lat="43.9086967" lon="7.9279883"><ele>368.0</ele><time>2026-04-26T07:29:34.047Z</time></trkpt><trkpt lat="43.9086067" lon="7.9279433"><ele>368.0</ele><time>2026-04-26T07:29:36.047Z</time></trkpt><trkpt lat="43.9084967" lon="7.9279333"><ele>368.0</ele><time>2026-04-26T07:29:38.047Z</time></trkpt><trkpt lat="43.9083783" lon="7.9279333"><ele>369.59999999999997</ele><time>2026-04-26T07:29:40.047Z</time></trkpt><trkpt lat="43.9082633" lon="7.9279317"><ele>371.2</ele><time>2026-04-26T07:29:42.048Z</time></trkpt><trkpt lat="43.9081633" lon="7.927945"><ele>372.8</ele><time>2026-04-26T07:29:44.047Z</time></trkpt><trkpt lat="43.9080783" lon="7.9279883"><ele>374.4</ele><time>2026-04-26T07:29:46.047Z</time></trkpt><trkpt lat="43.9080017" lon="7.92805"><ele>376.0</ele><time>2026-04-26T07:29:48.047Z</time></trkpt><trkpt lat="43.9079167" lon="7.9281"><ele>376.0</ele><time>2026-04-26T07:29:50.047Z</time></trkpt><trkpt lat="43.907835" lon="7.9281317"><ele>376.0</ele><time>2026-04-26T07:29:52.047Z</time></trkpt><trkpt lat="43.9077583" lon="7.92817"><ele>376.0</ele><time>2026-04-26T07:29:54.047Z</time></trkpt><trkpt lat="43.9076767" lon="7.9282017"><ele>376.0</ele><time>2026-04-26T07:29:56.048Z</time></trkpt><trkpt lat="43.9076067" lon="7.928225"><ele>376.0</ele><time>2026-04-26T07:29:58.047Z</time></trkpt><trkpt lat="43.9075367" lon="7.9282133"><ele>376.0</ele><time>2026-04-26T07:30:00.047Z</time></trkpt><trkpt lat="43.90747" lon="7.9281533"><ele>376.20000000000005</ele><time>2026-04-26T07:30:02.047Z</time></trkpt><trkpt lat="43.9074067" lon="7.928075"><ele>376.40000000000003</ele><time>2026-04-26T07:30:04.047Z</time></trkpt><trkpt lat="43.907335" lon="7.9280317"><ele>376.6</ele><time>2026-04-26T07:30:06.047Z</time></trkpt><trkpt lat="43.9072433" lon="7.9280633"><ele>376.8</ele><time>2026-04-26T07:30:08.047Z</time></trkpt><trkpt lat="43.907145" lon="7.9281067"><ele>377.0</ele><time>2026-04-26T07:30:10.047Z</time></trkpt><trkpt lat="43.9070433" lon="7.9281333"><ele>377.0</ele><time>2026-04-26T07:30:12.047Z</time></trkpt><trkpt lat="43.9069433" lon="7.9281467"><ele>377.0</ele><time>2026-04-26T07:30:14.047Z</time></trkpt><trkpt lat="43.9068567" lon="7.9281667"><ele>377.0</ele><time>2026-04-26T07:30:16.047Z</time></trkpt><trkpt lat="43.9067783" lon="7.9281533"><ele>377.0</ele><time>2026-04-26T07:30:18.047Z</time></trkpt><trkpt lat="43.9067167" lon="7.9281267"><ele>377.0</ele><time>2026-04-26T07:30:20.047Z</time></trkpt><trkpt lat="43.9066517" lon="7.928095"><ele>377.0</ele><time>2026-04-26T07:30:22.047Z</time></trkpt><trkpt lat="43.9065883" lon="7.9280533"><ele>377.33333333333337</ele><time>2026-04-26T07:30:24.048Z</time></trkpt><trkpt lat="43.9065233" lon="7.9279967"><ele>377.6666666666667</ele><time>2026-04-26T07:30:26.047Z</time></trkpt><trkpt lat="43.9064633" lon="7.9279683"><ele>378.0</ele><time>2026-04-26T07:30:28.047Z</time></trkpt><trkpt lat="43.9063933" lon="7.9280083"><ele>378.3333333333333</ele><time>2026-04-26T07:30:30.047Z</time></trkpt><trkpt lat="43.9063167" lon="7.9281083"><ele>378.66666666666663</ele><time>2026-04-26T07:30:32.047Z</time></trkpt><trkpt lat="43.906255" lon="7.9282417"><ele>379.0</ele><time>2026-04-26T07:30:34.047Z</time></trkpt><trkpt lat="43.9062" lon="7.928375"><ele>379.0</ele><time>2026-04-26T07:30:36.047Z</time></trkpt><trkpt lat="43.906125" lon="7.92843"><ele>379.0</ele><time>2026-04-26T07:30:38.047Z</time></trkpt><trkpt lat="43.906035" lon="7.9284717"><ele>379.0</ele><time>2026-04-26T07:30:40.047Z</time></trkpt><trkpt lat="43.9059467" lon="7.9285417"><ele>379.0</ele><time>2026-04-26T07:30:42.047Z</time></trkpt><trkpt lat="43.9058633" lon="7.92861"><ele>379.0</ele><time>2026-04-26T07:30:44.048Z</time></trkpt><trkpt lat="43.9057883" lon="7.9286767"><ele>379.0</ele><time>2026-04-26T07:30:46.047Z</time></trkpt><trkpt lat="43.9057233" lon="7.92874"><ele>379.0</ele><time>2026-04-26T07:30:48.047Z</time></trkpt><trkpt lat="43.90568" lon="7.92882"><ele>379.0</ele><time>2026-04-26T07:30:50.047Z</time></trkpt><trkpt lat="43.90565" lon="7.92891"><ele>379.0</ele><time>2026-04-26T07:30:52.047Z</time></trkpt><trkpt lat="43.9056317" lon="7.9290067"><ele>379.0</ele><time>2026-04-26T07:30:54.047Z</time></trkpt><trkpt lat="43.9055917" lon="7.9291083"><ele>379.0</ele><time>2026-04-26T07:30:57.047Z</time></trkpt><trkpt lat="43.905545" lon="7.929205"><ele>377.66666666666663</ele><time>2026-04-26T07:30:59.048Z</time></trkpt><trkpt lat="43.9054917" lon="7.9292833"><ele>376.3333333333333</ele><time>2026-04-26T07:31:01.047Z</time></trkpt><trkpt lat="43.90543" lon="7.9293633"><ele>375.0</ele><time>2026-04-26T07:31:03.048Z</time></trkpt><trkpt lat="43.9053783" lon="7.9294567"><ele>373.6666666666667</ele><time>2026-04-26T07:31:05.047Z</time></trkpt><trkpt lat="43.9053183" lon="7.929515"><ele>372.33333333333337</ele><time>2026-04-26T07:31:07.047Z</time></trkpt><trkpt lat="43.9052533" lon="7.929565"><ele>371.0</ele><time>2026-04-26T07:31:09.047Z</time></trkpt><trkpt lat="43.9051867" lon="7.9296117"><ele>371.0</ele><time>2026-04-26T07:31:11.047Z</time></trkpt><trkpt lat="43.9051117" lon="7.9296583"><ele>371.0</ele><time>2026-04-26T07:31:13.048Z</time></trkpt><trkpt lat="43.90503" lon="7.9296733"><ele>371.0</ele><time>2026-04-26T07:31:15.047Z</time></trkpt><trkpt lat="43.9049567" lon="7.9296983"><ele>371.0</ele><time>2026-04-26T07:31:17.047Z</time></trkpt><trkpt lat="43.904895" lon="7.9297417"><ele>371.0</ele><time>2026-04-26T07:31:19.047Z</time></trkpt><trkpt lat="43.9048417" lon="7.9297917"><ele>371.0</ele><time>2026-04-26T07:31:21.048Z</time></trkpt><trkpt lat="43.9047833" lon="7.9298483"><ele>371.0</ele><time>2026-04-26T07:31:24.047Z</time></trkpt><trkpt lat="43.9047583" lon="7.9299433"><ele>373.33333333333337</ele><time>2026-04-26T07:31:27.047Z</time></trkpt><trkpt lat="43.9047367" lon="7.93004"><ele>375.6666666666667</ele><time>2026-04-26T07:31:30.047Z</time></trkpt><trkpt lat="43.9047267" lon="7.9301533"><ele>378.0</ele><time>2026-04-26T07:31:32.047Z</time></trkpt><trkpt lat="43.904715" lon="7.93027"><ele>380.33333333333337</ele><time>2026-04-26T07:31:34.047Z</time></trkpt><trkpt lat="43.9046683" lon="7.9303483"><ele>382.6666666666667</ele><time>2026-04-26T07:31:36.047Z</time></trkpt><trkpt lat="43.9046267" lon="7.9304383"><ele>385.0</ele><time>2026-04-26T07:31:39.047Z</time></trkpt><trkpt lat="43.9045767" lon="7.9304967"><ele>385.00000000000006</ele><time>2026-04-26T07:31:41.047Z</time></trkpt><trkpt lat="43.90452" lon="7.9305383"><ele>385.0</ele><time>2026-04-26T07:31:44.047Z</time></trkpt><trkpt lat="43.9044467" lon="7.930555"><ele>385.0</ele><time>2026-04-26T07:31:46.048Z</time></trkpt><trkpt lat="43.904375" lon="7.93059"><ele>385.0</ele><time>2026-04-26T07:31:48.047Z</time></trkpt><trkpt lat="43.9042883" lon="7.9306417"><ele>385.00000000000006</ele><time>2026-04-26T07:31:50.047Z</time></trkpt><trkpt lat="43.9041933" lon="7.9306917"><ele>385.0</ele><time>2026-04-26T07:31:52.047Z</time></trkpt><trkpt lat="43.9041267" lon="7.9307633"><ele>388.00000000000006</ele><time>2026-04-26T07:31:55.047Z</time></trkpt><trkpt lat="43.9040433" lon="7.9307783"><ele>391.0</ele><time>2026-04-26T07:31:58.048Z</time></trkpt><trkpt lat="43.903975" lon="7.93077"><ele>394.0</ele><time>2026-04-26T07:32:00.047Z</time></trkpt><trkpt lat="43.90391" lon="7.9307367"><ele>397.0</ele><time>2026-04-26T07:32:02.048Z</time></trkpt><trkpt lat="43.9038217" lon="7.9306883"><ele>400.00000000000006</ele><time>2026-04-26T07:32:05.047Z</time></trkpt><trkpt lat="43.90375" lon="7.9306567"><ele>403.0</ele><time>2026-04-26T07:32:07.047Z</time></trkpt><trkpt lat="43.9036717" lon="7.9306433"><ele>403.00000000000006</ele><time>2026-04-26T07:32:09.047Z</time></trkpt><trkpt lat="43.903605" lon="7.9306167"><ele>403.0</ele><time>2026-04-26T07:32:11.048Z</time></trkpt><trkpt lat="43.903515" lon="7.930585"><ele>403.0</ele><time>2026-04-26T07:32:14.047Z</time></trkpt><trkpt lat="43.903445" lon="7.9305683"><ele>403.0</ele><time>2026-04-26T07:32:16.047Z</time></trkpt><trkpt lat="43.9033733" lon="7.93055"><ele>403.00000000000006</ele><time>2026-04-26T07:32:18.047Z</time></trkpt><trkpt lat="43.9033" lon="7.930515"><ele>403.0</ele><time>2026-04-26T07:32:20.047Z</time></trkpt><trkpt lat="43.9032383" lon="7.9304583"><ele>403.33333333333337</ele><time>2026-04-26T07:32:22.047Z</time></trkpt><trkpt lat="43.9031633" lon="7.9304167"><ele>403.6666666666667</ele><time>2026-04-26T07:32:24.047Z</time></trkpt><trkpt lat="43.9031033" lon="7.930375"><ele>404.0</ele><time>2026-04-26T07:32:26.048Z</time></trkpt><trkpt lat="43.9030417" lon="7.9303333"><ele>404.33333333333337</ele><time>2026-04-26T07:32:28.047Z</time></trkpt><trkpt lat="43.9029767" lon="7.9302917"><ele>404.6666666666667</ele><time>2026-04-26T07:32:30.047Z</time></trkpt><trkpt lat="43.9029067" lon="7.9302683"><ele>405.0</ele><time>2026-04-26T07:32:32.047Z</time></trkpt><trkpt lat="43.902815" lon="7.9302333"><ele>405.0</ele><time>2026-04-26T07:32:34.047Z</time></trkpt><trkpt lat="43.902745" lon="7.9301933"><ele>405.0</ele><time>2026-04-26T07:32:36.047Z</time></trkpt><trkpt lat="43.9026717" lon="7.9301667"><ele>405.0</ele><time>2026-04-26T07:32:38.047Z</time></trkpt><trkpt lat="43.9025683" lon="7.93013"><ele>405.0</ele><time>2026-04-26T07:32:41.047Z</time></trkpt><trkpt lat="43.9025083" lon="7.9301033"><ele>405.0</ele><time>2026-04-26T07:32:43.048Z</time></trkpt><trkpt lat="43.90245" lon="7.9300667"><ele>405.0</ele><time>2026-04-26T07:32:45.047Z</time></trkpt><trkpt lat="43.9023717" lon="7.9300033"><ele>406.57142857142856</ele><time>2026-04-26T07:32:48.047Z</time></trkpt><trkpt lat="43.9023183" lon="7.929945"><ele>408.1428571428571</ele><time>2026-04-26T07:32:50.047Z</time></trkpt><trkpt lat="43.9022617" lon="7.9298883"><ele>409.71428571428567</ele><time>2026-04-26T07:32:52.048Z</time></trkpt><trkpt lat="43.9022017" lon="7.9298467"><ele>411.2857142857143</ele><time>2026-04-26T07:32:54.047Z</time></trkpt><trkpt lat="43.9021417" lon="7.9298"><ele>412.8571428571429</ele><time>2026-04-26T07:32:56.047Z</time></trkpt><trkpt lat="43.9020767" lon="7.92975"><ele>414.4285714285714</ele><time>2026-04-26T07:32:58.047Z</time></trkpt><trkpt lat="43.9020267" lon="7.9296883"><ele>416.0</ele><time>2026-04-26T07:33:00.047Z</time></trkpt><trkpt lat="43.9020267" lon="7.9295683"><ele>416.0</ele><time>2026-04-26T07:33:03.047Z</time></trkpt><trkpt lat="43.902055" lon="7.929485"><ele>416.0</ele><time>2026-04-26T07:33:05.047Z</time></trkpt><trkpt lat="43.902075" lon="7.9293967"><ele>416.0</ele><time>2026-04-26T07:33:07.047Z</time></trkpt><trkpt lat="43.9020933" lon="7.9293033"><ele>416.0</ele><time>2026-04-26T07:33:09.047Z</time></trkpt><trkpt lat="43.9021167" lon="7.92922"><ele>416.0</ele><time>2026-04-26T07:33:11.047Z</time></trkpt><trkpt lat="43.9021283" lon="7.9291317"><ele>416.0</ele><time>2026-04-26T07:33:13.047Z</time></trkpt><trkpt lat="43.9021367" lon="7.9289983"><ele>416.0</ele><time>2026-04-26T07:33:16.047Z</time></trkpt><trkpt lat="43.90213" lon="7.9289033"><ele>418.8333333333333</ele><time>2026-04-26T07:33:18.047Z</time></trkpt><trkpt lat="43.902125" lon="7.9288133"><ele>421.66666666666663</ele><time>2026-04-26T07:33:20.047Z</time></trkpt><trkpt lat="43.9020967" lon="7.9287"><ele>424.5</ele><time>2026-04-26T07:33:23.047Z</time></trkpt><trkpt lat="43.9020633" lon="7.9285917"><ele>427.33333333333337</ele><time>2026-04-26T07:33:26.047Z</time></trkpt><trkpt lat="43.901995" lon="7.9285333"><ele>430.1666666666667</ele><time>2026-04-26T07:33:29.047Z</time></trkpt><trkpt lat="43.90193" lon="7.92852"><ele>433.0</ele><time>2026-04-26T07:33:31.047Z</time></trkpt><trkpt lat="43.9018567" lon="7.9285217"><ele>433.00000000000006</ele><time>2026-04-26T07:33:33.047Z</time></trkpt><trkpt lat="43.9017917" lon="7.9285317"><ele>433.0</ele><time>2026-04-26T07:33:35.047Z</time></trkpt><trkpt lat="43.9017167" lon="7.9285333"><ele>433.0</ele><time>2026-04-26T07:33:37.047Z</time></trkpt><trkpt lat="43.901625" lon="7.9285417"><ele>433.0</ele><time>2026-04-26T07:33:40.047Z</time></trkpt><trkpt lat="43.9015567" lon="7.928545"><ele>433.00000000000006</ele><time>2026-04-26T07:33:42.048Z</time></trkpt><trkpt lat="43.9014617" lon="7.928555"><ele>433.0</ele><time>2026-04-26T07:33:45.047Z</time></trkpt><trkpt lat="43.90137" lon="7.9285617"><ele>432.33333333333337</ele><time>2026-04-26T07:33:48.047Z</time></trkpt><trkpt lat="43.9013067" lon="7.92857"><ele>431.6666666666667</ele><time>2026-04-26T07:33:50.047Z</time></trkpt><trkpt lat="43.9012433" lon="7.928575"><ele>431.0</ele><time>2026-04-26T07:33:52.047Z</time></trkpt><trkpt lat="43.90115" lon="7.9285867"><ele>430.33333333333337</ele><time>2026-04-26T07:33:55.047Z</time></trkpt><trkpt lat="43.9010867" lon="7.9285967"><ele>429.6666666666667</ele><time>2026-04-26T07:33:57.048Z</time></trkpt><trkpt lat="43.9010017" lon="7.9286017"><ele>429.0</ele><time>2026-04-26T07:34:00.047Z</time></trkpt><trkpt lat="43.9009117" lon="7.9286133"><ele>429.0</ele><time>2026-04-26T07:34:03.048Z</time></trkpt><trkpt lat="43.900835" lon="7.928595"><ele>429.0</ele><time>2026-04-26T07:34:06.047Z</time></trkpt><trkpt lat="43.9007583" lon="7.928515"><ele>429.0</ele><time>2026-04-26T07:34:09.048Z</time></trkpt><trkpt lat="43.9007117" lon="7.928445"><ele>429.0</ele><time>2026-04-26T07:34:11.047Z</time></trkpt><trkpt lat="43.9006517" lon="7.9283517"><ele>429.0</ele><time>2026-04-26T07:34:14.047Z</time></trkpt><trkpt lat="43.9006017" lon="7.9282983"><ele>429.0</ele><time>2026-04-26T07:34:16.047Z</time></trkpt><trkpt lat="43.900545" lon="7.9282533"><ele>431.1666666666667</ele><time>2026-04-26T07:34:18.047Z</time></trkpt><trkpt lat="43.9004833" lon="7.9282133"><ele>433.33333333333337</ele><time>2026-04-26T07:34:20.047Z</time></trkpt><trkpt lat="43.9004" lon="7.9281683"><ele>435.5</ele><time>2026-04-26T07:34:23.048Z</time></trkpt><trkpt lat="43.9003067" lon="7.9281567"><ele>437.6666666666667</ele><time>2026-04-26T07:34:26.047Z</time></trkpt><trkpt lat="43.9002367" lon="7.9281533"><ele>439.83333333333337</ele><time>2026-04-26T07:34:28.047Z</time></trkpt><trkpt lat="43.9001483" lon="7.9281583"><ele>442.0</ele><time>2026-04-26T07:34:31.047Z</time></trkpt><trkpt lat="43.9000567" lon="7.92817"><ele>442.50000000000006</ele><time>2026-04-26T07:34:34.047Z</time></trkpt><trkpt lat="43.8999883" lon="7.928185"><ele>443.0</ele><time>2026-04-26T07:34:36.047Z</time></trkpt><trkpt lat="43.8999033" lon="7.9281983"><ele>443.5</ele><time>2026-04-26T07:34:39.047Z</time></trkpt><trkpt lat="43.8998117" lon="7.928215"><ele>444.0</ele><time>2026-04-26T07:34:42.048Z</time></trkpt><trkpt lat="43.8997467" lon="7.928225"><ele>444.50000000000006</ele><time>2026-04-26T07:34:44.047Z</time></trkpt><trkpt lat="43.8996817" lon="7.9282383"><ele>445.0</ele><time>2026-04-26T07:34:46.047Z</time></trkpt><trkpt lat="43.8996017" lon="7.928275"><ele>445.00000000000006</ele><time>2026-04-26T07:34:49.047Z</time></trkpt><trkpt lat="43.89951" lon="7.9283067"><ele>445.0</ele><time>2026-04-26T07:34:52.048Z</time></trkpt><trkpt lat="43.89945" lon="7.9283533"><ele>445.0</ele><time>2026-04-26T07:34:54.047Z</time></trkpt><trkpt lat="43.899395" lon="7.9283967"><ele>445.0</ele><time>2026-04-26T07:34:56.048Z</time></trkpt><trkpt lat="43.8993117" lon="7.9284583"><ele>445.00000000000006</ele><time>2026-04-26T07:34:59.047Z</time></trkpt><trkpt lat="43.8992517" lon="7.9285033"><ele>445.0</ele><time>2026-04-26T07:35:01.047Z</time></trkpt><trkpt lat="43.8991983" lon="7.9285517"><ele>445.50000000000006</ele><time>2026-04-26T07:35:03.048Z</time></trkpt><trkpt lat="43.8991433" lon="7.9286017"><ele>446.0</ele><time>2026-04-26T07:35:05.048Z</time></trkpt><trkpt lat="43.8990683" lon="7.9286717"><ele>446.5</ele><time>2026-04-26T07:35:08.047Z</time></trkpt><trkpt lat="43.8989833" lon="7.9287133"><ele>447.0</ele><time>2026-04-26T07:35:11.048Z</time></trkpt><trkpt lat="43.8989133" lon="7.9286767"><ele>447.50000000000006</ele><time>2026-04-26T07:35:14.048Z</time></trkpt><trkpt lat="43.8989017" lon="7.9285817"><ele>448.0</ele><time>2026-04-26T07:35:17.047Z</time></trkpt><trkpt lat="43.898935" lon="7.9284883"><ele>448.57142857142856</ele><time>2026-04-26T07:35:20.048Z</time></trkpt><trkpt lat="43.8989783" lon="7.9283917"><ele>449.1428571428571</ele><time>2026-04-26T07:35:23.047Z</time></trkpt><trkpt lat="43.8990233" lon="7.9282933"><ele>449.7142857142857</ele><time>2026-04-26T07:35:26.047Z</time></trkpt><trkpt lat="43.8990683" lon="7.928225"><ele>450.2857142857143</ele><time>2026-04-26T07:35:29.047Z</time></trkpt><trkpt lat="43.8991283" lon="7.9281583"><ele>450.85714285714283</ele><time>2026-04-26T07:35:33.047Z</time></trkpt><trkpt lat="43.8991867" lon="7.9281183"><ele>451.42857142857144</ele><time>2026-04-26T07:35:37.048Z</time></trkpt><trkpt lat="43.8992067" lon="7.9282033"><ele>452.0</ele><time>2026-04-26T07:35:43.047Z</time></trkpt><trkpt lat="43.8991317" lon="7.9282217"><ele>451.99999999999994</ele><time>2026-04-26T07:35:48.047Z</time></trkpt><trkpt lat="43.8990883" lon="7.9282883"><ele>452.0</ele><time>2026-04-26T07:35:53.047Z</time></trkpt><trkpt lat="43.8991783" lon="7.9283333"><ele>452.0</ele><time>2026-04-26T07:38:01.047Z</time></trkpt><trkpt lat="43.8991133" lon="7.9283133"><ele>452.0</ele><time>2026-04-26T07:42:59.047Z</time></trkpt><trkpt lat="43.8991217" lon="7.928215"><ele>451.99999999999994</ele><time>2026-04-26T07:43:13.047Z</time></trkpt><trkpt lat="43.8991783" lon="7.928155"><ele>452.0</ele><time>2026-04-26T07:43:17.047Z</time></trkpt><trkpt lat="43.89922" lon="7.9280567"><ele>450.8333333333333</ele><time>2026-04-26T07:43:20.047Z</time></trkpt><trkpt lat="43.8992717" lon="7.9279533"><ele>449.66666666666663</ele><time>2026-04-26T07:43:23.047Z</time></trkpt><trkpt lat="43.899325" lon="7.927855"><ele>448.5</ele><time>2026-04-26T07:43:26.047Z</time></trkpt><trkpt lat="43.8993867" lon="7.9277883"><ele>447.33333333333337</ele><time>2026-04-26T07:43:29.047Z</time></trkpt><trkpt lat="43.8994467" lon="7.92771"><ele>446.1666666666667</ele><time>2026-04-26T07:43:32.047Z</time></trkpt><trkpt lat="43.8995067" lon="7.9276317"><ele>445.0</ele><time>2026-04-26T07:43:35.047Z</time></trkpt><trkpt lat="43.8995767" lon="7.9275633"><ele>447.50000000000006</ele><time>2026-04-26T07:43:38.047Z</time></trkpt><trkpt lat="43.899645" lon="7.927515"><ele>450.0</ele><time>2026-04-26T07:43:41.047Z</time></trkpt><trkpt lat="43.8997167" lon="7.9274583"><ele>452.5</ele><time>2026-04-26T07:43:44.047Z</time></trkpt><trkpt lat="43.8997833" lon="7.927385"><ele>455.0</ele><time>2026-04-26T07:43:47.047Z</time></trkpt><trkpt lat="43.8998483" lon="7.927305"><ele>457.50000000000006</ele><time>2026-04-26T07:43:50.047Z</time></trkpt><trkpt lat="43.8999033" lon="7.92725"><ele>460.0</ele><time>2026-04-26T07:43:52.047Z</time></trkpt><trkpt lat="43.8999633" lon="7.9271983"><ele>460.00000000000006</ele><time>2026-04-26T07:43:54.047Z</time></trkpt><trkpt lat="43.9000283" lon="7.9271433"><ele>460.0</ele><time>2026-04-26T07:43:57.047Z</time></trkpt><trkpt lat="43.9000883" lon="7.9270867"><ele>460.0</ele><time>2026-04-26T07:44:00.047Z</time></trkpt><trkpt lat="43.90015" lon="7.92702"><ele>460.0</ele><time>2026-04-26T07:44:03.047Z</time></trkpt><trkpt lat="43.9002183" lon="7.92696"><ele>460.00000000000006</ele><time>2026-04-26T07:44:06.047Z</time></trkpt><trkpt lat="43.9002833" lon="7.9268783"><ele>460.0</ele><time>2026-04-26T07:44:09.048Z</time></trkpt><trkpt lat="43.9003383" lon="7.926815"><ele>459.6666666666667</ele><time>2026-04-26T07:44:11.047Z</time></trkpt><trkpt lat="43.9003883" lon="7.9267567"><ele>459.33333333333337</ele><time>2026-04-26T07:44:13.047Z</time></trkpt><trkpt lat="43.900465" lon="7.926685"><ele>459.0</ele><time>2026-04-26T07:44:16.048Z</time></trkpt><trkpt lat="43.9005483" lon="7.92662"><ele>458.66666666666663</ele><time>2026-04-26T07:44:19.047Z</time></trkpt><trkpt lat="43.9006383" lon="7.9265883"><ele>458.3333333333333</ele><time>2026-04-26T07:44:22.047Z</time></trkpt><trkpt lat="43.9007017" lon="7.9265717"><ele>458.0</ele><time>2026-04-26T07:44:24.047Z</time></trkpt><trkpt lat="43.9007883" lon="7.926555"><ele>460.99999999999994</ele><time>2026-04-26T07:44:27.047Z</time></trkpt><trkpt lat="43.9008517" lon="7.926545"><ele>464.0</ele><time>2026-04-26T07:44:29.047Z</time></trkpt><trkpt lat="43.90094" lon="7.9265267"><ele>467.0</ele><time>2026-04-26T07:44:32.047Z</time></trkpt><trkpt lat="43.90103" lon="7.9264917"><ele>470.0</ele><time>2026-04-26T07:44:35.048Z</time></trkpt><trkpt lat="43.901115" lon="7.92645"><ele>472.99999999999994</ele><time>2026-04-26T07:44:38.047Z</time></trkpt><trkpt lat="43.9011933" lon="7.9263967"><ele>476.0</ele><time>2026-04-26T07:44:41.047Z</time></trkpt><trkpt lat="43.9012567" lon="7.9263717"><ele>476.3333333333333</ele><time>2026-04-26T07:44:44.047Z</time></trkpt><trkpt lat="43.90134" lon="7.9263617"><ele>476.66666666666663</ele><time>2026-04-26T07:44:47.047Z</time></trkpt><trkpt lat="43.9014133" lon="7.9263467"><ele>477.0</ele><time>2026-04-26T07:44:50.047Z</time></trkpt><trkpt lat="43.901485" lon="7.9263167"><ele>477.33333333333337</ele><time>2026-04-26T07:44:53.047Z</time></trkpt><trkpt lat="43.9015583" lon="7.9262833"><ele>477.6666666666667</ele><time>2026-04-26T07:44:56.047Z</time></trkpt><trkpt lat="43.9016317" lon="7.926235"><ele>478.0</ele><time>2026-04-26T07:44:59.047Z</time></trkpt><trkpt lat="43.901715" lon="7.9262117"><ele>477.7142857142858</ele><time>2026-04-26T07:45:02.047Z</time></trkpt><trkpt lat="43.9017817" lon="7.9261867"><ele>477.42857142857144</ele><time>2026-04-26T07:45:05.047Z</time></trkpt><trkpt lat="43.9018617" lon="7.9261567"><ele>477.14285714285717</ele><time>2026-04-26T07:45:08.047Z</time></trkpt><trkpt lat="43.901925" lon="7.9261367"><ele>476.8571428571429</ele><time>2026-04-26T07:45:11.047Z</time></trkpt><trkpt lat="43.9019883" lon="7.9260717"><ele>476.57142857142856</ele><time>2026-04-26T07:45:14.047Z</time></trkpt><trkpt lat="43.9020517" lon="7.9260133"><ele>476.2857142857143</ele><time>2026-04-26T07:45:17.047Z</time></trkpt><trkpt lat="43.9021033" lon="7.9259517"><ele>476.0</ele><time>2026-04-26T07:45:19.047Z</time></trkpt><trkpt lat="43.9021617" lon="7.92588"><ele>478.66666666666663</ele><time>2026-04-26T07:45:22.047Z</time></trkpt><trkpt lat="43.9022183" lon="7.9258133"><ele>481.3333333333333</ele><time>2026-04-26T07:45:25.047Z</time></trkpt><trkpt lat="43.9023017" lon="7.925765"><ele>484.0</ele><time>2026-04-26T07:45:28.047Z</time></trkpt><trkpt lat="43.9023817" lon="7.9257533"><ele>486.66666666666663</ele><time>2026-04-26T07:45:31.047Z</time></trkpt><trkpt lat="43.902465" lon="7.9257467"><ele>489.3333333333333</ele><time>2026-04-26T07:45:34.047Z</time></trkpt><trkpt lat="43.9025517" lon="7.9257317"><ele>492.0</ele><time>2026-04-26T07:45:37.047Z</time></trkpt><trkpt lat="43.90264" lon="7.9256967"><ele>492.0</ele><time>2026-04-26T07:45:40.047Z</time></trkpt><trkpt lat="43.902715" lon="7.9256767"><ele>492.0</ele><time>2026-04-26T07:45:43.047Z</time></trkpt><trkpt lat="43.9027817" lon="7.92566"><ele>492.0</ele><time>2026-04-26T07:45:46.047Z</time></trkpt><trkpt lat="43.9028533" lon="7.92566"><ele>492.0</ele><time>2026-04-26T07:45:49.047Z</time></trkpt><trkpt lat="43.90293" lon="7.9256617"><ele>492.0</ele><time>2026-04-26T07:45:52.047Z</time></trkpt><trkpt lat="43.903015" lon="7.925635"><ele>492.0</ele><time>2026-04-26T07:45:55.047Z</time></trkpt><trkpt lat="43.9030933" lon="7.925585"><ele>492.0</ele><time>2026-04-26T07:45:58.047Z</time></trkpt><trkpt lat="43.9031517" lon="7.9255017"><ele>492.0</ele><time>2026-04-26T07:46:01.047Z</time></trkpt><trkpt lat="43.9032067" lon="7.9254133"><ele>492.0</ele><time>2026-04-26T07:46:04.047Z</time></trkpt><trkpt lat="43.9032583" lon="7.9253"><ele>492.0</ele><time>2026-04-26T07:46:07.048Z</time></trkpt><trkpt lat="43.9032967" lon="7.92522"><ele>492.0</ele><time>2026-04-26T07:46:09.047Z</time></trkpt><trkpt lat="43.9033567" lon="7.92513"><ele>492.0</ele><time>2026-04-26T07:46:12.047Z</time></trkpt><trkpt lat="43.9034217" lon="7.9250433"><ele>492.6666666666667</ele><time>2026-04-26T07:46:15.047Z</time></trkpt><trkpt lat="43.903485" lon="7.924965"><ele>493.33333333333337</ele><time>2026-04-26T07:46:18.048Z</time></trkpt><trkpt lat="43.9035483" lon="7.92489"><ele>494.0</ele><time>2026-04-26T07:46:21.047Z</time></trkpt><trkpt lat="43.9036017" lon="7.9248217"><ele>494.6666666666667</ele><time>2026-04-26T07:46:24.047Z</time></trkpt><trkpt lat="43.9036583" lon="7.9247467"><ele>495.33333333333337</ele><time>2026-04-26T07:46:27.047Z</time></trkpt><trkpt lat="43.90373" lon="7.9246867"><ele>496.0</ele><time>2026-04-26T07:46:30.047Z</time></trkpt><trkpt lat="43.9037967" lon="7.9246233"><ele>496.00000000000006</ele><time>2026-04-26T07:46:33.047Z</time></trkpt><trkpt lat="43.9038667" lon="7.9245733"><ele>496.0</ele><time>2026-04-26T07:46:36.047Z</time></trkpt><trkpt lat="43.9039367" lon="7.9245133"><ele>496.0</ele><time>2026-04-26T07:46:39.047Z</time></trkpt><trkpt lat="43.903985" lon="7.9244567"><ele>496.0</ele><time>2026-04-26T07:46:41.048Z</time></trkpt><trkpt lat="43.9040517" lon="7.9243817"><ele>496.00000000000006</ele><time>2026-04-26T07:46:44.047Z</time></trkpt><trkpt lat="43.90411" lon="7.9242967"><ele>496.0</ele><time>2026-04-26T07:46:47.047Z</time></trkpt><trkpt lat="43.9041783" lon="7.92424"><ele>496.83333333333337</ele><time>2026-04-26T07:46:50.047Z</time></trkpt><trkpt lat="43.90425" lon="7.924175"><ele>497.6666666666667</ele><time>2026-04-26T07:46:53.047Z</time></trkpt><trkpt lat="43.9043233" lon="7.9241383"><ele>498.5</ele><time>2026-04-26T07:46:56.047Z</time></trkpt><trkpt lat="43.9043917" lon="7.9240933"><ele>499.33333333333337</ele><time>2026-04-26T07:46:59.047Z</time></trkpt><trkpt lat="43.9044517" lon="7.924025"><ele>500.1666666666667</ele><time>2026-04-26T07:47:02.047Z</time></trkpt><trkpt lat="43.9045" lon="7.923935"><ele>501.0</ele><time>2026-04-26T07:47:05.047Z</time></trkpt><trkpt lat="43.9045383" lon="7.92384"><ele>501.0</ele><time>2026-04-26T07:47:08.048Z</time></trkpt><trkpt lat="43.9045933" lon="7.9237483"><ele>501.0</ele><time>2026-04-26T07:47:11.047Z</time></trkpt><trkpt lat="43.9046483" lon="7.9236533"><ele>501.0</ele><time>2026-04-26T07:47:14.047Z</time></trkpt><trkpt lat="43.9047033" lon="7.9235633"><ele>501.0</ele><time>2026-04-26T07:47:17.047Z</time></trkpt><trkpt lat="43.904755" lon="7.9234783"><ele>501.0</ele><time>2026-04-26T07:47:20.047Z</time></trkpt><trkpt lat="43.9048183" lon="7.9234"><ele>501.0</ele><time>2026-04-26T07:47:23.047Z</time></trkpt><trkpt lat="43.9048917" lon="7.92335"><ele>503.1666666666667</ele><time>2026-04-26T07:47:26.047Z</time></trkpt><trkpt lat="43.904965" lon="7.9233167"><ele>505.33333333333337</ele><time>2026-04-26T07:47:29.047Z</time></trkpt><trkpt lat="43.905025" lon="7.9232583"><ele>507.5</ele><time>2026-04-26T07:47:32.047Z</time></trkpt><trkpt lat="43.9050783" lon="7.9231633"><ele>509.6666666666667</ele><time>2026-04-26T07:47:35.047Z</time></trkpt><trkpt lat="43.9051383" lon="7.9230733"><ele>511.83333333333337</ele><time>2026-04-26T07:47:38.047Z</time></trkpt><trkpt lat="43.90519" lon="7.923005"><ele>514.0</ele><time>2026-04-26T07:47:41.047Z</time></trkpt><trkpt lat="43.9052667" lon="7.9229817"><ele>514.0</ele><time>2026-04-26T07:47:44.047Z</time></trkpt><trkpt lat="43.90534" lon="7.9229767"><ele>514.0</ele><time>2026-04-26T07:47:47.048Z</time></trkpt><trkpt lat="43.9054117" lon="7.9229583"><ele>514.0</ele><time>2026-04-26T07:47:50.047Z</time></trkpt><trkpt lat="43.9054683" lon="7.9228833"><ele>514.0</ele><time>2026-04-26T07:47:53.048Z</time></trkpt><trkpt lat="43.905495" lon="7.9228033"><ele>514.0</ele><time>2026-04-26T07:47:55.047Z</time></trkpt><trkpt lat="43.90552" lon="7.9226833"><ele>514.0</ele><time>2026-04-26T07:47:58.047Z</time></trkpt><trkpt lat="43.9055333" lon="7.92257"><ele>515.6666666666667</ele><time>2026-04-26T07:48:01.047Z</time></trkpt><trkpt lat="43.9055633" lon="7.9224667"><ele>517.3333333333334</ele><time>2026-04-26T07:48:04.047Z</time></trkpt><trkpt lat="43.9055917" lon="7.922375"><ele>519.0</ele><time>2026-04-26T07:48:07.047Z</time></trkpt><trkpt lat="43.905595" lon="7.9222717"><ele>520.6666666666666</ele><time>2026-04-26T07:48:10.048Z</time></trkpt><trkpt lat="43.9055833" lon="7.92216"><ele>522.3333333333333</ele><time>2026-04-26T07:48:13.047Z</time></trkpt><trkpt lat="43.90557" lon="7.9220483"><ele>524.0</ele><time>2026-04-26T07:48:16.047Z</time></trkpt><trkpt lat="43.9055617" lon="7.9219483"><ele>524.0</ele><time>2026-04-26T07:48:19.047Z</time></trkpt><trkpt lat="43.9055717" lon="7.9218433"><ele>524.0</ele><time>2026-04-26T07:48:22.048Z</time></trkpt><trkpt lat="43.905575" lon="7.9217317"><ele>524.0</ele><time>2026-04-26T07:48:25.047Z</time></trkpt><trkpt lat="43.9055917" lon="7.9216233"><ele>524.0</ele><time>2026-04-26T07:48:28.047Z</time></trkpt><trkpt lat="43.9056033" lon="7.9215033"><ele>524.0</ele><time>2026-04-26T07:48:31.047Z</time></trkpt><trkpt lat="43.905625" lon="7.9213917"><ele>524.0</ele><time>2026-04-26T07:48:34.047Z</time></trkpt><trkpt lat="43.905645" lon="7.92128"><ele>524.3333333333333</ele><time>2026-04-26T07:48:37.047Z</time></trkpt><trkpt lat="43.90566" lon="7.92118"><ele>524.6666666666666</ele><time>2026-04-26T07:48:40.048Z</time></trkpt><trkpt lat="43.9056783" lon="7.9210733"><ele>525.0</ele><time>2026-04-26T07:48:43.047Z</time></trkpt><trkpt lat="43.9057233" lon="7.92098"><ele>525.3333333333334</ele><time>2026-04-26T07:48:46.047Z</time></trkpt><trkpt lat="43.90578" lon="7.9208933"><ele>525.6666666666667</ele><time>2026-04-26T07:48:49.047Z</time></trkpt><trkpt lat="43.9058533" lon="7.92084"><ele>526.0</ele><time>2026-04-26T07:48:52.047Z</time></trkpt><trkpt lat="43.9059283" lon="7.920795"><ele>526.0</ele><time>2026-04-26T07:48:55.047Z</time></trkpt><trkpt lat="43.9059917" lon="7.9207267"><ele>526.0</ele><time>2026-04-26T07:48:58.047Z</time></trkpt><trkpt lat="43.906055" lon="7.9206567"><ele>526.0</ele><time>2026-04-26T07:49:01.047Z</time></trkpt><trkpt lat="43.906115" lon="7.9205883"><ele>526.0</ele><time>2026-04-26T07:49:04.048Z</time></trkpt><trkpt lat="43.9061783" lon="7.9205083"><ele>526.0</ele><time>2026-04-26T07:49:07.047Z</time></trkpt><trkpt lat="43.9062283" lon="7.9204167"><ele>526.0</ele><time>2026-04-26T07:49:10.047Z</time></trkpt><trkpt lat="43.90628" lon="7.92031"><ele>526.0</ele><time>2026-04-26T07:49:13.047Z</time></trkpt><trkpt lat="43.90633" lon="7.9202167"><ele>526.0</ele><time>2026-04-26T07:49:16.047Z</time></trkpt><trkpt lat="43.90638" lon="7.9201333"><ele>526.0</ele><time>2026-04-26T07:49:19.047Z</time></trkpt><trkpt lat="43.90644" lon="7.92007"><ele>526.0</ele><time>2026-04-26T07:49:22.047Z</time></trkpt><trkpt lat="43.9065067" lon="7.920005"><ele>526.0</ele><time>2026-04-26T07:49:25.047Z</time></trkpt><trkpt lat="43.90657" lon="7.919925"><ele>526.0</ele><time>2026-04-26T07:49:28.047Z</time></trkpt><trkpt lat="43.9066267" lon="7.9198317"><ele>528.0</ele><time>2026-04-26T07:49:31.047Z</time></trkpt><trkpt lat="43.9066833" lon="7.9197517"><ele>530.0</ele><time>2026-04-26T07:49:34.047Z</time></trkpt><trkpt lat="43.9067567" lon="7.9196983"><ele>532.0</ele><time>2026-04-26T07:49:37.047Z</time></trkpt><trkpt lat="43.9068333" lon="7.9196883"><ele>534.0</ele><time>2026-04-26T07:49:40.047Z</time></trkpt><trkpt lat="43.9069067" lon="7.9196867"><ele>536.0</ele><time>2026-04-26T07:49:43.047Z</time></trkpt><trkpt lat="43.9069867" lon="7.9196567"><ele>538.0</ele><time>2026-04-26T07:49:46.047Z</time></trkpt><trkpt lat="43.9070517" lon="7.9196233"><ele>538.0</ele><time>2026-04-26T07:49:49.047Z</time></trkpt><trkpt lat="43.907125" lon="7.9195717"><ele>538.0</ele><time>2026-04-26T07:49:52.047Z</time></trkpt><trkpt lat="43.907205" lon="7.9195317"><ele>538.0</ele><time>2026-04-26T07:49:55.048Z</time></trkpt><trkpt lat="43.90729" lon="7.9195033"><ele>538.0</ele><time>2026-04-26T07:49:58.047Z</time></trkpt><trkpt lat="43.9073683" lon="7.91949"><ele>538.0</ele><time>2026-04-26T07:50:01.048Z</time></trkpt><trkpt lat="43.90744" lon="7.9194283"><ele>538.0</ele><time>2026-04-26T07:50:04.047Z</time></trkpt><trkpt lat="43.9074933" lon="7.9193483"><ele>538.0</ele><time>2026-04-26T07:50:07.047Z</time></trkpt><trkpt lat="43.9075183" lon="7.9192533"><ele>538.0</ele><time>2026-04-26T07:50:10.047Z</time></trkpt><trkpt lat="43.9075267" lon="7.9191417"><ele>538.0</ele><time>2026-04-26T07:50:13.047Z</time></trkpt><trkpt lat="43.9075567" lon="7.9190383"><ele>538.0</ele><time>2026-04-26T07:50:16.047Z</time></trkpt><trkpt lat="43.9076033" lon="7.9189467"><ele>538.0</ele><time>2026-04-26T07:50:19.047Z</time></trkpt><trkpt lat="43.9076367" lon="7.91885"><ele>538.0</ele><time>2026-04-26T07:50:22.047Z</time></trkpt><trkpt lat="43.9076567" lon="7.9187433"><ele>537.4285714285714</ele><time>2026-04-26T07:50:25.047Z</time></trkpt><trkpt lat="43.9076617" lon="7.9186417"><ele>536.8571428571429</ele><time>2026-04-26T07:50:28.047Z</time></trkpt><trkpt lat="43.9076417" lon="7.9185483"><ele>536.2857142857143</ele><time>2026-04-26T07:50:31.047Z</time></trkpt><trkpt lat="43.9076267" lon="7.9184467"><ele>535.7142857142858</ele><time>2026-04-26T07:50:34.047Z</time></trkpt><trkpt lat="43.9076183" lon="7.918355"><ele>535.1428571428571</ele><time>2026-04-26T07:50:37.047Z</time></trkpt><trkpt lat="43.9076083" lon="7.918255"><ele>534.5714285714287</ele><time>2026-04-26T07:50:40.047Z</time></trkpt><trkpt lat="43.907595" lon="7.9181633"><ele>534.0</ele><time>2026-04-26T07:50:43.047Z</time></trkpt><trkpt lat="43.9075817" lon="7.9180583"><ele>539.0000000000001</ele><time>2026-04-26T07:50:46.047Z</time></trkpt><trkpt lat="43.9075717" lon="7.9179717"><ele>544.0</ele><time>2026-04-26T07:50:49.047Z</time></trkpt><trkpt lat="43.90756" lon="7.9178683"><ele>549.0</ele><time>2026-04-26T07:50:53.048Z</time></trkpt><trkpt lat="43.907525" lon="7.9177633"><ele>554.0</ele><time>2026-04-26T07:50:57.047Z</time></trkpt><trkpt lat="43.9074717" lon="7.9176783"><ele>559.0</ele><time>2026-04-26T07:51:00.047Z</time></trkpt><trkpt lat="43.9074233" lon="7.91761"><ele>564.0000000000001</ele><time>2026-04-26T07:51:03.048Z</time></trkpt><trkpt lat="43.9073817" lon="7.9175283"><ele>569.0</ele><time>2026-04-26T07:51:06.047Z</time></trkpt><trkpt lat="43.9073367" lon="7.9174617"><ele>569.0000000000001</ele><time>2026-04-26T07:51:09.047Z</time></trkpt><trkpt lat="43.90728" lon="7.91739"><ele>569.0</ele><time>2026-04-26T07:51:12.047Z</time></trkpt><trkpt lat="43.9072283" lon="7.91731"><ele>569.0</ele><time>2026-04-26T07:51:15.047Z</time></trkpt><trkpt lat="43.9071783" lon="7.9172317"><ele>569.0</ele><time>2026-04-26T07:51:18.047Z</time></trkpt><trkpt lat="43.907145" lon="7.9171467"><ele>569.0</ele><time>2026-04-26T07:51:21.047Z</time></trkpt><trkpt lat="43.9071467" lon="7.917035"><ele>569.0000000000001</ele><time>2026-04-26T07:51:24.047Z</time></trkpt><trkpt lat="43.907145" lon="7.9169467"><ele>569.0</ele><time>2026-04-26T07:51:26.047Z</time></trkpt><trkpt lat="43.907125" lon="7.9168283"><ele>569.3333333333333</ele><time>2026-04-26T07:51:29.048Z</time></trkpt><trkpt lat="43.9071067" lon="7.9167133"><ele>569.6666666666666</ele><time>2026-04-26T07:51:32.047Z</time></trkpt><trkpt lat="43.9070983" lon="7.9166217"><ele>570.0</ele><time>2026-04-26T07:51:35.048Z</time></trkpt><trkpt lat="43.907085" lon="7.9165267"><ele>570.3333333333334</ele><time>2026-04-26T07:51:38.047Z</time></trkpt><trkpt lat="43.907085" lon="7.916415"><ele>570.6666666666667</ele><time>2026-04-26T07:51:41.047Z</time></trkpt><trkpt lat="43.9071133" lon="7.9163167"><ele>571.0</ele><time>2026-04-26T07:51:44.048Z</time></trkpt><trkpt lat="43.9071633" lon="7.9162267"><ele>571.0</ele><time>2026-04-26T07:51:47.047Z</time></trkpt><trkpt lat="43.9072133" lon="7.9161383"><ele>571.0</ele><time>2026-04-26T07:51:50.047Z</time></trkpt><trkpt lat="43.9072617" lon="7.916055"><ele>571.0</ele><time>2026-04-26T07:51:53.047Z</time></trkpt><trkpt lat="43.9073" lon="7.91598"><ele>571.0</ele><time>2026-04-26T07:51:56.047Z</time></trkpt><trkpt lat="43.9073417" lon="7.9159033"><ele>571.0</ele><time>2026-04-26T07:51:59.047Z</time></trkpt><trkpt lat="43.9073833" lon="7.91579"><ele>571.0</ele><time>2026-04-26T07:52:02.047Z</time></trkpt><trkpt lat="43.9074167" lon="7.9156983"><ele>570.3333333333334</ele><time>2026-04-26T07:52:04.047Z</time></trkpt><trkpt lat="43.90745" lon="7.9156133"><ele>569.6666666666667</ele><time>2026-04-26T07:52:06.047Z</time></trkpt><trkpt lat="43.9075117" lon="7.9155417"><ele>569.0</ele><time>2026-04-26T07:52:10.047Z</time></trkpt><trkpt lat="43.9075683" lon="7.9154567"><ele>568.3333333333334</ele><time>2026-04-26T07:52:13.048Z</time></trkpt><trkpt lat="43.9076217" lon="7.9153833"><ele>567.6666666666666</ele><time>2026-04-26T07:52:16.047Z</time></trkpt><trkpt lat="43.90768" lon="7.9153333"><ele>567.0</ele><time>2026-04-26T07:52:19.047Z</time></trkpt><trkpt lat="43.9077283" lon="7.915255"><ele>567.0</ele><time>2026-04-26T07:52:22.047Z</time></trkpt><trkpt lat="43.90777" lon="7.91518"><ele>567.0</ele><time>2026-04-26T07:52:25.047Z</time></trkpt><trkpt lat="43.9078133" lon="7.9151"><ele>567.0</ele><time>2026-04-26T07:52:28.047Z</time></trkpt><trkpt lat="43.9078583" lon="7.9150233"><ele>567.0</ele><time>2026-04-26T07:52:31.047Z</time></trkpt><trkpt lat="43.9079033" lon="7.914945"><ele>567.0</ele><time>2026-04-26T07:52:34.047Z</time></trkpt><trkpt lat="43.9079583" lon="7.9148783"><ele>567.0</ele><time>2026-04-26T07:52:37.047Z</time></trkpt><trkpt lat="43.908015" lon="7.9148283"><ele>567.0</ele><time>2026-04-26T07:52:40.048Z</time></trkpt><trkpt lat="43.9080817" lon="7.9147617"><ele>566.5</ele><time>2026-04-26T07:52:43.047Z</time></trkpt><trkpt lat="43.9081433" lon="7.9146883"><ele>566.0</ele><time>2026-04-26T07:52:46.047Z</time></trkpt><trkpt lat="43.908215" lon="7.91463"><ele>565.5</ele><time>2026-04-26T07:52:49.047Z</time></trkpt><trkpt lat="43.9082867" lon="7.9145967"><ele>565.0</ele><time>2026-04-26T07:52:52.047Z</time></trkpt><trkpt lat="43.9083583" lon="7.9145467"><ele>564.5</ele><time>2026-04-26T07:52:55.047Z</time></trkpt><trkpt lat="43.9084167" lon="7.9144567"><ele>564.0</ele><time>2026-04-26T07:52:58.047Z</time></trkpt><trkpt lat="43.9084717" lon="7.9143767"><ele>564.0</ele><time>2026-04-26T07:53:01.048Z</time></trkpt><trkpt lat="43.908515" lon="7.9143033"><ele>564.0</ele><time>2026-04-26T07:53:04.047Z</time></trkpt><trkpt lat="43.9085433" lon="7.914205"><ele>564.0</ele><time>2026-04-26T07:53:07.047Z</time></trkpt><trkpt lat="43.9085633" lon="7.914085"><ele>564.0</ele><time>2026-04-26T07:53:10.047Z</time></trkpt><trkpt lat="43.9085833" lon="7.913985"><ele>564.0</ele><time>2026-04-26T07:53:13.047Z</time></trkpt><trkpt lat="43.9086133" lon="7.91389"><ele>564.0</ele><time>2026-04-26T07:53:16.047Z</time></trkpt><trkpt lat="43.9086433" lon="7.9138117"><ele>564.0</ele><time>2026-04-26T07:53:19.047Z</time></trkpt><trkpt lat="43.90867" lon="7.9137217"><ele>566.8333333333334</ele><time>2026-04-26T07:53:22.047Z</time></trkpt><trkpt lat="43.9086717" lon="7.9136183"><ele>569.6666666666666</ele><time>2026-04-26T07:53:25.047Z</time></trkpt><trkpt lat="43.9086917" lon="7.9135217"><ele>572.5</ele><time>2026-04-26T07:53:28.047Z</time></trkpt><trkpt lat="43.90872" lon="7.913415"><ele>575.3333333333333</ele><time>2026-04-26T07:53:31.047Z</time></trkpt><trkpt lat="43.9087583" lon="7.9133033"><ele>578.1666666666666</ele><time>2026-04-26T07:53:34.047Z</time></trkpt><trkpt lat="43.908795" lon="7.9131883"><ele>581.0</ele><time>2026-04-26T07:53:37.047Z</time></trkpt><trkpt lat="43.9088333" lon="7.9130683"><ele>583.1666666666666</ele><time>2026-04-26T07:53:40.047Z</time></trkpt><trkpt lat="43.9088467" lon="7.9129683"><ele>585.3333333333333</ele><time>2026-04-26T07:53:43.047Z</time></trkpt><trkpt lat="43.9088733" lon="7.9128583"><ele>587.5</ele><time>2026-04-26T07:53:47.047Z</time></trkpt><trkpt lat="43.9089067" lon="7.9127783"><ele>589.6666666666666</ele><time>2026-04-26T07:53:50.047Z</time></trkpt><trkpt lat="43.9089517" lon="7.912695"><ele>591.8333333333334</ele><time>2026-04-26T07:53:54.048Z</time></trkpt><trkpt lat="43.9090033" lon="7.912605"><ele>594.0</ele><time>2026-04-26T07:53:58.048Z</time></trkpt><trkpt lat="43.9090583" lon="7.912525"><ele>594.1666666666666</ele><time>2026-04-26T07:54:01.047Z</time></trkpt><trkpt lat="43.9091083" lon="7.912445"><ele>594.3333333333334</ele><time>2026-04-26T07:54:04.047Z</time></trkpt><trkpt lat="43.9091633" lon="7.912385"><ele>594.5</ele><time>2026-04-26T07:54:07.047Z</time></trkpt><trkpt lat="43.9092167" lon="7.91232"><ele>594.6666666666667</ele><time>2026-04-26T07:54:10.047Z</time></trkpt><trkpt lat="43.9092767" lon="7.912235"><ele>594.8333333333334</ele><time>2026-04-26T07:54:13.047Z</time></trkpt><trkpt lat="43.9093433" lon="7.9121533"><ele>595.0</ele><time>2026-04-26T07:54:16.047Z</time></trkpt><trkpt lat="43.9094017" lon="7.91207"><ele>595.0</ele><time>2026-04-26T07:54:19.047Z</time></trkpt><trkpt lat="43.90947" lon="7.9120083"><ele>595.0</ele><time>2026-04-26T07:54:22.047Z</time></trkpt><trkpt lat="43.9095283" lon="7.911975"><ele>595.0</ele><time>2026-04-26T07:54:25.047Z</time></trkpt><trkpt lat="43.9095967" lon="7.9119333"><ele>595.0</ele><time>2026-04-26T07:54:28.047Z</time></trkpt><trkpt lat="43.909655" lon="7.9118483"><ele>595.0</ele><time>2026-04-26T07:54:31.047Z</time></trkpt><trkpt lat="43.9096967" lon="7.9117717"><ele>595.0</ele><time>2026-04-26T07:54:34.047Z</time></trkpt><trkpt lat="43.909745" lon="7.9116633"><ele>598.5</ele><time>2026-04-26T07:54:37.047Z</time></trkpt><trkpt lat="43.9097917" lon="7.9115517"><ele>602.0</ele><time>2026-04-26T07:54:39.047Z</time></trkpt><trkpt lat="43.90984" lon="7.911445"><ele>605.5</ele><time>2026-04-26T07:54:41.047Z</time></trkpt><trkpt lat="43.90986" lon="7.9113583"><ele>609.0</ele><time>2026-04-26T07:54:45.047Z</time></trkpt><trkpt lat="43.9099167" lon="7.9113017"><ele>612.5</ele><time>2026-04-26T07:54:49.047Z</time></trkpt><trkpt lat="43.90994" lon="7.911215"><ele>616.0</ele><time>2026-04-26T07:54:52.047Z</time></trkpt><trkpt lat="43.9099783" lon="7.91112"><ele>616.0</ele><time>2026-04-26T07:54:55.047Z</time></trkpt><trkpt lat="43.91002" lon="7.91105"><ele>616.0</ele><time>2026-04-26T07:54:58.047Z</time></trkpt><trkpt lat="43.9100667" lon="7.910985"><ele>616.0</ele><time>2026-04-26T07:55:01.047Z</time></trkpt><trkpt lat="43.9101133" lon="7.9109133"><ele>616.0</ele><time>2026-04-26T07:55:04.047Z</time></trkpt><trkpt lat="43.9101717" lon="7.910845"><ele>616.0</ele><time>2026-04-26T07:55:07.047Z</time></trkpt><trkpt lat="43.9102233" lon="7.9107883"><ele>616.0</ele><time>2026-04-26T07:55:10.047Z</time></trkpt><trkpt lat="43.9102733" lon="7.910715"><ele>616.0</ele><time>2026-04-26T07:55:13.047Z</time></trkpt><trkpt lat="43.9103467" lon="7.9106867"><ele>616.8571428571429</ele><time>2026-04-26T07:55:16.047Z</time></trkpt><trkpt lat="43.91041" lon="7.910675"><ele>617.7142857142858</ele><time>2026-04-26T07:55:19.047Z</time></trkpt><trkpt lat="43.910485" lon="7.91063"><ele>618.5714285714286</ele><time>2026-04-26T07:55:22.048Z</time></trkpt><trkpt lat="43.91054" lon="7.9105683"><ele>619.4285714285714</ele><time>2026-04-26T07:55:25.047Z</time></trkpt><trkpt lat="43.9105967" lon="7.9105283"><ele>620.2857142857143</ele><time>2026-04-26T07:55:28.047Z</time></trkpt><trkpt lat="43.9106633" lon="7.9104783"><ele>621.1428571428571</ele><time>2026-04-26T07:55:31.047Z</time></trkpt><trkpt lat="43.9107183" lon="7.9104283"><ele>622.0</ele><time>2026-04-26T07:55:33.047Z</time></trkpt><trkpt lat="43.9107667" lon="7.910355"><ele>622.0</ele><time>2026-04-26T07:55:35.047Z</time></trkpt><trkpt lat="43.910815" lon="7.9102383"><ele>622.0</ele><time>2026-04-26T07:55:38.047Z</time></trkpt><trkpt lat="43.910855" lon="7.9101533"><ele>622.0</ele><time>2026-04-26T07:55:40.047Z</time></trkpt><trkpt lat="43.9109067" lon="7.9100333"><ele>622.0</ele><time>2026-04-26T07:55:42.047Z</time></trkpt><trkpt lat="43.910935" lon="7.9099133"><ele>622.0</ele><time>2026-04-26T07:55:44.047Z</time></trkpt><trkpt lat="43.9109733" lon="7.90982"><ele>622.0</ele><time>2026-04-26T07:55:46.048Z</time></trkpt><trkpt lat="43.9110067" lon="7.909745"><ele>621.5714285714286</ele><time>2026-04-26T07:55:48.047Z</time></trkpt><trkpt lat="43.911035" lon="7.9096617"><ele>621.1428571428572</ele><time>2026-04-26T07:55:50.047Z</time></trkpt><trkpt lat="43.9110717" lon="7.90959"><ele>620.7142857142858</ele><time>2026-04-26T07:55:53.048Z</time></trkpt><trkpt lat="43.9110867" lon="7.909485"><ele>620.2857142857142</ele><time>2026-04-26T07:55:57.047Z</time></trkpt><trkpt lat="43.9111033" lon="7.9093967"><ele>619.8571428571429</ele><time>2026-04-26T07:56:00.048Z</time></trkpt><trkpt lat="43.9111383" lon="7.9093083"><ele>619.4285714285714</ele><time>2026-04-26T07:56:03.047Z</time></trkpt><trkpt lat="43.9111583" lon="7.909225"><ele>619.0</ele><time>2026-04-26T07:56:06.047Z</time></trkpt><trkpt lat="43.9111783" lon="7.9091333"><ele>621.5</ele><time>2026-04-26T07:56:10.047Z</time></trkpt><trkpt lat="43.9112017" lon="7.9090217"><ele>624.0</ele><time>2026-04-26T07:56:14.047Z</time></trkpt><trkpt lat="43.9112317" lon="7.9089233"><ele>626.5</ele><time>2026-04-26T07:56:17.047Z</time></trkpt><trkpt lat="43.9112333" lon="7.908795"><ele>629.0</ele><time>2026-04-26T07:56:20.047Z</time></trkpt><trkpt lat="43.911155" lon="7.90878"><ele>631.5</ele><time>2026-04-26T07:56:35.047Z</time></trkpt><trkpt lat="43.91108" lon="7.9088083"><ele>634.0</ele><time>2026-04-26T07:56:40.047Z</time></trkpt><trkpt lat="43.9110183" lon="7.9088617"><ele>634.0</ele><time>2026-04-26T07:56:43.047Z</time></trkpt><trkpt lat="43.9109567" lon="7.90891"><ele>634.0</ele><time>2026-04-26T07:56:45.047Z</time></trkpt><trkpt lat="43.9108767" lon="7.9089617"><ele>634.0</ele><time>2026-04-26T07:56:48.047Z</time></trkpt><trkpt lat="43.9108083" lon="7.9089867"><ele>634.0</ele><time>2026-04-26T07:56:51.047Z</time></trkpt><trkpt lat="43.9107633" lon="7.9090517"><ele>634.0</ele><time>2026-04-26T07:56:54.047Z</time></trkpt><trkpt lat="43.9106867" lon="7.909115"><ele>634.0</ele><time>2026-04-26T07:56:57.047Z</time></trkpt><trkpt lat="43.9106217" lon="7.90917"><ele>634.3333333333334</ele><time>2026-04-26T07:57:00.047Z</time></trkpt><trkpt lat="43.910555" lon="7.9092267"><ele>634.6666666666667</ele><time>2026-04-26T07:57:03.047Z</time></trkpt><trkpt lat="43.9105067" lon="7.909295"><ele>635.0</ele><time>2026-04-26T07:57:06.047Z</time></trkpt><trkpt lat="43.910415" lon="7.909355"><ele>635.3333333333334</ele><time>2026-04-26T07:57:09.048Z</time></trkpt><trkpt lat="43.9103417" lon="7.9094233"><ele>635.6666666666666</ele><time>2026-04-26T07:57:12.047Z</time></trkpt><trkpt lat="43.910285" lon="7.90947"><ele>636.0</ele><time>2026-04-26T07:57:14.047Z</time></trkpt><trkpt lat="43.910225" lon="7.9095017"><ele>636.0</ele><time>2026-04-26T07:57:16.047Z</time></trkpt><trkpt lat="43.9101583" lon="7.90954"><ele>636.0</ele><time>2026-04-26T07:57:19.047Z</time></trkpt><trkpt lat="43.9100817" lon="7.909595"><ele>636.0</ele><time>2026-04-26T07:57:23.047Z</time></trkpt><trkpt lat="43.91" lon="7.9096467"><ele>636.0</ele><time>2026-04-26T07:57:26.047Z</time></trkpt><trkpt lat="43.9099133" lon="7.9096733"><ele>636.0</ele><time>2026-04-26T07:57:29.047Z</time></trkpt><trkpt lat="43.9098467" lon="7.90964"><ele>636.0</ele><time>2026-04-26T07:57:32.047Z</time></trkpt><trkpt lat="43.9099217" lon="7.9096767"><ele>636.0</ele><time>2026-04-26T07:57:40.047Z</time></trkpt><trkpt lat="43.9099933" lon="7.909625"><ele>636.0</ele><time>2026-04-26T07:57:44.047Z</time></trkpt><trkpt lat="43.9100533" lon="7.9095767"><ele>636.0</ele><time>2026-04-26T07:57:48.047Z</time></trkpt><trkpt lat="43.9101017" lon="7.9095117"><ele>636.0</ele><time>2026-04-26T07:57:51.047Z</time></trkpt><trkpt lat="43.9101367" lon="7.9094333"><ele>636.0</ele><time>2026-04-26T07:57:54.047Z</time></trkpt><trkpt lat="43.9101633" lon="7.909335"><ele>636.0</ele><time>2026-04-26T07:57:57.047Z</time></trkpt><trkpt lat="43.910195" lon="7.9092467"><ele>636.0</ele><time>2026-04-26T07:58:00.047Z</time></trkpt><trkpt lat="43.9102317" lon="7.9091417"><ele>639.1666666666666</ele><time>2026-04-26T07:58:03.047Z</time></trkpt><trkpt lat="43.9102767" lon="7.909035"><ele>642.3333333333334</ele><time>2026-04-26T07:58:06.047Z</time></trkpt><trkpt lat="43.91031" lon="7.90895"><ele>645.5</ele><time>2026-04-26T07:58:08.047Z</time></trkpt><trkpt lat="43.91034" lon="7.90883"><ele>648.6666666666667</ele><time>2026-04-26T07:58:10.047Z</time></trkpt><trkpt lat="43.9103833" lon="7.9087133"><ele>651.8333333333334</ele><time>2026-04-26T07:58:12.047Z</time></trkpt><trkpt lat="43.910425" lon="7.9085967"><ele>655.0</ele><time>2026-04-26T07:58:15.047Z</time></trkpt><trkpt lat="43.9104833" lon="7.9084883"><ele>655.0</ele><time>2026-04-26T07:58:18.047Z</time></trkpt><trkpt lat="43.91055" lon="7.90845"><ele>655.0</ele><time>2026-04-26T07:58:23.047Z</time></trkpt><trkpt lat="43.9106067" lon="7.908405"><ele>655.0</ele><time>2026-04-26T07:58:27.048Z</time></trkpt><trkpt lat="43.9106617" lon="7.9083067"><ele>655.0</ele><time>2026-04-26T07:58:31.047Z</time></trkpt><trkpt lat="43.910705" lon="7.9082317"><ele>655.0</ele><time>2026-04-26T07:58:34.047Z</time></trkpt><trkpt lat="43.9107533" lon="7.9081183"><ele>655.0</ele><time>2026-04-26T07:58:40.047Z</time></trkpt><trkpt lat="43.910795" lon="7.9080383"><ele>655.8333333333334</ele><time>2026-04-26T07:58:43.047Z</time></trkpt><trkpt lat="43.910835" lon="7.907965"><ele>656.6666666666667</ele><time>2026-04-26T07:58:46.047Z</time></trkpt><trkpt lat="43.910905" lon="7.907835"><ele>657.5</ele><time>2026-04-26T07:58:53.047Z</time></trkpt><trkpt lat="43.91096" lon="7.9077817"><ele>658.3333333333334</ele><time>2026-04-26T07:58:55.047Z</time></trkpt><trkpt lat="43.9109983" lon="7.9076867"><ele>659.1666666666666</ele><time>2026-04-26T07:58:58.047Z</time></trkpt><trkpt lat="43.911015" lon="7.9075633"><ele>660.0</ele><time>2026-04-26T07:59:01.048Z</time></trkpt><trkpt lat="43.91104" lon="7.9074533"><ele>660.0</ele><time>2026-04-26T07:59:04.047Z</time></trkpt><trkpt lat="43.9110633" lon="7.9073417"><ele>660.0</ele><time>2026-04-26T07:59:07.047Z</time></trkpt><trkpt lat="43.9110567" lon="7.9072467"><ele>660.0</ele><time>2026-04-26T07:59:09.048Z</time></trkpt><trkpt lat="43.9110783" lon="7.9071617"><ele>660.0</ele><time>2026-04-26T07:59:12.047Z</time></trkpt><trkpt lat="43.9110933" lon="7.9070383"><ele>660.0</ele><time>2026-04-26T07:59:15.047Z</time></trkpt><trkpt lat="43.91112" lon="7.9069483"><ele>660.0</ele><time>2026-04-26T07:59:17.047Z</time></trkpt><trkpt lat="43.9111133" lon="7.9068367"><ele>662.0000000000001</ele><time>2026-04-26T07:59:20.047Z</time></trkpt><trkpt lat="43.9111133" lon="7.9067367"><ele>664.0</ele><time>2026-04-26T07:59:22.047Z</time></trkpt><trkpt lat="43.91111" lon="7.9066317"><ele>666.0</ele><time>2026-04-26T07:59:25.048Z</time></trkpt><trkpt lat="43.9111183" lon="7.906545"><ele>668.0</ele><time>2026-04-26T07:59:27.047Z</time></trkpt><trkpt lat="43.9111417" lon="7.90642"><ele>670.0</ele><time>2026-04-26T07:59:30.047Z</time></trkpt><trkpt lat="43.9111533" lon="7.9063233"><ele>672.0000000000001</ele><time>2026-04-26T07:59:33.047Z</time></trkpt><trkpt lat="43.9111533" lon="7.906225"><ele>674.0</ele><time>2026-04-26T07:59:36.047Z</time></trkpt><trkpt lat="43.9111467" lon="7.9061217"><ele>674.0</ele><time>2026-04-26T07:59:39.047Z</time></trkpt><trkpt lat="43.9111383" lon="7.9060267"><ele>674.0</ele><time>2026-04-26T07:59:42.048Z</time></trkpt><trkpt lat="43.9111583" lon="7.90594"><ele>674.0</ele><time>2026-04-26T07:59:45.047Z</time></trkpt><trkpt lat="43.911195" lon="7.90584"><ele>674.0</ele><time>2026-04-26T07:59:48.047Z</time></trkpt><trkpt lat="43.91122" lon="7.9057333"><ele>674.0</ele><time>2026-04-26T07:59:51.048Z</time></trkpt><trkpt lat="43.9112183" lon="7.90562"><ele>674.0</ele><time>2026-04-26T07:59:54.047Z</time></trkpt><trkpt lat="43.91123" lon="7.905495"><ele>675.0</ele><time>2026-04-26T07:59:57.047Z</time></trkpt><trkpt lat="43.9112283" lon="7.905365"><ele>676.0</ele><time>2026-04-26T08:00:00.048Z</time></trkpt><trkpt lat="43.911245" lon="7.90524"><ele>677.0</ele><time>2026-04-26T08:00:03.048Z</time></trkpt><trkpt lat="43.9112683" lon="7.9051517"><ele>678.0</ele><time>2026-04-26T08:00:05.047Z</time></trkpt><trkpt lat="43.9113217" lon="7.9050533"><ele>679.0</ele><time>2026-04-26T08:00:08.047Z</time></trkpt><trkpt lat="43.9113667" lon="7.9049567"><ele>680.0</ele><time>2026-04-26T08:00:10.047Z</time></trkpt><trkpt lat="43.9114083" lon="7.904885"><ele>681.8333333333333</ele><time>2026-04-26T08:00:12.047Z</time></trkpt><trkpt lat="43.911465" lon="7.9047917"><ele>683.6666666666666</ele><time>2026-04-26T08:00:15.047Z</time></trkpt><trkpt lat="43.91153" lon="7.9047133"><ele>685.5</ele><time>2026-04-26T08:00:18.047Z</time></trkpt><trkpt lat="43.911585" lon="7.9046383"><ele>687.3333333333334</ele><time>2026-04-26T08:00:21.047Z</time></trkpt><trkpt lat="43.9116383" lon="7.9045833"><ele>689.1666666666667</ele><time>2026-04-26T08:00:24.047Z</time></trkpt><trkpt lat="43.9116983" lon="7.904515"><ele>691.0</ele><time>2026-04-26T08:00:27.047Z</time></trkpt><trkpt lat="43.9117633" lon="7.904455"><ele>690.6666666666667</ele><time>2026-04-26T08:00:30.047Z</time></trkpt><trkpt lat="43.91181" lon="7.904395"><ele>690.3333333333334</ele><time>2026-04-26T08:00:32.047Z</time></trkpt><trkpt lat="43.91187" lon="7.9042983"><ele>690.0</ele><time>2026-04-26T08:00:35.047Z</time></trkpt><trkpt lat="43.9119067" lon="7.90422"><ele>689.6666666666666</ele><time>2026-04-26T08:00:37.047Z</time></trkpt><trkpt lat="43.9119567" lon="7.90414"><ele>689.3333333333333</ele><time>2026-04-26T08:00:39.047Z</time></trkpt><trkpt lat="43.912" lon="7.904055"><ele>689.0</ele><time>2026-04-26T08:00:41.047Z</time></trkpt><trkpt lat="43.9120483" lon="7.90395"><ele>689.0</ele><time>2026-04-26T08:00:43.047Z</time></trkpt><trkpt lat="43.9120967" lon="7.9038333"><ele>689.0</ele><time>2026-04-26T08:00:45.047Z</time></trkpt><trkpt lat="43.91213" lon="7.9037483"><ele>689.0</ele><time>2026-04-26T08:00:47.047Z</time></trkpt><trkpt lat="43.9121767" lon="7.90366"><ele>689.0</ele><time>2026-04-26T08:00:50.048Z</time></trkpt><trkpt lat="43.912215" lon="7.9035583"><ele>689.0</ele><time>2026-04-26T08:00:53.047Z</time></trkpt><trkpt lat="43.9122667" lon="7.9034717"><ele>689.0</ele><time>2026-04-26T08:00:55.048Z</time></trkpt><trkpt lat="43.912285" lon="7.9033667"><ele>691.1666666666666</ele><time>2026-04-26T08:00:59.047Z</time></trkpt><trkpt lat="43.9122733" lon="7.9032567"><ele>693.3333333333333</ele><time>2026-04-26T08:01:04.047Z</time></trkpt><trkpt lat="43.9122633" lon="7.903145"><ele>695.5</ele><time>2026-04-26T08:01:08.047Z</time></trkpt><trkpt lat="43.9122567" lon="7.9030467"><ele>697.6666666666666</ele><time>2026-04-26T08:01:11.047Z</time></trkpt><trkpt lat="43.9122483" lon="7.9029467"><ele>699.8333333333334</ele><time>2026-04-26T08:01:14.048Z</time></trkpt><trkpt lat="43.91225" lon="7.902835"><ele>702.0</ele><time>2026-04-26T08:01:17.047Z</time></trkpt><trkpt lat="43.9122683" lon="7.9027167"><ele>702.0</ele><time>2026-04-26T08:01:20.047Z</time></trkpt><trkpt lat="43.9122717" lon="7.9026"><ele>702.0</ele><time>2026-04-26T08:01:24.047Z</time></trkpt><trkpt lat="43.91225" lon="7.9025033"><ele>702.0</ele><time>2026-04-26T08:01:27.047Z</time></trkpt><trkpt lat="43.9122367" lon="7.9023783"><ele>702.0</ele><time>2026-04-26T08:01:30.047Z</time></trkpt><trkpt lat="43.9122117" lon="7.9022917"><ele>702.0</ele><time>2026-04-26T08:01:34.047Z</time></trkpt><trkpt lat="43.91216" lon="7.9021883"><ele>702.0</ele><time>2026-04-26T08:01:38.047Z</time></trkpt><trkpt lat="43.9121583" lon="7.90209"><ele>702.6666666666666</ele><time>2026-04-26T08:01:41.047Z</time></trkpt><trkpt lat="43.91216" lon="7.9019833"><ele>703.3333333333334</ele><time>2026-04-26T08:01:43.047Z</time></trkpt><trkpt lat="43.9121367" lon="7.9018783"><ele>704.0</ele><time>2026-04-26T08:01:46.047Z</time></trkpt><trkpt lat="43.912125" lon="7.9017783"><ele>704.6666666666667</ele><time>2026-04-26T08:01:49.047Z</time></trkpt><trkpt lat="43.9121283" lon="7.90167"><ele>705.3333333333334</ele><time>2026-04-26T08:01:53.047Z</time></trkpt><trkpt lat="43.9121117" lon="7.90157"><ele>706.0</ele><time>2026-04-26T08:01:56.047Z</time></trkpt><trkpt lat="43.912105" lon="7.9014733"><ele>706.6666666666667</ele><time>2026-04-26T08:02:00.047Z</time></trkpt><trkpt lat="43.91212" lon="7.9013817"><ele>707.3333333333334</ele><time>2026-04-26T08:02:02.047Z</time></trkpt><trkpt lat="43.9121333" lon="7.901295"><ele>708.0</ele><time>2026-04-26T08:02:04.047Z</time></trkpt><trkpt lat="43.91215" lon="7.901175"><ele>708.6666666666666</ele><time>2026-04-26T08:02:07.047Z</time></trkpt><trkpt lat="43.9121733" lon="7.9010667"><ele>709.3333333333333</ele><time>2026-04-26T08:02:10.048Z</time></trkpt><trkpt lat="43.9121917" lon="7.900955"><ele>710.0</ele><time>2026-04-26T08:02:13.047Z</time></trkpt><trkpt lat="43.9121967" lon="7.9008483"><ele>711.6666666666666</ele><time>2026-04-26T08:02:16.047Z</time></trkpt><trkpt lat="43.9121933" lon="7.9007317"><ele>713.3333333333333</ele><time>2026-04-26T08:02:20.047Z</time></trkpt><trkpt lat="43.9121683" lon="7.90064"><ele>715.0</ele><time>2026-04-26T08:02:23.047Z</time></trkpt><trkpt lat="43.9121567" lon="7.9005467"><ele>716.6666666666666</ele><time>2026-04-26T08:02:25.047Z</time></trkpt><trkpt lat="43.9121633" lon="7.9004517"><ele>718.3333333333334</ele><time>2026-04-26T08:02:28.047Z</time></trkpt><trkpt lat="43.912115" lon="7.9003483"><ele>720.0</ele><time>2026-04-26T08:02:31.047Z</time></trkpt><trkpt lat="43.9121033" lon="7.9002483"><ele>720.0</ele><time>2026-04-26T08:02:34.047Z</time></trkpt><trkpt lat="43.91212" lon="7.9001183"><ele>720.0</ele><time>2026-04-26T08:02:39.047Z</time></trkpt><trkpt lat="43.9121383" lon="7.900005"><ele>720.0</ele><time>2026-04-26T08:02:42.047Z</time></trkpt><trkpt lat="43.9121483" lon="7.8998983"><ele>720.0</ele><time>2026-04-26T08:02:45.047Z</time></trkpt><trkpt lat="43.9121383" lon="7.8997983"><ele>720.0</ele><time>2026-04-26T08:02:48.047Z</time></trkpt><trkpt lat="43.9121033" lon="7.8997167"><ele>720.0</ele><time>2026-04-26T08:02:50.048Z</time></trkpt><trkpt lat="43.91209" lon="7.899625"><ele>720.8571428571428</ele><time>2026-04-26T08:02:52.047Z</time></trkpt><trkpt lat="43.9120717" lon="7.8995383"><ele>721.7142857142858</ele><time>2026-04-26T08:02:54.047Z</time></trkpt><trkpt lat="43.91205" lon="7.899455"><ele>722.5714285714286</ele><time>2026-04-26T08:02:56.047Z</time></trkpt><trkpt lat="43.91203" lon="7.89937"><ele>723.4285714285713</ele><time>2026-04-26T08:02:58.048Z</time></trkpt><trkpt lat="43.9120067" lon="7.8992883"><ele>724.2857142857142</ele><time>2026-04-26T08:03:00.047Z</time></trkpt><trkpt lat="43.91202" lon="7.899165"><ele>725.1428571428571</ele><time>2026-04-26T08:03:03.047Z</time></trkpt><trkpt lat="43.9120117" lon="7.89905"><ele>726.0</ele><time>2026-04-26T08:03:06.047Z</time></trkpt><trkpt lat="43.9120083" lon="7.8989367"><ele>728.0</ele><time>2026-04-26T08:03:09.047Z</time></trkpt><trkpt lat="43.912015" lon="7.8988433"><ele>730.0</ele><time>2026-04-26T08:03:12.048Z</time></trkpt><trkpt lat="43.912045" lon="7.8987333"><ele>732.0</ele><time>2026-04-26T08:03:15.047Z</time></trkpt><trkpt lat="43.91208" lon="7.8986333"><ele>734.0</ele><time>2026-04-26T08:03:18.047Z</time></trkpt><trkpt lat="43.9121033" lon="7.89853"><ele>736.0</ele><time>2026-04-26T08:03:21.047Z</time></trkpt><trkpt lat="43.9121267" lon="7.8984317"><ele>738.0</ele><time>2026-04-26T08:03:24.047Z</time></trkpt><trkpt lat="43.9121683" lon="7.8983367"><ele>739.3333333333334</ele><time>2026-04-26T08:03:27.047Z</time></trkpt><trkpt lat="43.912205" lon="7.8982533"><ele>740.6666666666666</ele><time>2026-04-26T08:03:30.047Z</time></trkpt><trkpt lat="43.9122267" lon="7.89814"><ele>742.0</ele><time>2026-04-26T08:03:33.047Z</time></trkpt><trkpt lat="43.9122433" lon="7.8980267"><ele>743.3333333333333</ele><time>2026-04-26T08:03:36.047Z</time></trkpt><trkpt lat="43.9122733" lon="7.89792"><ele>744.6666666666666</ele><time>2026-04-26T08:03:39.047Z</time></trkpt><trkpt lat="43.9123083" lon="7.89781"><ele>746.0</ele><time>2026-04-26T08:03:42.047Z</time></trkpt><trkpt lat="43.9123517" lon="7.8976933"><ele>746.7142857142858</ele><time>2026-04-26T08:03:45.047Z</time></trkpt><trkpt lat="43.9123983" lon="7.89758"><ele>747.4285714285714</ele><time>2026-04-26T08:03:48.047Z</time></trkpt><trkpt lat="43.91243" lon="7.8974917"><ele>748.1428571428571</ele><time>2026-04-26T08:03:51.047Z</time></trkpt><trkpt lat="43.912455" lon="7.8974033"><ele>748.8571428571429</ele><time>2026-04-26T08:03:56.047Z</time></trkpt><trkpt lat="43.9124717" lon="7.8973167"><ele>749.5714285714286</ele><time>2026-04-26T08:04:02.047Z</time></trkpt><trkpt lat="43.912475" lon="7.8972233"><ele>750.2857142857143</ele><time>2026-04-26T08:04:07.047Z</time></trkpt><trkpt lat="43.912455" lon="7.8971183"><ele>751.0</ele><time>2026-04-26T08:04:12.047Z</time></trkpt><trkpt lat="43.9124383" lon="7.89703"><ele>751.0</ele><time>2026-04-26T08:04:16.047Z</time></trkpt><trkpt lat="43.912445" lon="7.896935"><ele>751.0</ele><time>2026-04-26T08:04:20.048Z</time></trkpt><trkpt lat="43.9123967" lon="7.896835"><ele>751.0</ele><time>2026-04-26T08:04:25.047Z</time></trkpt><trkpt lat="43.912345" lon="7.8967467"><ele>751.0</ele><time>2026-04-26T08:04:29.047Z</time></trkpt><trkpt lat="43.9123017" lon="7.8966733"><ele>751.0</ele><time>2026-04-26T08:04:33.047Z</time></trkpt><trkpt lat="43.9122483" lon="7.8965933"><ele>751.0</ele><time>2026-04-26T08:04:37.047Z</time></trkpt><trkpt lat="43.9122033" lon="7.8965167"><ele>749.8333333333334</ele><time>2026-04-26T08:04:41.047Z</time></trkpt><trkpt lat="43.9121633" lon="7.896435"><ele>748.6666666666667</ele><time>2026-04-26T08:04:45.047Z</time></trkpt><trkpt lat="43.912115" lon="7.8963517"><ele>747.5</ele><time>2026-04-26T08:04:49.047Z</time></trkpt><trkpt lat="43.9120633" lon="7.8962683"><ele>746.3333333333334</ele><time>2026-04-26T08:04:53.048Z</time></trkpt><trkpt lat="43.9120317" lon="7.8961767"><ele>745.1666666666666</ele><time>2026-04-26T08:04:57.047Z</time></trkpt><trkpt lat="43.9119833" lon="7.8961117"><ele>744.0</ele><time>2026-04-26T08:05:00.047Z</time></trkpt><trkpt lat="43.9119233" lon="7.8960267"><ele>744.0</ele><time>2026-04-26T08:05:04.047Z</time></trkpt><trkpt lat="43.91187" lon="7.8959583"><ele>744.0</ele><time>2026-04-26T08:05:08.047Z</time></trkpt><trkpt lat="43.911815" lon="7.8959"><ele>744.0</ele><time>2026-04-26T08:05:11.047Z</time></trkpt><trkpt lat="43.9117667" lon="7.895815"><ele>744.0</ele><time>2026-04-26T08:05:15.047Z</time></trkpt><trkpt lat="43.9117167" lon="7.8957617"><ele>744.0</ele><time>2026-04-26T08:05:18.047Z</time></trkpt><trkpt lat="43.9116383" lon="7.8956983"><ele>744.0</ele><time>2026-04-26T08:05:22.048Z</time></trkpt><trkpt lat="43.9115717" lon="7.895645"><ele>745.6666666666666</ele><time>2026-04-26T08:05:25.048Z</time></trkpt><trkpt lat="43.9115067" lon="7.8955767"><ele>747.3333333333334</ele><time>2026-04-26T08:05:29.047Z</time></trkpt><trkpt lat="43.9114533" lon="7.8955167"><ele>749.0</ele><time>2026-04-26T08:05:32.047Z</time></trkpt><trkpt lat="43.911395" lon="7.8953767"><ele>750.6666666666667</ele><time>2026-04-26T08:09:15.048Z</time></trkpt><trkpt lat="43.9113833" lon="7.895265"><ele>752.3333333333334</ele><time>2026-04-26T08:09:18.047Z</time></trkpt><trkpt lat="43.9113883" lon="7.8951433"><ele>754.0</ele><time>2026-04-26T08:09:21.047Z</time></trkpt><trkpt lat="43.9114033" lon="7.8950567"><ele>753.9999999999999</ele><time>2026-04-26T08:09:23.047Z</time></trkpt><trkpt lat="43.9114167" lon="7.894965"><ele>754.0</ele><time>2026-04-26T08:09:25.047Z</time></trkpt><trkpt lat="43.9114233" lon="7.8948617"><ele>754.0</ele><time>2026-04-26T08:09:27.047Z</time></trkpt><trkpt lat="43.9114133" lon="7.8947633"><ele>754.0</ele><time>2026-04-26T08:09:29.048Z</time></trkpt><trkpt lat="43.911385" lon="7.894675"><ele>754.0</ele><time>2026-04-26T08:09:31.047Z</time></trkpt><trkpt lat="43.9113467" lon="7.8945967"><ele>753.9999999999999</ele><time>2026-04-26T08:09:33.048Z</time></trkpt><trkpt lat="43.9113117" lon="7.8945133"><ele>754.0</ele><time>2026-04-26T08:09:35.047Z</time></trkpt><trkpt lat="43.91127" lon="7.894405"><ele>754.0</ele><time>2026-04-26T08:09:38.047Z</time></trkpt><trkpt lat="43.9112467" lon="7.8942817"><ele>754.0</ele><time>2026-04-26T08:09:41.047Z</time></trkpt><trkpt lat="43.9112567" lon="7.8941767"><ele>754.0</ele><time>2026-04-26T08:09:43.047Z</time></trkpt><trkpt lat="43.9112767" lon="7.8940767"><ele>754.0</ele><time>2026-04-26T08:09:45.047Z</time></trkpt><trkpt lat="43.9113017" lon="7.89395"><ele>754.0</ele><time>2026-04-26T08:09:48.047Z</time></trkpt><trkpt lat="43.91132" lon="7.893865"><ele>754.0</ele><time>2026-04-26T08:09:50.047Z</time></trkpt><trkpt lat="43.9113567" lon="7.8937917"><ele>754.4285714285713</ele><time>2026-04-26T08:09:52.047Z</time></trkpt><trkpt lat="43.9114033" lon="7.8936717"><ele>754.8571428571429</ele><time>2026-04-26T08:09:55.047Z</time></trkpt><trkpt lat="43.9114333" lon="7.8935917"><ele>755.2857142857142</ele><time>2026-04-26T08:09:57.047Z</time></trkpt><trkpt lat="43.911465" lon="7.8935133"><ele>755.7142857142857</ele><time>2026-04-26T08:09:59.047Z</time></trkpt><trkpt lat="43.9114517" lon="7.8934"><ele>756.1428571428571</ele><time>2026-04-26T08:10:02.047Z</time></trkpt><trkpt lat="43.9114583" lon="7.8933017"><ele>756.5714285714286</ele><time>2026-04-26T08:10:05.047Z</time></trkpt><trkpt lat="43.9114867" lon="7.89322"><ele>757.0</ele><time>2026-04-26T08:10:07.047Z</time></trkpt><trkpt lat="43.9115233" lon="7.8931467"><ele>759.3333333333334</ele><time>2026-04-26T08:10:09.047Z</time></trkpt><trkpt lat="43.9115717" lon="7.8930733"><ele>761.6666666666667</ele><time>2026-04-26T08:10:11.047Z</time></trkpt><trkpt lat="43.91162" lon="7.892995"><ele>764.0</ele><time>2026-04-26T08:10:13.047Z</time></trkpt><trkpt lat="43.91169" lon="7.8929117"><ele>766.3333333333334</ele><time>2026-04-26T08:10:16.047Z</time></trkpt><trkpt lat="43.9117417" lon="7.8928533"><ele>768.6666666666666</ele><time>2026-04-26T08:10:18.047Z</time></trkpt><trkpt lat="43.9118017" lon="7.8927667"><ele>771.0</ele><time>2026-04-26T08:10:21.047Z</time></trkpt><trkpt lat="43.91184" lon="7.8926867"><ele>768.5714285714286</ele><time>2026-04-26T08:10:24.048Z</time></trkpt><trkpt lat="43.9118867" lon="7.89262"><ele>766.1428571428571</ele><time>2026-04-26T08:10:27.047Z</time></trkpt><trkpt lat="43.9119233" lon="7.8925483"><ele>763.7142857142857</ele><time>2026-04-26T08:10:30.048Z</time></trkpt><trkpt lat="43.9119467" lon="7.8924517"><ele>761.2857142857142</ele><time>2026-04-26T08:10:34.047Z</time></trkpt><trkpt lat="43.9119767" lon="7.8923617"><ele>758.8571428571429</ele><time>2026-04-26T08:10:38.048Z</time></trkpt><trkpt lat="43.911985" lon="7.8922667"><ele>756.4285714285713</ele><time>2026-04-26T08:10:42.048Z</time></trkpt><trkpt lat="43.9119767" lon="7.8921633"><ele>754.0</ele><time>2026-04-26T08:10:45.047Z</time></trkpt><trkpt lat="43.9119767" lon="7.89207"><ele>754.0</ele><time>2026-04-26T08:10:47.047Z</time></trkpt><trkpt lat="43.9119567" lon="7.8919733"><ele>754.0</ele><time>2026-04-26T08:10:52.047Z</time></trkpt><trkpt lat="43.9119233" lon="7.8918633"><ele>754.0</ele><time>2026-04-26T08:10:57.047Z</time></trkpt><trkpt lat="43.911935" lon="7.8917567"><ele>754.0</ele><time>2026-04-26T08:11:01.048Z</time></trkpt><trkpt lat="43.9119267" lon="7.8916417"><ele>754.0</ele><time>2026-04-26T08:11:05.047Z</time></trkpt><trkpt lat="43.9119133" lon="7.891535"><ele>754.0</ele><time>2026-04-26T08:11:09.047Z</time></trkpt><trkpt lat="43.91192" lon="7.89144"><ele>755.8333333333334</ele><time>2026-04-26T08:11:13.047Z</time></trkpt><trkpt lat="43.9119717" lon="7.8913783"><ele>757.6666666666667</ele><time>2026-04-26T08:11:18.047Z</time></trkpt><trkpt lat="43.9120367" lon="7.8913383"><ele>759.5</ele><time>2026-04-26T08:11:22.047Z</time></trkpt><trkpt lat="43.912085" lon="7.8912783"><ele>761.3333333333334</ele><time>2026-04-26T08:11:26.047Z</time></trkpt><trkpt lat="43.9121283" lon="7.8911983"><ele>763.1666666666666</ele><time>2026-04-26T08:11:30.047Z</time></trkpt><trkpt lat="43.9121567" lon="7.8911117"><ele>765.0</ele><time>2026-04-26T08:11:35.047Z</time></trkpt><trkpt lat="43.912165" lon="7.8909333"><ele>767.5</ele><time>2026-04-26T08:11:47.048Z</time></trkpt><trkpt lat="43.9121767" lon="7.89083"><ele>770.0</ele><time>2026-04-26T08:11:49.047Z</time></trkpt><trkpt lat="43.9122" lon="7.8907367"><ele>772.5</ele><time>2026-04-26T08:11:51.047Z</time></trkpt><trkpt lat="43.9122167" lon="7.8906433"><ele>775.0</ele><time>2026-04-26T08:11:53.047Z</time></trkpt><trkpt lat="43.9122417" lon="7.89053"><ele>777.5</ele><time>2026-04-26T08:11:56.047Z</time></trkpt><trkpt lat="43.9122617" lon="7.8904433"><ele>780.0</ele><time>2026-04-26T08:11:58.047Z</time></trkpt><trkpt lat="43.9122917" lon="7.89033"><ele>780.0</ele><time>2026-04-26T08:12:01.047Z</time></trkpt><trkpt lat="43.9123133" lon="7.8902317"><ele>780.0</ele><time>2026-04-26T08:12:03.047Z</time></trkpt><trkpt lat="43.91234" lon="7.8901467"><ele>780.0</ele><time>2026-04-26T08:12:06.047Z</time></trkpt><trkpt lat="43.9124017" lon="7.8901133"><ele>780.0</ele><time>2026-04-26T08:12:11.047Z</time></trkpt><trkpt lat="43.9124683" lon="7.8901"><ele>780.0</ele><time>2026-04-26T08:12:15.047Z</time></trkpt><trkpt lat="43.9125483" lon="7.8900383"><ele>780.0</ele><time>2026-04-26T08:12:18.047Z</time></trkpt><trkpt lat="43.9125967" lon="7.8899683"><ele>780.0</ele><time>2026-04-26T08:12:20.048Z</time></trkpt><trkpt lat="43.9126483" lon="7.889875"><ele>776.1666666666666</ele><time>2026-04-26T08:12:22.047Z</time></trkpt><trkpt lat="43.9127067" lon="7.8897917"><ele>772.3333333333334</ele><time>2026-04-26T08:12:25.047Z</time></trkpt><trkpt lat="43.9127633" lon="7.8897"><ele>768.5</ele><time>2026-04-26T08:12:28.047Z</time></trkpt><trkpt lat="43.912805" lon="7.889605"><ele>764.6666666666667</ele><time>2026-04-26T08:12:31.047Z</time></trkpt><trkpt lat="43.9128517" lon="7.889505"><ele>760.8333333333334</ele><time>2026-04-26T08:12:34.047Z</time></trkpt><trkpt lat="43.91288" lon="7.88942"><ele>757.0</ele><time>2026-04-26T08:12:36.047Z</time></trkpt><trkpt lat="43.9128983" lon="7.8893317"><ele>759.5</ele><time>2026-04-26T08:12:38.047Z</time></trkpt><trkpt lat="43.91292" lon="7.8891983"><ele>762.0</ele><time>2026-04-26T08:12:41.047Z</time></trkpt><trkpt lat="43.91295" lon="7.8891183"><ele>764.5</ele><time>2026-04-26T08:12:43.047Z</time></trkpt><trkpt lat="43.912995" lon="7.8890067"><ele>767.0</ele><time>2026-04-26T08:12:46.047Z</time></trkpt><trkpt lat="43.9129967" lon="7.88891"><ele>769.4999999999999</ele><time>2026-04-26T08:12:48.047Z</time></trkpt><trkpt lat="43.9130017" lon="7.8887867"><ele>772.0</ele><time>2026-04-26T08:12:51.047Z</time></trkpt><trkpt lat="43.91301" lon="7.888695"><ele>771.9999999999999</ele><time>2026-04-26T08:12:53.047Z</time></trkpt><trkpt lat="43.9129983" lon="7.8885883"><ele>772.0</ele><time>2026-04-26T08:12:56.047Z</time></trkpt><trkpt lat="43.9129317" lon="7.8885417"><ele>772.0</ele><time>2026-04-26T08:12:59.047Z</time></trkpt><trkpt lat="43.9128633" lon="7.88851"><ele>772.0</ele><time>2026-04-26T08:13:03.047Z</time></trkpt><trkpt lat="43.9128233" lon="7.888435"><ele>771.9999999999999</ele><time>2026-04-26T08:13:06.047Z</time></trkpt><trkpt lat="43.9127767" lon="7.8883333"><ele>772.0</ele><time>2026-04-26T08:13:09.047Z</time></trkpt><trkpt lat="43.9127433" lon="7.88824"><ele>773.0000000000001</ele><time>2026-04-26T08:13:12.047Z</time></trkpt><trkpt lat="43.9127183" lon="7.8881467"><ele>774.0</ele><time>2026-04-26T08:13:15.047Z</time></trkpt><trkpt lat="43.9127117" lon="7.8880483"><ele>775.0</ele><time>2026-04-26T08:13:18.048Z</time></trkpt><trkpt lat="43.9127533" lon="7.8879783"><ele>776.0</ele><time>2026-04-26T08:13:21.047Z</time></trkpt><trkpt lat="43.9128183" lon="7.8879383"><ele>777.0</ele><time>2026-04-26T08:13:26.047Z</time></trkpt><trkpt lat="43.912865" lon="7.8878333"><ele>778.0000000000001</ele><time>2026-04-26T08:13:30.047Z</time></trkpt><trkpt lat="43.9128533" lon="7.887725"><ele>779.0</ele><time>2026-04-26T08:13:32.047Z</time></trkpt><trkpt lat="43.912845" lon="7.8876183"><ele>780.5000000000001</ele><time>2026-04-26T08:13:34.048Z</time></trkpt><trkpt lat="43.9128317" lon="7.88752"><ele>782.0</ele><time>2026-04-26T08:13:36.047Z</time></trkpt><trkpt lat="43.912815" lon="7.8874317"><ele>783.5</ele><time>2026-04-26T08:13:38.048Z</time></trkpt><trkpt lat="43.9128033" lon="7.8873083"><ele>785.0</ele><time>2026-04-26T08:13:41.047Z</time></trkpt><trkpt lat="43.9128" lon="7.8871883"><ele>786.5000000000001</ele><time>2026-04-26T08:13:44.047Z</time></trkpt><trkpt lat="43.9128317" lon="7.8870933"><ele>788.0</ele><time>2026-04-26T08:13:47.048Z</time></trkpt><trkpt lat="43.9129183" lon="7.88709"><ele>788.0000000000001</ele><time>2026-04-26T08:13:51.047Z</time></trkpt><trkpt lat="43.9130033" lon="7.88705"><ele>788.0</ele><time>2026-04-26T08:13:55.047Z</time></trkpt><trkpt lat="43.9130667" lon="7.8870167"><ele>788.0</ele><time>2026-04-26T08:13:58.047Z</time></trkpt><trkpt lat="43.913115" lon="7.8869383"><ele>788.0</ele><time>2026-04-26T08:14:00.047Z</time></trkpt><trkpt lat="43.9131567" lon="7.8868583"><ele>788.0000000000001</ele><time>2026-04-26T08:14:02.047Z</time></trkpt><trkpt lat="43.9132067" lon="7.886795"><ele>788.0</ele><time>2026-04-26T08:14:04.047Z</time></trkpt><trkpt lat="43.9132433" lon="7.8866867"><ele>787.5000000000001</ele><time>2026-04-26T08:14:06.047Z</time></trkpt><trkpt lat="43.9132633" lon="7.8865783"><ele>787.0</ele><time>2026-04-26T08:14:09.048Z</time></trkpt><trkpt lat="43.91328" lon="7.886455"><ele>786.5</ele><time>2026-04-26T08:14:12.047Z</time></trkpt><trkpt lat="43.913285" lon="7.88636"><ele>786.0</ele><time>2026-04-26T08:14:14.047Z</time></trkpt><trkpt lat="43.913335" lon="7.8862533"><ele>785.5000000000001</ele><time>2026-04-26T08:14:17.047Z</time></trkpt><trkpt lat="43.913405" lon="7.8862183"><ele>785.0</ele><time>2026-04-26T08:14:21.047Z</time></trkpt><trkpt lat="43.9134733" lon="7.88618"><ele>785.0000000000001</ele><time>2026-04-26T08:14:25.047Z</time></trkpt><trkpt lat="43.9135317" lon="7.88612"><ele>785.0</ele><time>2026-04-26T08:14:28.047Z</time></trkpt><trkpt lat="43.913585" lon="7.88604"><ele>785.0</ele><time>2026-04-26T08:14:31.047Z</time></trkpt><trkpt lat="43.913635" lon="7.885925"><ele>785.0</ele><time>2026-04-26T08:14:34.048Z</time></trkpt><trkpt lat="43.9136667" lon="7.8858383"><ele>785.0000000000001</ele><time>2026-04-26T08:14:36.047Z</time></trkpt><trkpt lat="43.91367" lon="7.8857267"><ele>785.0</ele><time>2026-04-26T08:14:39.047Z</time></trkpt><trkpt lat="43.91367" lon="7.885625"><ele>787.0</ele><time>2026-04-26T08:14:42.047Z</time></trkpt><trkpt lat="43.913665" lon="7.8855083"><ele>789.0</ele><time>2026-04-26T08:14:46.047Z</time></trkpt><trkpt lat="43.91369" lon="7.8854083"><ele>791.0</ele><time>2026-04-26T08:14:50.047Z</time></trkpt><trkpt lat="43.9137233" lon="7.8853217"><ele>793.0</ele><time>2026-04-26T08:14:53.048Z</time></trkpt><trkpt lat="43.9137217" lon="7.8852183"><ele>795.0</ele><time>2026-04-26T08:14:56.047Z</time></trkpt><trkpt lat="43.913665" lon="7.8851683"><ele>797.0</ele><time>2026-04-26T08:15:00.047Z</time></trkpt><trkpt lat="43.9135983" lon="7.8852067"><ele>799.0</ele><time>2026-04-26T08:15:03.047Z</time></trkpt><trkpt lat="43.913525" lon="7.88525"><ele>799.0</ele><time>2026-04-26T08:15:07.047Z</time></trkpt><trkpt lat="43.913445" lon="7.885285"><ele>799.0</ele><time>2026-04-26T08:15:11.048Z</time></trkpt><trkpt lat="43.9133733" lon="7.8852683"><ele>799.0</ele><time>2026-04-26T08:15:15.047Z</time></trkpt><trkpt lat="43.9133483" lon="7.8851733"><ele>799.0</ele><time>2026-04-26T08:15:22.047Z</time></trkpt><trkpt lat="43.9133333" lon="7.8850783"><ele>799.0</ele><time>2026-04-26T08:15:26.047Z</time></trkpt><trkpt lat="43.91333" lon="7.8849817"><ele>799.0</ele><time>2026-04-26T08:15:30.047Z</time></trkpt><trkpt lat="43.91332" lon="7.8848767"><ele>799.0</ele><time>2026-04-26T08:15:34.047Z</time></trkpt><trkpt lat="43.91331" lon="7.884785"><ele>804.9999999999999</ele><time>2026-04-26T08:15:38.047Z</time></trkpt><trkpt lat="43.9132967" lon="7.8846767"><ele>811.0</ele><time>2026-04-26T08:15:42.047Z</time></trkpt><trkpt lat="43.9132833" lon="7.884575"><ele>817.0</ele><time>2026-04-26T08:15:46.047Z</time></trkpt><trkpt lat="43.91328" lon="7.8844733"><ele>823.0</ele><time>2026-04-26T08:15:51.047Z</time></trkpt><trkpt lat="43.9132683" lon="7.884365"><ele>828.9999999999999</ele><time>2026-04-26T08:15:55.047Z</time></trkpt><trkpt lat="43.91325" lon="7.8842517"><ele>835.0</ele><time>2026-04-26T08:15:59.047Z</time></trkpt><trkpt lat="43.9132367" lon="7.884165"><ele>836.1428571428572</ele><time>2026-04-26T08:16:02.047Z</time></trkpt><trkpt lat="43.9132417" lon="7.884075"><ele>837.2857142857143</ele><time>2026-04-26T08:16:05.047Z</time></trkpt><trkpt lat="43.9132433" lon="7.8839633"><ele>838.4285714285714</ele><time>2026-04-26T08:16:09.047Z</time></trkpt><trkpt lat="43.91324" lon="7.8838517"><ele>839.5714285714287</ele><time>2026-04-26T08:16:13.047Z</time></trkpt><trkpt lat="43.913235" lon="7.8837433"><ele>840.7142857142857</ele><time>2026-04-26T08:16:17.047Z</time></trkpt><trkpt lat="43.9132267" lon="7.8836467"><ele>841.8571428571429</ele><time>2026-04-26T08:16:21.047Z</time></trkpt><trkpt lat="43.9132317" lon="7.883545"><ele>843.0</ele><time>2026-04-26T08:16:25.047Z</time></trkpt><trkpt lat="43.9132433" lon="7.88345"><ele>844.5714285714286</ele><time>2026-04-26T08:16:29.047Z</time></trkpt><trkpt lat="43.9132483" lon="7.8833617"><ele>846.1428571428571</ele><time>2026-04-26T08:16:33.047Z</time></trkpt><trkpt lat="43.9132483" lon="7.88327"><ele>847.7142857142858</ele><time>2026-04-26T08:16:37.047Z</time></trkpt><trkpt lat="43.9132467" lon="7.8831767"><ele>849.2857142857142</ele><time>2026-04-26T08:16:41.047Z</time></trkpt><trkpt lat="43.9132717" lon="7.8830917"><ele>850.8571428571429</ele><time>2026-04-26T08:16:45.047Z</time></trkpt><trkpt lat="43.9133217" lon="7.8830317"><ele>852.4285714285714</ele><time>2026-04-26T08:16:49.048Z</time></trkpt><trkpt lat="43.9133833" lon="7.883"><ele>854.0</ele><time>2026-04-26T08:16:53.047Z</time></trkpt><trkpt lat="43.9134533" lon="7.88297"><ele>854.0</ele><time>2026-04-26T08:16:57.047Z</time></trkpt><trkpt lat="43.9135133" lon="7.8829433"><ele>854.0</ele><time>2026-04-26T08:17:00.048Z</time></trkpt><trkpt lat="43.9135817" lon="7.8829017"><ele>854.0</ele><time>2026-04-26T08:17:04.047Z</time></trkpt><trkpt lat="43.9136517" lon="7.8828617"><ele>854.0</ele><time>2026-04-26T08:17:08.047Z</time></trkpt><trkpt lat="43.9137283" lon="7.8828267"><ele>854.0</ele><time>2026-04-26T08:17:12.048Z</time></trkpt><trkpt lat="43.9137867" lon="7.882765"><ele>854.0</ele><time>2026-04-26T08:17:16.047Z</time></trkpt><trkpt lat="43.9138417" lon="7.8827067"><ele>854.0</ele><time>2026-04-26T08:17:20.048Z</time></trkpt><trkpt lat="43.9138983" lon="7.8826617"><ele>854.0</ele><time>2026-04-26T08:17:23.047Z</time></trkpt><trkpt lat="43.91396" lon="7.8826167"><ele>854.0</ele><time>2026-04-26T08:17:27.047Z</time></trkpt><trkpt lat="43.9140267" lon="7.8825883"><ele>854.0</ele><time>2026-04-26T08:17:31.047Z</time></trkpt><trkpt lat="43.914095" lon="7.882555"><ele>854.0</ele><time>2026-04-26T08:17:35.047Z</time></trkpt><trkpt lat="43.9141667" lon="7.88253"><ele>854.0</ele><time>2026-04-26T08:17:39.047Z</time></trkpt><trkpt lat="43.9142433" lon="7.88255"><ele>854.0</ele><time>2026-04-26T08:17:44.047Z</time></trkpt><trkpt lat="43.9143167" lon="7.8826"><ele>854.0</ele><time>2026-04-26T08:17:48.047Z</time></trkpt><trkpt lat="43.9143817" lon="7.8826183"><ele>854.8571428571429</ele><time>2026-04-26T08:17:51.047Z</time></trkpt><trkpt lat="43.9144517" lon="7.8826183"><ele>855.7142857142858</ele><time>2026-04-26T08:17:54.047Z</time></trkpt><trkpt lat="43.9145117" lon="7.8825867"><ele>856.5714285714286</ele><time>2026-04-26T08:17:57.048Z</time></trkpt><trkpt lat="43.914565" lon="7.8825133"><ele>857.4285714285714</ele><time>2026-04-26T08:18:00.049Z</time></trkpt><trkpt lat="43.9146067" lon="7.8824333"><ele>858.2857142857143</ele><time>2026-04-26T08:18:03.047Z</time></trkpt><trkpt lat="43.914645" lon="7.8823533"><ele>859.1428571428571</ele><time>2026-04-26T08:18:06.047Z</time></trkpt><trkpt lat="43.91468" lon="7.8822767"><ele>860.0</ele><time>2026-04-26T08:18:09.048Z</time></trkpt><trkpt lat="43.9147283" lon="7.8822017"><ele>864.5000000000001</ele><time>2026-04-26T08:18:13.048Z</time></trkpt><trkpt lat="43.914785" lon="7.88212"><ele>869.0</ele><time>2026-04-26T08:18:17.048Z</time></trkpt><trkpt lat="43.9148533" lon="7.8820717"><ele>873.5</ele><time>2026-04-26T08:18:21.047Z</time></trkpt><trkpt lat="43.9149217" lon="7.8820517"><ele>878.0</ele><time>2026-04-26T08:18:25.047Z</time></trkpt><trkpt lat="43.915" lon="7.882085"><ele>882.5000000000001</ele><time>2026-04-26T08:18:29.047Z</time></trkpt><trkpt lat="43.91506" lon="7.8821533"><ele>887.0</ele><time>2026-04-26T08:18:33.047Z</time></trkpt><trkpt lat="43.91513" lon="7.8822017"><ele>889.1666666666667</ele><time>2026-04-26T08:18:37.047Z</time></trkpt><trkpt lat="43.9151933" lon="7.8822567"><ele>891.3333333333334</ele><time>2026-04-26T08:18:41.047Z</time></trkpt><trkpt lat="43.9152467" lon="7.8823433"><ele>893.5</ele><time>2026-04-26T08:18:45.047Z</time></trkpt><trkpt lat="43.9153167" lon="7.8824317"><ele>895.6666666666667</ele><time>2026-04-26T08:18:48.047Z</time></trkpt><trkpt lat="43.9153733" lon="7.8824817"><ele>897.8333333333334</ele><time>2026-04-26T08:18:51.047Z</time></trkpt><trkpt lat="43.9154583" lon="7.88247"><ele>900.0</ele><time>2026-04-26T08:18:55.047Z</time></trkpt><trkpt lat="43.9155233" lon="7.8824117"><ele>900.0</ele><time>2026-04-26T08:18:58.047Z</time></trkpt><trkpt lat="43.9155883" lon="7.8823233"><ele>900.0</ele><time>2026-04-26T08:19:01.048Z</time></trkpt><trkpt lat="43.9156467" lon="7.8822617"><ele>900.0</ele><time>2026-04-26T08:19:04.047Z</time></trkpt><trkpt lat="43.9157217" lon="7.8822117"><ele>900.0</ele><time>2026-04-26T08:19:08.047Z</time></trkpt><trkpt lat="43.9157867" lon="7.882165"><ele>900.0</ele><time>2026-04-26T08:19:12.047Z</time></trkpt><trkpt lat="43.9158567" lon="7.8821183"><ele>900.0</ele><time>2026-04-26T08:19:16.047Z</time></trkpt><trkpt lat="43.91592" lon="7.8820833"><ele>902.4285714285716</ele><time>2026-04-26T08:19:19.047Z</time></trkpt><trkpt lat="43.9159933" lon="7.8820433"><ele>904.8571428571429</ele><time>2026-04-26T08:19:23.047Z</time></trkpt><trkpt lat="43.91605" lon="7.8819967"><ele>907.2857142857143</ele><time>2026-04-26T08:19:26.047Z</time></trkpt><trkpt lat="43.9160967" lon="7.881925"><ele>909.7142857142858</ele><time>2026-04-26T08:19:29.047Z</time></trkpt><trkpt lat="43.916115" lon="7.8818383"><ele>912.1428571428571</ele><time>2026-04-26T08:19:32.047Z</time></trkpt><trkpt lat="43.9160733" lon="7.88175"><ele>914.5714285714286</ele><time>2026-04-26T08:19:36.047Z</time></trkpt><trkpt lat="43.9160083" lon="7.8816933"><ele>917.0</ele><time>2026-04-26T08:19:41.047Z</time></trkpt><trkpt lat="43.915975" lon="7.881615"><ele>917.0</ele><time>2026-04-26T08:19:45.047Z</time></trkpt><trkpt lat="43.9160333" lon="7.8815817"><ele>917.0</ele><time>2026-04-26T08:19:54.047Z</time></trkpt><trkpt lat="43.9160917" lon="7.88164"><ele>917.0</ele><time>2026-04-26T08:19:59.047Z</time></trkpt><trkpt lat="43.9161567" lon="7.8816967"><ele>917.0</ele><time>2026-04-26T08:20:03.047Z</time></trkpt><trkpt lat="43.916215" lon="7.8817317"><ele>917.0</ele><time>2026-04-26T08:20:07.047Z</time></trkpt><trkpt lat="43.9162817" lon="7.8817733"><ele>917.0</ele><time>2026-04-26T08:20:11.048Z</time></trkpt><trkpt lat="43.9163383" lon="7.881815"><ele>917.0</ele><time>2026-04-26T08:20:14.047Z</time></trkpt><trkpt lat="43.9163917" lon="7.881865"><ele>917.0</ele><time>2026-04-26T08:20:17.047Z</time></trkpt><trkpt lat="43.9164417" lon="7.88194"><ele>917.0</ele><time>2026-04-26T08:20:20.047Z</time></trkpt><trkpt lat="43.9164817" lon="7.88204"><ele>917.0</ele><time>2026-04-26T08:20:23.048Z</time></trkpt><trkpt lat="43.9165233" lon="7.882145"><ele>917.0</ele><time>2026-04-26T08:20:26.047Z</time></trkpt><trkpt lat="43.9165467" lon="7.882245"><ele>917.0</ele><time>2026-04-26T08:20:29.047Z</time></trkpt><trkpt lat="43.91659" lon="7.8823117"><ele>917.0</ele><time>2026-04-26T08:20:32.048Z</time></trkpt><trkpt lat="43.9166467" lon="7.88236"><ele>917.0</ele><time>2026-04-26T08:20:35.048Z</time></trkpt><trkpt lat="43.91671" lon="7.882375"><ele>918.1666666666667</ele><time>2026-04-26T08:20:38.047Z</time></trkpt><trkpt lat="43.9168017" lon="7.88235"><ele>919.3333333333334</ele><time>2026-04-26T08:20:41.047Z</time></trkpt><trkpt lat="43.9168867" lon="7.8823083"><ele>920.5</ele><time>2026-04-26T08:20:44.047Z</time></trkpt><trkpt lat="43.916965" lon="7.88228"><ele>921.6666666666667</ele><time>2026-04-26T08:20:47.047Z</time></trkpt><trkpt lat="43.91704" lon="7.88227"><ele>922.8333333333334</ele><time>2026-04-26T08:20:50.048Z</time></trkpt><trkpt lat="43.9171067" lon="7.882275"><ele>924.0</ele><time>2026-04-26T08:20:53.048Z</time></trkpt><trkpt lat="43.917175" lon="7.8822467"><ele>924.0</ele><time>2026-04-26T08:20:56.047Z</time></trkpt><trkpt lat="43.917255" lon="7.8821983"><ele>924.0</ele><time>2026-04-26T08:20:59.047Z</time></trkpt><trkpt lat="43.91733" lon="7.8821633"><ele>924.0</ele><time>2026-04-26T08:21:02.047Z</time></trkpt><trkpt lat="43.917395" lon="7.8821317"><ele>924.0</ele><time>2026-04-26T08:21:05.047Z</time></trkpt><trkpt lat="43.917455" lon="7.8820933"><ele>924.0</ele><time>2026-04-26T08:21:08.047Z</time></trkpt><trkpt lat="43.9175083" lon="7.8820433"><ele>924.0</ele><time>2026-04-26T08:21:11.048Z</time></trkpt><trkpt lat="43.9175617" lon="7.8819817"><ele>924.0</ele><time>2026-04-26T08:21:14.047Z</time></trkpt><trkpt lat="43.9176117" lon="7.8819133"><ele>922.5</ele><time>2026-04-26T08:21:17.047Z</time></trkpt><trkpt lat="43.9176617" lon="7.8818217"><ele>921.0</ele><time>2026-04-26T08:21:20.047Z</time></trkpt><trkpt lat="43.9177133" lon="7.8817433"><ele>919.5</ele><time>2026-04-26T08:21:23.047Z</time></trkpt><trkpt lat="43.9177667" lon="7.88167"><ele>918.0</ele><time>2026-04-26T08:21:26.047Z</time></trkpt><trkpt lat="43.917825" lon="7.8815767"><ele>916.5</ele><time>2026-04-26T08:21:29.047Z</time></trkpt><trkpt lat="43.9179" lon="7.8814933"><ele>915.0</ele><time>2026-04-26T08:21:32.048Z</time></trkpt><trkpt lat="43.9179717" lon="7.881445"><ele>918.1666666666666</ele><time>2026-04-26T08:21:35.047Z</time></trkpt><trkpt lat="43.9180417" lon="7.8814383"><ele>921.3333333333333</ele><time>2026-04-26T08:21:38.047Z</time></trkpt><trkpt lat="43.9181167" lon="7.8814233"><ele>924.5</ele><time>2026-04-26T08:21:41.047Z</time></trkpt><trkpt lat="43.9181917" lon="7.8813817"><ele>927.6666666666666</ele><time>2026-04-26T08:21:44.048Z</time></trkpt><trkpt lat="43.9182633" lon="7.8813217"><ele>930.8333333333333</ele><time>2026-04-26T08:21:47.047Z</time></trkpt><trkpt lat="43.9183267" lon="7.8812517"><ele>934.0</ele><time>2026-04-26T08:21:50.047Z</time></trkpt><trkpt lat="43.9183817" lon="7.881175"><ele>934.142857142857</ele><time>2026-04-26T08:21:53.047Z</time></trkpt><trkpt lat="43.918435" lon="7.881105"><ele>934.2857142857142</ele><time>2026-04-26T08:21:56.047Z</time></trkpt><trkpt lat="43.9185" lon="7.8810467"><ele>934.4285714285714</ele><time>2026-04-26T08:21:59.047Z</time></trkpt><trkpt lat="43.9185567" lon="7.8810033"><ele>934.5714285714286</ele><time>2026-04-26T08:22:02.048Z</time></trkpt><trkpt lat="43.918615" lon="7.8809617"><ele>934.7142857142858</ele><time>2026-04-26T08:22:05.047Z</time></trkpt><trkpt lat="43.9186783" lon="7.88093"><ele>934.857142857143</ele><time>2026-04-26T08:22:08.047Z</time></trkpt><trkpt lat="43.9187467" lon="7.880905"><ele>935.0000000000001</ele><time>2026-04-26T08:22:11.047Z</time></trkpt><trkpt lat="43.918815" lon="7.8808667"><ele>939.0000000000001</ele><time>2026-04-26T08:22:14.047Z</time></trkpt><trkpt lat="43.9188883" lon="7.8808217"><ele>943.0</ele><time>2026-04-26T08:22:18.047Z</time></trkpt><trkpt lat="43.9189617" lon="7.8808033"><ele>947.0</ele><time>2026-04-26T08:22:22.047Z</time></trkpt><trkpt lat="43.91904" lon="7.8807883"><ele>951.0</ele><time>2026-04-26T08:22:26.047Z</time></trkpt><trkpt lat="43.9191167" lon="7.88076"><ele>955.0000000000001</ele><time>2026-04-26T08:22:30.047Z</time></trkpt><trkpt lat="43.91914" lon="7.8806567"><ele>959.0</ele><time>2026-04-26T08:22:34.047Z</time></trkpt><trkpt lat="43.9191017" lon="7.8805867"><ele>959.0000000000001</ele><time>2026-04-26T08:22:37.047Z</time></trkpt><trkpt lat="43.9190333" lon="7.8805117"><ele>959.0</ele><time>2026-04-26T08:22:41.047Z</time></trkpt><trkpt lat="43.918975" lon="7.8804383"><ele>959.0</ele><time>2026-04-26T08:22:45.047Z</time></trkpt><trkpt lat="43.9189117" lon="7.8803883"><ele>959.0</ele><time>2026-04-26T08:22:48.047Z</time></trkpt><trkpt lat="43.91882" lon="7.880375"><ele>959.0000000000001</ele><time>2026-04-26T08:22:51.047Z</time></trkpt><trkpt lat="43.9187317" lon="7.88039"><ele>959.0</ele><time>2026-04-26T08:22:54.047Z</time></trkpt><trkpt lat="43.9186717" lon="7.88042"><ele>959.0000000000001</ele><time>2026-04-26T08:22:57.047Z</time></trkpt><trkpt lat="43.9185917" lon="7.8804433"><ele>959.0</ele><time>2026-04-26T08:23:01.047Z</time></trkpt><trkpt lat="43.9185183" lon="7.8804283"><ele>959.0</ele><time>2026-04-26T08:23:04.047Z</time></trkpt><trkpt lat="43.9184417" lon="7.880405"><ele>959.0</ele><time>2026-04-26T08:23:07.047Z</time></trkpt><trkpt lat="43.9183583" lon="7.8804117"><ele>959.0000000000001</ele><time>2026-04-26T08:23:10.047Z</time></trkpt><trkpt lat="43.9182817" lon="7.8804217"><ele>959.0</ele><time>2026-04-26T08:23:13.047Z</time></trkpt><trkpt lat="43.9182033" lon="7.8804533"><ele>959.4285714285714</ele><time>2026-04-26T08:23:16.047Z</time></trkpt><trkpt lat="43.91813" lon="7.8804867"><ele>959.8571428571429</ele><time>2026-04-26T08:23:19.047Z</time></trkpt><trkpt lat="43.9180633" lon="7.880515"><ele>960.2857142857142</ele><time>2026-04-26T08:23:22.047Z</time></trkpt><trkpt lat="43.9179967" lon="7.8805283"><ele>960.7142857142857</ele><time>2026-04-26T08:23:25.047Z</time></trkpt><trkpt lat="43.9179217" lon="7.8805167"><ele>961.1428571428571</ele><time>2026-04-26T08:23:28.047Z</time></trkpt><trkpt lat="43.91785" lon="7.8804667"><ele>961.5714285714284</ele><time>2026-04-26T08:23:31.047Z</time></trkpt><trkpt lat="43.917785" lon="7.880405"><ele>961.9999999999999</ele><time>2026-04-26T08:23:34.047Z</time></trkpt><trkpt lat="43.9177267" lon="7.8803567"><ele>962.0000000000001</ele><time>2026-04-26T08:23:37.047Z</time></trkpt><trkpt lat="43.9176567" lon="7.8803383"><ele>962.0</ele><time>2026-04-26T08:23:40.047Z</time></trkpt><trkpt lat="43.9175783" lon="7.8803633"><ele>962.0</ele><time>2026-04-26T08:23:44.047Z</time></trkpt><trkpt lat="43.9175117" lon="7.8804183"><ele>962.0</ele><time>2026-04-26T08:23:47.047Z</time></trkpt><trkpt lat="43.9174533" lon="7.8804683"><ele>962.0000000000001</ele><time>2026-04-26T08:23:50.047Z</time></trkpt><trkpt lat="43.9173783" lon="7.88052"><ele>962.0</ele><time>2026-04-26T08:23:53.047Z</time></trkpt><trkpt lat="43.9173067" lon="7.8805217"><ele>964.1666666666667</ele><time>2026-04-26T08:23:57.047Z</time></trkpt><trkpt lat="43.9172417" lon="7.8804867"><ele>966.3333333333334</ele><time>2026-04-26T08:24:00.047Z</time></trkpt><trkpt lat="43.9171667" lon="7.8804233"><ele>968.5</ele><time>2026-04-26T08:24:04.047Z</time></trkpt><trkpt lat="43.9171083" lon="7.88036"><ele>970.6666666666667</ele><time>2026-04-26T08:24:07.047Z</time></trkpt><trkpt lat="43.9170583" lon="7.880275"><ele>972.8333333333334</ele><time>2026-04-26T08:24:10.047Z</time></trkpt><trkpt lat="43.916995" lon="7.880165"><ele>975.0</ele><time>2026-04-26T08:24:13.047Z</time></trkpt><trkpt lat="43.9169467" lon="7.8800583"><ele>976.2</ele><time>2026-04-26T08:24:15.047Z</time></trkpt><trkpt lat="43.9168883" lon="7.8799533"><ele>977.4</ele><time>2026-04-26T08:24:17.047Z</time></trkpt><trkpt lat="43.9168517" lon="7.8798533"><ele>978.5999999999999</ele><time>2026-04-26T08:24:19.047Z</time></trkpt><trkpt lat="43.9167783" lon="7.8797633"><ele>979.8</ele><time>2026-04-26T08:24:21.047Z</time></trkpt><trkpt lat="43.9166917" lon="7.8796717"><ele>981.0</ele><time>2026-04-26T08:24:24.047Z</time></trkpt><trkpt lat="43.9166317" lon="7.8796183"><ele>981.0</ele><time>2026-04-26T08:24:26.047Z</time></trkpt><trkpt lat="43.91656" lon="7.879545"><ele>981.0</ele><time>2026-04-26T08:24:28.047Z</time></trkpt><trkpt lat="43.9164883" lon="7.8795117"><ele>981.0</ele><time>2026-04-26T08:24:30.047Z</time></trkpt><trkpt lat="43.9164067" lon="7.879525"><ele>981.0</ele><time>2026-04-26T08:24:31.047Z</time></trkpt><trkpt lat="43.9163367" lon="7.8795517"><ele>981.0</ele><time>2026-04-26T08:24:33.047Z</time></trkpt><trkpt lat="43.9162733" lon="7.8795817"><ele>981.0</ele><time>2026-04-26T08:24:35.048Z</time></trkpt><trkpt lat="43.9162117" lon="7.87961"><ele>981.0</ele><time>2026-04-26T08:24:38.047Z</time></trkpt><trkpt lat="43.9161033" lon="7.8796333"><ele>981.0</ele><time>2026-04-26T08:24:40.047Z</time></trkpt><trkpt lat="43.9159983" lon="7.8796433"><ele>981.0</ele><time>2026-04-26T08:24:44.047Z</time></trkpt><trkpt lat="43.9159267" lon="7.8796383"><ele>981.0</ele><time>2026-04-26T08:24:48.047Z</time></trkpt><trkpt lat="43.9158633" lon="7.8796267"><ele>981.0</ele><time>2026-04-26T08:24:50.047Z</time></trkpt><trkpt lat="43.9157883" lon="7.8795867"><ele>981.0</ele><time>2026-04-26T08:24:53.047Z</time></trkpt><trkpt lat="43.91572" lon="7.8795317"><ele>980.3333333333334</ele><time>2026-04-26T08:24:57.048Z</time></trkpt><trkpt lat="43.9156617" lon="7.8794717"><ele>979.6666666666667</ele><time>2026-04-26T08:25:00.047Z</time></trkpt><trkpt lat="43.9156183" lon="7.8794"><ele>979.0</ele><time>2026-04-26T08:25:03.047Z</time></trkpt><trkpt lat="43.91557" lon="7.8793233"><ele>978.3333333333334</ele><time>2026-04-26T08:25:07.047Z</time></trkpt><trkpt lat="43.915515" lon="7.879255"><ele>977.6666666666667</ele><time>2026-04-26T08:25:10.047Z</time></trkpt><trkpt lat="43.9154583" lon="7.8791767"><ele>977.0</ele><time>2026-04-26T08:25:13.047Z</time></trkpt><trkpt lat="43.91539" lon="7.8790933"><ele>979.5000000000001</ele><time>2026-04-26T08:25:17.047Z</time></trkpt><trkpt lat="43.9153333" lon="7.8790517"><ele>982.0</ele><time>2026-04-26T08:25:19.047Z</time></trkpt><trkpt lat="43.915265" lon="7.879025"><ele>984.5</ele><time>2026-04-26T08:25:21.048Z</time></trkpt><trkpt lat="43.915195" lon="7.8790117"><ele>987.0</ele><time>2026-04-26T08:25:24.047Z</time></trkpt><trkpt lat="43.9151183" lon="7.878975"><ele>989.5000000000001</ele><time>2026-04-26T08:25:27.047Z</time></trkpt><trkpt lat="43.9150617" lon="7.878935"><ele>992.0</ele><time>2026-04-26T08:25:29.047Z</time></trkpt><trkpt lat="43.91497" lon="7.8788483"><ele>992.0</ele><time>2026-04-26T08:25:32.047Z</time></trkpt><trkpt lat="43.9149167" lon="7.8787883"><ele>992.0000000000001</ele><time>2026-04-26T08:25:34.047Z</time></trkpt><trkpt lat="43.9148617" lon="7.8787233"><ele>992.0</ele><time>2026-04-26T08:25:36.047Z</time></trkpt><trkpt lat="43.91482" lon="7.8786483"><ele>992.0</ele><time>2026-04-26T08:25:38.047Z</time></trkpt><trkpt lat="43.9147567" lon="7.8785983"><ele>992.0000000000001</ele><time>2026-04-26T08:25:40.047Z</time></trkpt><trkpt lat="43.9146917" lon="7.87852"><ele>992.0</ele><time>2026-04-26T08:25:43.047Z</time></trkpt><trkpt lat="43.91464" lon="7.8784533"><ele>992.0</ele><time>2026-04-26T08:25:47.048Z</time></trkpt><trkpt lat="43.9145717" lon="7.8784033"><ele>994.0000000000001</ele><time>2026-04-26T08:25:50.048Z</time></trkpt><trkpt lat="43.91451" lon="7.878375"><ele>996.0</ele><time>2026-04-26T08:25:52.047Z</time></trkpt><trkpt lat="43.914445" lon="7.8783583"><ele>998.0</ele><time>2026-04-26T08:25:54.047Z</time></trkpt><trkpt lat="43.9143667" lon="7.8783733"><ele>1000.0</ele><time>2026-04-26T08:25:56.048Z</time></trkpt><trkpt lat="43.91426" lon="7.8783867"><ele>1002.0000000000001</ele><time>2026-04-26T08:25:58.047Z</time></trkpt><trkpt lat="43.9141383" lon="7.87839"><ele>1004.0</ele><time>2026-04-26T08:26:00.047Z</time></trkpt><trkpt lat="43.9140383" lon="7.8784017"><ele>1004.0000000000001</ele><time>2026-04-26T08:26:02.047Z</time></trkpt><trkpt lat="43.9139717" lon="7.8784067"><ele>1004.0</ele><time>2026-04-26T08:26:03.047Z</time></trkpt><trkpt lat="43.9139017" lon="7.8784167"><ele>1004.0</ele><time>2026-04-26T08:26:05.048Z</time></trkpt><trkpt lat="43.9137933" lon="7.8784167"><ele>1004.0</ele><time>2026-04-26T08:26:06.047Z</time></trkpt><trkpt lat="43.9137033" lon="7.878455"><ele>1004.0000000000001</ele><time>2026-04-26T08:26:08.048Z</time></trkpt><trkpt lat="43.9136133" lon="7.878505"><ele>1004.0</ele><time>2026-04-26T08:26:10.047Z</time></trkpt><trkpt lat="43.91353" lon="7.878555"><ele>998.8000000000001</ele><time>2026-04-26T08:26:12.047Z</time></trkpt><trkpt lat="43.913455" lon="7.87862"><ele>993.6000000000001</ele><time>2026-04-26T08:26:14.048Z</time></trkpt><trkpt lat="43.9133567" lon="7.8786833"><ele>988.4</ele><time>2026-04-26T08:26:16.047Z</time></trkpt><trkpt lat="43.913245" lon="7.8787367"><ele>983.2</ele><time>2026-04-26T08:26:18.047Z</time></trkpt><trkpt lat="43.913135" lon="7.8787533"><ele>978.0</ele><time>2026-04-26T08:26:20.047Z</time></trkpt><trkpt lat="43.91304" lon="7.8787467"><ele>977.3333333333334</ele><time>2026-04-26T08:26:22.047Z</time></trkpt><trkpt lat="43.9129733" lon="7.87869"><ele>976.6666666666667</ele><time>2026-04-26T08:26:24.047Z</time></trkpt><trkpt lat="43.9128967" lon="7.8786383"><ele>976.0</ele><time>2026-04-26T08:26:26.047Z</time></trkpt><trkpt lat="43.9128017" lon="7.8786117"><ele>975.3333333333334</ele><time>2026-04-26T08:26:28.047Z</time></trkpt><trkpt lat="43.9127067" lon="7.8786167"><ele>974.6666666666667</ele><time>2026-04-26T08:26:30.047Z</time></trkpt><trkpt lat="43.9126183" lon="7.87865"><ele>974.0</ele><time>2026-04-26T08:26:32.049Z</time></trkpt><trkpt lat="43.9125383" lon="7.87868"><ele>976.0</ele><time>2026-04-26T08:26:34.047Z</time></trkpt><trkpt lat="43.91247" lon="7.8786883"><ele>978.0000000000001</ele><time>2026-04-26T08:26:35.047Z</time></trkpt><trkpt lat="43.9123817" lon="7.8787"><ele>980.0000000000001</ele><time>2026-04-26T08:26:37.047Z</time></trkpt><trkpt lat="43.91227" lon="7.8786917"><ele>982.0</ele><time>2026-04-26T08:26:39.047Z</time></trkpt><trkpt lat="43.9121617" lon="7.8786533"><ele>984.0</ele><time>2026-04-26T08:26:41.047Z</time></trkpt><trkpt lat="43.9120633" lon="7.878635"><ele>984.0</ele><time>2026-04-26T08:26:42.047Z</time></trkpt><trkpt lat="43.911995" lon="7.878625"><ele>984.0000000000001</ele><time>2026-04-26T08:26:43.047Z</time></trkpt><trkpt lat="43.9118717" lon="7.87862"><ele>984.0000000000001</ele><time>2026-04-26T08:26:45.047Z</time></trkpt><trkpt lat="43.9117783" lon="7.8786333"><ele>984.0</ele><time>2026-04-26T08:26:47.048Z</time></trkpt><trkpt lat="43.9116483" lon="7.8786683"><ele>984.0</ele><time>2026-04-26T08:26:49.047Z</time></trkpt><trkpt lat="43.911565" lon="7.8787267"><ele>985.6666666666666</ele><time>2026-04-26T08:26:51.047Z</time></trkpt><trkpt lat="43.9115017" lon="7.8788133"><ele>987.3333333333333</ele><time>2026-04-26T08:26:53.047Z</time></trkpt><trkpt lat="43.911445" lon="7.8788883"><ele>989.0</ele><time>2026-04-26T08:26:55.047Z</time></trkpt><trkpt lat="43.9113933" lon="7.87897"><ele>990.6666666666666</ele><time>2026-04-26T08:26:57.047Z</time></trkpt><trkpt lat="43.9113367" lon="7.8790683"><ele>992.3333333333333</ele><time>2026-04-26T08:26:59.047Z</time></trkpt><trkpt lat="43.911265" lon="7.879155"><ele>994.0</ele><time>2026-04-26T08:27:01.047Z</time></trkpt><trkpt lat="43.9111817" lon="7.8792417"><ele>994.4000000000001</ele><time>2026-04-26T08:27:03.048Z</time></trkpt><trkpt lat="43.9110883" lon="7.8793067"><ele>994.8000000000001</ele><time>2026-04-26T08:27:05.047Z</time></trkpt><trkpt lat="43.9109867" lon="7.8793867"><ele>995.1999999999999</ele><time>2026-04-26T08:27:07.047Z</time></trkpt><trkpt lat="43.9109267" lon="7.87944"><ele>995.5999999999999</ele><time>2026-04-26T08:27:08.047Z</time></trkpt><trkpt lat="43.910835" lon="7.8795417"><ele>996.0</ele><time>2026-04-26T08:27:10.047Z</time></trkpt><trkpt lat="43.9107633" lon="7.8796317"><ele>996.0</ele><time>2026-04-26T08:27:12.047Z</time></trkpt><trkpt lat="43.9106933" lon="7.879705"><ele>996.0</ele><time>2026-04-26T08:27:14.047Z</time></trkpt><trkpt lat="43.9106267" lon="7.8798"><ele>996.0</ele><time>2026-04-26T08:27:16.048Z</time></trkpt><trkpt lat="43.91056" lon="7.8798783"><ele>996.0</ele><time>2026-04-26T08:27:18.047Z</time></trkpt><trkpt lat="43.9104933" lon="7.8799517"><ele>996.0</ele><time>2026-04-26T08:27:20.047Z</time></trkpt><trkpt lat="43.9104217" lon="7.88003"><ele>996.0</ele><time>2026-04-26T08:27:22.047Z</time></trkpt><trkpt lat="43.9103617" lon="7.88013"><ele>992.6666666666666</ele><time>2026-04-26T08:27:24.047Z</time></trkpt><trkpt lat="43.91031" lon="7.8802333"><ele>989.3333333333333</ele><time>2026-04-26T08:27:26.047Z</time></trkpt><trkpt lat="43.9102633" lon="7.8803583"><ele>986.0</ele><time>2026-04-26T08:27:28.047Z</time></trkpt><trkpt lat="43.910205" lon="7.8804783"><ele>982.6666666666666</ele><time>2026-04-26T08:27:30.047Z</time></trkpt><trkpt lat="43.9102167" lon="7.88058"><ele>979.3333333333333</ele><time>2026-04-26T08:27:31.047Z</time></trkpt><trkpt lat="43.9102183" lon="7.8806783"><ele>976.0</ele><time>2026-04-26T08:27:32.047Z</time></trkpt><trkpt lat="43.9101867" lon="7.8808083"><ele>975.9999999999999</ele><time>2026-04-26T08:27:34.047Z</time></trkpt><trkpt lat="43.9101633" lon="7.8809283"><ele>976.0</ele><time>2026-04-26T08:27:36.047Z</time></trkpt><trkpt lat="43.9101433" lon="7.881035"><ele>976.0</ele><time>2026-04-26T08:27:38.047Z</time></trkpt><trkpt lat="43.9101167" lon="7.8811433"><ele>976.0</ele><time>2026-04-26T08:27:40.048Z</time></trkpt><trkpt lat="43.91007" lon="7.8812433"><ele>975.9999999999999</ele><time>2026-04-26T08:27:42.047Z</time></trkpt><trkpt lat="43.9100183" lon="7.88134"><ele>976.0</ele><time>2026-04-26T08:27:44.047Z</time></trkpt><trkpt lat="43.9099567" lon="7.8814117"><ele>977.8333333333333</ele><time>2026-04-26T08:27:46.048Z</time></trkpt><trkpt lat="43.9098833" lon="7.881465"><ele>979.6666666666666</ele><time>2026-04-26T08:27:48.047Z</time></trkpt><trkpt lat="43.90981" lon="7.881505"><ele>981.5</ele><time>2026-04-26T08:27:50.047Z</time></trkpt><trkpt lat="43.9097317" lon="7.8815267"><ele>983.3333333333333</ele><time>2026-04-26T08:27:52.047Z</time></trkpt><trkpt lat="43.9096617" lon="7.8815683"><ele>985.1666666666666</ele><time>2026-04-26T08:27:54.047Z</time></trkpt><trkpt lat="43.9096017" lon="7.8816433"><ele>987.0</ele><time>2026-04-26T08:27:56.047Z</time></trkpt><trkpt lat="43.9095533" lon="7.8817317"><ele>984.1666666666666</ele><time>2026-04-26T08:27:58.047Z</time></trkpt><trkpt lat="43.909515" lon="7.8818317"><ele>981.3333333333333</ele><time>2026-04-26T08:28:00.047Z</time></trkpt><trkpt lat="43.9094767" lon="7.881915"><ele>978.5</ele><time>2026-04-26T08:28:02.047Z</time></trkpt><trkpt lat="43.9094233" lon="7.8820067"><ele>975.6666666666666</ele><time>2026-04-26T08:28:05.047Z</time></trkpt><trkpt lat="43.9093767" lon="7.8820767"><ele>972.8333333333333</ele><time>2026-04-26T08:28:09.048Z</time></trkpt><trkpt lat="43.9093183" lon="7.88214"><ele>970.0</ele><time>2026-04-26T08:28:15.047Z</time></trkpt><trkpt lat="43.9092533" lon="7.8821783"><ele>972.6666666666666</ele><time>2026-04-26T08:28:20.047Z</time></trkpt><trkpt lat="43.9092" lon="7.8822267"><ele>975.3333333333333</ele><time>2026-04-26T08:34:04.047Z</time></trkpt><trkpt lat="43.9090967" lon="7.88222"><ele>978.0</ele><time>2026-04-26T08:34:55.047Z</time></trkpt><trkpt lat="43.9090317" lon="7.88213"><ele>980.6666666666667</ele><time>2026-04-26T08:34:59.047Z</time></trkpt><trkpt lat="43.9089933" lon="7.8820567"><ele>983.3333333333334</ele><time>2026-04-26T08:35:01.047Z</time></trkpt><trkpt lat="43.9089567" lon="7.881985"><ele>986.0</ele><time>2026-04-26T08:35:03.048Z</time></trkpt><trkpt lat="43.9089133" lon="7.8818717"><ele>986.0</ele><time>2026-04-26T08:35:06.047Z</time></trkpt><trkpt lat="43.9088683" lon="7.8817833"><ele>986.0</ele><time>2026-04-26T08:35:08.047Z</time></trkpt><trkpt lat="43.9088167" lon="7.881695"><ele>986.0</ele><time>2026-04-26T08:35:10.048Z</time></trkpt><trkpt lat="43.9087683" lon="7.8816067"><ele>986.0</ele><time>2026-04-26T08:35:12.047Z</time></trkpt><trkpt lat="43.908715" lon="7.88154"><ele>986.0</ele><time>2026-04-26T08:35:14.047Z</time></trkpt><trkpt lat="43.9086533" lon="7.8815067"><ele>986.0</ele><time>2026-04-26T08:35:16.047Z</time></trkpt><trkpt lat="43.9085833" lon="7.8814883"><ele>986.0</ele><time>2026-04-26T08:35:18.047Z</time></trkpt><trkpt lat="43.908505" lon="7.88143"><ele>988.1428571428571</ele><time>2026-04-26T08:35:20.048Z</time></trkpt><trkpt lat="43.90846" lon="7.8813533"><ele>990.2857142857143</ele><time>2026-04-26T08:35:22.047Z</time></trkpt><trkpt lat="43.9084417" lon="7.8812283"><ele>992.4285714285714</ele><time>2026-04-26T08:35:25.048Z</time></trkpt><trkpt lat="43.9084517" lon="7.8811083"><ele>994.5714285714286</ele><time>2026-04-26T08:35:28.047Z</time></trkpt><trkpt lat="43.9084833" lon="7.881025"><ele>996.7142857142858</ele><time>2026-04-26T08:35:31.047Z</time></trkpt><trkpt lat="43.9085267" lon="7.880955"><ele>998.8571428571429</ele><time>2026-04-26T08:35:34.047Z</time></trkpt><trkpt lat="43.908575" lon="7.8808967"><ele>1001.0</ele><time>2026-04-26T08:35:37.047Z</time></trkpt><trkpt lat="43.908615" lon="7.880825"><ele>999.8333333333334</ele><time>2026-04-26T08:35:40.047Z</time></trkpt><trkpt lat="43.9086467" lon="7.8807317"><ele>998.6666666666667</ele><time>2026-04-26T08:35:43.047Z</time></trkpt><trkpt lat="43.9086483" lon="7.88062"><ele>997.5</ele><time>2026-04-26T08:35:46.047Z</time></trkpt><trkpt lat="43.9085867" lon="7.88054"><ele>996.3333333333333</ele><time>2026-04-26T08:35:49.047Z</time></trkpt><trkpt lat="43.9085217" lon="7.8805067"><ele>995.1666666666666</ele><time>2026-04-26T08:35:51.047Z</time></trkpt><trkpt lat="43.9084533" lon="7.8804733"><ele>994.0</ele><time>2026-04-26T08:35:53.047Z</time></trkpt><trkpt lat="43.90838" lon="7.8804367"><ele>994.0</ele><time>2026-04-26T08:35:55.047Z</time></trkpt><trkpt lat="43.908305" lon="7.8803833"><ele>994.0</ele><time>2026-04-26T08:35:57.047Z</time></trkpt><trkpt lat="43.908245" lon="7.8803217"><ele>994.0</ele><time>2026-04-26T08:35:59.047Z</time></trkpt><trkpt lat="43.9082" lon="7.8802517"><ele>994.0</ele><time>2026-04-26T08:36:02.047Z</time></trkpt><trkpt lat="43.9081683" lon="7.8801517"><ele>994.0</ele><time>2026-04-26T08:36:06.047Z</time></trkpt><trkpt lat="43.9081367" lon="7.88007"><ele>994.0</ele><time>2026-04-26T08:36:09.047Z</time></trkpt><trkpt lat="43.9080733" lon="7.8800117"><ele>994.0</ele><time>2026-04-26T08:36:12.047Z</time></trkpt><trkpt lat="43.9079867" lon="7.8799767"><ele>993.9999999999999</ele><time>2026-04-26T08:36:15.047Z</time></trkpt><trkpt lat="43.9079183" lon="7.8799967"><ele>994.0</ele><time>2026-04-26T08:36:17.047Z</time></trkpt><trkpt lat="43.9078367" lon="7.8800533"><ele>994.0</ele><time>2026-04-26T08:36:20.047Z</time></trkpt><trkpt lat="43.9077667" lon="7.8801233"><ele>994.0</ele><time>2026-04-26T08:36:23.047Z</time></trkpt><trkpt lat="43.9077" lon="7.88016"><ele>993.9999999999999</ele><time>2026-04-26T08:36:26.047Z</time></trkpt><trkpt lat="43.9076283" lon="7.8801683"><ele>994.0</ele><time>2026-04-26T08:36:29.047Z</time></trkpt><trkpt lat="43.9075417" lon="7.880215"><ele>992.6666666666666</ele><time>2026-04-26T08:36:32.048Z</time></trkpt><trkpt lat="43.9074717" lon="7.8802683"><ele>991.3333333333333</ele><time>2026-04-26T08:36:35.047Z</time></trkpt><trkpt lat="43.9074067" lon="7.880285"><ele>990.0</ele><time>2026-04-26T08:36:38.047Z</time></trkpt><trkpt lat="43.90733" lon="7.8802767"><ele>988.6666666666667</ele><time>2026-04-26T08:36:41.047Z</time></trkpt><trkpt lat="43.90727" lon="7.8802283"><ele>987.3333333333334</ele><time>2026-04-26T08:36:43.047Z</time></trkpt><trkpt lat="43.9071833" lon="7.88015"><ele>986.0</ele><time>2026-04-26T08:36:45.047Z</time></trkpt><trkpt lat="43.9071133" lon="7.8800633"><ele>986.0</ele><time>2026-04-26T08:36:47.047Z</time></trkpt><trkpt lat="43.9070517" lon="7.8799867"><ele>986.0</ele><time>2026-04-26T08:36:49.047Z</time></trkpt><trkpt lat="43.9069883" lon="7.8799617"><ele>986.0</ele><time>2026-04-26T08:36:52.047Z</time></trkpt><trkpt lat="43.9069167" lon="7.8800117"><ele>986.0</ele><time>2026-04-26T08:36:55.047Z</time></trkpt><trkpt lat="43.9068567" lon="7.8800933"><ele>986.0</ele><time>2026-04-26T08:36:58.047Z</time></trkpt><trkpt lat="43.9068167" lon="7.880175"><ele>986.0</ele><time>2026-04-26T08:37:00.047Z</time></trkpt><trkpt lat="43.9067783" lon="7.880245"><ele>986.0</ele><time>2026-04-26T08:37:02.047Z</time></trkpt><trkpt lat="43.906735" lon="7.8803233"><ele>981.0000000000001</ele><time>2026-04-26T08:37:04.048Z</time></trkpt><trkpt lat="43.906675" lon="7.8804033"><ele>976.0</ele><time>2026-04-26T08:37:07.047Z</time></trkpt><trkpt lat="43.9066217" lon="7.8804633"><ele>971.0</ele><time>2026-04-26T08:37:09.047Z</time></trkpt><trkpt lat="43.90654" lon="7.8805017"><ele>966.0</ele><time>2026-04-26T08:37:12.048Z</time></trkpt><trkpt lat="43.9064633" lon="7.8805267"><ele>961.0000000000001</ele><time>2026-04-26T08:37:15.047Z</time></trkpt><trkpt lat="43.9063567" lon="7.8805083"><ele>956.0</ele><time>2026-04-26T08:37:18.047Z</time></trkpt><trkpt lat="43.906265" lon="7.8805133"><ele>956.0000000000001</ele><time>2026-04-26T08:37:20.047Z</time></trkpt><trkpt lat="43.9061867" lon="7.8805217"><ele>956.0</ele><time>2026-04-26T08:37:22.047Z</time></trkpt><trkpt lat="43.9061117" lon="7.8805317"><ele>956.0</ele><time>2026-04-26T08:37:24.047Z</time></trkpt><trkpt lat="43.9060017" lon="7.8805467"><ele>956.0</ele><time>2026-04-26T08:37:26.047Z</time></trkpt><trkpt lat="43.9059083" lon="7.8805383"><ele>956.0000000000001</ele><time>2026-04-26T08:37:28.047Z</time></trkpt><trkpt lat="43.905825" lon="7.8805383"><ele>956.0</ele><time>2026-04-26T08:37:30.047Z</time></trkpt><trkpt lat="43.9057533" lon="7.88055"><ele>955.3333333333334</ele><time>2026-04-26T08:37:32.047Z</time></trkpt><trkpt lat="43.9056783" lon="7.8805933"><ele>954.6666666666667</ele><time>2026-04-26T08:37:35.047Z</time></trkpt><trkpt lat="43.9056183" lon="7.88065"><ele>954.0</ele><time>2026-04-26T08:37:38.047Z</time></trkpt><trkpt lat="43.905535" lon="7.88071"><ele>953.3333333333333</ele><time>2026-04-26T08:37:40.047Z</time></trkpt><trkpt lat="43.9054783" lon="7.8807483"><ele>952.6666666666666</ele><time>2026-04-26T08:37:42.047Z</time></trkpt><trkpt lat="43.9053983" lon="7.880815"><ele>952.0</ele><time>2026-04-26T08:37:44.047Z</time></trkpt><trkpt lat="43.9053217" lon="7.8808783"><ele>951.9999999999999</ele><time>2026-04-26T08:37:46.048Z</time></trkpt><trkpt lat="43.9052617" lon="7.8809167"><ele>952.0</ele><time>2026-04-26T08:37:48.047Z</time></trkpt><trkpt lat="43.90519" lon="7.880975"><ele>952.0</ele><time>2026-04-26T08:37:50.047Z</time></trkpt><trkpt lat="43.9051317" lon="7.8810133"><ele>952.0</ele><time>2026-04-26T08:37:52.047Z</time></trkpt><trkpt lat="43.9050383" lon="7.8810767"><ele>951.9999999999999</ele><time>2026-04-26T08:37:54.047Z</time></trkpt><trkpt lat="43.9049333" lon="7.8811583"><ele>952.0</ele><time>2026-04-26T08:37:56.047Z</time></trkpt><trkpt lat="43.9048633" lon="7.8812233"><ele>948.4000000000001</ele><time>2026-04-26T08:37:58.047Z</time></trkpt><trkpt lat="43.9047883" lon="7.8812767"><ele>944.8000000000001</ele><time>2026-04-26T08:38:00.047Z</time></trkpt><trkpt lat="43.904685" lon="7.8813517"><ele>941.2</ele><time>2026-04-26T08:38:02.048Z</time></trkpt><trkpt lat="43.9045883" lon="7.8814167"><ele>937.6</ele><time>2026-04-26T08:38:04.047Z</time></trkpt><trkpt lat="43.904505" lon="7.881475"><ele>934.0</ele><time>2026-04-26T08:38:06.047Z</time></trkpt><trkpt lat="43.9044117" lon="7.8815317"><ele>934.0</ele><time>2026-04-26T08:38:08.047Z</time></trkpt><trkpt lat="43.9043467" lon="7.88159"><ele>934.0000000000001</ele><time>2026-04-26T08:38:10.047Z</time></trkpt><trkpt lat="43.9042383" lon="7.881745"><ele>934.0000000000001</ele><time>2026-04-26T08:38:12.047Z</time></trkpt><trkpt lat="43.9041733" lon="7.88182"><ele>934.0</ele><time>2026-04-26T08:38:13.047Z</time></trkpt><trkpt lat="43.9040867" lon="7.8819417"><ele>934.0</ele><time>2026-04-26T08:38:15.047Z</time></trkpt><trkpt lat="43.90402" lon="7.8820217"><ele>932.4999999999999</ele><time>2026-04-26T08:38:17.047Z</time></trkpt><trkpt lat="43.9039583" lon="7.882085"><ele>931.0</ele><time>2026-04-26T08:38:19.048Z</time></trkpt><trkpt lat="43.9039017" lon="7.88213"><ele>929.5</ele><time>2026-04-26T08:38:21.047Z</time></trkpt><trkpt lat="43.90384" lon="7.8821767"><ele>928.0</ele><time>2026-04-26T08:38:23.047Z</time></trkpt><trkpt lat="43.903755" lon="7.8822667"><ele>926.4999999999999</ele><time>2026-04-26T08:38:25.047Z</time></trkpt><trkpt lat="43.90365" lon="7.88235"><ele>925.0</ele><time>2026-04-26T08:38:27.047Z</time></trkpt><trkpt lat="43.90359" lon="7.8823933"><ele>924.9999999999999</ele><time>2026-04-26T08:38:28.047Z</time></trkpt><trkpt lat="43.9035183" lon="7.8824483"><ele>925.0</ele><time>2026-04-26T08:38:29.047Z</time></trkpt><trkpt lat="43.9034433" lon="7.882485"><ele>925.0</ele><time>2026-04-26T08:38:32.047Z</time></trkpt><trkpt lat="43.9033817" lon="7.8825333"><ele>925.0</ele><time>2026-04-26T08:38:34.047Z</time></trkpt><trkpt lat="43.90333" lon="7.882585"><ele>924.9999999999999</ele><time>2026-04-26T08:38:35.047Z</time></trkpt><trkpt lat="43.9032717" lon="7.8826317"><ele>925.0</ele><time>2026-04-26T08:38:36.047Z</time></trkpt><trkpt lat="43.9032033" lon="7.8827217"><ele>925.0</ele><time>2026-04-26T08:38:38.047Z</time></trkpt><trkpt lat="43.9031533" lon="7.8827933"><ele>925.0</ele><time>2026-04-26T08:38:40.047Z</time></trkpt><trkpt lat="43.9030767" lon="7.8829217"><ele>925.0</ele><time>2026-04-26T08:38:42.047Z</time></trkpt><trkpt lat="43.903035" lon="7.8830033"><ele>925.0</ele><time>2026-04-26T08:38:43.047Z</time></trkpt><trkpt lat="43.9029583" lon="7.8831733"><ele>925.0</ele><time>2026-04-26T08:38:45.047Z</time></trkpt><trkpt lat="43.9029017" lon="7.88337"><ele>923.6</ele><time>2026-04-26T08:38:47.047Z</time></trkpt><trkpt lat="43.9028617" lon="7.8834767"><ele>922.2</ele><time>2026-04-26T08:38:48.047Z</time></trkpt><trkpt lat="43.90277" lon="7.8835633"><ele>920.8</ele><time>2026-04-26T08:38:50.047Z</time></trkpt><trkpt lat="43.9027067" lon="7.88366"><ele>919.4</ele><time>2026-04-26T08:38:51.047Z</time></trkpt><trkpt lat="43.90259" lon="7.8837817"><ele>918.0</ele><time>2026-04-26T08:38:53.047Z</time></trkpt><trkpt lat="43.9024917" lon="7.883795"><ele>918.0</ele><time>2026-04-26T08:38:55.047Z</time></trkpt><trkpt lat="43.9023667" lon="7.8838133"><ele>918.0</ele><time>2026-04-26T08:38:57.047Z</time></trkpt><trkpt lat="43.9023" lon="7.8838367"><ele>918.0</ele><time>2026-04-26T08:38:58.047Z</time></trkpt><trkpt lat="43.9022317" lon="7.8838567"><ele>918.0</ele><time>2026-04-26T08:38:59.047Z</time></trkpt><trkpt lat="43.902085" lon="7.88394"><ele>918.0</ele><time>2026-04-26T08:39:01.047Z</time></trkpt><trkpt lat="43.9020117" lon="7.883985"><ele>918.0</ele><time>2026-04-26T08:39:02.047Z</time></trkpt><trkpt lat="43.901945" lon="7.884025"><ele>918.0</ele><time>2026-04-26T08:39:03.047Z</time></trkpt><trkpt lat="43.9018783" lon="7.8840683"><ele>918.0</ele><time>2026-04-26T08:39:04.047Z</time></trkpt><trkpt lat="43.90181" lon="7.8841133"><ele>918.0</ele><time>2026-04-26T08:39:05.047Z</time></trkpt><trkpt lat="43.9017317" lon="7.8841283"><ele>918.0</ele><time>2026-04-26T08:39:07.047Z</time></trkpt><trkpt lat="43.9016667" lon="7.88414"><ele>918.0</ele><time>2026-04-26T08:39:09.047Z</time></trkpt><trkpt lat="43.9015967" lon="7.884175"><ele>918.0</ele><time>2026-04-26T08:39:11.047Z</time></trkpt><trkpt lat="43.901505" lon="7.8842233"><ele>913.0</ele><time>2026-04-26T08:39:13.047Z</time></trkpt><trkpt lat="43.9014083" lon="7.8842883"><ele>908.0</ele><time>2026-04-26T08:39:15.047Z</time></trkpt><trkpt lat="43.9013183" lon="7.8843617"><ele>903.0</ele><time>2026-04-26T08:39:17.048Z</time></trkpt><trkpt lat="43.90127" lon="7.8844567"><ele>898.0</ele><time>2026-04-26T08:39:18.047Z</time></trkpt><trkpt lat="43.9011933" lon="7.8845333"><ele>893.0</ele><time>2026-04-26T08:39:20.048Z</time></trkpt><trkpt lat="43.9011133" lon="7.88459"><ele>893.0000000000001</ele><time>2026-04-26T08:39:23.047Z</time></trkpt><trkpt lat="43.90104" lon="7.8846583"><ele>893.0</ele><time>2026-04-26T08:39:26.047Z</time></trkpt><trkpt lat="43.900985" lon="7.88471"><ele>893.0</ele><time>2026-04-26T08:39:28.047Z</time></trkpt><trkpt lat="43.900925" lon="7.8847817"><ele>893.0</ele><time>2026-04-26T08:39:30.047Z</time></trkpt><trkpt lat="43.9008533" lon="7.884895"><ele>893.0000000000001</ele><time>2026-04-26T08:39:32.047Z</time></trkpt><trkpt lat="43.9007917" lon="7.8850133"><ele>893.0</ele><time>2026-04-26T08:39:34.047Z</time></trkpt><trkpt lat="43.900765" lon="7.885105"><ele>892.5999999999999</ele><time>2026-04-26T08:39:35.048Z</time></trkpt><trkpt lat="43.9007233" lon="7.8851933"><ele>892.1999999999999</ele><time>2026-04-26T08:39:36.048Z</time></trkpt><trkpt lat="43.9006467" lon="7.8853067"><ele>891.8</ele><time>2026-04-26T08:39:38.047Z</time></trkpt><trkpt lat="43.9005783" lon="7.8854167"><ele>891.4</ele><time>2026-04-26T08:39:40.047Z</time></trkpt><trkpt lat="43.9005183" lon="7.8855683"><ele>891.0</ele><time>2026-04-26T08:39:42.047Z</time></trkpt><trkpt lat="43.9004717" lon="7.885705"><ele>891.0</ele><time>2026-04-26T08:39:44.047Z</time></trkpt><trkpt lat="43.9004083" lon="7.88585"><ele>890.9999999999999</ele><time>2026-04-26T08:39:46.047Z</time></trkpt><trkpt lat="43.90035" lon="7.88602"><ele>890.9999999999999</ele><time>2026-04-26T08:39:48.047Z</time></trkpt><trkpt lat="43.9003283" lon="7.8861033"><ele>891.0</ele><time>2026-04-26T08:39:49.048Z</time></trkpt><trkpt lat="43.9003017" lon="7.8861883"><ele>891.0</ele><time>2026-04-26T08:39:50.047Z</time></trkpt><trkpt lat="43.90025" lon="7.886345"><ele>889.6666666666666</ele><time>2026-04-26T08:39:52.047Z</time></trkpt><trkpt lat="43.900185" lon="7.88648"><ele>888.3333333333333</ele><time>2026-04-26T08:39:54.047Z</time></trkpt><trkpt lat="43.9001217" lon="7.886585"><ele>887.0</ele><time>2026-04-26T08:39:56.047Z</time></trkpt><trkpt lat="43.900075" lon="7.8866533"><ele>885.6666666666666</ele><time>2026-04-26T08:39:58.047Z</time></trkpt><trkpt lat="43.9000317" lon="7.8867267"><ele>884.3333333333333</ele><time>2026-04-26T08:40:00.047Z</time></trkpt><trkpt lat="43.899995" lon="7.8868067"><ele>883.0</ele><time>2026-04-26T08:40:02.047Z</time></trkpt><trkpt lat="43.89996" lon="7.886885"><ele>880.5714285714286</ele><time>2026-04-26T08:40:04.047Z</time></trkpt><trkpt lat="43.8999217" lon="7.886965"><ele>878.1428571428571</ele><time>2026-04-26T08:40:06.047Z</time></trkpt><trkpt lat="43.8998767" lon="7.887035"><ele>875.7142857142857</ele><time>2026-04-26T08:40:08.047Z</time></trkpt><trkpt lat="43.8998167" lon="7.8871283"><ele>873.2857142857142</ele><time>2026-04-26T08:40:11.047Z</time></trkpt><trkpt lat="43.899775" lon="7.8871967"><ele>870.8571428571429</ele><time>2026-04-26T08:40:13.047Z</time></trkpt><trkpt lat="43.8997383" lon="7.88727"><ele>868.4285714285713</ele><time>2026-04-26T08:40:15.048Z</time></trkpt><trkpt lat="43.899685" lon="7.8873717"><ele>866.0</ele><time>2026-04-26T08:40:18.047Z</time></trkpt><trkpt lat="43.8996533" lon="7.887455"><ele>866.0000000000001</ele><time>2026-04-26T08:40:20.047Z</time></trkpt><trkpt lat="43.899625" lon="7.8875483"><ele>866.0</ele><time>2026-04-26T08:40:22.047Z</time></trkpt><trkpt lat="43.899575" lon="7.88765"><ele>866.0</ele><time>2026-04-26T08:40:25.047Z</time></trkpt><trkpt lat="43.89951" lon="7.887725"><ele>866.0</ele><time>2026-04-26T08:40:28.047Z</time></trkpt><trkpt lat="43.8994583" lon="7.887775"><ele>866.0000000000001</ele><time>2026-04-26T08:40:30.047Z</time></trkpt><trkpt lat="43.89942" lon="7.88789"><ele>866.0</ele><time>2026-04-26T08:40:33.047Z</time></trkpt><trkpt lat="43.8994067" lon="7.8879933"><ele>863.5999999999999</ele><time>2026-04-26T08:40:35.048Z</time></trkpt><trkpt lat="43.899395" lon="7.8881067"><ele>861.1999999999999</ele><time>2026-04-26T08:40:37.047Z</time></trkpt><trkpt lat="43.8993683" lon="7.8882417"><ele>858.8000000000001</ele><time>2026-04-26T08:40:39.047Z</time></trkpt><trkpt lat="43.89934" lon="7.8883767"><ele>856.4000000000001</ele><time>2026-04-26T08:40:41.047Z</time></trkpt><trkpt lat="43.8993567" lon="7.8885083"><ele>854.0</ele><time>2026-04-26T08:40:43.047Z</time></trkpt><trkpt lat="43.89941" lon="7.888635"><ele>852.3333333333334</ele><time>2026-04-26T08:40:45.047Z</time></trkpt><trkpt lat="43.89946" lon="7.8887483"><ele>850.6666666666667</ele><time>2026-04-26T08:40:47.047Z</time></trkpt><trkpt lat="43.8994933" lon="7.888835"><ele>849.0</ele><time>2026-04-26T08:40:49.047Z</time></trkpt><trkpt lat="43.8995117" lon="7.88892"><ele>847.3333333333333</ele><time>2026-04-26T08:40:53.047Z</time></trkpt><trkpt lat="43.8995733" lon="7.8889467"><ele>845.6666666666666</ele><time>2026-04-26T08:41:26.047Z</time></trkpt><trkpt lat="43.8996533" lon="7.8889683"><ele>844.0</ele><time>2026-04-26T08:41:29.047Z</time></trkpt><trkpt lat="43.89974" lon="7.8889767"><ele>844.0</ele><time>2026-04-26T08:41:32.047Z</time></trkpt><trkpt lat="43.8998033" lon="7.8889883"><ele>844.0</ele><time>2026-04-26T08:41:34.047Z</time></trkpt><trkpt lat="43.8998917" lon="7.88899"><ele>844.0</ele><time>2026-04-26T08:41:37.047Z</time></trkpt><trkpt lat="43.899965" lon="7.888935"><ele>844.0</ele><time>2026-04-26T08:41:40.047Z</time></trkpt><trkpt lat="43.9000067" lon="7.888865"><ele>844.0</ele><time>2026-04-26T08:41:42.047Z</time></trkpt><trkpt lat="43.9000383" lon="7.8887867"><ele>844.0</ele><time>2026-04-26T08:41:44.047Z</time></trkpt><trkpt lat="43.9000733" lon="7.8886967"><ele>844.0</ele><time>2026-04-26T08:41:47.047Z</time></trkpt><trkpt lat="43.9001317" lon="7.8886433"><ele>841.8571428571429</ele><time>2026-04-26T08:41:50.047Z</time></trkpt><trkpt lat="43.9002" lon="7.8886067"><ele>839.7142857142858</ele><time>2026-04-26T08:41:52.047Z</time></trkpt><trkpt lat="43.900265" lon="7.888575"><ele>837.5714285714286</ele><time>2026-04-26T08:41:54.047Z</time></trkpt><trkpt lat="43.900325" lon="7.8885267"><ele>835.4285714285714</ele><time>2026-04-26T08:41:56.047Z</time></trkpt><trkpt lat="43.900415" lon="7.8884933"><ele>833.2857142857142</ele><time>2026-04-26T08:41:59.047Z</time></trkpt><trkpt lat="43.9004867" lon="7.8884833"><ele>831.1428571428571</ele><time>2026-04-26T08:42:01.047Z</time></trkpt><trkpt lat="43.9005517" lon="7.888465"><ele>829.0</ele><time>2026-04-26T08:42:03.048Z</time></trkpt><trkpt lat="43.9006183" lon="7.888435"><ele>827.6</ele><time>2026-04-26T08:42:05.047Z</time></trkpt><trkpt lat="43.9006933" lon="7.888405"><ele>826.2</ele><time>2026-04-26T08:42:07.047Z</time></trkpt><trkpt lat="43.9007883" lon="7.8883517"><ele>824.8000000000001</ele><time>2026-04-26T08:42:09.047Z</time></trkpt><trkpt lat="43.9008917" lon="7.888295"><ele>823.4000000000001</ele><time>2026-04-26T08:42:11.048Z</time></trkpt><trkpt lat="43.9010067" lon="7.8882567"><ele>822.0</ele><time>2026-04-26T08:42:13.047Z</time></trkpt><trkpt lat="43.9010633" lon="7.8882183"><ele>822.0</ele><time>2026-04-26T08:42:14.047Z</time></trkpt><trkpt lat="43.9011617" lon="7.8881233"><ele>822.0</ele><time>2026-04-26T08:42:16.047Z</time></trkpt><trkpt lat="43.9012367" lon="7.888015"><ele>822.0</ele><time>2026-04-26T08:42:18.048Z</time></trkpt><trkpt lat="43.901285" lon="7.8878917"><ele>822.0</ele><time>2026-04-26T08:42:20.047Z</time></trkpt><trkpt lat="43.9013267" lon="7.8877583"><ele>822.0</ele><time>2026-04-26T08:42:22.047Z</time></trkpt><trkpt lat="43.9013483" lon="7.887625"><ele>822.5</ele><time>2026-04-26T08:42:24.047Z</time></trkpt><trkpt lat="43.9013767" lon="7.8875383"><ele>823.0</ele><time>2026-04-26T08:42:26.047Z</time></trkpt><trkpt lat="43.9014617" lon="7.8874833"><ele>823.5</ele><time>2026-04-26T08:42:29.047Z</time></trkpt><trkpt lat="43.901545" lon="7.8874767"><ele>824.0</ele><time>2026-04-26T08:42:32.047Z</time></trkpt><trkpt lat="43.901615" lon="7.8874983"><ele>824.5</ele><time>2026-04-26T08:42:35.047Z</time></trkpt><trkpt lat="43.90169" lon="7.887495"><ele>825.0</ele><time>2026-04-26T08:42:37.047Z</time></trkpt><trkpt lat="43.9017733" lon="7.8874867"><ele>825.0</ele><time>2026-04-26T08:42:39.047Z</time></trkpt><trkpt lat="43.9018633" lon="7.8874683"><ele>825.0</ele><time>2026-04-26T08:42:41.047Z</time></trkpt><trkpt lat="43.9019433" lon="7.88741"><ele>825.0</ele><time>2026-04-26T08:42:43.047Z</time></trkpt><trkpt lat="43.9019983" lon="7.8873183"><ele>825.0</ele><time>2026-04-26T08:42:45.047Z</time></trkpt><trkpt lat="43.9020583" lon="7.8872533"><ele>825.0</ele><time>2026-04-26T08:42:48.047Z</time></trkpt><trkpt lat="43.9020233" lon="7.88735"><ele>825.0</ele><time>2026-04-26T08:42:52.048Z</time></trkpt><trkpt lat="43.9019767" lon="7.88743"><ele>825.0</ele><time>2026-04-26T08:42:54.048Z</time></trkpt><trkpt lat="43.9019167" lon="7.8875333"><ele>825.0</ele><time>2026-04-26T08:42:56.048Z</time></trkpt><trkpt lat="43.90185" lon="7.88765"><ele>825.0</ele><time>2026-04-26T08:42:58.047Z</time></trkpt><trkpt lat="43.9017767" lon="7.8877567"><ele>825.0</ele><time>2026-04-26T08:43:00.047Z</time></trkpt><trkpt lat="43.9017317" lon="7.887885"><ele>825.0</ele><time>2026-04-26T08:43:02.047Z</time></trkpt><trkpt lat="43.9017017" lon="7.888005"><ele>824.5</ele><time>2026-04-26T08:43:04.047Z</time></trkpt><trkpt lat="43.9016933" lon="7.88811"><ele>824.0</ele><time>2026-04-26T08:43:06.047Z</time></trkpt><trkpt lat="43.9016733" lon="7.888205"><ele>823.5</ele><time>2026-04-26T08:43:08.047Z</time></trkpt><trkpt lat="43.9016383" lon="7.8882917"><ele>823.0</ele><time>2026-04-26T08:43:10.047Z</time></trkpt><trkpt lat="43.901625" lon="7.8884117"><ele>822.5</ele><time>2026-04-26T08:43:12.047Z</time></trkpt><trkpt lat="43.9015783" lon="7.8885483"><ele>822.0</ele><time>2026-04-26T08:43:14.047Z</time></trkpt><trkpt lat="43.9015383" lon="7.888635"><ele>820.1666666666666</ele><time>2026-04-26T08:43:15.047Z</time></trkpt><trkpt lat="43.9014417" lon="7.8887433"><ele>818.3333333333333</ele><time>2026-04-26T08:43:17.047Z</time></trkpt><trkpt lat="43.90138" lon="7.88882"><ele>816.5</ele><time>2026-04-26T08:43:18.047Z</time></trkpt><trkpt lat="43.9013217" lon="7.8889033"><ele>814.6666666666666</ele><time>2026-04-26T08:43:19.047Z</time></trkpt><trkpt lat="43.9012717" lon="7.8889867"><ele>812.8333333333333</ele><time>2026-04-26T08:43:20.047Z</time></trkpt><trkpt lat="43.9012233" lon="7.889055"><ele>811.0</ele><time>2026-04-26T08:43:21.047Z</time></trkpt><trkpt lat="43.9011317" lon="7.8891633"><ele>808.5999999999999</ele><time>2026-04-26T08:43:23.047Z</time></trkpt><trkpt lat="43.90106" lon="7.8892667"><ele>806.2</ele><time>2026-04-26T08:43:25.047Z</time></trkpt><trkpt lat="43.9010667" lon="7.8893817"><ele>803.8</ele><time>2026-04-26T08:43:27.047Z</time></trkpt><trkpt lat="43.9011067" lon="7.88949"><ele>801.4000000000001</ele><time>2026-04-26T08:43:29.047Z</time></trkpt><trkpt lat="43.901185" lon="7.8895983"><ele>799.0</ele><time>2026-04-26T08:43:31.047Z</time></trkpt><trkpt lat="43.9012417" lon="7.8896533"><ele>798.9999999999999</ele><time>2026-04-26T08:43:32.047Z</time></trkpt><trkpt lat="43.901305" lon="7.889705"><ele>799.0</ele><time>2026-04-26T08:43:33.047Z</time></trkpt><trkpt lat="43.9013683" lon="7.88976"><ele>799.0</ele><time>2026-04-26T08:43:34.047Z</time></trkpt><trkpt lat="43.9014217" lon="7.8898167"><ele>799.0</ele><time>2026-04-26T08:43:35.047Z</time></trkpt><trkpt lat="43.901465" lon="7.8898833"><ele>798.9999999999999</ele><time>2026-04-26T08:43:36.047Z</time></trkpt><trkpt lat="43.901535" lon="7.8900217"><ele>799.0</ele><time>2026-04-26T08:43:38.048Z</time></trkpt><trkpt lat="43.9015567" lon="7.890105"><ele>795.75</ele><time>2026-04-26T08:43:39.047Z</time></trkpt><trkpt lat="43.9015317" lon="7.8902517"><ele>792.5</ele><time>2026-04-26T08:43:41.047Z</time></trkpt><trkpt lat="43.9014517" lon="7.8903933"><ele>789.25</ele><time>2026-04-26T08:43:43.048Z</time></trkpt><trkpt lat="43.9013733" lon="7.8905317"><ele>786.0</ele><time>2026-04-26T08:43:45.048Z</time></trkpt><trkpt lat="43.901315" lon="7.8906533"><ele>786.0</ele><time>2026-04-26T08:43:47.047Z</time></trkpt><trkpt lat="43.9012567" lon="7.8907617"><ele>786.0</ele><time>2026-04-26T08:43:49.047Z</time></trkpt><trkpt lat="43.9011883" lon="7.8908117"><ele>786.0</ele><time>2026-04-26T08:43:51.047Z</time></trkpt><trkpt lat="43.9011133" lon="7.8908333"><ele>786.0</ele><time>2026-04-26T08:43:53.047Z</time></trkpt><trkpt lat="43.9010133" lon="7.8907983"><ele>786.0</ele><time>2026-04-26T08:43:55.048Z</time></trkpt><trkpt lat="43.90091" lon="7.8907883"><ele>784.5</ele><time>2026-04-26T08:43:57.047Z</time></trkpt><trkpt lat="43.9008017" lon="7.89082"><ele>783.0</ele><time>2026-04-26T08:43:59.047Z</time></trkpt><trkpt lat="43.9007083" lon="7.8908767"><ele>781.5</ele><time>2026-04-26T08:44:01.047Z</time></trkpt><trkpt lat="43.9006417" lon="7.8909233"><ele>780.0</ele><time>2026-04-26T08:44:02.047Z</time></trkpt><trkpt lat="43.900575" lon="7.8909717"><ele>778.5</ele><time>2026-04-26T08:44:03.047Z</time></trkpt><trkpt lat="43.9005083" lon="7.8910233"><ele>777.0</ele><time>2026-04-26T08:44:04.047Z</time></trkpt><trkpt lat="43.90045" lon="7.8910633"><ele>777.0</ele><time>2026-04-26T08:44:05.047Z</time></trkpt><trkpt lat="43.9003883" lon="7.89111"><ele>777.0</ele><time>2026-04-26T08:44:06.047Z</time></trkpt><trkpt lat="43.9002833" lon="7.8911717"><ele>777.0</ele><time>2026-04-26T08:44:08.047Z</time></trkpt><trkpt lat="43.9002117" lon="7.891195"><ele>777.0</ele><time>2026-04-26T08:44:10.048Z</time></trkpt><trkpt lat="43.9001067" lon="7.8912367"><ele>777.0</ele><time>2026-04-26T08:44:12.047Z</time></trkpt><trkpt lat="43.9000183" lon="7.8913267"><ele>780.0</ele><time>2026-04-26T08:44:14.048Z</time></trkpt><trkpt lat="43.8999383" lon="7.891415"><ele>783.0</ele><time>2026-04-26T08:44:16.047Z</time></trkpt><trkpt lat="43.8998683" lon="7.8914917"><ele>786.0</ele><time>2026-04-26T08:44:18.048Z</time></trkpt><trkpt lat="43.8997767" lon="7.8915517"><ele>789.0</ele><time>2026-04-26T08:44:20.048Z</time></trkpt><trkpt lat="43.89972" lon="7.8915917"><ele>792.0</ele><time>2026-04-26T08:44:21.047Z</time></trkpt><trkpt lat="43.8996367" lon="7.8916617"><ele>792.0</ele><time>2026-04-26T08:44:23.047Z</time></trkpt><trkpt lat="43.8995783" lon="7.8917383"><ele>792.0</ele><time>2026-04-26T08:44:25.047Z</time></trkpt><trkpt lat="43.8995133" lon="7.8918133"><ele>792.0</ele><time>2026-04-26T08:44:27.047Z</time></trkpt><trkpt lat="43.89943" lon="7.891895"><ele>792.0</ele><time>2026-04-26T08:44:29.047Z</time></trkpt><trkpt lat="43.8993467" lon="7.8919783"><ele>792.0</ele><time>2026-04-26T08:44:31.048Z</time></trkpt><trkpt lat="43.8992583" lon="7.8920767"><ele>791.4000000000001</ele><time>2026-04-26T08:44:33.048Z</time></trkpt><trkpt lat="43.899165" lon="7.89217"><ele>790.8000000000001</ele><time>2026-04-26T08:44:35.048Z</time></trkpt><trkpt lat="43.8990717" lon="7.892235"><ele>790.2</ele><time>2026-04-26T08:44:37.047Z</time></trkpt><trkpt lat="43.8989717" lon="7.892285"><ele>789.6</ele><time>2026-04-26T08:44:39.047Z</time></trkpt><trkpt lat="43.898875" lon="7.8923433"><ele>789.0</ele><time>2026-04-26T08:44:41.047Z</time></trkpt><trkpt lat="43.8987767" lon="7.8923917"><ele>789.0</ele><time>2026-04-26T08:44:43.047Z</time></trkpt><trkpt lat="43.89868" lon="7.892445"><ele>789.0</ele><time>2026-04-26T08:44:45.047Z</time></trkpt><trkpt lat="43.898585" lon="7.892545"><ele>789.0</ele><time>2026-04-26T08:44:47.047Z</time></trkpt><trkpt lat="43.8984933" lon="7.892645"><ele>789.0</ele><time>2026-04-26T08:44:49.047Z</time></trkpt><trkpt lat="43.8984017" lon="7.8926733"><ele>789.0</ele><time>2026-04-26T08:44:51.047Z</time></trkpt><trkpt lat="43.8983083" lon="7.892715"><ele>785.6666666666666</ele><time>2026-04-26T08:44:53.047Z</time></trkpt><trkpt lat="43.8982217" lon="7.892725"><ele>782.3333333333333</ele><time>2026-04-26T08:44:55.047Z</time></trkpt><trkpt lat="43.898145" lon="7.8926567"><ele>779.0</ele><time>2026-04-26T08:44:57.047Z</time></trkpt><trkpt lat="43.898075" lon="7.8926483"><ele>775.6666666666666</ele><time>2026-04-26T08:44:59.048Z</time></trkpt><trkpt lat="43.8980333" lon="7.8927333"><ele>772.3333333333333</ele><time>2026-04-26T08:45:01.047Z</time></trkpt><trkpt lat="43.8980583" lon="7.8928783"><ele>769.0</ele><time>2026-04-26T08:45:03.047Z</time></trkpt><trkpt lat="43.8981033" lon="7.8929533"><ele>768.9999999999999</ele><time>2026-04-26T08:45:04.047Z</time></trkpt><trkpt lat="43.8981367" lon="7.8930317"><ele>769.0</ele><time>2026-04-26T08:45:05.047Z</time></trkpt><trkpt lat="43.8981683" lon="7.89311"><ele>769.0</ele><time>2026-04-26T08:45:06.047Z</time></trkpt><trkpt lat="43.8982033" lon="7.8932367"><ele>769.0</ele><time>2026-04-26T08:45:08.047Z</time></trkpt><trkpt lat="43.8981717" lon="7.893325"><ele>768.9999999999999</ele><time>2026-04-26T08:45:11.047Z</time></trkpt><trkpt lat="43.8980683" lon="7.893255"><ele>769.0</ele><time>2026-04-26T08:45:13.047Z</time></trkpt><trkpt lat="43.8979683" lon="7.8931683"><ele>769.0</ele><time>2026-04-26T08:45:15.048Z</time></trkpt><trkpt lat="43.897875" lon="7.89308"><ele>769.0</ele><time>2026-04-26T08:45:17.047Z</time></trkpt><trkpt lat="43.8977717" lon="7.893"><ele>769.0</ele><time>2026-04-26T08:45:19.047Z</time></trkpt><trkpt lat="43.897695" lon="7.8929183"><ele>769.0</ele><time>2026-04-26T08:45:21.047Z</time></trkpt><trkpt lat="43.8976767" lon="7.892795"><ele>769.0</ele><time>2026-04-26T08:45:23.047Z</time></trkpt><trkpt lat="43.8976633" lon="7.8926383"><ele>767.0</ele><time>2026-04-26T08:45:25.048Z</time></trkpt><trkpt lat="43.89763" lon="7.89248"><ele>765.0</ele><time>2026-04-26T08:45:27.047Z</time></trkpt><trkpt lat="43.897585" lon="7.8923467"><ele>763.0</ele><time>2026-04-26T08:45:29.047Z</time></trkpt><trkpt lat="43.897525" lon="7.8922467"><ele>761.0</ele><time>2026-04-26T08:45:31.048Z</time></trkpt><trkpt lat="43.8974483" lon="7.892165"><ele>759.0</ele><time>2026-04-26T08:45:33.047Z</time></trkpt><trkpt lat="43.897395" lon="7.8920783"><ele>759.0</ele><time>2026-04-26T08:45:35.048Z</time></trkpt><trkpt lat="43.8973333" lon="7.892035"><ele>759.0</ele><time>2026-04-26T08:45:37.047Z</time></trkpt><trkpt lat="43.8972767" lon="7.8920867"><ele>759.0</ele><time>2026-04-26T08:45:39.047Z</time></trkpt><trkpt lat="43.897285" lon="7.8922083"><ele>759.0</ele><time>2026-04-26T08:45:41.047Z</time></trkpt><trkpt lat="43.897335" lon="7.89233"><ele>759.0</ele><time>2026-04-26T08:45:43.047Z</time></trkpt><trkpt lat="43.8973833" lon="7.8924517"><ele>759.0</ele><time>2026-04-26T08:45:45.047Z</time></trkpt><trkpt lat="43.8974" lon="7.8925867"><ele>757.6</ele><time>2026-04-26T08:45:47.047Z</time></trkpt><trkpt lat="43.8973683" lon="7.892715"><ele>756.2</ele><time>2026-04-26T08:45:49.047Z</time></trkpt><trkpt lat="43.8973117" lon="7.89282"><ele>754.8000000000001</ele><time>2026-04-26T08:45:51.047Z</time></trkpt><trkpt lat="43.89725" lon="7.8929283"><ele>753.4000000000001</ele><time>2026-04-26T08:45:53.047Z</time></trkpt><trkpt lat="43.8972433" lon="7.8930717"><ele>752.0</ele><time>2026-04-26T08:45:55.047Z</time></trkpt><trkpt lat="43.897295" lon="7.8932233"><ele>752.0</ele><time>2026-04-26T08:45:57.047Z</time></trkpt><trkpt lat="43.89732" lon="7.8933867"><ele>752.0</ele><time>2026-04-26T08:45:59.047Z</time></trkpt><trkpt lat="43.8973133" lon="7.893475"><ele>752.0</ele><time>2026-04-26T08:46:00.047Z</time></trkpt><trkpt lat="43.8972567" lon="7.8936267"><ele>752.0</ele><time>2026-04-26T08:46:02.047Z</time></trkpt><trkpt lat="43.8972" lon="7.89376"><ele>752.0</ele><time>2026-04-26T08:46:04.047Z</time></trkpt><trkpt lat="43.8971767" lon="7.8939217"><ele>750.8571428571429</ele><time>2026-04-26T08:46:06.047Z</time></trkpt><trkpt lat="43.8971567" lon="7.8940133"><ele>749.7142857142857</ele><time>2026-04-26T08:46:07.047Z</time></trkpt><trkpt lat="43.8971367" lon="7.8941117"><ele>748.5714285714287</ele><time>2026-04-26T08:46:08.047Z</time></trkpt><trkpt lat="43.8971183" lon="7.894215"><ele>747.4285714285714</ele><time>2026-04-26T08:46:09.047Z</time></trkpt><trkpt lat="43.8971017" lon="7.8943133"><ele>746.2857142857143</ele><time>2026-04-26T08:46:10.047Z</time></trkpt><trkpt lat="43.8970833" lon="7.8944017"><ele>745.1428571428572</ele><time>2026-04-26T08:46:11.047Z</time></trkpt><trkpt lat="43.8970633" lon="7.8944883"><ele>744.0</ele><time>2026-04-26T08:46:12.047Z</time></trkpt><trkpt lat="43.8970467" lon="7.8945733"><ele>741.75</ele><time>2026-04-26T08:46:13.047Z</time></trkpt><trkpt lat="43.8970117" lon="7.8947167"><ele>739.5</ele><time>2026-04-26T08:46:15.048Z</time></trkpt><trkpt lat="43.8969967" lon="7.8948733"><ele>737.25</ele><time>2026-04-26T08:46:17.047Z</time></trkpt><trkpt lat="43.8970167" lon="7.8950383"><ele>735.0</ele><time>2026-04-26T08:46:19.047Z</time></trkpt><trkpt lat="43.8970967" lon="7.8951633"><ele>731.8</ele><time>2026-04-26T08:46:21.047Z</time></trkpt><trkpt lat="43.8972" lon="7.8952433"><ele>728.6</ele><time>2026-04-26T08:46:23.048Z</time></trkpt><trkpt lat="43.89726" lon="7.8952783"><ele>725.4000000000001</ele><time>2026-04-26T08:46:24.047Z</time></trkpt><trkpt lat="43.8973583" lon="7.8953433"><ele>722.2</ele><time>2026-04-26T08:46:26.048Z</time></trkpt><trkpt lat="43.8974433" lon="7.89537"><ele>719.0</ele><time>2026-04-26T08:46:28.047Z</time></trkpt><trkpt lat="43.897485" lon="7.895455"><ele>719.0</ele><time>2026-04-26T08:46:30.047Z</time></trkpt><trkpt lat="43.8974483" lon="7.8955667"><ele>719.0</ele><time>2026-04-26T08:46:32.047Z</time></trkpt><trkpt lat="43.897375" lon="7.8956967"><ele>719.0</ele><time>2026-04-26T08:46:34.048Z</time></trkpt><trkpt lat="43.8973017" lon="7.8958267"><ele>719.0</ele><time>2026-04-26T08:46:36.047Z</time></trkpt><trkpt lat="43.897265" lon="7.8959717"><ele>719.0</ele><time>2026-04-26T08:46:38.047Z</time></trkpt><trkpt lat="43.8972583" lon="7.8961033"><ele>717.8333333333333</ele><time>2026-04-26T08:46:40.047Z</time></trkpt><trkpt lat="43.897275" lon="7.8962233"><ele>716.6666666666666</ele><time>2026-04-26T08:46:42.047Z</time></trkpt><trkpt lat="43.89731" lon="7.8963033"><ele>715.5</ele><time>2026-04-26T08:46:44.047Z</time></trkpt><trkpt lat="43.8972817" lon="7.8964183"><ele>714.3333333333334</ele><time>2026-04-26T08:47:20.047Z</time></trkpt><trkpt lat="43.89721" lon="7.896455"><ele>713.1666666666667</ele><time>2026-04-26T08:47:22.047Z</time></trkpt><trkpt lat="43.8971267" lon="7.896495"><ele>712.0</ele><time>2026-04-26T08:47:24.047Z</time></trkpt><trkpt lat="43.8970517" lon="7.896565"><ele>712.0</ele><time>2026-04-26T08:47:26.047Z</time></trkpt><trkpt lat="43.896975" lon="7.896645"><ele>712.0</ele><time>2026-04-26T08:47:28.047Z</time></trkpt><trkpt lat="43.8968883" lon="7.89672"><ele>712.0</ele><time>2026-04-26T08:47:30.047Z</time></trkpt><trkpt lat="43.89681" lon="7.8967717"><ele>712.0</ele><time>2026-04-26T08:47:32.047Z</time></trkpt><trkpt lat="43.8967533" lon="7.8967283"><ele>712.0</ele><time>2026-04-26T08:47:34.047Z</time></trkpt><trkpt lat="43.8967233" lon="7.8966233"><ele>712.0</ele><time>2026-04-26T08:47:36.047Z</time></trkpt><trkpt lat="43.8966883" lon="7.8965"><ele>710.4000000000001</ele><time>2026-04-26T08:47:38.048Z</time></trkpt><trkpt lat="43.8966467" lon="7.8963717"><ele>708.8000000000001</ele><time>2026-04-26T08:47:40.047Z</time></trkpt><trkpt lat="43.8965983" lon="7.8962367"><ele>707.2</ele><time>2026-04-26T08:47:42.047Z</time></trkpt><trkpt lat="43.8965633" lon="7.8960933"><ele>705.6</ele><time>2026-04-26T08:47:44.047Z</time></trkpt><trkpt lat="43.89656" lon="7.8959533"><ele>704.0</ele><time>2026-04-26T08:47:46.047Z</time></trkpt><trkpt lat="43.896595" lon="7.8958283"><ele>703.5</ele><time>2026-04-26T08:47:48.047Z</time></trkpt><trkpt lat="43.8966683" lon="7.8957367"><ele>703.0</ele><time>2026-04-26T08:47:50.047Z</time></trkpt><trkpt lat="43.8967167" lon="7.8956233"><ele>702.5</ele><time>2026-04-26T08:47:52.047Z</time></trkpt><trkpt lat="43.8967317" lon="7.895495"><ele>702.0</ele><time>2026-04-26T08:47:54.047Z</time></trkpt><trkpt lat="43.8967083" lon="7.8953967"><ele>701.5</ele><time>2026-04-26T08:47:56.047Z</time></trkpt><trkpt lat="43.89666" lon="7.8953183"><ele>701.0</ele><time>2026-04-26T08:47:58.047Z</time></trkpt><trkpt lat="43.8965917" lon="7.8952433"><ele>701.0</ele><time>2026-04-26T08:48:00.048Z</time></trkpt><trkpt lat="43.8965217" lon="7.895135"><ele>701.0</ele><time>2026-04-26T08:48:02.047Z</time></trkpt><trkpt lat="43.8964467" lon="7.89503"><ele>701.0</ele><time>2026-04-26T08:48:04.047Z</time></trkpt><trkpt lat="43.89639" lon="7.8949133"><ele>701.0</ele><time>2026-04-26T08:48:06.047Z</time></trkpt><trkpt lat="43.8963717" lon="7.8947933"><ele>701.0</ele><time>2026-04-26T08:48:08.047Z</time></trkpt><trkpt lat="43.8963817" lon="7.8946667"><ele>702.8</ele><time>2026-04-26T08:48:10.047Z</time></trkpt><trkpt lat="43.8964133" lon="7.8945167"><ele>704.5999999999999</ele><time>2026-04-26T08:48:12.047Z</time></trkpt><trkpt lat="43.8964333" lon="7.8943433"><ele>706.4</ele><time>2026-04-26T08:48:14.047Z</time></trkpt><trkpt lat="43.8964317" lon="7.8942533"><ele>708.2</ele><time>2026-04-26T08:48:15.047Z</time></trkpt><trkpt lat="43.8964333" lon="7.894165"><ele>710.0</ele><time>2026-04-26T08:48:16.047Z</time></trkpt><trkpt lat="43.8964467" lon="7.894"><ele>710.6</ele><time>2026-04-26T08:48:18.047Z</time></trkpt><trkpt lat="43.8964467" lon="7.89385"><ele>711.2</ele><time>2026-04-26T08:48:20.047Z</time></trkpt><trkpt lat="43.8964417" lon="7.8937133"><ele>711.8</ele><time>2026-04-26T08:48:22.047Z</time></trkpt><trkpt lat="43.896435" lon="7.8935633"><ele>712.4</ele><time>2026-04-26T08:48:24.048Z</time></trkpt><trkpt lat="43.8964067" lon="7.8934083"><ele>713.0</ele><time>2026-04-26T08:48:26.047Z</time></trkpt><trkpt lat="43.8963983" lon="7.8932733"><ele>713.4</ele><time>2026-04-26T08:48:28.047Z</time></trkpt><trkpt lat="43.896395" lon="7.8931567"><ele>713.8</ele><time>2026-04-26T08:48:30.048Z</time></trkpt><trkpt lat="43.8963833" lon="7.89304"><ele>714.2</ele><time>2026-04-26T08:48:33.048Z</time></trkpt><trkpt lat="43.896415" lon="7.892905"><ele>714.6</ele><time>2026-04-26T08:48:36.047Z</time></trkpt><trkpt lat="43.896435" lon="7.8927583"><ele>715.0</ele><time>2026-04-26T08:48:38.047Z</time></trkpt><trkpt lat="43.8964367" lon="7.8926017"><ele>715.4</ele><time>2026-04-26T08:48:40.047Z</time></trkpt><trkpt lat="43.89641" lon="7.8924733"><ele>715.8</ele><time>2026-04-26T08:48:42.047Z</time></trkpt><trkpt lat="43.8963783" lon="7.8923467"><ele>716.2</ele><time>2026-04-26T08:48:44.047Z</time></trkpt><trkpt lat="43.8963533" lon="7.8922167"><ele>716.6</ele><time>2026-04-26T08:48:46.047Z</time></trkpt><trkpt lat="43.8963533" lon="7.89208"><ele>717.0</ele><time>2026-04-26T08:48:48.047Z</time></trkpt><trkpt lat="43.89635" lon="7.8919517"><ele>717.0</ele><time>2026-04-26T08:48:50.047Z</time></trkpt><trkpt lat="43.896355" lon="7.89185"><ele>717.0</ele><time>2026-04-26T08:48:52.047Z</time></trkpt><trkpt lat="43.8963517" lon="7.891755"><ele>717.0</ele><time>2026-04-26T08:48:54.047Z</time></trkpt><trkpt lat="43.896345" lon="7.891665"><ele>717.0</ele><time>2026-04-26T08:48:56.047Z</time></trkpt><trkpt lat="43.8963417" lon="7.89156"><ele>717.0</ele><time>2026-04-26T08:48:58.047Z</time></trkpt><trkpt lat="43.8963533" lon="7.891455"><ele>717.0</ele><time>2026-04-26T08:49:00.047Z</time></trkpt><trkpt lat="43.89638" lon="7.8913667"><ele>717.0</ele><time>2026-04-26T08:49:02.047Z</time></trkpt><trkpt lat="43.896405" lon="7.8912817"><ele>717.3333333333334</ele><time>2026-04-26T08:49:04.047Z</time></trkpt><trkpt lat="43.896445" lon="7.8911683"><ele>717.6666666666666</ele><time>2026-04-26T08:49:07.047Z</time></trkpt><trkpt lat="43.89648" lon="7.8910817"><ele>718.0</ele><time>2026-04-26T08:49:09.048Z</time></trkpt><trkpt lat="43.8965183" lon="7.8909933"><ele>718.3333333333333</ele><time>2026-04-26T08:49:11.047Z</time></trkpt><trkpt lat="43.89655" lon="7.8908867"><ele>718.6666666666666</ele><time>2026-04-26T08:49:13.047Z</time></trkpt><trkpt lat="43.896595" lon="7.8907867"><ele>719.0</ele><time>2026-04-26T08:49:15.047Z</time></trkpt><trkpt lat="43.896625" lon="7.8906833"><ele>719.0</ele><time>2026-04-26T08:49:17.047Z</time></trkpt><trkpt lat="43.8966617" lon="7.8905733"><ele>719.0</ele><time>2026-04-26T08:49:19.047Z</time></trkpt><trkpt lat="43.8966817" lon="7.8904533"><ele>719.0</ele><time>2026-04-26T08:49:21.047Z</time></trkpt><trkpt lat="43.8966917" lon="7.8903267"><ele>719.0</ele><time>2026-04-26T08:49:23.047Z</time></trkpt><trkpt lat="43.8967117" lon="7.8901967"><ele>719.0</ele><time>2026-04-26T08:49:25.047Z</time></trkpt><trkpt lat="43.896755" lon="7.89007"><ele>718.3333333333333</ele><time>2026-04-26T08:49:27.047Z</time></trkpt><trkpt lat="43.89679" lon="7.8899617"><ele>717.6666666666666</ele><time>2026-04-26T08:49:29.047Z</time></trkpt><trkpt lat="43.8967933" lon="7.8898433"><ele>717.0</ele><time>2026-04-26T08:49:31.048Z</time></trkpt><trkpt lat="43.8967617" lon="7.889745"><ele>716.3333333333334</ele><time>2026-04-26T08:49:33.047Z</time></trkpt><trkpt lat="43.8967117" lon="7.8896783"><ele>715.6666666666667</ele><time>2026-04-26T08:49:35.048Z</time></trkpt><trkpt lat="43.89666" lon="7.889595"><ele>715.0</ele><time>2026-04-26T08:49:37.047Z</time></trkpt><trkpt lat="43.89658" lon="7.88952"><ele>715.0</ele><time>2026-04-26T08:49:39.048Z</time></trkpt><trkpt lat="43.89651" lon="7.8894583"><ele>715.0</ele><time>2026-04-26T08:49:41.047Z</time></trkpt><trkpt lat="43.8964267" lon="7.8893883"><ele>715.0</ele><time>2026-04-26T08:49:43.047Z</time></trkpt><trkpt lat="43.89637" lon="7.8893017"><ele>715.0</ele><time>2026-04-26T08:49:45.048Z</time></trkpt><trkpt lat="43.8963133" lon="7.8892017"><ele>715.0</ele><time>2026-04-26T08:49:47.047Z</time></trkpt><trkpt lat="43.89627" lon="7.8890867"><ele>716.5</ele><time>2026-04-26T08:49:49.047Z</time></trkpt><trkpt lat="43.8962467" lon="7.888975"><ele>718.0</ele><time>2026-04-26T08:49:51.047Z</time></trkpt><trkpt lat="43.8962483" lon="7.8888517"><ele>719.5</ele><time>2026-04-26T08:49:53.047Z</time></trkpt><trkpt lat="43.89625" lon="7.8887317"><ele>721.0</ele><time>2026-04-26T08:49:55.047Z</time></trkpt><trkpt lat="43.89624" lon="7.8886"><ele>722.5</ele><time>2026-04-26T08:49:57.047Z</time></trkpt><trkpt lat="43.8962033" lon="7.8884817"><ele>724.0</ele><time>2026-04-26T08:49:59.048Z</time></trkpt><trkpt lat="43.89617" lon="7.8883667"><ele>725.4000000000001</ele><time>2026-04-26T08:50:01.047Z</time></trkpt><trkpt lat="43.8961583" lon="7.888235"><ele>726.8</ele><time>2026-04-26T08:50:03.047Z</time></trkpt><trkpt lat="43.89617" lon="7.8881117"><ele>728.2</ele><time>2026-04-26T08:50:05.047Z</time></trkpt><trkpt lat="43.89619" lon="7.8879967"><ele>729.5999999999999</ele><time>2026-04-26T08:50:07.047Z</time></trkpt><trkpt lat="43.89622" lon="7.8878717"><ele>731.0</ele><time>2026-04-26T08:50:09.047Z</time></trkpt><trkpt lat="43.896245" lon="7.8877217"><ele>732.0</ele><time>2026-04-26T08:50:11.047Z</time></trkpt><trkpt lat="43.8962517" lon="7.8875633"><ele>733.0</ele><time>2026-04-26T08:50:13.047Z</time></trkpt><trkpt lat="43.8962533" lon="7.8873967"><ele>734.0</ele><time>2026-04-26T08:50:15.047Z</time></trkpt><trkpt lat="43.8962383" lon="7.8872367"><ele>735.0</ele><time>2026-04-26T08:50:17.047Z</time></trkpt><trkpt lat="43.8961967" lon="7.8871067"><ele>735.0</ele><time>2026-04-26T08:50:19.047Z</time></trkpt><trkpt lat="43.8961233" lon="7.8870483"><ele>735.0</ele><time>2026-04-26T08:50:21.047Z</time></trkpt><trkpt lat="43.8960217" lon="7.8870017"><ele>735.0</ele><time>2026-04-26T08:50:23.047Z</time></trkpt><trkpt lat="43.89593" lon="7.8869317"><ele>735.0</ele><time>2026-04-26T08:50:25.047Z</time></trkpt><trkpt lat="43.8958417" lon="7.88685"><ele>735.0</ele><time>2026-04-26T08:50:27.047Z</time></trkpt><trkpt lat="43.8957717" lon="7.88674"><ele>730.4</ele><time>2026-04-26T08:50:29.047Z</time></trkpt><trkpt lat="43.8957317" lon="7.8866083"><ele>725.8</ele><time>2026-04-26T08:50:31.047Z</time></trkpt><trkpt lat="43.8957083" lon="7.8864733"><ele>721.2</ele><time>2026-04-26T08:50:33.047Z</time></trkpt><trkpt lat="43.8956917" lon="7.8863333"><ele>716.6</ele><time>2026-04-26T08:50:35.047Z</time></trkpt><trkpt lat="43.8956717" lon="7.8861967"><ele>712.0</ele><time>2026-04-26T08:50:37.047Z</time></trkpt><trkpt lat="43.895665" lon="7.886085"><ele>712.0</ele><time>2026-04-26T08:50:39.047Z</time></trkpt><trkpt lat="43.8956683" lon="7.885995"><ele>712.0</ele><time>2026-04-26T08:50:41.047Z</time></trkpt><trkpt lat="43.8956867" lon="7.8858733"><ele>712.0</ele><time>2026-04-26T08:50:43.047Z</time></trkpt><trkpt lat="43.8957017" lon="7.8857483"><ele>712.0</ele><time>2026-04-26T08:50:45.047Z</time></trkpt><trkpt lat="43.8957167" lon="7.88562"><ele>712.0</ele><time>2026-04-26T08:50:47.047Z</time></trkpt><trkpt lat="43.8957167" lon="7.88551"><ele>712.0</ele><time>2026-04-26T08:50:49.047Z</time></trkpt><trkpt lat="43.8957133" lon="7.8854033"><ele>713.5</ele><time>2026-04-26T08:50:51.047Z</time></trkpt><trkpt lat="43.895715" lon="7.8852967"><ele>715.0</ele><time>2026-04-26T08:50:53.047Z</time></trkpt><trkpt lat="43.8957233" lon="7.8851967"><ele>716.5</ele><time>2026-04-26T08:50:55.047Z</time></trkpt><trkpt lat="43.8957367" lon="7.8850933"><ele>718.0</ele><time>2026-04-26T08:50:57.048Z</time></trkpt><trkpt lat="43.8957383" lon="7.8849517"><ele>719.5</ele><time>2026-04-26T08:51:00.047Z</time></trkpt><trkpt lat="43.895725" lon="7.8848417"><ele>721.0</ele><time>2026-04-26T08:51:02.048Z</time></trkpt><trkpt lat="43.8956883" lon="7.8847667"><ele>723.8</ele><time>2026-04-26T08:51:04.047Z</time></trkpt><trkpt lat="43.8955867" lon="7.8846917"><ele>726.5999999999999</ele><time>2026-04-26T08:51:07.047Z</time></trkpt><trkpt lat="43.8954967" lon="7.8846417"><ele>729.4</ele><time>2026-04-26T08:51:09.047Z</time></trkpt><trkpt lat="43.89543" lon="7.88458"><ele>732.2</ele><time>2026-04-26T08:51:11.047Z</time></trkpt><trkpt lat="43.89537" lon="7.88448"><ele>735.0</ele><time>2026-04-26T08:51:13.047Z</time></trkpt><trkpt lat="43.8953417" lon="7.8843917"><ele>735.0</ele><time>2026-04-26T08:51:15.047Z</time></trkpt><trkpt lat="43.8953117" lon="7.884305"><ele>735.0</ele><time>2026-04-26T08:51:17.047Z</time></trkpt><trkpt lat="43.8952967" lon="7.8842133"><ele>735.0</ele><time>2026-04-26T08:51:19.047Z</time></trkpt><trkpt lat="43.895295" lon="7.884105"><ele>735.0</ele><time>2026-04-26T08:51:22.047Z</time></trkpt><trkpt lat="43.89531" lon="7.8839733"><ele>735.0</ele><time>2026-04-26T08:51:25.047Z</time></trkpt><trkpt lat="43.89532" lon="7.883875"><ele>735.0</ele><time>2026-04-26T08:51:27.047Z</time></trkpt><trkpt lat="43.89531" lon="7.8837767"><ele>738.3333333333334</ele><time>2026-04-26T08:51:29.047Z</time></trkpt><trkpt lat="43.8952933" lon="7.883675"><ele>741.6666666666666</ele><time>2026-04-26T08:51:31.047Z</time></trkpt><trkpt lat="43.895275" lon="7.8835767"><ele>745.0</ele><time>2026-04-26T08:51:33.047Z</time></trkpt><trkpt lat="43.895265" lon="7.883485"><ele>748.3333333333333</ele><time>2026-04-26T08:51:35.047Z</time></trkpt><trkpt lat="43.89525" lon="7.883345"><ele>751.6666666666666</ele><time>2026-04-26T08:51:37.047Z</time></trkpt><trkpt lat="43.8952367" lon="7.8832217"><ele>755.0</ele><time>2026-04-26T08:51:39.047Z</time></trkpt><trkpt lat="43.8952483" lon="7.883095"><ele>756.8</ele><time>2026-04-26T08:51:41.047Z</time></trkpt><trkpt lat="43.8952483" lon="7.882995"><ele>758.6</ele><time>2026-04-26T08:51:43.047Z</time></trkpt><trkpt lat="43.8952967" lon="7.8828733"><ele>760.4000000000001</ele><time>2026-04-26T08:51:45.047Z</time></trkpt><trkpt lat="43.8953117" lon="7.8827117"><ele>762.2</ele><time>2026-04-26T08:51:47.047Z</time></trkpt><trkpt lat="43.8952717" lon="7.8825783"><ele>764.0</ele><time>2026-04-26T08:51:49.047Z</time></trkpt><trkpt lat="43.8952417" lon="7.8825"><ele>764.0</ele><time>2026-04-26T08:51:50.047Z</time></trkpt><trkpt lat="43.895215" lon="7.8823317"><ele>764.0</ele><time>2026-04-26T08:51:52.047Z</time></trkpt><trkpt lat="43.8952067" lon="7.8822017"><ele>764.0</ele><time>2026-04-26T08:51:54.047Z</time></trkpt><trkpt lat="43.89522" lon="7.8820717"><ele>764.0</ele><time>2026-04-26T08:51:56.047Z</time></trkpt><trkpt lat="43.895205" lon="7.8819067"><ele>764.0</ele><time>2026-04-26T08:51:58.047Z</time></trkpt><trkpt lat="43.8951533" lon="7.88176"><ele>765.0</ele><time>2026-04-26T08:52:00.048Z</time></trkpt><trkpt lat="43.8951267" lon="7.8816033"><ele>766.0</ele><time>2026-04-26T08:52:02.047Z</time></trkpt><trkpt lat="43.895115" lon="7.8814583"><ele>767.0</ele><time>2026-04-26T08:52:04.047Z</time></trkpt><trkpt lat="43.895105" lon="7.88132"><ele>768.0</ele><time>2026-04-26T08:52:06.047Z</time></trkpt><trkpt lat="43.8950917" lon="7.88119"><ele>769.0</ele><time>2026-04-26T08:52:08.047Z</time></trkpt><trkpt lat="43.8950667" lon="7.8810517"><ele>762.2</ele><time>2026-04-26T08:52:10.047Z</time></trkpt><trkpt lat="43.8950267" lon="7.8808917"><ele>755.4000000000001</ele><time>2026-04-26T08:52:12.047Z</time></trkpt><trkpt lat="43.8950117" lon="7.8807483"><ele>748.6</ele><time>2026-04-26T08:52:14.048Z</time></trkpt><trkpt lat="43.8949967" lon="7.8806283"><ele>741.8</ele><time>2026-04-26T08:52:16.048Z</time></trkpt><trkpt lat="43.8949983" lon="7.8805133"><ele>735.0</ele><time>2026-04-26T08:52:18.047Z</time></trkpt><trkpt lat="43.8949767" lon="7.8804283"><ele>735.0</ele><time>2026-04-26T08:52:20.047Z</time></trkpt><trkpt lat="43.8949383" lon="7.8803483"><ele>735.0</ele><time>2026-04-26T08:52:22.047Z</time></trkpt><trkpt lat="43.8949083" lon="7.88026"><ele>735.0</ele><time>2026-04-26T08:52:24.047Z</time></trkpt><trkpt lat="43.8948567" lon="7.8801833"><ele>735.0</ele><time>2026-04-26T08:52:26.047Z</time></trkpt><trkpt lat="43.894775" lon="7.8801267"><ele>735.0</ele><time>2026-04-26T08:52:28.047Z</time></trkpt><trkpt lat="43.8946883" lon="7.88009"><ele>735.0</ele><time>2026-04-26T08:52:30.047Z</time></trkpt><trkpt lat="43.8945967" lon="7.8800467"><ele>735.5</ele><time>2026-04-26T08:52:32.048Z</time></trkpt><trkpt lat="43.8945133" lon="7.88001"><ele>736.0</ele><time>2026-04-26T08:52:34.047Z</time></trkpt><trkpt lat="43.8944217" lon="7.879985"><ele>736.5</ele><time>2026-04-26T08:52:36.047Z</time></trkpt><trkpt lat="43.8943317" lon="7.87995"><ele>737.0</ele><time>2026-04-26T08:52:38.047Z</time></trkpt><trkpt lat="43.8942667" lon="7.87987"><ele>737.5</ele><time>2026-04-26T08:52:40.047Z</time></trkpt><trkpt lat="43.8942067" lon="7.8798417"><ele>738.0</ele><time>2026-04-26T08:52:42.047Z</time></trkpt><trkpt lat="43.8941383" lon="7.8798617"><ele>738.0</ele><time>2026-04-26T08:52:45.048Z</time></trkpt><trkpt lat="43.89406" lon="7.8799033"><ele>738.0</ele><time>2026-04-26T08:52:48.047Z</time></trkpt><trkpt lat="43.8939767" lon="7.879935"><ele>738.0</ele><time>2026-04-26T08:52:51.048Z</time></trkpt><trkpt lat="43.893915" lon="7.879915"><ele>738.0</ele><time>2026-04-26T08:52:53.047Z</time></trkpt><trkpt lat="43.893885" lon="7.8798267"><ele>738.0</ele><time>2026-04-26T08:52:55.047Z</time></trkpt><trkpt lat="43.89389" lon="7.8797333"><ele>738.0</ele><time>2026-04-26T08:52:57.047Z</time></trkpt><trkpt lat="43.8939183" lon="7.8796183"><ele>738.0</ele><time>2026-04-26T08:53:00.047Z</time></trkpt><trkpt lat="43.8938817" lon="7.8795083"><ele>738.0</ele><time>2026-04-26T08:53:03.047Z</time></trkpt><trkpt lat="43.8938533" lon="7.8794"><ele>738.0</ele><time>2026-04-26T08:53:05.047Z</time></trkpt><trkpt lat="43.8938133" lon="7.879275"><ele>738.0</ele><time>2026-04-26T08:53:07.047Z</time></trkpt><trkpt lat="43.893765" lon="7.879135"><ele>738.0</ele><time>2026-04-26T08:53:09.047Z</time></trkpt><trkpt lat="43.8937133" lon="7.8789833"><ele>743.5</ele><time>2026-04-26T08:53:11.047Z</time></trkpt><trkpt lat="43.893665" lon="7.878825"><ele>749.0</ele><time>2026-04-26T08:53:13.047Z</time></trkpt><trkpt lat="43.89362" lon="7.8786683"><ele>754.5</ele><time>2026-04-26T08:53:15.047Z</time></trkpt><trkpt lat="43.8935483" lon="7.87855"><ele>760.0</ele><time>2026-04-26T08:53:17.048Z</time></trkpt><trkpt lat="43.8934467" lon="7.8784583"><ele>757.0</ele><time>2026-04-26T08:53:19.047Z</time></trkpt><trkpt lat="43.8933783" lon="7.8784317"><ele>754.0</ele><time>2026-04-26T08:53:20.047Z</time></trkpt><trkpt lat="43.8933067" lon="7.8784133"><ele>751.0</ele><time>2026-04-26T08:53:21.047Z</time></trkpt><trkpt lat="43.8932367" lon="7.8783967"><ele>748.0</ele><time>2026-04-26T08:53:22.047Z</time></trkpt><trkpt lat="43.8931183" lon="7.8783767"><ele>745.0</ele><time>2026-04-26T08:53:24.047Z</time></trkpt><trkpt lat="43.8930217" lon="7.8784"><ele>742.0</ele><time>2026-04-26T08:53:26.047Z</time></trkpt><trkpt lat="43.892925" lon="7.8784267"><ele>739.4000000000001</ele><time>2026-04-26T08:53:28.047Z</time></trkpt><trkpt lat="43.892835" lon="7.878465"><ele>736.8000000000001</ele><time>2026-04-26T08:53:30.047Z</time></trkpt><trkpt lat="43.892755" lon="7.8785267"><ele>734.2</ele><time>2026-04-26T08:53:32.047Z</time></trkpt><trkpt lat="43.8926883" lon="7.8786417"><ele>731.6</ele><time>2026-04-26T08:53:34.047Z</time></trkpt><trkpt lat="43.89263" lon="7.87876"><ele>729.0</ele><time>2026-04-26T08:53:36.047Z</time></trkpt><trkpt lat="43.8925633" lon="7.8788367"><ele>726.0</ele><time>2026-04-26T08:53:38.047Z</time></trkpt><trkpt lat="43.8924867" lon="7.8789083"><ele>723.0</ele><time>2026-04-26T08:53:40.047Z</time></trkpt><trkpt lat="43.8923867" lon="7.878945"><ele>720.0</ele><time>2026-04-26T08:53:42.047Z</time></trkpt><trkpt lat="43.8923" lon="7.87891"><ele>717.0</ele><time>2026-04-26T08:53:44.048Z</time></trkpt><trkpt lat="43.8922217" lon="7.87883"><ele>714.0</ele><time>2026-04-26T08:53:46.047Z</time></trkpt><trkpt lat="43.8921533" lon="7.8787283"><ele>714.0</ele><time>2026-04-26T08:53:48.047Z</time></trkpt><trkpt lat="43.892075" lon="7.8786233"><ele>714.0</ele><time>2026-04-26T08:53:50.047Z</time></trkpt><trkpt lat="43.8919767" lon="7.8785533"><ele>714.0</ele><time>2026-04-26T08:53:52.048Z</time></trkpt><trkpt lat="43.89188" lon="7.878465"><ele>714.0</ele><time>2026-04-26T08:53:54.047Z</time></trkpt><trkpt lat="43.891785" lon="7.8783483"><ele>712.8333333333334</ele><time>2026-04-26T08:53:56.047Z</time></trkpt><trkpt lat="43.8917417" lon="7.8782733"><ele>711.6666666666666</ele><time>2026-04-26T08:53:57.047Z</time></trkpt><trkpt lat="43.8916967" lon="7.8781917"><ele>710.5</ele><time>2026-04-26T08:53:58.047Z</time></trkpt><trkpt lat="43.891645" lon="7.8781083"><ele>709.3333333333333</ele><time>2026-04-26T08:53:59.047Z</time></trkpt><trkpt lat="43.8915933" lon="7.8780267"><ele>708.1666666666666</ele><time>2026-04-26T08:54:00.047Z</time></trkpt><trkpt lat="43.89153" lon="7.8779617"><ele>707.0</ele><time>2026-04-26T08:54:01.047Z</time></trkpt><trkpt lat="43.89146" lon="7.8779067"><ele>707.0</ele><time>2026-04-26T08:54:02.047Z</time></trkpt><trkpt lat="43.8913833" lon="7.8778717"><ele>707.0</ele><time>2026-04-26T08:54:03.048Z</time></trkpt><trkpt lat="43.8913067" lon="7.8778467"><ele>707.0</ele><time>2026-04-26T08:54:04.047Z</time></trkpt><trkpt lat="43.89123" lon="7.877825"><ele>707.0</ele><time>2026-04-26T08:54:05.047Z</time></trkpt><trkpt lat="43.89116" lon="7.87779"><ele>707.0</ele><time>2026-04-26T08:54:06.047Z</time></trkpt><trkpt lat="43.8911033" lon="7.8777467"><ele>707.0</ele><time>2026-04-26T08:54:07.047Z</time></trkpt><trkpt lat="43.891015" lon="7.8776667"><ele>707.0</ele><time>2026-04-26T08:54:09.047Z</time></trkpt><trkpt lat="43.8909667" lon="7.8775883"><ele>707.0</ele><time>2026-04-26T08:54:11.047Z</time></trkpt><trkpt lat="43.89091" lon="7.8775"><ele>707.0</ele><time>2026-04-26T08:54:13.047Z</time></trkpt><trkpt lat="43.8908467" lon="7.877395"><ele>707.0</ele><time>2026-04-26T08:54:15.047Z</time></trkpt><trkpt lat="43.8907833" lon="7.8772967"><ele>707.0</ele><time>2026-04-26T08:54:17.047Z</time></trkpt><trkpt lat="43.8907233" lon="7.877195"><ele>707.0</ele><time>2026-04-26T08:54:19.047Z</time></trkpt><trkpt lat="43.89066" lon="7.8770933"><ele>707.0</ele><time>2026-04-26T08:54:21.047Z</time></trkpt><trkpt lat="43.8906033" lon="7.87702"><ele>707.0</ele><time>2026-04-26T08:54:23.047Z</time></trkpt><trkpt lat="43.8905567" lon="7.8769367"><ele>707.0</ele><time>2026-04-26T08:54:26.047Z</time></trkpt><trkpt lat="43.8905017" lon="7.8768767"><ele>707.0</ele><time>2026-04-26T08:54:29.047Z</time></trkpt><trkpt lat="43.8904317" lon="7.8768333"><ele>707.0</ele><time>2026-04-26T08:54:33.047Z</time></trkpt><trkpt lat="43.89037" lon="7.8768817"><ele>707.0</ele><time>2026-04-26T08:57:29.047Z</time></trkpt><trkpt lat="43.8902817" lon="7.876865"><ele>707.0</ele><time>2026-04-26T08:57:32.048Z</time></trkpt><trkpt lat="43.8902067" lon="7.8768583"><ele>707.0</ele><time>2026-04-26T08:57:34.048Z</time></trkpt><trkpt lat="43.8901383" lon="7.8768667"><ele>707.0</ele><time>2026-04-26T08:57:36.048Z</time></trkpt><trkpt lat="43.8900717" lon="7.8768867"><ele>707.0</ele><time>2026-04-26T08:57:38.047Z</time></trkpt><trkpt lat="43.8900083" lon="7.8769183"><ele>707.0</ele><time>2026-04-26T08:57:40.047Z</time></trkpt><trkpt lat="43.8899483" lon="7.8769667"><ele>707.0</ele><time>2026-04-26T08:57:42.047Z</time></trkpt><trkpt lat="43.8898867" lon="7.877025"><ele>707.0</ele><time>2026-04-26T08:57:44.047Z</time></trkpt><trkpt lat="43.8898217" lon="7.8771"><ele>704.8333333333333</ele><time>2026-04-26T08:57:46.047Z</time></trkpt><trkpt lat="43.8897517" lon="7.8771533"><ele>702.6666666666666</ele><time>2026-04-26T08:57:48.047Z</time></trkpt><trkpt lat="43.88967" lon="7.8771733"><ele>700.5</ele><time>2026-04-26T08:57:50.048Z</time></trkpt><trkpt lat="43.8895733" lon="7.8771817"><ele>698.3333333333334</ele><time>2026-04-26T08:57:52.047Z</time></trkpt><trkpt lat="43.8894833" lon="7.8771783"><ele>696.1666666666667</ele><time>2026-04-26T08:57:54.047Z</time></trkpt><trkpt lat="43.8893917" lon="7.877175"><ele>694.0</ele><time>2026-04-26T08:57:56.047Z</time></trkpt><trkpt lat="43.8892833" lon="7.8771733"><ele>695.8000000000001</ele><time>2026-04-26T08:57:58.047Z</time></trkpt><trkpt lat="43.8891767" lon="7.87718"><ele>697.6</ele><time>2026-04-26T08:58:00.047Z</time></trkpt><trkpt lat="43.8890833" lon="7.8772117"><ele>699.4</ele><time>2026-04-26T08:58:02.047Z</time></trkpt><trkpt lat="43.8890033" lon="7.877255"><ele>701.2</ele><time>2026-04-26T08:58:04.047Z</time></trkpt><trkpt lat="43.8889333" lon="7.8773317"><ele>703.0</ele><time>2026-04-26T08:58:06.047Z</time></trkpt><trkpt lat="43.8888583" lon="7.87741"><ele>703.0</ele><time>2026-04-26T08:58:08.047Z</time></trkpt><trkpt lat="43.8887783" lon="7.8774533"><ele>703.0</ele><time>2026-04-26T08:58:10.048Z</time></trkpt><trkpt lat="43.8886917" lon="7.8774567"><ele>703.0</ele><time>2026-04-26T08:58:12.047Z</time></trkpt><trkpt lat="43.8885983" lon="7.8774433"><ele>703.0</ele><time>2026-04-26T08:58:14.047Z</time></trkpt><trkpt lat="43.8885017" lon="7.8774467"><ele>703.0</ele><time>2026-04-26T08:58:16.047Z</time></trkpt><trkpt lat="43.88841" lon="7.8774883"><ele>704.4</ele><time>2026-04-26T08:58:18.047Z</time></trkpt><trkpt lat="43.8883217" lon="7.8775367"><ele>705.8</ele><time>2026-04-26T08:58:20.047Z</time></trkpt><trkpt lat="43.8882333" lon="7.8775633"><ele>707.2</ele><time>2026-04-26T08:58:22.047Z</time></trkpt><trkpt lat="43.8881483" lon="7.877595"><ele>708.6</ele><time>2026-04-26T08:58:24.047Z</time></trkpt><trkpt lat="43.8880533" lon="7.8776583"><ele>710.0</ele><time>2026-04-26T08:58:26.047Z</time></trkpt><trkpt lat="43.88796" lon="7.8777133"><ele>707.8</ele><time>2026-04-26T08:58:28.047Z</time></trkpt><trkpt lat="43.88784" lon="7.87776"><ele>705.6</ele><time>2026-04-26T08:58:30.047Z</time></trkpt><trkpt lat="43.8877767" lon="7.8777783"><ele>703.4000000000001</ele><time>2026-04-26T08:58:31.047Z</time></trkpt><trkpt lat="43.8877133" lon="7.877785"><ele>701.2</ele><time>2026-04-26T08:58:32.047Z</time></trkpt><trkpt lat="43.8875917" lon="7.8777883"><ele>699.0</ele><time>2026-04-26T08:58:34.048Z</time></trkpt><trkpt lat="43.8874883" lon="7.87781"><ele>699.0</ele><time>2026-04-26T08:58:36.047Z</time></trkpt><trkpt lat="43.8874" lon="7.87784"><ele>699.0</ele><time>2026-04-26T08:58:38.047Z</time></trkpt><trkpt lat="43.8873033" lon="7.8779233"><ele>699.0</ele><time>2026-04-26T08:58:40.047Z</time></trkpt><trkpt lat="43.8872517" lon="7.8779867"><ele>699.0</ele><time>2026-04-26T08:58:41.047Z</time></trkpt><trkpt lat="43.8872017" lon="7.8780517"><ele>699.0</ele><time>2026-04-26T08:58:42.047Z</time></trkpt><trkpt lat="43.88715" lon="7.8781167"><ele>699.0</ele><time>2026-04-26T08:58:43.047Z</time></trkpt><trkpt lat="43.8870967" lon="7.8781883"><ele>699.0</ele><time>2026-04-26T08:58:44.047Z</time></trkpt><trkpt lat="43.8870467" lon="7.87826"><ele>699.0</ele><time>2026-04-26T08:58:45.047Z</time></trkpt><trkpt lat="43.8870067" lon="7.8783283"><ele>699.0</ele><time>2026-04-26T08:58:46.047Z</time></trkpt><trkpt lat="43.8869267" lon="7.878445"><ele>699.0</ele><time>2026-04-26T08:58:48.048Z</time></trkpt><trkpt lat="43.8868333" lon="7.8784367"><ele>699.0</ele><time>2026-04-26T08:58:50.047Z</time></trkpt><trkpt lat="43.8867817" lon="7.8783383"><ele>699.0</ele><time>2026-04-26T08:58:52.047Z</time></trkpt><trkpt lat="43.8867133" lon="7.878225"><ele>699.0</ele><time>2026-04-26T08:58:54.047Z</time></trkpt><trkpt lat="43.88666" lon="7.87817"><ele>699.0</ele><time>2026-04-26T08:58:55.047Z</time></trkpt><trkpt lat="43.8866083" lon="7.8781183"><ele>699.0</ele><time>2026-04-26T08:58:56.047Z</time></trkpt><trkpt lat="43.8865533" lon="7.878075"><ele>699.0</ele><time>2026-04-26T08:58:57.047Z</time></trkpt><trkpt lat="43.8864617" lon="7.8780067"><ele>699.0</ele><time>2026-04-26T08:58:59.047Z</time></trkpt><trkpt lat="43.8863483" lon="7.8780133"><ele>699.0</ele><time>2026-04-26T08:59:01.047Z</time></trkpt><trkpt lat="43.88625" lon="7.8780667"><ele>699.0</ele><time>2026-04-26T08:59:03.047Z</time></trkpt><trkpt lat="43.8861633" lon="7.87814"><ele>699.0</ele><time>2026-04-26T08:59:05.047Z</time></trkpt><trkpt lat="43.88607" lon="7.87825"><ele>699.0</ele><time>2026-04-26T08:59:07.048Z</time></trkpt><trkpt lat="43.886025" lon="7.878325"><ele>699.0</ele><time>2026-04-26T08:59:08.047Z</time></trkpt><trkpt lat="43.885985" lon="7.8784117"><ele>699.0</ele><time>2026-04-26T08:59:09.047Z</time></trkpt><trkpt lat="43.88594" lon="7.878495"><ele>699.0</ele><time>2026-04-26T08:59:10.047Z</time></trkpt><trkpt lat="43.8858933" lon="7.878565"><ele>693.2</ele><time>2026-04-26T08:59:11.047Z</time></trkpt><trkpt lat="43.8857917" lon="7.8786233"><ele>687.4000000000001</ele><time>2026-04-26T08:59:13.048Z</time></trkpt><trkpt lat="43.8856883" lon="7.87858"><ele>681.6</ele><time>2026-04-26T08:59:15.047Z</time></trkpt><trkpt lat="43.8856017" lon="7.8785083"><ele>675.8</ele><time>2026-04-26T08:59:17.047Z</time></trkpt><trkpt lat="43.8855033" lon="7.8785033"><ele>670.0</ele><time>2026-04-26T08:59:19.047Z</time></trkpt><trkpt lat="43.8854183" lon="7.87852"><ele>670.0</ele><time>2026-04-26T08:59:21.048Z</time></trkpt><trkpt lat="43.8853217" lon="7.8785233"><ele>670.0</ele><time>2026-04-26T08:59:23.047Z</time></trkpt><trkpt lat="43.885235" lon="7.87848"><ele>670.0</ele><time>2026-04-26T08:59:25.047Z</time></trkpt><trkpt lat="43.885135" lon="7.8784217"><ele>670.0</ele><time>2026-04-26T08:59:27.047Z</time></trkpt><trkpt lat="43.8850217" lon="7.8783933"><ele>670.0</ele><time>2026-04-26T08:59:29.047Z</time></trkpt><trkpt lat="43.8849" lon="7.87838"><ele>668.8</ele><time>2026-04-26T08:59:31.047Z</time></trkpt><trkpt lat="43.8847733" lon="7.8783633"><ele>667.6</ele><time>2026-04-26T08:59:33.047Z</time></trkpt><trkpt lat="43.8846717" lon="7.8783867"><ele>666.4000000000001</ele><time>2026-04-26T08:59:35.048Z</time></trkpt><trkpt lat="43.8845817" lon="7.878455"><ele>665.2</ele><time>2026-04-26T08:59:37.047Z</time></trkpt><trkpt lat="43.8844867" lon="7.8784867"><ele>664.0</ele><time>2026-04-26T08:59:39.047Z</time></trkpt><trkpt lat="43.8843817" lon="7.87849"><ele>664.0</ele><time>2026-04-26T08:59:41.047Z</time></trkpt><trkpt lat="43.8842933" lon="7.8785067"><ele>664.0</ele><time>2026-04-26T08:59:43.047Z</time></trkpt><trkpt lat="43.884225" lon="7.8785133"><ele>664.0</ele><time>2026-04-26T08:59:45.048Z</time></trkpt><trkpt lat="43.8841483" lon="7.8785333"><ele>664.0</ele><time>2026-04-26T08:59:47.047Z</time></trkpt><trkpt lat="43.8840517" lon="7.8785683"><ele>664.0</ele><time>2026-04-26T08:59:49.047Z</time></trkpt><trkpt lat="43.88395" lon="7.8786083"><ele>664.0</ele><time>2026-04-26T08:59:51.047Z</time></trkpt><trkpt lat="43.883865" lon="7.878595"><ele>664.3333333333334</ele><time>2026-04-26T08:59:53.047Z</time></trkpt><trkpt lat="43.8838017" lon="7.8785167"><ele>664.6666666666667</ele><time>2026-04-26T08:59:55.047Z</time></trkpt><trkpt lat="43.8837383" lon="7.8784167"><ele>665.0</ele><time>2026-04-26T08:59:57.047Z</time></trkpt><trkpt lat="43.8836917" lon="7.8783383"><ele>665.3333333333334</ele><time>2026-04-26T08:59:59.047Z</time></trkpt><trkpt lat="43.883635" lon="7.8783"><ele>665.6666666666666</ele><time>2026-04-26T09:00:01.047Z</time></trkpt><trkpt lat="43.88357" lon="7.8782933"><ele>666.0</ele><time>2026-04-26T09:00:03.047Z</time></trkpt><trkpt lat="43.8834967" lon="7.87832"><ele>667.4</ele><time>2026-04-26T09:00:05.047Z</time></trkpt><trkpt lat="43.8834333" lon="7.8783767"><ele>668.8</ele><time>2026-04-26T09:00:07.047Z</time></trkpt><trkpt lat="43.8833583" lon="7.878435"><ele>670.1999999999999</ele><time>2026-04-26T09:00:09.047Z</time></trkpt><trkpt lat="43.883265" lon="7.8784617"><ele>671.5999999999999</ele><time>2026-04-26T09:00:11.047Z</time></trkpt><trkpt lat="43.88317" lon="7.8785017"><ele>673.0</ele><time>2026-04-26T09:00:13.047Z</time></trkpt><trkpt lat="43.8830917" lon="7.8785917"><ele>673.0</ele><time>2026-04-26T09:00:15.047Z</time></trkpt><trkpt lat="43.8830067" lon="7.8786933"><ele>673.0</ele><time>2026-04-26T09:00:17.047Z</time></trkpt><trkpt lat="43.8829483" lon="7.87881"><ele>673.0</ele><time>2026-04-26T09:00:19.047Z</time></trkpt><trkpt lat="43.8828867" lon="7.8789167"><ele>673.0</ele><time>2026-04-26T09:00:21.047Z</time></trkpt><trkpt lat="43.8828217" lon="7.8790183"><ele>673.0</ele><time>2026-04-26T09:00:23.047Z</time></trkpt><trkpt lat="43.8827683" lon="7.8791017"><ele>673.0</ele><time>2026-04-26T09:00:25.047Z</time></trkpt><trkpt lat="43.8827067" lon="7.879155"><ele>673.0</ele><time>2026-04-26T09:00:27.047Z</time></trkpt><trkpt lat="43.882615" lon="7.8792183"><ele>673.0</ele><time>2026-04-26T09:00:29.047Z</time></trkpt><trkpt lat="43.8825167" lon="7.8792733"><ele>673.0</ele><time>2026-04-26T09:00:31.047Z</time></trkpt><trkpt lat="43.8824333" lon="7.87937"><ele>673.0</ele><time>2026-04-26T09:00:33.047Z</time></trkpt><trkpt lat="43.8823383" lon="7.8794667"><ele>673.5</ele><time>2026-04-26T09:00:35.047Z</time></trkpt><trkpt lat="43.882255" lon="7.8795817"><ele>674.0</ele><time>2026-04-26T09:00:37.047Z</time></trkpt><trkpt lat="43.8821833" lon="7.8797067"><ele>674.5</ele><time>2026-04-26T09:00:39.047Z</time></trkpt><trkpt lat="43.8820967" lon="7.8798233"><ele>675.0</ele><time>2026-04-26T09:00:41.047Z</time></trkpt><trkpt lat="43.88199" lon="7.8799"><ele>675.0</ele><time>2026-04-26T09:00:43.048Z</time></trkpt><trkpt lat="43.881875" lon="7.8799367"><ele>675.0</ele><time>2026-04-26T09:00:45.048Z</time></trkpt><trkpt lat="43.8817583" lon="7.8799683"><ele>675.0</ele><time>2026-04-26T09:00:47.047Z</time></trkpt><trkpt lat="43.881645" lon="7.8800367"><ele>675.0</ele><time>2026-04-26T09:00:49.048Z</time></trkpt><trkpt lat="43.8815967" lon="7.8801017"><ele>675.0</ele><time>2026-04-26T09:00:50.047Z</time></trkpt><trkpt lat="43.8815467" lon="7.880165"><ele>672.3333333333334</ele><time>2026-04-26T09:00:51.047Z</time></trkpt><trkpt lat="43.8814933" lon="7.8802183"><ele>669.6666666666666</ele><time>2026-04-26T09:00:52.048Z</time></trkpt><trkpt lat="43.8813967" lon="7.8802683"><ele>667.0</ele><time>2026-04-26T09:00:54.047Z</time></trkpt><trkpt lat="43.8813033" lon="7.88022"><ele>664.3333333333333</ele><time>2026-04-26T09:00:56.046Z</time></trkpt><trkpt lat="43.88122" lon="7.8801683"><ele>661.6666666666666</ele><time>2026-04-26T09:00:58.046Z</time></trkpt><trkpt lat="43.8811467" lon="7.8801933"><ele>659.0</ele><time>2026-04-26T09:01:00.047Z</time></trkpt><trkpt lat="43.881095" lon="7.880265"><ele>659.0</ele><time>2026-04-26T09:01:02.047Z</time></trkpt><trkpt lat="43.8810317" lon="7.88037"><ele>659.0</ele><time>2026-04-26T09:01:04.047Z</time></trkpt><trkpt lat="43.8809467" lon="7.8804883"><ele>659.0</ele><time>2026-04-26T09:01:06.047Z</time></trkpt><trkpt lat="43.8808567" lon="7.880535"><ele>659.0</ele><time>2026-04-26T09:01:08.047Z</time></trkpt><trkpt lat="43.880735" lon="7.8805633"><ele>659.0</ele><time>2026-04-26T09:01:10.047Z</time></trkpt><trkpt lat="43.88068" lon="7.8806117"><ele>657.4000000000001</ele><time>2026-04-26T09:01:11.047Z</time></trkpt><trkpt lat="43.8806233" lon="7.880655"><ele>655.8</ele><time>2026-04-26T09:01:12.047Z</time></trkpt><trkpt lat="43.880515" lon="7.8807583"><ele>654.2</ele><time>2026-04-26T09:01:14.047Z</time></trkpt><trkpt lat="43.8804583" lon="7.8808"><ele>652.5999999999999</ele><time>2026-04-26T09:01:15.047Z</time></trkpt><trkpt lat="43.880355" lon="7.8808983"><ele>651.0</ele><time>2026-04-26T09:01:17.048Z</time></trkpt><trkpt lat="43.8803133" lon="7.8809733"><ele>651.0</ele><time>2026-04-26T09:01:18.048Z</time></trkpt><trkpt lat="43.8802767" lon="7.8810483"><ele>651.0</ele><time>2026-04-26T09:01:19.047Z</time></trkpt><trkpt lat="43.8802433" lon="7.8811267"><ele>651.0</ele><time>2026-04-26T09:01:20.048Z</time></trkpt><trkpt lat="43.88021" lon="7.8812033"><ele>651.0</ele><time>2026-04-26T09:01:21.047Z</time></trkpt><trkpt lat="43.8801317" lon="7.8813283"><ele>651.0</ele><time>2026-04-26T09:01:23.048Z</time></trkpt><trkpt lat="43.8800517" lon="7.8814467"><ele>651.0</ele><time>2026-04-26T09:01:25.047Z</time></trkpt><trkpt lat="43.8799817" lon="7.8815783"><ele>651.0</ele><time>2026-04-26T09:01:27.047Z</time></trkpt><trkpt lat="43.879915" lon="7.881695"><ele>651.0</ele><time>2026-04-26T09:01:29.047Z</time></trkpt><trkpt lat="43.8798483" lon="7.8817967"><ele>651.0</ele><time>2026-04-26T09:01:31.047Z</time></trkpt><trkpt lat="43.8797733" lon="7.8818933"><ele>651.0</ele><time>2026-04-26T09:01:33.048Z</time></trkpt><trkpt lat="43.879705" lon="7.8819683"><ele>651.0</ele><time>2026-04-26T09:01:35.047Z</time></trkpt><trkpt lat="43.879645" lon="7.8820517"><ele>651.0</ele><time>2026-04-26T09:01:37.047Z</time></trkpt><trkpt lat="43.8795783" lon="7.8821717"><ele>651.0</ele><time>2026-04-26T09:01:39.047Z</time></trkpt><trkpt lat="43.8795133" lon="7.88232"><ele>651.0</ele><time>2026-04-26T09:01:41.047Z</time></trkpt><trkpt lat="43.87948" lon="7.8823967"><ele>651.0</ele><time>2026-04-26T09:01:42.047Z</time></trkpt><trkpt lat="43.879415" lon="7.8825317"><ele>651.0</ele><time>2026-04-26T09:01:44.047Z</time></trkpt><trkpt lat="43.879355" lon="7.8826467"><ele>653.1999999999999</ele><time>2026-04-26T09:01:46.047Z</time></trkpt><trkpt lat="43.8793117" lon="7.8827767"><ele>655.4</ele><time>2026-04-26T09:01:48.047Z</time></trkpt><trkpt lat="43.8792983" lon="7.882915"><ele>657.6</ele><time>2026-04-26T09:01:50.047Z</time></trkpt><trkpt lat="43.879285" lon="7.883035"><ele>659.8</ele><time>2026-04-26T09:01:52.047Z</time></trkpt><trkpt lat="43.879245" lon="7.8831467"><ele>662.0</ele><time>2026-04-26T09:01:54.047Z</time></trkpt><trkpt lat="43.8791817" lon="7.8832517"><ele>662.0</ele><time>2026-04-26T09:01:56.047Z</time></trkpt><trkpt lat="43.879115" lon="7.8833617"><ele>662.0</ele><time>2026-04-26T09:01:58.047Z</time></trkpt><trkpt lat="43.8790383" lon="7.8834633"><ele>662.0</ele><time>2026-04-26T09:02:00.047Z</time></trkpt><trkpt lat="43.87895" lon="7.88356"><ele>662.0</ele><time>2026-04-26T09:02:02.047Z</time></trkpt><trkpt lat="43.878855" lon="7.8836383"><ele>662.0</ele><time>2026-04-26T09:02:04.047Z</time></trkpt><trkpt lat="43.878755" lon="7.8836517"><ele>660.6</ele><time>2026-04-26T09:02:06.048Z</time></trkpt><trkpt lat="43.87866" lon="7.883685"><ele>659.2</ele><time>2026-04-26T09:02:08.048Z</time></trkpt><trkpt lat="43.8785783" lon="7.8837683"><ele>657.8</ele><time>2026-04-26T09:02:10.047Z</time></trkpt><trkpt lat="43.8785033" lon="7.8838783"><ele>656.4</ele><time>2026-04-26T09:02:12.047Z</time></trkpt><trkpt lat="43.87843" lon="7.884"><ele>655.0</ele><time>2026-04-26T09:02:14.048Z</time></trkpt><trkpt lat="43.8783517" lon="7.884125"><ele>655.0</ele><time>2026-04-26T09:02:16.047Z</time></trkpt><trkpt lat="43.8782683" lon="7.8842533"><ele>655.0</ele><time>2026-04-26T09:02:18.047Z</time></trkpt><trkpt lat="43.8781783" lon="7.8843667"><ele>655.0</ele><time>2026-04-26T09:02:20.047Z</time></trkpt><trkpt lat="43.878105" lon="7.8844583"><ele>655.0</ele><time>2026-04-26T09:02:22.047Z</time></trkpt><trkpt lat="43.8780467" lon="7.8845083"><ele>655.0</ele><time>2026-04-26T09:02:24.047Z</time></trkpt><trkpt lat="43.87798" lon="7.884655"><ele>654.0</ele><time>2026-04-26T09:03:11.047Z</time></trkpt><trkpt lat="43.8779283" lon="7.8847217"><ele>653.0</ele><time>2026-04-26T09:03:13.047Z</time></trkpt><trkpt lat="43.8778683" lon="7.8847883"><ele>652.0</ele><time>2026-04-26T09:03:15.047Z</time></trkpt><trkpt lat="43.8778017" lon="7.8848633"><ele>651.0</ele><time>2026-04-26T09:03:17.048Z</time></trkpt><trkpt lat="43.8777367" lon="7.8849583"><ele>650.0</ele><time>2026-04-26T09:03:19.047Z</time></trkpt><trkpt lat="43.8776733" lon="7.885055"><ele>649.0</ele><time>2026-04-26T09:03:21.047Z</time></trkpt><trkpt lat="43.8776083" lon="7.88514"><ele>651.1666666666667</ele><time>2026-04-26T09:03:23.047Z</time></trkpt><trkpt lat="43.8775483" lon="7.885225"><ele>653.3333333333334</ele><time>2026-04-26T09:03:25.048Z</time></trkpt><trkpt lat="43.8775" lon="7.8853083"><ele>655.5</ele><time>2026-04-26T09:03:27.048Z</time></trkpt><trkpt lat="43.877435" lon="7.8853883"><ele>657.6666666666666</ele><time>2026-04-26T09:03:30.047Z</time></trkpt><trkpt lat="43.8773683" lon="7.8854717"><ele>659.8333333333333</ele><time>2026-04-26T09:03:33.047Z</time></trkpt><trkpt lat="43.87731" lon="7.8855517"><ele>662.0</ele><time>2026-04-26T09:03:35.047Z</time></trkpt><trkpt lat="43.8772583" lon="7.88564"><ele>662.0</ele><time>2026-04-26T09:03:37.047Z</time></trkpt><trkpt lat="43.877235" lon="7.8857217"><ele>662.0</ele><time>2026-04-26T09:03:39.048Z</time></trkpt><trkpt lat="43.8772117" lon="7.8858433"><ele>662.0</ele><time>2026-04-26T09:03:42.047Z</time></trkpt><trkpt lat="43.8771833" lon="7.885935"><ele>662.0</ele><time>2026-04-26T09:03:44.047Z</time></trkpt><trkpt lat="43.87716" lon="7.88604"><ele>662.0</ele><time>2026-04-26T09:03:46.047Z</time></trkpt><trkpt lat="43.87712" lon="7.8861483"><ele>662.0</ele><time>2026-04-26T09:03:48.047Z</time></trkpt><trkpt lat="43.87707" lon="7.8862583"><ele>660.6</ele><time>2026-04-26T09:03:50.047Z</time></trkpt><trkpt lat="43.8770217" lon="7.8863817"><ele>659.2</ele><time>2026-04-26T09:03:52.047Z</time></trkpt><trkpt lat="43.8769617" lon="7.88651"><ele>657.8</ele><time>2026-04-26T09:03:54.047Z</time></trkpt><trkpt lat="43.8769067" lon="7.8866433"><ele>656.4</ele><time>2026-04-26T09:03:56.047Z</time></trkpt><trkpt lat="43.8768717" lon="7.8867883"><ele>655.0</ele><time>2026-04-26T09:03:58.047Z</time></trkpt><trkpt lat="43.8768533" lon="7.8869317"><ele>656.0</ele><time>2026-04-26T09:04:00.047Z</time></trkpt><trkpt lat="43.87681" lon="7.8870483"><ele>657.0</ele><time>2026-04-26T09:04:02.047Z</time></trkpt><trkpt lat="43.8767483" lon="7.8871583"><ele>658.0</ele><time>2026-04-26T09:04:04.047Z</time></trkpt><trkpt lat="43.87669" lon="7.887275"><ele>659.0</ele><time>2026-04-26T09:04:06.047Z</time></trkpt><trkpt lat="43.876635" lon="7.8873917"><ele>660.0</ele><time>2026-04-26T09:04:08.047Z</time></trkpt><trkpt lat="43.8765833" lon="7.8874967"><ele>660.0</ele><time>2026-04-26T09:04:10.047Z</time></trkpt><trkpt lat="43.8765417" lon="7.8875767"><ele>660.0</ele><time>2026-04-26T09:04:12.047Z</time></trkpt><trkpt lat="43.8765017" lon="7.887645"><ele>660.0</ele><time>2026-04-26T09:04:15.048Z</time></trkpt><trkpt lat="43.8764417" lon="7.8877267"><ele>660.0</ele><time>2026-04-26T09:04:19.047Z</time></trkpt><trkpt lat="43.8763833" lon="7.8877917"><ele>660.0</ele><time>2026-04-26T09:04:23.047Z</time></trkpt><trkpt lat="43.876325" lon="7.88785"><ele>660.0</ele><time>2026-04-26T09:04:26.047Z</time></trkpt><trkpt lat="43.8762483" lon="7.8879167"><ele>660.0</ele><time>2026-04-26T09:04:29.047Z</time></trkpt><trkpt lat="43.8761667" lon="7.8879683"><ele>660.0</ele><time>2026-04-26T09:04:32.047Z</time></trkpt><trkpt lat="43.8760867" lon="7.8879917"><ele>660.0</ele><time>2026-04-26T09:04:35.047Z</time></trkpt><trkpt lat="43.8760067" lon="7.8880033"><ele>660.0</ele><time>2026-04-26T09:04:38.047Z</time></trkpt><trkpt lat="43.875915" lon="7.8880267"><ele>660.0</ele><time>2026-04-26T09:04:41.047Z</time></trkpt><trkpt lat="43.8758467" lon="7.8880467"><ele>660.0</ele><time>2026-04-26T09:04:43.047Z</time></trkpt><trkpt lat="43.8757817" lon="7.8880683"><ele>661.6666666666666</ele><time>2026-04-26T09:04:45.047Z</time></trkpt><trkpt lat="43.8757183" lon="7.8880867"><ele>663.3333333333334</ele><time>2026-04-26T09:04:47.047Z</time></trkpt><trkpt lat="43.8756533" lon="7.8881"><ele>665.0</ele><time>2026-04-26T09:04:49.048Z</time></trkpt><trkpt lat="43.8755617" lon="7.8881167"><ele>666.6666666666667</ele><time>2026-04-26T09:04:52.047Z</time></trkpt><trkpt lat="43.87548" lon="7.8881333"><ele>668.3333333333334</ele><time>2026-04-26T09:04:55.047Z</time></trkpt><trkpt lat="43.875395" lon="7.8881367"><ele>670.0</ele><time>2026-04-26T09:04:58.048Z</time></trkpt><trkpt lat="43.8753067" lon="7.8881667"><ele>669.9999999999999</ele><time>2026-04-26T09:05:01.047Z</time></trkpt><trkpt lat="43.8752267" lon="7.8882217"><ele>670.0</ele><time>2026-04-26T09:05:04.047Z</time></trkpt><trkpt lat="43.8751733" lon="7.888285"><ele>670.0</ele><time>2026-04-26T09:05:06.047Z</time></trkpt><trkpt lat="43.8751183" lon="7.888345"><ele>670.0</ele><time>2026-04-26T09:05:08.047Z</time></trkpt><trkpt lat="43.8750583" lon="7.8883983"><ele>670.0</ele><time>2026-04-26T09:05:10.048Z</time></trkpt><trkpt lat="43.8749967" lon="7.8884517"><ele>669.9999999999999</ele><time>2026-04-26T09:05:12.047Z</time></trkpt><trkpt lat="43.8749433" lon="7.8885217"><ele>670.0</ele><time>2026-04-26T09:05:14.047Z</time></trkpt><trkpt lat="43.8749067" lon="7.8886033"><ele>670.2</ele><time>2026-04-26T09:05:16.047Z</time></trkpt><trkpt lat="43.8748683" lon="7.8886967"><ele>670.4</ele><time>2026-04-26T09:05:18.047Z</time></trkpt><trkpt lat="43.8748283" lon="7.8887933"><ele>670.5999999999999</ele><time>2026-04-26T09:05:20.047Z</time></trkpt><trkpt lat="43.87478" lon="7.8888833"><ele>670.8</ele><time>2026-04-26T09:05:22.047Z</time></trkpt><trkpt lat="43.8747267" lon="7.889"><ele>671.0</ele><time>2026-04-26T09:05:24.048Z</time></trkpt><trkpt lat="43.87468" lon="7.8891433"><ele>668.1999999999999</ele><time>2026-04-26T09:05:26.047Z</time></trkpt><trkpt lat="43.8746417" lon="7.88928"><ele>665.4</ele><time>2026-04-26T09:05:28.047Z</time></trkpt><trkpt lat="43.8745983" lon="7.8894167"><ele>662.6</ele><time>2026-04-26T09:05:30.047Z</time></trkpt><trkpt lat="43.8745583" lon="7.8895383"><ele>659.8</ele><time>2026-04-26T09:05:32.048Z</time></trkpt><trkpt lat="43.8745267" lon="7.889625"><ele>657.0</ele><time>2026-04-26T09:05:34.047Z</time></trkpt><trkpt lat="43.874495" lon="7.88973"><ele>657.0</ele><time>2026-04-26T09:05:37.047Z</time></trkpt><trkpt lat="43.8744617" lon="7.8898167"><ele>657.0</ele><time>2026-04-26T09:05:40.047Z</time></trkpt><trkpt lat="43.8744233" lon="7.8899017"><ele>657.0</ele><time>2026-04-26T09:05:43.047Z</time></trkpt><trkpt lat="43.8743833" lon="7.8900017"><ele>657.0</ele><time>2026-04-26T09:05:46.048Z</time></trkpt><trkpt lat="43.87435" lon="7.8900817"><ele>657.0</ele><time>2026-04-26T09:05:48.047Z</time></trkpt><trkpt lat="43.874315" lon="7.890175"><ele>657.0</ele><time>2026-04-26T09:05:50.047Z</time></trkpt><trkpt lat="43.8742733" lon="7.8902883"><ele>656.1666666666666</ele><time>2026-04-26T09:05:52.047Z</time></trkpt><trkpt lat="43.8742317" lon="7.8903967"><ele>655.3333333333334</ele><time>2026-04-26T09:05:54.047Z</time></trkpt><trkpt lat="43.8741967" lon="7.89049"><ele>654.5</ele><time>2026-04-26T09:05:56.047Z</time></trkpt><trkpt lat="43.87416" lon="7.89059"><ele>653.6666666666667</ele><time>2026-04-26T09:05:58.047Z</time></trkpt><trkpt lat="43.8741333" lon="7.8906883"><ele>652.8333333333334</ele><time>2026-04-26T09:06:00.048Z</time></trkpt><trkpt lat="43.8741083" lon="7.8907733"><ele>652.0</ele><time>2026-04-26T09:06:02.047Z</time></trkpt><trkpt lat="43.8740733" lon="7.8908567"><ele>650.0</ele><time>2026-04-26T09:06:04.047Z</time></trkpt><trkpt lat="43.8740433" lon="7.890945"><ele>648.0</ele><time>2026-04-26T09:06:06.048Z</time></trkpt><trkpt lat="43.87401" lon="7.89103"><ele>646.0</ele><time>2026-04-26T09:06:08.047Z</time></trkpt><trkpt lat="43.8739783" lon="7.8911217"><ele>644.0</ele><time>2026-04-26T09:06:10.047Z</time></trkpt><trkpt lat="43.873945" lon="7.8912333"><ele>642.0</ele><time>2026-04-26T09:06:12.047Z</time></trkpt><trkpt lat="43.8739167" lon="7.891365"><ele>640.0</ele><time>2026-04-26T09:06:14.047Z</time></trkpt><trkpt lat="43.8738917" lon="7.8915"><ele>640.0</ele><time>2026-04-26T09:06:16.047Z</time></trkpt><trkpt lat="43.87386" lon="7.8916033"><ele>640.0</ele><time>2026-04-26T09:06:18.047Z</time></trkpt><trkpt lat="43.8738033" lon="7.8916917"><ele>640.0</ele><time>2026-04-26T09:06:22.047Z</time></trkpt><trkpt lat="43.873765" lon="7.8917733"><ele>640.0</ele><time>2026-04-26T09:06:25.047Z</time></trkpt><trkpt lat="43.87371" lon="7.8918183"><ele>640.0</ele><time>2026-04-26T09:07:38.047Z</time></trkpt><trkpt lat="43.8737617" lon="7.8918683"><ele>640.0</ele><time>2026-04-26T09:07:48.047Z</time></trkpt><trkpt lat="43.87379" lon="7.89195"><ele>640.0</ele><time>2026-04-26T09:07:54.048Z</time></trkpt><trkpt lat="43.8738283" lon="7.8920517"><ele>637.5</ele><time>2026-04-26T09:08:00.047Z</time></trkpt><trkpt lat="43.873865" lon="7.89214"><ele>635.0</ele><time>2026-04-26T09:08:02.047Z</time></trkpt><trkpt lat="43.873895" lon="7.8922267"><ele>632.5</ele><time>2026-04-26T09:08:04.047Z</time></trkpt><trkpt lat="43.873925" lon="7.8923267"><ele>630.0</ele><time>2026-04-26T09:08:07.047Z</time></trkpt><trkpt lat="43.87393" lon="7.8924433"><ele>627.5</ele><time>2026-04-26T09:08:11.047Z</time></trkpt><trkpt lat="43.8739683" lon="7.8925683"><ele>625.0</ele><time>2026-04-26T09:08:14.047Z</time></trkpt><trkpt lat="43.8739867" lon="7.8926567"><ele>623.0</ele><time>2026-04-26T09:08:16.048Z</time></trkpt><trkpt lat="43.8740033" lon="7.8927717"><ele>621.0</ele><time>2026-04-26T09:08:19.047Z</time></trkpt><trkpt lat="43.8740117" lon="7.89288"><ele>619.0</ele><time>2026-04-26T09:08:21.048Z</time></trkpt><trkpt lat="43.87404" lon="7.8929983"><ele>617.0</ele><time>2026-04-26T09:08:23.047Z</time></trkpt><trkpt lat="43.874075" lon="7.89311"><ele>615.0</ele><time>2026-04-26T09:08:25.047Z</time></trkpt><trkpt lat="43.8741" lon="7.89322"><ele>613.0</ele><time>2026-04-26T09:08:27.047Z</time></trkpt><trkpt lat="43.8741233" lon="7.8933367"><ele>611.0</ele><time>2026-04-26T09:08:29.047Z</time></trkpt><trkpt lat="43.87414" lon="7.8934417"><ele>609.0</ele><time>2026-04-26T09:08:31.047Z</time></trkpt><trkpt lat="43.8741683" lon="7.8935283"><ele>607.0</ele><time>2026-04-26T09:08:33.047Z</time></trkpt><trkpt lat="43.8742033" lon="7.89363"><ele>605.0</ele><time>2026-04-26T09:08:36.047Z</time></trkpt><trkpt lat="43.874235" lon="7.8937333"><ele>603.0</ele><time>2026-04-26T09:08:39.048Z</time></trkpt><trkpt lat="43.874265" lon="7.893815"><ele>601.0</ele><time>2026-04-26T09:08:41.047Z</time></trkpt><trkpt lat="43.8742867" lon="7.89391"><ele>599.0</ele><time>2026-04-26T09:08:45.047Z</time></trkpt><trkpt lat="43.8742833" lon="7.8940217"><ele>599.0</ele><time>2026-04-26T09:08:57.047Z</time></trkpt><trkpt lat="43.8742733" lon="7.8941133"><ele>599.0</ele><time>2026-04-26T09:08:59.047Z</time></trkpt><trkpt lat="43.8742617" lon="7.894205"><ele>599.0</ele><time>2026-04-26T09:09:01.047Z</time></trkpt><trkpt lat="43.8742467" lon="7.8942967"><ele>599.0</ele><time>2026-04-26T09:09:03.047Z</time></trkpt><trkpt lat="43.8742333" lon="7.894425"><ele>599.0</ele><time>2026-04-26T09:09:06.047Z</time></trkpt><trkpt lat="43.87419" lon="7.8945217"><ele>599.0</ele><time>2026-04-26T09:09:09.047Z</time></trkpt><trkpt lat="43.8741733" lon="7.8946967"><ele>596.5</ele><time>2026-04-26T09:09:43.047Z</time></trkpt><trkpt lat="43.8741633" lon="7.8948067"><ele>594.0</ele><time>2026-04-26T09:09:45.047Z</time></trkpt><trkpt lat="43.87415" lon="7.8949083"><ele>591.5</ele><time>2026-04-26T09:09:47.047Z</time></trkpt><trkpt lat="43.8741283" lon="7.8950317"><ele>589.0</ele><time>2026-04-26T09:09:50.047Z</time></trkpt><trkpt lat="43.8741267" lon="7.8951367"><ele>586.5</ele><time>2026-04-26T09:09:52.047Z</time></trkpt><trkpt lat="43.8741183" lon="7.8952617"><ele>584.0</ele><time>2026-04-26T09:09:54.047Z</time></trkpt><trkpt lat="43.8741267" lon="7.8954167"><ele>582.6</ele><time>2026-04-26T09:09:56.047Z</time></trkpt><trkpt lat="43.87413" lon="7.8955083"><ele>581.2</ele><time>2026-04-26T09:09:57.047Z</time></trkpt><trkpt lat="43.874135" lon="7.8956833"><ele>579.8000000000001</ele><time>2026-04-26T09:09:59.048Z</time></trkpt><trkpt lat="43.8741433" lon="7.8958433"><ele>578.4</ele><time>2026-04-26T09:10:01.047Z</time></trkpt><trkpt lat="43.87416" lon="7.8959833"><ele>577.0</ele><time>2026-04-26T09:10:03.047Z</time></trkpt><trkpt lat="43.8741783" lon="7.8961067"><ele>576.2</ele><time>2026-04-26T09:10:05.047Z</time></trkpt><trkpt lat="43.8741983" lon="7.896215"><ele>575.4000000000001</ele><time>2026-04-26T09:10:07.047Z</time></trkpt><trkpt lat="43.8742117" lon="7.8963517"><ele>574.5999999999999</ele><time>2026-04-26T09:10:09.047Z</time></trkpt><trkpt lat="43.8742283" lon="7.8965183"><ele>573.8</ele><time>2026-04-26T09:10:11.047Z</time></trkpt><trkpt lat="43.8742217" lon="7.896695"><ele>573.0</ele><time>2026-04-26T09:10:13.047Z</time></trkpt><trkpt lat="43.874225" lon="7.896785"><ele>571.8333333333334</ele><time>2026-04-26T09:10:14.047Z</time></trkpt><trkpt lat="43.874235" lon="7.89688"><ele>570.6666666666666</ele><time>2026-04-26T09:10:15.047Z</time></trkpt><trkpt lat="43.8742483" lon="7.8969683"><ele>569.5</ele><time>2026-04-26T09:10:16.047Z</time></trkpt><trkpt lat="43.87426" lon="7.8970567"><ele>568.3333333333333</ele><time>2026-04-26T09:10:17.048Z</time></trkpt><trkpt lat="43.87427" lon="7.8971433"><ele>567.1666666666666</ele><time>2026-04-26T09:10:18.047Z</time></trkpt><trkpt lat="43.8742717" lon="7.8972967"><ele>566.0</ele><time>2026-04-26T09:10:20.047Z</time></trkpt><trkpt lat="43.8742433" lon="7.8974283"><ele>566.0</ele><time>2026-04-26T09:10:22.047Z</time></trkpt><trkpt lat="43.8742133" lon="7.8975583"><ele>566.0</ele><time>2026-04-26T09:10:24.047Z</time></trkpt><trkpt lat="43.8741917" lon="7.8976867"><ele>566.0</ele><time>2026-04-26T09:10:26.047Z</time></trkpt><trkpt lat="43.8741633" lon="7.897815"><ele>566.0</ele><time>2026-04-26T09:10:28.047Z</time></trkpt><trkpt lat="43.8741283" lon="7.8979267"><ele>566.0</ele><time>2026-04-26T09:10:30.047Z</time></trkpt><trkpt lat="43.8740783" lon="7.8980667"><ele>564.8333333333333</ele><time>2026-04-26T09:10:32.047Z</time></trkpt><trkpt lat="43.874045" lon="7.898145"><ele>563.6666666666666</ele><time>2026-04-26T09:10:33.047Z</time></trkpt><trkpt lat="43.87401" lon="7.8982283"><ele>562.5</ele><time>2026-04-26T09:10:34.048Z</time></trkpt><trkpt lat="43.8739717" lon="7.8983167"><ele>561.3333333333334</ele><time>2026-04-26T09:10:35.047Z</time></trkpt><trkpt lat="43.87393" lon="7.8984083"><ele>560.1666666666667</ele><time>2026-04-26T09:10:36.047Z</time></trkpt><trkpt lat="43.8738833" lon="7.8985033"><ele>559.0</ele><time>2026-04-26T09:10:37.047Z</time></trkpt><trkpt lat="43.8738367" lon="7.898595"><ele>557.1666666666667</ele><time>2026-04-26T09:10:38.047Z</time></trkpt><trkpt lat="43.8737883" lon="7.898685"><ele>555.3333333333334</ele><time>2026-04-26T09:10:39.048Z</time></trkpt><trkpt lat="43.8737367" lon="7.89877"><ele>553.5</ele><time>2026-04-26T09:10:40.047Z</time></trkpt><trkpt lat="43.8736883" lon="7.89885"><ele>551.6666666666666</ele><time>2026-04-26T09:10:41.047Z</time></trkpt><trkpt lat="43.8736467" lon="7.89893"><ele>549.8333333333333</ele><time>2026-04-26T09:10:42.048Z</time></trkpt><trkpt lat="43.873615" lon="7.8990083"><ele>548.0</ele><time>2026-04-26T09:10:43.047Z</time></trkpt><trkpt lat="43.8735833" lon="7.8991467"><ele>547.3333333333333</ele><time>2026-04-26T09:10:45.047Z</time></trkpt><trkpt lat="43.8735517" lon="7.89926"><ele>546.6666666666666</ele><time>2026-04-26T09:10:47.047Z</time></trkpt><trkpt lat="43.87352" lon="7.8993717"><ele>546.0</ele><time>2026-04-26T09:10:49.047Z</time></trkpt><trkpt lat="43.8734817" lon="7.8994733"><ele>545.3333333333334</ele><time>2026-04-26T09:10:51.048Z</time></trkpt><trkpt lat="43.8734467" lon="7.89955"><ele>544.6666666666667</ele><time>2026-04-26T09:10:53.047Z</time></trkpt><trkpt lat="43.873395" lon="7.8996517"><ele>544.0</ele><time>2026-04-26T09:10:56.048Z</time></trkpt><trkpt lat="43.873365" lon="7.899735"><ele>545.6666666666667</ele><time>2026-04-26T09:10:58.047Z</time></trkpt><trkpt lat="43.873335" lon="7.8998167"><ele>547.3333333333334</ele><time>2026-04-26T09:11:00.047Z</time></trkpt><trkpt lat="43.8733033" lon="7.8999033"><ele>549.0</ele><time>2026-04-26T09:11:03.047Z</time></trkpt><trkpt lat="43.8733083" lon="7.9000117"><ele>550.6666666666666</ele><time>2026-04-26T09:12:40.047Z</time></trkpt><trkpt lat="43.8733167" lon="7.9001567"><ele>552.3333333333333</ele><time>2026-04-26T09:12:43.047Z</time></trkpt><trkpt lat="43.873325" lon="7.9002517"><ele>554.0</ele><time>2026-04-26T09:12:45.047Z</time></trkpt><trkpt lat="43.873315" lon="7.9003383"><ele>554.0</ele><time>2026-04-26T09:12:49.047Z</time></trkpt><trkpt lat="43.8733033" lon="7.9004533"><ele>554.0</ele><time>2026-04-26T09:12:52.047Z</time></trkpt><trkpt lat="43.8733067" lon="7.9005517"><ele>554.0</ele><time>2026-04-26T09:12:55.047Z</time></trkpt><trkpt lat="43.8733033" lon="7.9006583"><ele>554.0</ele><time>2026-04-26T09:12:57.047Z</time></trkpt><trkpt lat="43.873305" lon="7.9007467"><ele>554.0</ele><time>2026-04-26T09:12:58.047Z</time></trkpt><trkpt lat="43.873315" lon="7.9008417"><ele>554.0</ele><time>2026-04-26T09:12:59.047Z</time></trkpt><trkpt lat="43.873325" lon="7.900945"><ele>554.0</ele><time>2026-04-26T09:13:00.048Z</time></trkpt><trkpt lat="43.873335" lon="7.9010383"><ele>553.8333333333333</ele><time>2026-04-26T09:13:01.047Z</time></trkpt><trkpt lat="43.8733333" lon="7.9012017"><ele>553.6666666666666</ele><time>2026-04-26T09:13:03.047Z</time></trkpt><trkpt lat="43.8733183" lon="7.9013317"><ele>553.5</ele><time>2026-04-26T09:13:05.047Z</time></trkpt><trkpt lat="43.873325" lon="7.9014317"><ele>553.3333333333334</ele><time>2026-04-26T09:13:07.047Z</time></trkpt><trkpt lat="43.8733367" lon="7.9015417"><ele>553.1666666666667</ele><time>2026-04-26T09:13:09.047Z</time></trkpt><trkpt lat="43.8733483" lon="7.901645"><ele>553.0</ele><time>2026-04-26T09:13:11.048Z</time></trkpt><trkpt lat="43.8733583" lon="7.9017533"><ele>552.8333333333334</ele><time>2026-04-26T09:13:13.047Z</time></trkpt><trkpt lat="43.8733733" lon="7.9018633"><ele>552.6666666666667</ele><time>2026-04-26T09:13:15.047Z</time></trkpt><trkpt lat="43.8733883" lon="7.9019867"><ele>552.5</ele><time>2026-04-26T09:13:17.047Z</time></trkpt><trkpt lat="43.87339" lon="7.9021117"><ele>552.3333333333334</ele><time>2026-04-26T09:13:19.048Z</time></trkpt><trkpt lat="43.8733783" lon="7.9022217"><ele>552.1666666666666</ele><time>2026-04-26T09:13:21.047Z</time></trkpt><trkpt lat="43.87336" lon="7.9023217"><ele>552.0</ele><time>2026-04-26T09:13:23.047Z</time></trkpt><trkpt lat="43.8733267" lon="7.9024217"><ele>552.0</ele><time>2026-04-26T09:13:25.047Z</time></trkpt><trkpt lat="43.8732967" lon="7.902555"><ele>552.0</ele><time>2026-04-26T09:13:27.047Z</time></trkpt><trkpt lat="43.8732533" lon="7.9027117"><ele>552.0</ele><time>2026-04-26T09:13:29.047Z</time></trkpt><trkpt lat="43.8732333" lon="7.9028017"><ele>552.0</ele><time>2026-04-26T09:13:30.047Z</time></trkpt><trkpt lat="43.8732183" lon="7.9028933"><ele>552.0</ele><time>2026-04-26T09:13:31.047Z</time></trkpt><trkpt lat="43.873205" lon="7.902985"><ele>552.0</ele><time>2026-04-26T09:13:32.047Z</time></trkpt><trkpt lat="43.873185" lon="7.9030683"><ele>552.2</ele><time>2026-04-26T09:13:33.047Z</time></trkpt><trkpt lat="43.8731383" lon="7.9032133"><ele>552.4000000000001</ele><time>2026-04-26T09:13:35.047Z</time></trkpt><trkpt lat="43.8730983" lon="7.90333"><ele>552.5999999999999</ele><time>2026-04-26T09:13:37.047Z</time></trkpt><trkpt lat="43.8730667" lon="7.9034383"><ele>552.8</ele><time>2026-04-26T09:13:39.047Z</time></trkpt><trkpt lat="43.8730467" lon="7.90354"><ele>553.0</ele><time>2026-04-26T09:13:41.047Z</time></trkpt><trkpt lat="43.873015" lon="7.9036633"><ele>553.0</ele><time>2026-04-26T09:13:44.047Z</time></trkpt><trkpt lat="43.8729783" lon="7.90377"><ele>553.0</ele><time>2026-04-26T09:13:47.047Z</time></trkpt><trkpt lat="43.872945" lon="7.9038533"><ele>553.0</ele><time>2026-04-26T09:13:50.047Z</time></trkpt><trkpt lat="43.8729117" lon="7.9039317"><ele>553.0</ele><time>2026-04-26T09:13:53.047Z</time></trkpt><trkpt lat="43.8728683" lon="7.90402"><ele>553.0</ele><time>2026-04-26T09:13:57.047Z</time></trkpt><trkpt lat="43.8728217" lon="7.9041083"><ele>553.0</ele><time>2026-04-26T09:14:01.047Z</time></trkpt><trkpt lat="43.8727783" lon="7.9042117"><ele>551.6666666666667</ele><time>2026-04-26T09:14:05.047Z</time></trkpt><trkpt lat="43.8727417" lon="7.9043167"><ele>550.3333333333334</ele><time>2026-04-26T09:14:08.047Z</time></trkpt><trkpt lat="43.8726933" lon="7.9044117"><ele>549.0</ele><time>2026-04-26T09:14:11.047Z</time></trkpt><trkpt lat="43.8726517" lon="7.9045067"><ele>547.6666666666666</ele><time>2026-04-26T09:14:14.047Z</time></trkpt><trkpt lat="43.872605" lon="7.9045867"><ele>546.3333333333333</ele><time>2026-04-26T09:14:17.047Z</time></trkpt><trkpt lat="43.8725517" lon="7.9046617"><ele>545.0</ele><time>2026-04-26T09:14:20.047Z</time></trkpt><trkpt lat="43.872505" lon="7.9047483"><ele>548.0</ele><time>2026-04-26T09:14:23.047Z</time></trkpt><trkpt lat="43.87246" lon="7.904825"><ele>551.0</ele><time>2026-04-26T09:14:26.047Z</time></trkpt><trkpt lat="43.8724217" lon="7.9049033"><ele>554.0</ele><time>2026-04-26T09:14:29.048Z</time></trkpt><trkpt lat="43.8723583" lon="7.9049783"><ele>557.0</ele><time>2026-04-26T09:14:32.047Z</time></trkpt><trkpt lat="43.8723067" lon="7.9050483"><ele>560.0</ele><time>2026-04-26T09:14:35.048Z</time></trkpt><trkpt lat="43.8722567" lon="7.9051233"><ele>563.0</ele><time>2026-04-26T09:14:39.047Z</time></trkpt><trkpt lat="43.8721867" lon="7.9051933"><ele>563.0</ele><time>2026-04-26T09:15:45.048Z</time></trkpt><trkpt lat="43.8721517" lon="7.905315"><ele>563.0</ele><time>2026-04-26T09:15:48.047Z</time></trkpt><trkpt lat="43.8721333" lon="7.90542"><ele>563.0</ele><time>2026-04-26T09:15:50.047Z</time></trkpt><trkpt lat="43.872095" lon="7.9055433"><ele>563.0</ele><time>2026-04-26T09:15:53.048Z</time></trkpt><trkpt lat="43.8720483" lon="7.905675"><ele>563.0</ele><time>2026-04-26T09:15:55.047Z</time></trkpt><trkpt lat="43.872025" lon="7.905765"><ele>563.0</ele><time>2026-04-26T09:15:56.047Z</time></trkpt><trkpt lat="43.8720133" lon="7.9058517"><ele>561.3333333333333</ele><time>2026-04-26T09:15:57.047Z</time></trkpt><trkpt lat="43.8720117" lon="7.9059467"><ele>559.6666666666666</ele><time>2026-04-26T09:15:58.047Z</time></trkpt><trkpt lat="43.8720067" lon="7.9060483"><ele>558.0</ele><time>2026-04-26T09:15:59.047Z</time></trkpt><trkpt lat="43.872" lon="7.9061583"><ele>556.3333333333334</ele><time>2026-04-26T09:16:00.047Z</time></trkpt><trkpt lat="43.8719967" lon="7.9062733"><ele>554.6666666666667</ele><time>2026-04-26T09:16:01.047Z</time></trkpt><trkpt lat="43.8719933" lon="7.9063867"><ele>553.0</ele><time>2026-04-26T09:16:02.047Z</time></trkpt><trkpt lat="43.871995" lon="7.9064883"><ele>553.0</ele><time>2026-04-26T09:16:03.048Z</time></trkpt><trkpt lat="43.871995" lon="7.9065767"><ele>553.0</ele><time>2026-04-26T09:16:04.047Z</time></trkpt><trkpt lat="43.8719933" lon="7.906735"><ele>553.0</ele><time>2026-04-26T09:16:06.047Z</time></trkpt><trkpt lat="43.8719917" lon="7.9068233"><ele>553.0</ele><time>2026-04-26T09:16:07.048Z</time></trkpt><trkpt lat="43.87199" lon="7.906915"><ele>553.0</ele><time>2026-04-26T09:16:08.047Z</time></trkpt><trkpt lat="43.87198" lon="7.907005"><ele>553.0</ele><time>2026-04-26T09:16:09.047Z</time></trkpt><trkpt lat="43.8719767" lon="7.9071017"><ele>553.0</ele><time>2026-04-26T09:16:10.048Z</time></trkpt><trkpt lat="43.8719733" lon="7.9072"><ele>552.1666666666667</ele><time>2026-04-26T09:16:11.047Z</time></trkpt><trkpt lat="43.8719733" lon="7.907295"><ele>551.3333333333334</ele><time>2026-04-26T09:16:12.047Z</time></trkpt><trkpt lat="43.8719783" lon="7.907385"><ele>550.5</ele><time>2026-04-26T09:16:13.047Z</time></trkpt><trkpt lat="43.8719867" lon="7.9074717"><ele>549.6666666666666</ele><time>2026-04-26T09:16:14.047Z</time></trkpt><trkpt lat="43.8720017" lon="7.9076417"><ele>548.8333333333333</ele><time>2026-04-26T09:16:16.047Z</time></trkpt><trkpt lat="43.872" lon="7.9078133"><ele>548.0</ele><time>2026-04-26T09:16:18.047Z</time></trkpt><trkpt lat="43.8719917" lon="7.907905"><ele>547.4</ele><time>2026-04-26T09:16:19.048Z</time></trkpt><trkpt lat="43.8719633" lon="7.90806"><ele>546.8</ele><time>2026-04-26T09:16:21.047Z</time></trkpt><trkpt lat="43.8719617" lon="7.9081983"><ele>546.2</ele><time>2026-04-26T09:16:23.048Z</time></trkpt><trkpt lat="43.8719617" lon="7.90838"><ele>545.6</ele><time>2026-04-26T09:16:25.047Z</time></trkpt><trkpt lat="43.87195" lon="7.908485"><ele>545.0</ele><time>2026-04-26T09:16:26.047Z</time></trkpt><trkpt lat="43.8719417" lon="7.9085967"><ele>545.0</ele><time>2026-04-26T09:16:27.047Z</time></trkpt><trkpt lat="43.8719367" lon="7.9087017"><ele>545.0</ele><time>2026-04-26T09:16:28.047Z</time></trkpt><trkpt lat="43.8719317" lon="7.9088017"><ele>545.0</ele><time>2026-04-26T09:16:29.047Z</time></trkpt><trkpt lat="43.871925" lon="7.908895"><ele>545.0</ele><time>2026-04-26T09:16:30.047Z</time></trkpt><trkpt lat="43.8719017" lon="7.9090583"><ele>545.0</ele><time>2026-04-26T09:16:32.048Z</time></trkpt><trkpt lat="43.8718733" lon="7.90918"><ele>545.0</ele><time>2026-04-26T09:16:34.048Z</time></trkpt><trkpt lat="43.871845" lon="7.9092717"><ele>545.3333333333333</ele><time>2026-04-26T09:16:36.047Z</time></trkpt><trkpt lat="43.8717817" lon="7.909355"><ele>545.6666666666666</ele><time>2026-04-26T09:16:39.047Z</time></trkpt><trkpt lat="43.8717233" lon="7.9094067"><ele>546.0</ele><time>2026-04-26T09:16:41.047Z</time></trkpt><trkpt lat="43.8716633" lon="7.9094617"><ele>546.3333333333334</ele><time>2026-04-26T09:16:43.047Z</time></trkpt><trkpt lat="43.8716133" lon="7.90953"><ele>546.6666666666667</ele><time>2026-04-26T09:16:45.047Z</time></trkpt><trkpt lat="43.8715467" lon="7.909605"><ele>547.0</ele><time>2026-04-26T09:16:47.047Z</time></trkpt><trkpt lat="43.8714683" lon="7.9096833"><ele>547.8000000000001</ele><time>2026-04-26T09:16:49.047Z</time></trkpt><trkpt lat="43.871375" lon="7.9097733"><ele>548.6</ele><time>2026-04-26T09:16:51.047Z</time></trkpt><trkpt lat="43.8712917" lon="7.9098667"><ele>549.4000000000001</ele><time>2026-04-26T09:16:53.047Z</time></trkpt><trkpt lat="43.871215" lon="7.9099433"><ele>550.2</ele><time>2026-04-26T09:16:55.047Z</time></trkpt><trkpt lat="43.871145" lon="7.91005"><ele>551.0</ele><time>2026-04-26T09:16:57.047Z</time></trkpt><trkpt lat="43.8711233" lon="7.910205"><ele>548.2</ele><time>2026-04-26T09:16:59.047Z</time></trkpt><trkpt lat="43.8711267" lon="7.91034"><ele>545.4000000000001</ele><time>2026-04-26T09:17:01.047Z</time></trkpt><trkpt lat="43.8710867" lon="7.9104633"><ele>542.6</ele><time>2026-04-26T09:17:03.047Z</time></trkpt><trkpt lat="43.871" lon="7.9105633"><ele>539.8000000000001</ele><time>2026-04-26T09:17:05.047Z</time></trkpt><trkpt lat="43.8708967" lon="7.9106683"><ele>537.0</ele><time>2026-04-26T09:17:07.047Z</time></trkpt><trkpt lat="43.8708417" lon="7.9107267"><ele>537.0</ele><time>2026-04-26T09:17:08.047Z</time></trkpt><trkpt lat="43.870785" lon="7.9107867"><ele>537.0</ele><time>2026-04-26T09:17:09.047Z</time></trkpt><trkpt lat="43.8707267" lon="7.9108483"><ele>537.0</ele><time>2026-04-26T09:17:10.047Z</time></trkpt><trkpt lat="43.87067" lon="7.9109183"><ele>537.0</ele><time>2026-04-26T09:17:11.047Z</time></trkpt><trkpt lat="43.8706133" lon="7.9109867"><ele>537.0</ele><time>2026-04-26T09:17:12.048Z</time></trkpt><trkpt lat="43.870555" lon="7.9110567"><ele>537.0</ele><time>2026-04-26T09:17:13.048Z</time></trkpt><trkpt lat="43.8704967" lon="7.9111283"><ele>535.3333333333334</ele><time>2026-04-26T09:17:14.047Z</time></trkpt><trkpt lat="43.8704383" lon="7.9111917"><ele>533.6666666666666</ele><time>2026-04-26T09:17:15.047Z</time></trkpt><trkpt lat="43.8703883" lon="7.9112533"><ele>532.0</ele><time>2026-04-26T09:17:16.047Z</time></trkpt><trkpt lat="43.870345" lon="7.9113183"><ele>530.3333333333333</ele><time>2026-04-26T09:17:17.047Z</time></trkpt><trkpt lat="43.8702717" lon="7.9114433"><ele>528.6666666666666</ele><time>2026-04-26T09:17:19.047Z</time></trkpt><trkpt lat="43.870225" lon="7.911535"><ele>527.0</ele><time>2026-04-26T09:17:21.048Z</time></trkpt><trkpt lat="43.870195" lon="7.9116167"><ele>527.0</ele><time>2026-04-26T09:17:23.047Z</time></trkpt><trkpt lat="43.870155" lon="7.9117033"><ele>527.0</ele><time>2026-04-26T09:17:25.047Z</time></trkpt><trkpt lat="43.8701" lon="7.9118033"><ele>527.0</ele><time>2026-04-26T09:17:27.047Z</time></trkpt><trkpt lat="43.8700567" lon="7.911935"><ele>527.0</ele><time>2026-04-26T09:17:29.047Z</time></trkpt><trkpt lat="43.869995" lon="7.9120917"><ele>527.0</ele><time>2026-04-26T09:17:31.047Z</time></trkpt><trkpt lat="43.869965" lon="7.9121817"><ele>526.3333333333333</ele><time>2026-04-26T09:17:32.047Z</time></trkpt><trkpt lat="43.869945" lon="7.9122767"><ele>525.6666666666666</ele><time>2026-04-26T09:17:33.047Z</time></trkpt><trkpt lat="43.8699233" lon="7.9123667"><ele>525.0</ele><time>2026-04-26T09:17:34.047Z</time></trkpt><trkpt lat="43.8699" lon="7.9124533"><ele>524.3333333333334</ele><time>2026-04-26T09:17:35.047Z</time></trkpt><trkpt lat="43.8698433" lon="7.9125867"><ele>523.6666666666667</ele><time>2026-04-26T09:17:37.047Z</time></trkpt><trkpt lat="43.869805" lon="7.9126967"><ele>523.0</ele><time>2026-04-26T09:17:39.047Z</time></trkpt><trkpt lat="43.869785" lon="7.9128133"><ele>523.0</ele><time>2026-04-26T09:17:41.047Z</time></trkpt><trkpt lat="43.869755" lon="7.9129083"><ele>523.0</ele><time>2026-04-26T09:17:43.047Z</time></trkpt><trkpt lat="43.8696983" lon="7.912965"><ele>523.0</ele><time>2026-04-26T09:17:45.047Z</time></trkpt><trkpt lat="43.8696267" lon="7.9129417"><ele>523.0</ele><time>2026-04-26T09:17:47.047Z</time></trkpt><trkpt lat="43.8695617" lon="7.91293"><ele>523.0</ele><time>2026-04-26T09:17:49.047Z</time></trkpt><trkpt lat="43.86949" lon="7.9129317"><ele>523.0</ele><time>2026-04-26T09:17:51.047Z</time></trkpt><trkpt lat="43.8693933" lon="7.9129467"><ele>523.0</ele><time>2026-04-26T09:17:53.047Z</time></trkpt><trkpt lat="43.8692983" lon="7.9129367"><ele>523.0</ele><time>2026-04-26T09:17:55.047Z</time></trkpt><trkpt lat="43.8692167" lon="7.912945"><ele>523.0</ele><time>2026-04-26T09:17:57.047Z</time></trkpt><trkpt lat="43.86913" lon="7.91299"><ele>523.0</ele><time>2026-04-26T09:17:59.047Z</time></trkpt><trkpt lat="43.86904" lon="7.9130167"><ele>523.0</ele><time>2026-04-26T09:18:01.047Z</time></trkpt><trkpt lat="43.86895" lon="7.912995"><ele>523.5714285714286</ele><time>2026-04-26T09:18:03.047Z</time></trkpt><trkpt lat="43.8688833" lon="7.9129667"><ele>524.1428571428571</ele><time>2026-04-26T09:18:05.047Z</time></trkpt><trkpt lat="43.8688233" lon="7.91293"><ele>524.7142857142858</ele><time>2026-04-26T09:18:07.047Z</time></trkpt><trkpt lat="43.8687567" lon="7.91288"><ele>525.2857142857142</ele><time>2026-04-26T09:18:10.047Z</time></trkpt><trkpt lat="43.8686733" lon="7.912875"><ele>525.8571428571429</ele><time>2026-04-26T09:18:13.047Z</time></trkpt><trkpt lat="43.8686067" lon="7.9128783"><ele>526.4285714285714</ele><time>2026-04-26T09:18:15.047Z</time></trkpt><trkpt lat="43.86852" lon="7.9128717"><ele>527.0</ele><time>2026-04-26T09:18:17.047Z</time></trkpt><trkpt lat="43.8684333" lon="7.91289"><ele>527.5</ele><time>2026-04-26T09:18:19.047Z</time></trkpt><trkpt lat="43.868355" lon="7.91291"><ele>528.0</ele><time>2026-04-26T09:18:21.047Z</time></trkpt><trkpt lat="43.8682867" lon="7.9129317"><ele>528.5</ele><time>2026-04-26T09:18:23.048Z</time></trkpt><trkpt lat="43.868225" lon="7.9129733"><ele>529.0</ele><time>2026-04-26T09:18:25.047Z</time></trkpt><trkpt lat="43.8681717" lon="7.9130483"><ele>529.5</ele><time>2026-04-26T09:18:27.048Z</time></trkpt><trkpt lat="43.868095" lon="7.9131417"><ele>530.0</ele><time>2026-04-26T09:18:29.047Z</time></trkpt><trkpt lat="43.868045" lon="7.9132433"><ele>529.9999999999999</ele><time>2026-04-26T09:18:31.047Z</time></trkpt><trkpt lat="43.8680083" lon="7.9133217"><ele>530.0</ele><time>2026-04-26T09:18:33.047Z</time></trkpt><trkpt lat="43.8679883" lon="7.9134067"><ele>530.0</ele><time>2026-04-26T09:18:35.047Z</time></trkpt><trkpt lat="43.8679633" lon="7.9135017"><ele>530.0</ele><time>2026-04-26T09:18:39.047Z</time></trkpt><trkpt lat="43.8679483" lon="7.9136017"><ele>530.0</ele><time>2026-04-26T09:18:51.047Z</time></trkpt><trkpt lat="43.867915" lon="7.9137033"><ele>529.9999999999999</ele><time>2026-04-26T09:18:54.048Z</time></trkpt><trkpt lat="43.8678967" lon="7.9138033"><ele>530.0</ele><time>2026-04-26T09:18:56.047Z</time></trkpt><trkpt lat="43.8678833" lon="7.913895"><ele>526.6666666666666</ele><time>2026-04-26T09:18:58.047Z</time></trkpt><trkpt lat="43.8678633" lon="7.9140033"><ele>523.3333333333333</ele><time>2026-04-26T09:19:01.047Z</time></trkpt><trkpt lat="43.8678467" lon="7.91411"><ele>520.0</ele><time>2026-04-26T09:19:04.047Z</time></trkpt><trkpt lat="43.8678067" lon="7.91424"><ele>516.6666666666666</ele><time>2026-04-26T09:19:07.047Z</time></trkpt><trkpt lat="43.86776" lon="7.9143383"><ele>513.3333333333334</ele><time>2026-04-26T09:19:09.047Z</time></trkpt><trkpt lat="43.8677167" lon="7.91443"><ele>510.0</ele><time>2026-04-26T09:19:11.047Z</time></trkpt><trkpt lat="43.867705" lon="7.9145167"><ele>506.7142857142857</ele><time>2026-04-26T09:19:13.048Z</time></trkpt><trkpt lat="43.8677067" lon="7.9146067"><ele>503.42857142857144</ele><time>2026-04-26T09:19:15.047Z</time></trkpt><trkpt lat="43.8677133" lon="7.9147217"><ele>500.14285714285717</ele><time>2026-04-26T09:19:17.047Z</time></trkpt><trkpt lat="43.86771" lon="7.9148167"><ele>496.8571428571429</ele><time>2026-04-26T09:19:19.047Z</time></trkpt><trkpt lat="43.8677017" lon="7.914915"><ele>493.57142857142856</ele><time>2026-04-26T09:19:21.047Z</time></trkpt><trkpt lat="43.8676733" lon="7.9150267"><ele>490.28571428571433</ele><time>2026-04-26T09:19:24.047Z</time></trkpt><trkpt lat="43.8676317" lon="7.9151017"><ele>487.0</ele><time>2026-04-26T09:19:26.047Z</time></trkpt><trkpt lat="43.8675967" lon="7.9152033"><ele>486.14285714285717</ele><time>2026-04-26T09:19:28.047Z</time></trkpt><trkpt lat="43.8675717" lon="7.9152983"><ele>485.2857142857142</ele><time>2026-04-26T09:19:30.048Z</time></trkpt><trkpt lat="43.86754" lon="7.9153767"><ele>484.4285714285714</ele><time>2026-04-26T09:19:32.047Z</time></trkpt><trkpt lat="43.8674983" lon="7.9154467"><ele>483.57142857142856</ele><time>2026-04-26T09:19:34.047Z</time></trkpt><trkpt lat="43.8674517" lon="7.915515"><ele>482.71428571428567</ele><time>2026-04-26T09:19:37.047Z</time></trkpt><trkpt lat="43.8674117" lon="7.9156033"><ele>481.8571428571428</ele><time>2026-04-26T09:20:21.047Z</time></trkpt><trkpt lat="43.86733" lon="7.915635"><ele>480.99999999999994</ele><time>2026-04-26T09:20:24.047Z</time></trkpt><trkpt lat="43.8672467" lon="7.915665"><ele>481.00000000000006</ele><time>2026-04-26T09:20:28.047Z</time></trkpt><trkpt lat="43.8671833" lon="7.9157217"><ele>481.0</ele><time>2026-04-26T09:20:30.047Z</time></trkpt><trkpt lat="43.8671117" lon="7.9157767"><ele>481.0</ele><time>2026-04-26T09:20:32.047Z</time></trkpt><trkpt lat="43.8670367" lon="7.915845"><ele>481.0</ele><time>2026-04-26T09:20:35.047Z</time></trkpt><trkpt lat="43.867" lon="7.915925"><ele>481.00000000000006</ele><time>2026-04-26T09:20:37.047Z</time></trkpt><trkpt lat="43.8669717" lon="7.916025"><ele>481.0</ele><time>2026-04-26T09:20:39.047Z</time></trkpt><trkpt lat="43.8669383" lon="7.9161467"><ele>479.8</ele><time>2026-04-26T09:20:41.047Z</time></trkpt><trkpt lat="43.8668967" lon="7.9162833"><ele>478.6</ele><time>2026-04-26T09:20:43.047Z</time></trkpt><trkpt lat="43.8668617" lon="7.91643"><ele>477.4</ele><time>2026-04-26T09:20:45.048Z</time></trkpt><trkpt lat="43.866825" lon="7.9165567"><ele>476.2</ele><time>2026-04-26T09:20:47.048Z</time></trkpt><trkpt lat="43.8667783" lon="7.91668"><ele>475.0</ele><time>2026-04-26T09:20:49.047Z</time></trkpt><trkpt lat="43.8667433" lon="7.9167867"><ele>475.00000000000006</ele><time>2026-04-26T09:20:51.047Z</time></trkpt><trkpt lat="43.8667317" lon="7.91688"><ele>475.0</ele><time>2026-04-26T09:20:54.047Z</time></trkpt><trkpt lat="43.8666583" lon="7.9169167"><ele>475.0</ele><time>2026-04-26T09:21:30.048Z</time></trkpt><trkpt lat="43.8665967" lon="7.9168567"><ele>475.0</ele><time>2026-04-26T09:21:32.047Z</time></trkpt><trkpt lat="43.866525" lon="7.916785"><ele>475.00000000000006</ele><time>2026-04-26T09:21:34.047Z</time></trkpt><trkpt lat="43.866465" lon="7.9167067"><ele>475.0</ele><time>2026-04-26T09:21:36.047Z</time></trkpt><trkpt lat="43.866425" lon="7.9166033"><ele>475.0</ele><time>2026-04-26T09:21:38.047Z</time></trkpt><trkpt lat="43.8663833" lon="7.9164967"><ele>475.0</ele><time>2026-04-26T09:21:40.047Z</time></trkpt><trkpt lat="43.86632" lon="7.916405"><ele>475.0</ele><time>2026-04-26T09:21:42.047Z</time></trkpt><trkpt lat="43.866225" lon="7.9163083"><ele>475.0</ele><time>2026-04-26T09:21:44.047Z</time></trkpt><trkpt lat="43.86617" lon="7.91618"><ele>475.0</ele><time>2026-04-26T09:21:46.047Z</time></trkpt><trkpt lat="43.8661117" lon="7.9160533"><ele>475.0</ele><time>2026-04-26T09:21:48.047Z</time></trkpt><trkpt lat="43.8660367" lon="7.915915"><ele>475.0</ele><time>2026-04-26T09:21:50.047Z</time></trkpt><trkpt lat="43.865985" lon="7.915785"><ele>475.0</ele><time>2026-04-26T09:21:52.047Z</time></trkpt><trkpt lat="43.8659383" lon="7.9156783"><ele>475.0</ele><time>2026-04-26T09:21:54.047Z</time></trkpt><trkpt lat="43.8658883" lon="7.91559"><ele>475.0</ele><time>2026-04-26T09:21:56.048Z</time></trkpt><trkpt lat="43.865875" lon="7.9154967"><ele>471.8571428571429</ele><time>2026-04-26T09:21:58.047Z</time></trkpt><trkpt lat="43.8658433" lon="7.9154183"><ele>468.7142857142858</ele><time>2026-04-26T09:22:00.047Z</time></trkpt><trkpt lat="43.86582" lon="7.9153283"><ele>465.57142857142856</ele><time>2026-04-26T09:22:02.047Z</time></trkpt><trkpt lat="43.8657983" lon="7.9152267"><ele>462.42857142857144</ele><time>2026-04-26T09:22:04.047Z</time></trkpt><trkpt lat="43.8657817" lon="7.9151267"><ele>459.2857142857143</ele><time>2026-04-26T09:22:06.048Z</time></trkpt><trkpt lat="43.8657767" lon="7.915035"><ele>456.1428571428571</ele><time>2026-04-26T09:22:08.048Z</time></trkpt><trkpt lat="43.8657767" lon="7.9149367"><ele>452.99999999999994</ele><time>2026-04-26T09:22:10.047Z</time></trkpt><trkpt lat="43.865775" lon="7.9148417"><ele>452.6666666666667</ele><time>2026-04-26T09:22:12.047Z</time></trkpt><trkpt lat="43.8657683" lon="7.9147433"><ele>452.33333333333337</ele><time>2026-04-26T09:22:14.047Z</time></trkpt><trkpt lat="43.8657567" lon="7.9146417"><ele>452.0</ele><time>2026-04-26T09:22:16.047Z</time></trkpt><trkpt lat="43.865745" lon="7.914535"><ele>451.6666666666667</ele><time>2026-04-26T09:22:18.047Z</time></trkpt><trkpt lat="43.8657317" lon="7.9144333"><ele>451.33333333333337</ele><time>2026-04-26T09:22:20.048Z</time></trkpt><trkpt lat="43.86573" lon="7.9143417"><ele>451.0</ele><time>2026-04-26T09:22:22.047Z</time></trkpt><trkpt lat="43.865715" lon="7.9142217"><ele>453.33333333333337</ele><time>2026-04-26T09:22:25.047Z</time></trkpt><trkpt lat="43.8657067" lon="7.9141333"><ele>455.6666666666667</ele><time>2026-04-26T09:22:27.048Z</time></trkpt><trkpt lat="43.8656983" lon="7.9140433"><ele>458.0</ele><time>2026-04-26T09:22:29.047Z</time></trkpt><trkpt lat="43.8656967" lon="7.913955"><ele>460.33333333333337</ele><time>2026-04-26T09:22:31.047Z</time></trkpt><trkpt lat="43.8656867" lon="7.913825"><ele>462.6666666666667</ele><time>2026-04-26T09:22:34.047Z</time></trkpt><trkpt lat="43.8656467" lon="7.9137333"><ele>465.0</ele><time>2026-04-26T09:22:37.047Z</time></trkpt><trkpt lat="43.8655617" lon="7.9136817"><ele>465.0</ele><time>2026-04-26T09:22:40.047Z</time></trkpt><trkpt lat="43.8655" lon="7.913645"><ele>465.0</ele><time>2026-04-26T09:22:42.047Z</time></trkpt><trkpt lat="43.8654367" lon="7.91361"><ele>465.0</ele><time>2026-04-26T09:22:44.047Z</time></trkpt><trkpt lat="43.8653783" lon="7.9135583"><ele>465.0</ele><time>2026-04-26T09:22:47.047Z</time></trkpt><trkpt lat="43.8652983" lon="7.9135217"><ele>465.0</ele><time>2026-04-26T09:22:54.047Z</time></trkpt><trkpt lat="43.8652133" lon="7.913545"><ele>465.0</ele><time>2026-04-26T09:22:56.047Z</time></trkpt><trkpt lat="43.8651167" lon="7.9135833"><ele>462.6666666666667</ele><time>2026-04-26T09:22:58.047Z</time></trkpt><trkpt lat="43.8650317" lon="7.9136017"><ele>460.33333333333337</ele><time>2026-04-26T09:23:00.047Z</time></trkpt><trkpt lat="43.8649617" lon="7.9135533"><ele>458.0</ele><time>2026-04-26T09:23:02.047Z</time></trkpt><trkpt lat="43.8649" lon="7.9134767"><ele>455.6666666666667</ele><time>2026-04-26T09:23:04.047Z</time></trkpt><trkpt lat="43.864825" lon="7.9134017"><ele>453.33333333333337</ele><time>2026-04-26T09:23:06.047Z</time></trkpt><trkpt lat="43.864755" lon="7.9133517"><ele>451.0</ele><time>2026-04-26T09:23:08.047Z</time></trkpt><trkpt lat="43.8646983" lon="7.9133017"><ele>451.0</ele><time>2026-04-26T09:23:10.047Z</time></trkpt><trkpt lat="43.8646383" lon="7.9132667"><ele>451.0</ele><time>2026-04-26T09:23:12.048Z</time></trkpt><trkpt lat="43.864545" lon="7.913255"><ele>451.0</ele><time>2026-04-26T09:23:14.047Z</time></trkpt><trkpt lat="43.864435" lon="7.9132483"><ele>451.0</ele><time>2026-04-26T09:23:16.047Z</time></trkpt><trkpt lat="43.864335" lon="7.9132383"><ele>451.0</ele><time>2026-04-26T09:23:18.047Z</time></trkpt><trkpt lat="43.8642517" lon="7.9132033"><ele>449.33333333333337</ele><time>2026-04-26T09:23:20.048Z</time></trkpt><trkpt lat="43.8641717" lon="7.9131717"><ele>447.6666666666667</ele><time>2026-04-26T09:23:22.047Z</time></trkpt><trkpt lat="43.8640983" lon="7.9131717"><ele>446.0</ele><time>2026-04-26T09:23:24.047Z</time></trkpt><trkpt lat="43.8640217" lon="7.9131733"><ele>444.33333333333337</ele><time>2026-04-26T09:23:26.047Z</time></trkpt><trkpt lat="43.86394" lon="7.91318"><ele>442.6666666666667</ele><time>2026-04-26T09:23:28.047Z</time></trkpt><trkpt lat="43.8638583" lon="7.9131983"><ele>441.0</ele><time>2026-04-26T09:23:30.047Z</time></trkpt><trkpt lat="43.8637667" lon="7.9132367"><ele>441.0</ele><time>2026-04-26T09:23:32.047Z</time></trkpt><trkpt lat="43.8636833" lon="7.9132517"><ele>441.0</ele><time>2026-04-26T09:23:34.047Z</time></trkpt><trkpt lat="43.8636283" lon="7.91315"><ele>441.0</ele><time>2026-04-26T09:23:37.047Z</time></trkpt><trkpt lat="43.8635583" lon="7.9130833"><ele>441.0</ele><time>2026-04-26T09:23:40.047Z</time></trkpt><trkpt lat="43.863495" lon="7.9130267"><ele>441.0</ele><time>2026-04-26T09:23:42.047Z</time></trkpt><trkpt lat="43.8634283" lon="7.912935"><ele>441.0</ele><time>2026-04-26T09:23:44.047Z</time></trkpt><trkpt lat="43.8633767" lon="7.9128433"><ele>439.8333333333333</ele><time>2026-04-26T09:23:46.047Z</time></trkpt><trkpt lat="43.8633033" lon="7.912795"><ele>438.66666666666663</ele><time>2026-04-26T09:23:49.047Z</time></trkpt><trkpt lat="43.8632133" lon="7.912815"><ele>437.5</ele><time>2026-04-26T09:23:52.047Z</time></trkpt><trkpt lat="43.86312" lon="7.9128017"><ele>436.3333333333333</ele><time>2026-04-26T09:23:55.047Z</time></trkpt><trkpt lat="43.8630383" lon="7.9128067"><ele>435.16666666666663</ele><time>2026-04-26T09:23:57.047Z</time></trkpt><trkpt lat="43.8629433" lon="7.9128117"><ele>434.0</ele><time>2026-04-26T09:23:59.047Z</time></trkpt><trkpt lat="43.8628283" lon="7.9128333"><ele>434.0</ele><time>2026-04-26T09:24:01.047Z</time></trkpt><trkpt lat="43.86271" lon="7.91283"><ele>434.0</ele><time>2026-04-26T09:24:03.047Z</time></trkpt><trkpt lat="43.8626" lon="7.9128233"><ele>434.0</ele><time>2026-04-26T09:24:05.047Z</time></trkpt><trkpt lat="43.862485" lon="7.9128117"><ele>434.0</ele><time>2026-04-26T09:24:07.047Z</time></trkpt><trkpt lat="43.8624217" lon="7.9128017"><ele>434.0</ele><time>2026-04-26T09:24:08.047Z</time></trkpt><trkpt lat="43.8623583" lon="7.9128017"><ele>432.99999999999994</ele><time>2026-04-26T09:24:09.047Z</time></trkpt><trkpt lat="43.8622583" lon="7.912825"><ele>432.0</ele><time>2026-04-26T09:24:11.047Z</time></trkpt><trkpt lat="43.8621933" lon="7.9128533"><ele>431.0</ele><time>2026-04-26T09:24:13.047Z</time></trkpt><trkpt lat="43.8621083" lon="7.9128833"><ele>430.0</ele><time>2026-04-26T09:24:16.047Z</time></trkpt><trkpt lat="43.862025" lon="7.9129"><ele>428.99999999999994</ele><time>2026-04-26T09:24:18.047Z</time></trkpt><trkpt lat="43.861935" lon="7.9128933"><ele>428.0</ele><time>2026-04-26T09:24:20.047Z</time></trkpt><trkpt lat="43.8618433" lon="7.912935"><ele>425.59999999999997</ele><time>2026-04-26T09:24:22.047Z</time></trkpt><trkpt lat="43.8617567" lon="7.9130117"><ele>423.19999999999993</ele><time>2026-04-26T09:24:24.047Z</time></trkpt><trkpt lat="43.8616683" lon="7.9130967"><ele>420.8</ele><time>2026-04-26T09:24:26.048Z</time></trkpt><trkpt lat="43.8615933" lon="7.9131467"><ele>418.4</ele><time>2026-04-26T09:24:28.048Z</time></trkpt><trkpt lat="43.861495" lon="7.9131867"><ele>416.0</ele><time>2026-04-26T09:24:31.047Z</time></trkpt><trkpt lat="43.8614033" lon="7.9132033"><ele>415.99999999999994</ele><time>2026-04-26T09:24:33.047Z</time></trkpt><trkpt lat="43.8613233" lon="7.9132233"><ele>416.0</ele><time>2026-04-26T09:24:35.047Z</time></trkpt><trkpt lat="43.86126" lon="7.9132517"><ele>416.0</ele><time>2026-04-26T09:24:37.048Z</time></trkpt><trkpt lat="43.8611983" lon="7.9133133"><ele>416.0</ele><time>2026-04-26T09:24:39.047Z</time></trkpt><trkpt lat="43.8611367" lon="7.9133517"><ele>415.99999999999994</ele><time>2026-04-26T09:24:41.047Z</time></trkpt><trkpt lat="43.8610533" lon="7.9133233"><ele>416.0</ele><time>2026-04-26T09:24:44.047Z</time></trkpt><trkpt lat="43.86098" lon="7.9132933"><ele>415.3333333333333</ele><time>2026-04-26T09:24:46.047Z</time></trkpt><trkpt lat="43.8608933" lon="7.913265"><ele>414.66666666666663</ele><time>2026-04-26T09:24:48.048Z</time></trkpt><trkpt lat="43.8608117" lon="7.91329"><ele>414.0</ele><time>2026-04-26T09:24:51.047Z</time></trkpt><trkpt lat="43.8607217" lon="7.9132583"><ele>413.33333333333337</ele><time>2026-04-26T09:24:54.047Z</time></trkpt><trkpt lat="43.8606383" lon="7.9132767"><ele>412.6666666666667</ele><time>2026-04-26T09:24:56.048Z</time></trkpt><trkpt lat="43.8605617" lon="7.9133117"><ele>412.0</ele><time>2026-04-26T09:24:58.047Z</time></trkpt><trkpt lat="43.860475" lon="7.9132667"><ele>412.0</ele><time>2026-04-26T09:25:01.047Z</time></trkpt><trkpt lat="43.8603717" lon="7.91325"><ele>412.0</ele><time>2026-04-26T09:25:03.047Z</time></trkpt><trkpt lat="43.8602667" lon="7.91325"><ele>412.0</ele><time>2026-04-26T09:25:05.047Z</time></trkpt><trkpt lat="43.86017" lon="7.9132667"><ele>412.0</ele><time>2026-04-26T09:25:07.047Z</time></trkpt><trkpt lat="43.8600917" lon="7.913255"><ele>412.0</ele><time>2026-04-26T09:25:09.047Z</time></trkpt><trkpt lat="43.860005" lon="7.91324"><ele>410.8</ele><time>2026-04-26T09:25:11.047Z</time></trkpt><trkpt lat="43.8599083" lon="7.9132717"><ele>409.6</ele><time>2026-04-26T09:25:13.047Z</time></trkpt><trkpt lat="43.8598133" lon="7.91332"><ele>408.40000000000003</ele><time>2026-04-26T09:25:15.047Z</time></trkpt><trkpt lat="43.8597033" lon="7.913375"><ele>407.20000000000005</ele><time>2026-04-26T09:25:17.047Z</time></trkpt><trkpt lat="43.8596233" lon="7.9134083"><ele>406.0</ele><time>2026-04-26T09:25:19.047Z</time></trkpt><trkpt lat="43.8595417" lon="7.913345"><ele>406.00000000000006</ele><time>2026-04-26T09:25:22.047Z</time></trkpt><trkpt lat="43.8594783" lon="7.9132783"><ele>406.0</ele><time>2026-04-26T09:25:24.047Z</time></trkpt><trkpt lat="43.8593867" lon="7.9132717"><ele>406.0</ele><time>2026-04-26T09:25:26.047Z</time></trkpt><trkpt lat="43.8592983" lon="7.913265"><ele>406.0</ele><time>2026-04-26T09:25:28.047Z</time></trkpt><trkpt lat="43.8592133" lon="7.91324"><ele>406.00000000000006</ele><time>2026-04-26T09:25:30.048Z</time></trkpt><trkpt lat="43.859125" lon="7.9132133"><ele>406.0</ele><time>2026-04-26T09:25:33.047Z</time></trkpt><trkpt lat="43.8590317" lon="7.9132483"><ele>404.1666666666667</ele><time>2026-04-26T09:25:35.047Z</time></trkpt><trkpt lat="43.858965" lon="7.9133267"><ele>402.33333333333337</ele><time>2026-04-26T09:25:37.047Z</time></trkpt><trkpt lat="43.8588983" lon="7.91338"><ele>400.5</ele><time>2026-04-26T09:25:39.047Z</time></trkpt><trkpt lat="43.85882" lon="7.91339"><ele>398.66666666666663</ele><time>2026-04-26T09:25:41.047Z</time></trkpt><trkpt lat="43.858755" lon="7.913425"><ele>396.8333333333333</ele><time>2026-04-26T09:25:43.047Z</time></trkpt><trkpt lat="43.8586433" lon="7.9134833"><ele>395.0</ele><time>2026-04-26T09:25:52.048Z</time></trkpt><trkpt lat="43.85858" lon="7.913515"><ele>392.8333333333333</ele><time>2026-04-26T09:25:54.047Z</time></trkpt><trkpt lat="43.8585133" lon="7.9135583"><ele>390.66666666666663</ele><time>2026-04-26T09:25:56.047Z</time></trkpt><trkpt lat="43.858435" lon="7.9136133"><ele>388.5</ele><time>2026-04-26T09:25:59.047Z</time></trkpt><trkpt lat="43.8583917" lon="7.9136883"><ele>386.3333333333333</ele><time>2026-04-26T09:26:02.048Z</time></trkpt><trkpt lat="43.8584317" lon="7.91382"><ele>384.16666666666663</ele><time>2026-04-26T09:26:44.047Z</time></trkpt><trkpt lat="43.858485" lon="7.9138733"><ele>382.0</ele><time>2026-04-26T09:26:46.047Z</time></trkpt><trkpt lat="43.8585667" lon="7.9139167"><ele>382.0</ele><time>2026-04-26T09:26:48.047Z</time></trkpt><trkpt lat="43.8586517" lon="7.9139633"><ele>382.0</ele><time>2026-04-26T09:26:50.047Z</time></trkpt><trkpt lat="43.85872" lon="7.9140233"><ele>382.0</ele><time>2026-04-26T09:26:52.047Z</time></trkpt><trkpt lat="43.85878" lon="7.9140983"><ele>382.0</ele><time>2026-04-26T09:26:54.047Z</time></trkpt><trkpt lat="43.858815" lon="7.914205"><ele>382.0</ele><time>2026-04-26T09:26:57.047Z</time></trkpt><trkpt lat="43.8588933" lon="7.9142717"><ele>382.0</ele><time>2026-04-26T09:27:00.047Z</time></trkpt><trkpt lat="43.858965" lon="7.91431"><ele>379.8</ele><time>2026-04-26T09:27:02.047Z</time></trkpt><trkpt lat="43.859055" lon="7.9143417"><ele>377.6</ele><time>2026-04-26T09:27:04.048Z</time></trkpt><trkpt lat="43.8591467" lon="7.914375"><ele>375.40000000000003</ele><time>2026-04-26T09:27:06.047Z</time></trkpt><trkpt lat="43.8592333" lon="7.9144033"><ele>373.20000000000005</ele><time>2026-04-26T09:27:08.048Z</time></trkpt><trkpt lat="43.8593317" lon="7.9144517"><ele>371.0</ele><time>2026-04-26T09:27:10.047Z</time></trkpt><trkpt lat="43.8594317" lon="7.9144833"><ele>371.0</ele><time>2026-04-26T09:27:12.047Z</time></trkpt><trkpt lat="43.8595233" lon="7.9145233"><ele>371.0</ele><time>2026-04-26T09:27:14.048Z</time></trkpt><trkpt lat="43.8596217" lon="7.914565"><ele>371.0</ele><time>2026-04-26T09:27:16.047Z</time></trkpt><trkpt lat="43.8597083" lon="7.914595"><ele>371.0</ele><time>2026-04-26T09:27:18.047Z</time></trkpt><trkpt lat="43.859785" lon="7.9146433"><ele>371.0</ele><time>2026-04-26T09:27:20.047Z</time></trkpt><trkpt lat="43.8598833" lon="7.91465"><ele>371.0</ele><time>2026-04-26T09:27:22.047Z</time></trkpt><trkpt lat="43.8599883" lon="7.914655"><ele>371.0</ele><time>2026-04-26T09:27:24.047Z</time></trkpt><trkpt lat="43.8600867" lon="7.91466"><ele>371.0</ele><time>2026-04-26T09:27:26.047Z</time></trkpt><trkpt lat="43.8601767" lon="7.91465"><ele>371.0</ele><time>2026-04-26T09:27:28.047Z</time></trkpt><trkpt lat="43.8602533" lon="7.9146217"><ele>371.0</ele><time>2026-04-26T09:27:30.047Z</time></trkpt><trkpt lat="43.8603233" lon="7.914605"><ele>371.0</ele><time>2026-04-26T09:27:32.047Z</time></trkpt><trkpt lat="43.8603917" lon="7.9145983"><ele>371.6666666666667</ele><time>2026-04-26T09:27:34.048Z</time></trkpt><trkpt lat="43.8604767" lon="7.9145983"><ele>372.33333333333337</ele><time>2026-04-26T09:27:36.047Z</time></trkpt><trkpt lat="43.8605583" lon="7.9146233"><ele>373.0</ele><time>2026-04-26T09:27:38.047Z</time></trkpt><trkpt lat="43.860645" lon="7.9146333"><ele>373.6666666666667</ele><time>2026-04-26T09:27:40.047Z</time></trkpt><trkpt lat="43.8607333" lon="7.9146367"><ele>374.3333333333333</ele><time>2026-04-26T09:27:42.047Z</time></trkpt><trkpt lat="43.860805" lon="7.9146733"><ele>375.0</ele><time>2026-04-26T09:27:44.047Z</time></trkpt><trkpt lat="43.8608617" lon="7.9147467"><ele>375.0</ele><time>2026-04-26T09:27:46.047Z</time></trkpt><trkpt lat="43.860925" lon="7.914785"><ele>375.0</ele><time>2026-04-26T09:27:48.047Z</time></trkpt><trkpt lat="43.8610167" lon="7.9148"><ele>375.0</ele><time>2026-04-26T09:27:51.047Z</time></trkpt><trkpt lat="43.8611017" lon="7.9148233"><ele>375.0</ele><time>2026-04-26T09:27:54.047Z</time></trkpt><trkpt lat="43.8611833" lon="7.9148833"><ele>375.0</ele><time>2026-04-26T09:28:12.047Z</time></trkpt><trkpt lat="43.8612417" lon="7.914925"><ele>375.0</ele><time>2026-04-26T09:28:16.047Z</time></trkpt><trkpt lat="43.8613183" lon="7.9149533"><ele>373.5</ele><time>2026-04-26T09:28:20.047Z</time></trkpt><trkpt lat="43.8614" lon="7.9150017"><ele>372.0</ele><time>2026-04-26T09:28:23.047Z</time></trkpt><trkpt lat="43.86147" lon="7.9150683"><ele>370.5</ele><time>2026-04-26T09:28:26.047Z</time></trkpt><trkpt lat="43.8615383" lon="7.9151233"><ele>369.0</ele><time>2026-04-26T09:28:29.048Z</time></trkpt><trkpt lat="43.8616167" lon="7.9151783"><ele>367.5</ele><time>2026-04-26T09:28:32.047Z</time></trkpt><trkpt lat="43.8616933" lon="7.9152317"><ele>366.0</ele><time>2026-04-26T09:28:35.047Z</time></trkpt><trkpt lat="43.8617667" lon="7.9152883"><ele>367.8571428571429</ele><time>2026-04-26T09:28:38.047Z</time></trkpt><trkpt lat="43.8618317" lon="7.9153367"><ele>369.7142857142857</ele><time>2026-04-26T09:28:41.047Z</time></trkpt><trkpt lat="43.861895" lon="7.91539"><ele>371.57142857142856</ele><time>2026-04-26T09:28:44.047Z</time></trkpt><trkpt lat="43.8619483" lon="7.9154383"><ele>373.42857142857144</ele><time>2026-04-26T09:28:46.047Z</time></trkpt><trkpt lat="43.862025" lon="7.9154867"><ele>375.2857142857143</ele><time>2026-04-26T09:28:49.046Z</time></trkpt><trkpt lat="43.8620833" lon="7.9155217"><ele>377.14285714285717</ele><time>2026-04-26T09:28:52.046Z</time></trkpt><trkpt lat="43.8621367" lon="7.9155683"><ele>379.0</ele><time>2026-04-26T09:28:55.046Z</time></trkpt><trkpt lat="43.8622083" lon="7.9156233"><ele>379.0</ele><time>2026-04-26T09:28:59.047Z</time></trkpt><trkpt lat="43.862265" lon="7.9156717"><ele>379.0</ele><time>2026-04-26T09:29:02.047Z</time></trkpt><trkpt lat="43.8623317" lon="7.9157167"><ele>379.0</ele><time>2026-04-26T09:29:05.047Z</time></trkpt><trkpt lat="43.8624033" lon="7.9157933"><ele>379.0</ele><time>2026-04-26T09:29:08.048Z</time></trkpt><trkpt lat="43.86247" lon="7.9158733"><ele>379.0</ele><time>2026-04-26T09:29:11.047Z</time></trkpt><trkpt lat="43.86253" lon="7.9159467"><ele>379.0</ele><time>2026-04-26T09:29:14.049Z</time></trkpt><trkpt lat="43.862565" lon="7.9160217"><ele>380.42857142857144</ele><time>2026-04-26T09:29:17.047Z</time></trkpt><trkpt lat="43.862595" lon="7.9161133"><ele>381.8571428571429</ele><time>2026-04-26T09:29:20.047Z</time></trkpt><trkpt lat="43.8626383" lon="7.9161883"><ele>383.28571428571433</ele><time>2026-04-26T09:29:23.047Z</time></trkpt><trkpt lat="43.862705" lon="7.916245"><ele>384.7142857142857</ele><time>2026-04-26T09:29:26.047Z</time></trkpt><trkpt lat="43.8627517" lon="7.9163217"><ele>386.1428571428571</ele><time>2026-04-26T09:29:33.047Z</time></trkpt><trkpt lat="43.8627083" lon="7.916405"><ele>387.5714285714286</ele><time>2026-04-26T09:29:39.047Z</time></trkpt><trkpt lat="43.8626967" lon="7.9165117"><ele>389.0</ele><time>2026-04-26T09:29:45.047Z</time></trkpt><trkpt lat="43.86268" lon="7.9166133"><ele>389.0</ele><time>2026-04-26T09:29:50.047Z</time></trkpt><trkpt lat="43.8626583" lon="7.9167117"><ele>389.0</ele><time>2026-04-26T09:29:54.049Z</time></trkpt><trkpt lat="43.86265" lon="7.9168067"><ele>389.0</ele><time>2026-04-26T09:29:58.047Z</time></trkpt><trkpt lat="43.8626683" lon="7.9168967"><ele>389.0</ele><time>2026-04-26T09:30:01.047Z</time></trkpt><trkpt lat="43.8627133" lon="7.916965"><ele>389.0</ele><time>2026-04-26T09:30:06.047Z</time></trkpt><trkpt lat="43.8627683" lon="7.9168933"><ele>389.0</ele><time>2026-04-26T09:30:14.047Z</time></trkpt><trkpt lat="43.8628233" lon="7.9168483"><ele>389.0</ele><time>2026-04-26T09:30:17.047Z</time></trkpt><trkpt lat="43.8628683" lon="7.9169367"><ele>390.16666666666663</ele><time>2026-04-26T09:30:24.047Z</time></trkpt><trkpt lat="43.8628917" lon="7.91704"><ele>391.3333333333333</ele><time>2026-04-26T09:30:30.047Z</time></trkpt><trkpt lat="43.8629067" lon="7.91713"><ele>392.5</ele><time>2026-04-26T09:30:34.048Z</time></trkpt><trkpt lat="43.8629167" lon="7.91724"><ele>393.66666666666663</ele><time>2026-04-26T09:30:38.047Z</time></trkpt><trkpt lat="43.8629367" lon="7.91734"><ele>394.8333333333333</ele><time>2026-04-26T09:30:41.047Z</time></trkpt><trkpt lat="43.8629117" lon="7.9174683"><ele>396.0</ele><time>2026-04-26T09:30:44.047Z</time></trkpt><trkpt lat="43.8629117" lon="7.91758"><ele>397.6666666666667</ele><time>2026-04-26T09:30:47.047Z</time></trkpt><trkpt lat="43.8629367" lon="7.9176917"><ele>399.33333333333337</ele><time>2026-04-26T09:31:03.047Z</time></trkpt><trkpt lat="43.8628667" lon="7.9177433"><ele>401.0</ele><time>2026-04-26T09:31:08.047Z</time></trkpt><trkpt lat="43.8628067" lon="7.9178167"><ele>402.6666666666667</ele><time>2026-04-26T09:31:11.047Z</time></trkpt><trkpt lat="43.86275" lon="7.917885"><ele>404.33333333333337</ele><time>2026-04-26T09:31:14.048Z</time></trkpt><trkpt lat="43.8626983" lon="7.9179667"><ele>406.0</ele><time>2026-04-26T09:31:17.047Z</time></trkpt><trkpt lat="43.8626533" lon="7.918065"><ele>406.00000000000006</ele><time>2026-04-26T09:31:21.047Z</time></trkpt><trkpt lat="43.8626183" lon="7.9181583"><ele>406.0</ele><time>2026-04-26T09:31:24.047Z</time></trkpt><trkpt lat="43.8625883" lon="7.918255"><ele>406.0</ele><time>2026-04-26T09:31:28.048Z</time></trkpt><trkpt lat="43.8625633" lon="7.9183683"><ele>406.0</ele><time>2026-04-26T09:31:31.047Z</time></trkpt><trkpt lat="43.8625317" lon="7.9184617"><ele>406.00000000000006</ele><time>2026-04-26T09:31:34.047Z</time></trkpt><trkpt lat="43.86246" lon="7.918525"><ele>406.0</ele><time>2026-04-26T09:31:37.047Z</time></trkpt><trkpt lat="43.862375" lon="7.9185633"><ele>406.42857142857144</ele><time>2026-04-26T09:31:40.047Z</time></trkpt><trkpt lat="43.862295" lon="7.91855"><ele>406.8571428571429</ele><time>2026-04-26T09:31:43.047Z</time></trkpt><trkpt lat="43.8622383" lon="7.91859"><ele>407.2857142857143</ele><time>2026-04-26T09:31:45.047Z</time></trkpt><trkpt lat="43.8621633" lon="7.9186333"><ele>407.7142857142857</ele><time>2026-04-26T09:31:48.047Z</time></trkpt><trkpt lat="43.8621017" lon="7.9186783"><ele>408.14285714285717</ele><time>2026-04-26T09:31:52.047Z</time></trkpt><trkpt lat="43.862035" lon="7.9187267"><ele>408.57142857142856</ele><time>2026-04-26T09:31:57.047Z</time></trkpt><trkpt lat="43.8619833" lon="7.9187817"><ele>409.0</ele><time>2026-04-26T09:32:11.047Z</time></trkpt><trkpt lat="43.8619333" lon="7.9188433"><ele>409.0</ele><time>2026-04-26T09:32:24.047Z</time></trkpt><trkpt lat="43.86188" lon="7.91889"><ele>409.0</ele><time>2026-04-26T09:32:28.048Z</time></trkpt><trkpt lat="43.8618433" lon="7.918985"><ele>409.0</ele><time>2026-04-26T09:32:32.047Z</time></trkpt><trkpt lat="43.8618133" lon="7.9190983"><ele>409.0</ele><time>2026-04-26T09:32:36.047Z</time></trkpt><trkpt lat="43.86178" lon="7.91919"><ele>409.0</ele><time>2026-04-26T09:32:39.047Z</time></trkpt><trkpt lat="43.8617533" lon="7.9192717"><ele>409.0</ele><time>2026-04-26T09:32:42.047Z</time></trkpt><trkpt lat="43.861705" lon="7.9193533"><ele>409.0</ele><time>2026-04-26T09:32:46.047Z</time></trkpt><trkpt lat="43.8616833" lon="7.9194567"><ele>408.1666666666667</ele><time>2026-04-26T09:32:50.047Z</time></trkpt><trkpt lat="43.861665" lon="7.9195483"><ele>407.33333333333337</ele><time>2026-04-26T09:32:54.047Z</time></trkpt><trkpt lat="43.86165" lon="7.9196633"><ele>406.5</ele><time>2026-04-26T09:32:58.048Z</time></trkpt><trkpt lat="43.8616383" lon="7.91975"><ele>405.66666666666663</ele><time>2026-04-26T09:33:01.047Z</time></trkpt><trkpt lat="43.861655" lon="7.919865"><ele>404.8333333333333</ele><time>2026-04-26T09:33:04.047Z</time></trkpt><trkpt lat="43.8616733" lon="7.9199767"><ele>404.0</ele><time>2026-04-26T09:33:07.047Z</time></trkpt><trkpt lat="43.8616833" lon="7.920095"><ele>403.99999999999994</ele><time>2026-04-26T09:33:10.047Z</time></trkpt><trkpt lat="43.8616867" lon="7.9202183"><ele>404.0</ele><time>2026-04-26T09:33:13.047Z</time></trkpt><trkpt lat="43.8616867" lon="7.92031"><ele>404.0</ele><time>2026-04-26T09:33:15.047Z</time></trkpt><trkpt lat="43.8616683" lon="7.920435"><ele>404.0</ele><time>2026-04-26T09:33:18.047Z</time></trkpt><trkpt lat="43.8616483" lon="7.92055"><ele>403.99999999999994</ele><time>2026-04-26T09:33:21.047Z</time></trkpt><trkpt lat="43.8616017" lon="7.9206583"><ele>404.0</ele><time>2026-04-26T09:33:24.047Z</time></trkpt><trkpt lat="43.861575" lon="7.9207417"><ele>403.99999999999994</ele><time>2026-04-26T09:33:26.047Z</time></trkpt><trkpt lat="43.861535" lon="7.9208183"><ele>404.0</ele><time>2026-04-26T09:33:28.047Z</time></trkpt><trkpt lat="43.8614917" lon="7.9209"><ele>404.0</ele><time>2026-04-26T09:33:30.047Z</time></trkpt><trkpt lat="43.8614567" lon="7.9209933"><ele>404.0</ele><time>2026-04-26T09:33:32.047Z</time></trkpt><trkpt lat="43.8614333" lon="7.9211117"><ele>403.99999999999994</ele><time>2026-04-26T09:33:35.047Z</time></trkpt><trkpt lat="43.8614183" lon="7.9212317"><ele>404.0</ele><time>2026-04-26T09:33:38.047Z</time></trkpt><trkpt lat="43.8614067" lon="7.92134"><ele>404.49999999999994</ele><time>2026-04-26T09:33:41.047Z</time></trkpt><trkpt lat="43.8613783" lon="7.9214583"><ele>405.0</ele><time>2026-04-26T09:33:44.047Z</time></trkpt><trkpt lat="43.8613433" lon="7.9215717"><ele>405.5</ele><time>2026-04-26T09:33:47.047Z</time></trkpt><trkpt lat="43.8612933" lon="7.9216667"><ele>406.0</ele><time>2026-04-26T09:33:50.047Z</time></trkpt><trkpt lat="43.8612233" lon="7.9217433"><ele>406.49999999999994</ele><time>2026-04-26T09:33:53.047Z</time></trkpt><trkpt lat="43.861145" lon="7.9217767"><ele>407.0</ele><time>2026-04-26T09:33:56.047Z</time></trkpt><trkpt lat="43.8610633" lon="7.9217933"><ele>406.99999999999994</ele><time>2026-04-26T09:33:59.047Z</time></trkpt><trkpt lat="43.86099" lon="7.92183"><ele>407.0</ele><time>2026-04-26T09:34:02.047Z</time></trkpt><trkpt lat="43.860925" lon="7.9218983"><ele>407.0</ele><time>2026-04-26T09:34:06.047Z</time></trkpt><trkpt lat="43.860855" lon="7.9219533"><ele>407.0</ele><time>2026-04-26T09:34:09.047Z</time></trkpt><trkpt lat="43.86079" lon="7.92199"><ele>406.99999999999994</ele><time>2026-04-26T09:34:12.047Z</time></trkpt><trkpt lat="43.8607133" lon="7.9220383"><ele>407.0</ele><time>2026-04-26T09:34:16.047Z</time></trkpt><trkpt lat="43.8606433" lon="7.922105"><ele>406.28571428571433</ele><time>2026-04-26T09:34:19.048Z</time></trkpt><trkpt lat="43.8605867" lon="7.9221433"><ele>405.57142857142856</ele><time>2026-04-26T09:34:22.047Z</time></trkpt><trkpt lat="43.860515" lon="7.922185"><ele>404.8571428571429</ele><time>2026-04-26T09:34:26.047Z</time></trkpt><trkpt lat="43.86057" lon="7.922255"><ele>404.14285714285717</ele><time>2026-04-26T10:07:15.047Z</time></trkpt><trkpt lat="43.86062" lon="7.9223117"><ele>403.42857142857144</ele><time>2026-04-26T10:07:24.047Z</time></trkpt><trkpt lat="43.8606754" lon="7.9223583"><ele>402.7142857142857</ele><time>2026-04-26T10:09:21.224Z</time></trkpt><trkpt lat="43.8607241" lon="7.9224149"><ele>402.0</ele><time>2026-04-26T10:09:41.39Z</time></trkpt><trkpt lat="43.8607935" lon="7.9224522"><ele>402.0</ele><time>2026-04-26T10:11:53.32Z</time></trkpt><trkpt lat="43.8608614" lon="7.9224571"><ele>402.0</ele><time>2026-04-26T10:11:59.271Z</time></trkpt><trkpt lat="43.8609217" lon="7.9225059"><ele>402.0</ele><time>2026-04-26T10:12:06.588Z</time></trkpt><trkpt lat="43.8609089" lon="7.9224199"><ele>402.0</ele><time>2026-04-26T10:12:25.351Z</time></trkpt><trkpt lat="43.8608483" lon="7.9223702"><ele>402.0</ele><time>2026-04-26T10:12:31.348Z</time></trkpt><trkpt lat="43.8607864" lon="7.9223153"><ele>402.0</ele><time>2026-04-26T10:12:38.305Z</time></trkpt><trkpt lat="43.8607116" lon="7.922322"><ele>402.0</ele><time>2026-04-26T10:12:44.226Z</time></trkpt><trkpt lat="43.8606526" lon="7.9222742"><ele>402.0</ele><time>2026-04-26T10:12:51.26Z</time></trkpt><trkpt lat="43.8605873" lon="7.9222405"><ele>402.0</ele><time>2026-04-26T10:13:03.375Z</time></trkpt><trkpt lat="43.860533" lon="7.9221906"><ele>402.0</ele><time>2026-04-26T10:13:13.331Z</time></trkpt><trkpt lat="43.8604333" lon="7.9221367"><ele>402.0</ele><time>2026-04-26T10:13:36.047Z</time></trkpt><trkpt lat="43.86037" lon="7.9221117"><ele>402.0</ele><time>2026-04-26T10:13:39.047Z</time></trkpt><trkpt lat="43.860305" lon="7.9220883"><ele>402.0</ele><time>2026-04-26T10:13:41.047Z</time></trkpt><trkpt lat="43.86024" lon="7.9220533"><ele>402.0</ele><time>2026-04-26T10:13:43.047Z</time></trkpt><trkpt lat="43.8601767" lon="7.9220033"><ele>402.0</ele><time>2026-04-26T10:13:45.047Z</time></trkpt><trkpt lat="43.8601183" lon="7.9219633"><ele>402.0</ele><time>2026-04-26T10:13:47.047Z</time></trkpt><trkpt lat="43.8600483" lon="7.9219367"><ele>402.0</ele><time>2026-04-26T10:13:50.047Z</time></trkpt><trkpt lat="43.8599817" lon="7.921945"><ele>402.0</ele><time>2026-04-26T10:13:53.048Z</time></trkpt><trkpt lat="43.85996" lon="7.9220333"><ele>402.0</ele><time>2026-04-26T10:13:56.047Z</time></trkpt><trkpt lat="43.8599883" lon="7.9221383"><ele>402.0</ele><time>2026-04-26T10:14:00.047Z</time></trkpt><trkpt lat="43.8600267" lon="7.922215"><ele>402.0</ele><time>2026-04-26T10:14:03.047Z</time></trkpt><trkpt lat="43.8600667" lon="7.9222867"><ele>402.0</ele><time>2026-04-26T10:14:06.047Z</time></trkpt><trkpt lat="43.86011" lon="7.9223517"><ele>402.0</ele><time>2026-04-26T10:14:09.047Z</time></trkpt><trkpt lat="43.8601617" lon="7.922425"><ele>402.0</ele><time>2026-04-26T10:14:13.048Z</time></trkpt><trkpt lat="43.8602083" lon="7.9224867"><ele>402.0</ele><time>2026-04-26T10:14:16.047Z</time></trkpt><trkpt lat="43.8602533" lon="7.9225533"><ele>402.0</ele><time>2026-04-26T10:14:19.047Z</time></trkpt><trkpt lat="43.860305" lon="7.9226267"><ele>402.0</ele><time>2026-04-26T10:14:22.048Z</time></trkpt><trkpt lat="43.8603617" lon="7.9227"><ele>402.0</ele><time>2026-04-26T10:14:25.047Z</time></trkpt><trkpt lat="43.8604167" lon="7.9227833"><ele>401.85714285714283</ele><time>2026-04-26T10:14:28.048Z</time></trkpt><trkpt lat="43.860465" lon="7.9228517"><ele>401.7142857142857</ele><time>2026-04-26T10:14:31.047Z</time></trkpt><trkpt lat="43.86051" lon="7.9229467"><ele>401.57142857142856</ele><time>2026-04-26T10:14:35.047Z</time></trkpt><trkpt lat="43.8605317" lon="7.92304"><ele>401.42857142857144</ele><time>2026-04-26T10:14:38.047Z</time></trkpt><trkpt lat="43.860535" lon="7.9231367"><ele>401.28571428571433</ele><time>2026-04-26T10:14:40.048Z</time></trkpt><trkpt lat="43.860545" lon="7.9232367"><ele>401.14285714285717</ele><time>2026-04-26T10:14:42.047Z</time></trkpt><trkpt lat="43.8605517" lon="7.9233383"><ele>401.0</ele><time>2026-04-26T10:14:44.047Z</time></trkpt><trkpt lat="43.8605383" lon="7.9234483"><ele>400.7142857142857</ele><time>2026-04-26T10:14:46.047Z</time></trkpt><trkpt lat="43.8605133" lon="7.923555"><ele>400.42857142857144</ele><time>2026-04-26T10:14:48.048Z</time></trkpt><trkpt lat="43.8604833" lon="7.9236467"><ele>400.1428571428571</ele><time>2026-04-26T10:14:50.047Z</time></trkpt><trkpt lat="43.8604617" lon="7.9237333"><ele>399.8571428571429</ele><time>2026-04-26T10:14:52.048Z</time></trkpt><trkpt lat="43.8604333" lon="7.9238317"><ele>399.57142857142856</ele><time>2026-04-26T10:14:55.047Z</time></trkpt><trkpt lat="43.8604383" lon="7.9239367"><ele>399.2857142857143</ele><time>2026-04-26T10:14:58.047Z</time></trkpt><trkpt lat="43.8604433" lon="7.9240433"><ele>399.0</ele><time>2026-04-26T10:15:01.047Z</time></trkpt><trkpt lat="43.8604467" lon="7.9241483"><ele>397.57142857142856</ele><time>2026-04-26T10:15:04.047Z</time></trkpt><trkpt lat="43.86045" lon="7.9242467"><ele>396.1428571428571</ele><time>2026-04-26T10:15:07.047Z</time></trkpt><trkpt lat="43.8604467" lon="7.924335"><ele>394.7142857142857</ele><time>2026-04-26T10:15:09.047Z</time></trkpt><trkpt lat="43.8604183" lon="7.9244517"><ele>393.2857142857143</ele><time>2026-04-26T10:15:12.047Z</time></trkpt><trkpt lat="43.86038" lon="7.924555"><ele>391.85714285714283</ele><time>2026-04-26T10:15:15.047Z</time></trkpt><trkpt lat="43.8603433" lon="7.9246367"><ele>390.42857142857144</ele><time>2026-04-26T10:15:18.047Z</time></trkpt><trkpt lat="43.8603083" lon="7.924715"><ele>389.0</ele><time>2026-04-26T10:15:22.047Z</time></trkpt><trkpt lat="43.8602783" lon="7.924815"><ele>388.99999999999994</ele><time>2026-04-26T10:15:26.047Z</time></trkpt><trkpt lat="43.8602233" lon="7.9248967"><ele>389.0</ele><time>2026-04-26T10:15:30.047Z</time></trkpt><trkpt lat="43.8601983" lon="7.9249817"><ele>389.0</ele><time>2026-04-26T10:15:33.047Z</time></trkpt><trkpt lat="43.8601783" lon="7.9250933"><ele>389.0</ele><time>2026-04-26T10:15:36.047Z</time></trkpt><trkpt lat="43.8601517" lon="7.9252183"><ele>388.99999999999994</ele><time>2026-04-26T10:15:39.047Z</time></trkpt><trkpt lat="43.8601367" lon="7.9253117"><ele>389.0</ele><time>2026-04-26T10:15:41.047Z</time></trkpt><trkpt lat="43.860115" lon="7.9253983"><ele>388.99999999999994</ele><time>2026-04-26T10:15:43.047Z</time></trkpt><trkpt lat="43.8600917" lon="7.9255283"><ele>389.0</ele><time>2026-04-26T10:15:46.047Z</time></trkpt><trkpt lat="43.8600733" lon="7.9256317"><ele>389.0</ele><time>2026-04-26T10:15:48.047Z</time></trkpt><trkpt lat="43.860055" lon="7.9257433"><ele>389.0</ele><time>2026-04-26T10:15:50.047Z</time></trkpt><trkpt lat="43.860045" lon="7.9258617"><ele>388.99999999999994</ele><time>2026-04-26T10:15:52.048Z</time></trkpt><trkpt lat="43.8600367" lon="7.9259833"><ele>389.0</ele><time>2026-04-26T10:15:54.047Z</time></trkpt><trkpt lat="43.86" lon="7.926095"><ele>389.0</ele><time>2026-04-26T10:15:56.047Z</time></trkpt><trkpt lat="43.85991" lon="7.9262317"><ele>389.0</ele><time>2026-04-26T10:15:59.047Z</time></trkpt><trkpt lat="43.8598683" lon="7.926305"><ele>389.0</ele><time>2026-04-26T10:16:01.047Z</time></trkpt><trkpt lat="43.8598383" lon="7.9263917"><ele>389.0</ele><time>2026-04-26T10:16:05.047Z</time></trkpt><trkpt lat="43.8597483" lon="7.9264517"><ele>389.0</ele><time>2026-04-26T10:29:32.047Z</time></trkpt><trkpt lat="43.8598262" lon="7.9264018"><ele>388.99999999999994</ele><time>2026-04-26T10:31:12.352Z</time></trkpt><trkpt lat="43.8597399" lon="7.9263156"><ele>389.0</ele><time>2026-04-26T10:31:35.336Z</time></trkpt><trkpt lat="43.85965" lon="7.9262"><ele>389.0</ele><time>2026-04-26T10:31:38.047Z</time></trkpt><trkpt lat="43.8596083" lon="7.9261167"><ele>389.0</ele><time>2026-04-26T10:31:41.047Z</time></trkpt><trkpt lat="43.85955" lon="7.9260633"><ele>388.99999999999994</ele><time>2026-04-26T10:31:43.047Z</time></trkpt><trkpt lat="43.8594967" lon="7.9259883"><ele>389.0</ele><time>2026-04-26T10:31:45.048Z</time></trkpt><trkpt lat="43.8594533" lon="7.9258833"><ele>389.2</ele><time>2026-04-26T10:31:47.047Z</time></trkpt><trkpt lat="43.8594" lon="7.92576"><ele>389.4</ele><time>2026-04-26T10:31:49.048Z</time></trkpt><trkpt lat="43.8593467" lon="7.9256417"><ele>389.6</ele><time>2026-04-26T10:31:51.047Z</time></trkpt><trkpt lat="43.8593" lon="7.9255217"><ele>389.8</ele><time>2026-04-26T10:31:53.047Z</time></trkpt><trkpt lat="43.8592867" lon="7.92539"><ele>390.0</ele><time>2026-04-26T10:31:55.047Z</time></trkpt><trkpt lat="43.8592467" lon="7.9254667"><ele>388.2857142857143</ele><time>2026-04-26T10:32:01.047Z</time></trkpt><trkpt lat="43.8592283" lon="7.9253717"><ele>386.57142857142856</ele><time>2026-04-26T10:32:05.047Z</time></trkpt><trkpt lat="43.8591817" lon="7.9254417"><ele>384.8571428571429</ele><time>2026-04-26T10:32:11.047Z</time></trkpt><trkpt lat="43.8591383" lon="7.9253733"><ele>383.1428571428571</ele><time>2026-04-26T10:32:16.047Z</time></trkpt><trkpt lat="43.8591133" lon="7.9252617"><ele>381.42857142857144</ele><time>2026-04-26T10:32:18.047Z</time></trkpt><trkpt lat="43.859085" lon="7.9251667"><ele>379.7142857142857</ele><time>2026-04-26T10:32:20.048Z</time></trkpt><trkpt lat="43.8590567" lon="7.925075"><ele>378.0</ele><time>2026-04-26T10:32:22.047Z</time></trkpt><trkpt lat="43.859025" lon="7.9249783"><ele>378.0</ele><time>2026-04-26T10:32:24.047Z</time></trkpt><trkpt lat="43.8589767" lon="7.9250467"><ele>378.0</ele><time>2026-04-26T10:32:27.047Z</time></trkpt><trkpt lat="43.8589833" lon="7.9251667"><ele>378.0</ele><time>2026-04-26T10:32:29.047Z</time></trkpt><trkpt lat="43.8589717" lon="7.925295"><ele>378.0</ele><time>2026-04-26T10:32:31.047Z</time></trkpt><trkpt lat="43.858955" lon="7.9254067"><ele>378.0</ele><time>2026-04-26T10:32:33.047Z</time></trkpt><trkpt lat="43.8589417" lon="7.92552"><ele>378.0</ele><time>2026-04-26T10:32:35.047Z</time></trkpt><trkpt lat="43.8589517" lon="7.925645"><ele>378.0</ele><time>2026-04-26T10:32:37.048Z</time></trkpt><trkpt lat="43.8589117" lon="7.9257217"><ele>378.0</ele><time>2026-04-26T10:32:39.047Z</time></trkpt><trkpt lat="43.8588383" lon="7.9257467"><ele>378.0</ele><time>2026-04-26T10:32:41.048Z</time></trkpt><trkpt lat="43.858765" lon="7.925735"><ele>378.0</ele><time>2026-04-26T10:32:43.047Z</time></trkpt><trkpt lat="43.8587033" lon="7.9257017"><ele>378.0</ele><time>2026-04-26T10:32:45.048Z</time></trkpt><trkpt lat="43.858635" lon="7.92567"><ele>378.0</ele><time>2026-04-26T10:32:47.048Z</time></trkpt><trkpt lat="43.858555" lon="7.9256517"><ele>378.0</ele><time>2026-04-26T10:32:49.048Z</time></trkpt><trkpt lat="43.85847" lon="7.9256317"><ele>377.0</ele><time>2026-04-26T10:32:51.048Z</time></trkpt><trkpt lat="43.85839" lon="7.92558"><ele>376.0</ele><time>2026-04-26T10:32:53.047Z</time></trkpt><trkpt lat="43.8583117" lon="7.9255133"><ele>375.0</ele><time>2026-04-26T10:32:55.047Z</time></trkpt><trkpt lat="43.8582283" lon="7.9254667"><ele>374.0</ele><time>2026-04-26T10:32:57.047Z</time></trkpt><trkpt lat="43.858145" lon="7.9254233"><ele>373.0</ele><time>2026-04-26T10:32:59.047Z</time></trkpt><trkpt lat="43.858055" lon="7.9253833"><ele>373.0</ele><time>2026-04-26T10:33:01.047Z</time></trkpt><trkpt lat="43.8579633" lon="7.92536"><ele>373.0</ele><time>2026-04-26T10:33:03.047Z</time></trkpt><trkpt lat="43.85788" lon="7.9253467"><ele>373.0</ele><time>2026-04-26T10:33:05.047Z</time></trkpt><trkpt lat="43.8578117" lon="7.9252733"><ele>373.0</ele><time>2026-04-26T10:33:08.047Z</time></trkpt><trkpt lat="43.8577617" lon="7.92521"><ele>373.0</ele><time>2026-04-26T10:33:10.047Z</time></trkpt><trkpt lat="43.8576983" lon="7.9251367"><ele>373.0</ele><time>2026-04-26T10:33:12.047Z</time></trkpt><trkpt lat="43.85762" lon="7.9250783"><ele>370.8333333333333</ele><time>2026-04-26T10:33:14.047Z</time></trkpt><trkpt lat="43.8575417" lon="7.9250567"><ele>368.66666666666663</ele><time>2026-04-26T10:33:16.047Z</time></trkpt><trkpt lat="43.8574733" lon="7.9250433"><ele>366.5</ele><time>2026-04-26T10:33:18.047Z</time></trkpt><trkpt lat="43.85739" lon="7.9250033"><ele>364.3333333333333</ele><time>2026-04-26T10:33:20.047Z</time></trkpt><trkpt lat="43.857305" lon="7.9249817"><ele>362.1666666666667</ele><time>2026-04-26T10:33:22.047Z</time></trkpt><trkpt lat="43.8572167" lon="7.9249483"><ele>360.0</ele><time>2026-04-26T10:33:24.047Z</time></trkpt><trkpt lat="43.8571233" lon="7.9249033"><ele>360.0</ele><time>2026-04-26T10:33:26.047Z</time></trkpt><trkpt lat="43.8570283" lon="7.92487"><ele>360.0</ele><time>2026-04-26T10:33:28.047Z</time></trkpt><trkpt lat="43.8569367" lon="7.924855"><ele>360.0</ele><time>2026-04-26T10:33:30.047Z</time></trkpt><trkpt lat="43.8568467" lon="7.9248533"><ele>360.0</ele><time>2026-04-26T10:33:32.047Z</time></trkpt><trkpt lat="43.8567567" lon="7.9248567"><ele>360.0</ele><time>2026-04-26T10:33:34.047Z</time></trkpt><trkpt lat="43.8566767" lon="7.9248667"><ele>359.8</ele><time>2026-04-26T10:33:36.047Z</time></trkpt><trkpt lat="43.8565867" lon="7.92488"><ele>359.6</ele><time>2026-04-26T10:33:38.047Z</time></trkpt><trkpt lat="43.8564883" lon="7.9248867"><ele>359.4</ele><time>2026-04-26T10:33:40.047Z</time></trkpt><trkpt lat="43.856385" lon="7.9248683"><ele>359.2</ele><time>2026-04-26T10:33:42.047Z</time></trkpt><trkpt lat="43.856275" lon="7.9248467"><ele>359.0</ele><time>2026-04-26T10:33:44.047Z</time></trkpt><trkpt lat="43.8561583" lon="7.924805"><ele>359.0</ele><time>2026-04-26T10:33:46.047Z</time></trkpt><trkpt lat="43.85605" lon="7.9247633"><ele>359.0</ele><time>2026-04-26T10:33:48.047Z</time></trkpt><trkpt lat="43.8559433" lon="7.9247317"><ele>359.0</ele><time>2026-04-26T10:33:50.047Z</time></trkpt><trkpt lat="43.8558417" lon="7.924695"><ele>359.0</ele><time>2026-04-26T10:33:52.047Z</time></trkpt><trkpt lat="43.8557333" lon="7.92468"><ele>359.0</ele><time>2026-04-26T10:33:54.047Z</time></trkpt><trkpt lat="43.85562" lon="7.9246667"><ele>358.0</ele><time>2026-04-26T10:33:56.047Z</time></trkpt><trkpt lat="43.855505" lon="7.92467"><ele>357.0</ele><time>2026-04-26T10:33:58.047Z</time></trkpt><trkpt lat="43.8554417" lon="7.9246717"><ele>356.0</ele><time>2026-04-26T10:33:59.047Z</time></trkpt><trkpt lat="43.8553433" lon="7.92469"><ele>355.0</ele><time>2026-04-26T10:34:01.047Z</time></trkpt><trkpt lat="43.85526" lon="7.9247117"><ele>354.0</ele><time>2026-04-26T10:34:03.047Z</time></trkpt><trkpt lat="43.8551867" lon="7.924735"><ele>353.0</ele><time>2026-04-26T10:34:05.047Z</time></trkpt><trkpt lat="43.8551233" lon="7.9247117"><ele>351.1428571428571</ele><time>2026-04-26T10:34:08.047Z</time></trkpt><trkpt lat="43.85506" lon="7.92469"><ele>349.28571428571433</ele><time>2026-04-26T10:34:11.047Z</time></trkpt><trkpt lat="43.8549933" lon="7.92461"><ele>347.42857142857144</ele><time>2026-04-26T10:34:45.048Z</time></trkpt><trkpt lat="43.854915" lon="7.9246233"><ele>345.57142857142856</ele><time>2026-04-26T10:34:48.047Z</time></trkpt><trkpt lat="43.8548617" lon="7.9246733"><ele>343.71428571428567</ele><time>2026-04-26T10:34:50.048Z</time></trkpt><trkpt lat="43.8547933" lon="7.92468"><ele>341.8571428571429</ele><time>2026-04-26T10:34:53.047Z</time></trkpt><trkpt lat="43.8547217" lon="7.924665"><ele>340.0</ele><time>2026-04-26T10:34:56.047Z</time></trkpt><trkpt lat="43.8546633" lon="7.9246267"><ele>340.0</ele><time>2026-04-26T10:35:00.047Z</time></trkpt><trkpt lat="43.8545817" lon="7.9245967"><ele>340.0</ele><time>2026-04-26T10:35:03.048Z</time></trkpt><trkpt lat="43.854505" lon="7.9245583"><ele>340.0</ele><time>2026-04-26T10:35:05.047Z</time></trkpt><trkpt lat="43.85443" lon="7.9244967"><ele>340.0</ele><time>2026-04-26T10:35:07.047Z</time></trkpt><trkpt lat="43.85436" lon="7.924415"><ele>340.0</ele><time>2026-04-26T10:35:09.047Z</time></trkpt><trkpt lat="43.854275" lon="7.9243567"><ele>340.0</ele><time>2026-04-26T10:35:11.047Z</time></trkpt><trkpt lat="43.854215" lon="7.9243283"><ele>337.16666666666663</ele><time>2026-04-26T10:35:13.047Z</time></trkpt><trkpt lat="43.8541333" lon="7.924285"><ele>334.3333333333333</ele><time>2026-04-26T10:35:16.047Z</time></trkpt><trkpt lat="43.8540683" lon="7.9242533"><ele>331.5</ele><time>2026-04-26T10:35:18.048Z</time></trkpt><trkpt lat="43.8539833" lon="7.9242167"><ele>328.6666666666667</ele><time>2026-04-26T10:35:20.047Z</time></trkpt><trkpt lat="43.8538967" lon="7.9241683"><ele>325.83333333333337</ele><time>2026-04-26T10:35:22.047Z</time></trkpt><trkpt lat="43.853815" lon="7.9241183"><ele>323.0</ele><time>2026-04-26T10:35:24.047Z</time></trkpt><trkpt lat="43.85373" lon="7.92409"><ele>323.0</ele><time>2026-04-26T10:35:26.047Z</time></trkpt><trkpt lat="43.8536417" lon="7.92408"><ele>323.0</ele><time>2026-04-26T10:35:28.047Z</time></trkpt><trkpt lat="43.8535467" lon="7.9240383"><ele>323.0</ele><time>2026-04-26T10:35:30.048Z</time></trkpt><trkpt lat="43.853465" lon="7.9239683"><ele>323.0</ele><time>2026-04-26T10:35:32.047Z</time></trkpt><trkpt lat="43.8534033" lon="7.9238967"><ele>323.0</ele><time>2026-04-26T10:35:34.047Z</time></trkpt><trkpt lat="43.853345" lon="7.9238467"><ele>323.0</ele><time>2026-04-26T10:35:36.048Z</time></trkpt><trkpt lat="43.8532767" lon="7.92388"><ele>321.1666666666667</ele><time>2026-04-26T10:35:38.047Z</time></trkpt><trkpt lat="43.8532033" lon="7.9238917"><ele>319.33333333333337</ele><time>2026-04-26T10:35:40.047Z</time></trkpt><trkpt lat="43.85312" lon="7.923895"><ele>317.5</ele><time>2026-04-26T10:35:42.047Z</time></trkpt><trkpt lat="43.8530283" lon="7.9239"><ele>315.6666666666667</ele><time>2026-04-26T10:35:44.047Z</time></trkpt><trkpt lat="43.8529567" lon="7.9239217"><ele>313.8333333333333</ele><time>2026-04-26T10:35:46.047Z</time></trkpt><trkpt lat="43.852935" lon="7.9240183"><ele>312.0</ele><time>2026-04-26T10:35:48.047Z</time></trkpt><trkpt lat="43.85294" lon="7.9241367"><ele>310.6666666666667</ele><time>2026-04-26T10:35:50.047Z</time></trkpt><trkpt lat="43.8529433" lon="7.924255"><ele>309.3333333333333</ele><time>2026-04-26T10:35:52.048Z</time></trkpt><trkpt lat="43.852955" lon="7.9243683"><ele>308.0</ele><time>2026-04-26T10:35:54.047Z</time></trkpt><trkpt lat="43.85299" lon="7.92446"><ele>306.66666666666663</ele><time>2026-04-26T10:35:56.047Z</time></trkpt><trkpt lat="43.8530483" lon="7.924545"><ele>305.3333333333333</ele><time>2026-04-26T10:35:58.047Z</time></trkpt><trkpt lat="43.8531417" lon="7.9246483"><ele>304.0</ele><time>2026-04-26T10:36:00.047Z</time></trkpt><trkpt lat="43.8532467" lon="7.924715"><ele>304.0</ele><time>2026-04-26T10:36:02.047Z</time></trkpt><trkpt lat="43.853305" lon="7.9248"><ele>304.0</ele><time>2026-04-26T10:36:04.047Z</time></trkpt><trkpt lat="43.8533617" lon="7.9248883"><ele>304.0</ele><time>2026-04-26T10:36:06.047Z</time></trkpt><trkpt lat="43.8533983" lon="7.9249883"><ele>304.0</ele><time>2026-04-26T10:36:08.047Z</time></trkpt><trkpt lat="43.8534283" lon="7.9251033"><ele>304.0</ele><time>2026-04-26T10:36:10.047Z</time></trkpt><trkpt lat="43.8534483" lon="7.9252183"><ele>304.0</ele><time>2026-04-26T10:36:12.047Z</time></trkpt><trkpt lat="43.85345" lon="7.9253133"><ele>304.7142857142857</ele><time>2026-04-26T10:36:15.047Z</time></trkpt><trkpt lat="43.8534283" lon="7.9254033"><ele>305.42857142857144</ele><time>2026-04-26T10:36:18.047Z</time></trkpt><trkpt lat="43.853455" lon="7.9254933"><ele>306.14285714285717</ele><time>2026-04-26T10:36:20.048Z</time></trkpt><trkpt lat="43.8534983" lon="7.925585"><ele>306.8571428571429</ele><time>2026-04-26T10:36:22.047Z</time></trkpt><trkpt lat="43.8535483" lon="7.9256483"><ele>307.57142857142856</ele><time>2026-04-26T10:36:24.047Z</time></trkpt><trkpt lat="43.8536017" lon="7.9257217"><ele>308.28571428571433</ele><time>2026-04-26T10:36:29.047Z</time></trkpt><trkpt lat="43.85365" lon="7.925785"><ele>309.0</ele><time>2026-04-26T10:36:31.047Z</time></trkpt><trkpt lat="43.8536617" lon="7.9259117"><ele>307.1666666666667</ele><time>2026-04-26T10:36:34.047Z</time></trkpt><trkpt lat="43.8537117" lon="7.92602"><ele>305.3333333333333</ele><time>2026-04-26T10:36:36.047Z</time></trkpt><trkpt lat="43.8537583" lon="7.926125"><ele>303.5</ele><time>2026-04-26T10:36:38.048Z</time></trkpt><trkpt lat="43.8537667" lon="7.92622"><ele>301.66666666666663</ele><time>2026-04-26T10:36:41.048Z</time></trkpt><trkpt lat="43.8537067" lon="7.9261683"><ele>299.8333333333333</ele><time>2026-04-26T10:36:45.047Z</time></trkpt><trkpt lat="43.8536267" lon="7.9262167"><ele>298.0</ele><time>2026-04-26T10:36:47.048Z</time></trkpt><trkpt lat="43.8535683" lon="7.9263167"><ele>298.0</ele><time>2026-04-26T10:36:49.047Z</time></trkpt><trkpt lat="43.8535433" lon="7.9264233"><ele>298.0</ele><time>2026-04-26T10:36:51.047Z</time></trkpt><trkpt lat="43.85355" lon="7.9265667"><ele>298.0</ele><time>2026-04-26T10:36:54.047Z</time></trkpt><trkpt lat="43.85355" lon="7.9266983"><ele>298.0</ele><time>2026-04-26T10:36:57.047Z</time></trkpt><trkpt lat="43.85358" lon="7.9268033"><ele>298.0</ele><time>2026-04-26T10:37:00.047Z</time></trkpt><trkpt lat="43.8536383" lon="7.9268617"><ele>298.0</ele><time>2026-04-26T10:37:07.047Z</time></trkpt><trkpt lat="43.853695" lon="7.9269467"><ele>298.3333333333333</ele><time>2026-04-26T10:37:12.047Z</time></trkpt><trkpt lat="43.8537167" lon="7.9270683"><ele>298.66666666666663</ele><time>2026-04-26T10:37:15.047Z</time></trkpt><trkpt lat="43.8536767" lon="7.9271417"><ele>299.0</ele><time>2026-04-26T10:37:17.047Z</time></trkpt><trkpt lat="43.8536167" lon="7.9272083"><ele>299.3333333333333</ele><time>2026-04-26T10:37:19.047Z</time></trkpt><trkpt lat="43.8535417" lon="7.9272367"><ele>299.6666666666667</ele><time>2026-04-26T10:37:21.047Z</time></trkpt><trkpt lat="43.85345" lon="7.9272333"><ele>300.0</ele><time>2026-04-26T10:37:24.048Z</time></trkpt><trkpt lat="43.85337" lon="7.9271867"><ele>297.1666666666667</ele><time>2026-04-26T10:37:27.048Z</time></trkpt><trkpt lat="43.8532983" lon="7.927185"><ele>294.3333333333333</ele><time>2026-04-26T10:37:29.047Z</time></trkpt><trkpt lat="43.8532217" lon="7.9272167"><ele>291.5</ele><time>2026-04-26T10:37:31.047Z</time></trkpt><trkpt lat="43.8531533" lon="7.92729"><ele>288.66666666666663</ele><time>2026-04-26T10:37:33.047Z</time></trkpt><trkpt lat="43.8530883" lon="7.92737"><ele>285.8333333333333</ele><time>2026-04-26T10:37:35.047Z</time></trkpt><trkpt lat="43.8530217" lon="7.9274467"><ele>283.0</ele><time>2026-04-26T10:37:37.047Z</time></trkpt><trkpt lat="43.8529567" lon="7.927505"><ele>282.2</ele><time>2026-04-26T10:37:39.047Z</time></trkpt><trkpt lat="43.85288" lon="7.9275733"><ele>281.4</ele><time>2026-04-26T10:37:41.047Z</time></trkpt><trkpt lat="43.8527967" lon="7.9276483"><ele>280.59999999999997</ele><time>2026-04-26T10:37:43.047Z</time></trkpt><trkpt lat="43.8527" lon="7.927715"><ele>279.8</ele><time>2026-04-26T10:37:45.048Z</time></trkpt><trkpt lat="43.8525883" lon="7.9277333"><ele>279.0</ele><time>2026-04-26T10:37:47.047Z</time></trkpt><trkpt lat="43.85248" lon="7.927725"><ele>279.0</ele><time>2026-04-26T10:37:49.047Z</time></trkpt><trkpt lat="43.85236" lon="7.9276817"><ele>279.0</ele><time>2026-04-26T10:37:51.047Z</time></trkpt><trkpt lat="43.8522983" lon="7.9276433"><ele>279.0</ele><time>2026-04-26T10:37:52.047Z</time></trkpt><trkpt lat="43.8522367" lon="7.9276017"><ele>279.0</ele><time>2026-04-26T10:37:53.047Z</time></trkpt><trkpt lat="43.8521733" lon="7.927555"><ele>279.0</ele><time>2026-04-26T10:37:54.047Z</time></trkpt><trkpt lat="43.852105" lon="7.9275067"><ele>279.0</ele><time>2026-04-26T10:37:55.047Z</time></trkpt><trkpt lat="43.852035" lon="7.92746"><ele>277.3333333333333</ele><time>2026-04-26T10:37:56.047Z</time></trkpt><trkpt lat="43.8519617" lon="7.9274117"><ele>275.6666666666667</ele><time>2026-04-26T10:37:57.047Z</time></trkpt><trkpt lat="43.8518833" lon="7.9273667"><ele>274.0</ele><time>2026-04-26T10:37:58.047Z</time></trkpt><trkpt lat="43.8518067" lon="7.9273167"><ele>272.33333333333337</ele><time>2026-04-26T10:37:59.047Z</time></trkpt><trkpt lat="43.8517267" lon="7.927265"><ele>270.6666666666667</ele><time>2026-04-26T10:38:00.047Z</time></trkpt><trkpt lat="43.8516517" lon="7.9272117"><ele>269.0</ele><time>2026-04-26T10:38:01.047Z</time></trkpt><trkpt lat="43.8515883" lon="7.9271583"><ele>268.6666666666667</ele><time>2026-04-26T10:38:02.047Z</time></trkpt><trkpt lat="43.8515283" lon="7.92711"><ele>268.33333333333337</ele><time>2026-04-26T10:38:03.048Z</time></trkpt><trkpt lat="43.8514617" lon="7.92707"><ele>268.0</ele><time>2026-04-26T10:38:04.047Z</time></trkpt><trkpt lat="43.851395" lon="7.9270467"><ele>267.6666666666667</ele><time>2026-04-26T10:38:05.047Z</time></trkpt><trkpt lat="43.851325" lon="7.9270383"><ele>267.3333333333333</ele><time>2026-04-26T10:38:06.047Z</time></trkpt><trkpt lat="43.8512567" lon="7.92704"><ele>267.0</ele><time>2026-04-26T10:38:07.047Z</time></trkpt><trkpt lat="43.8511383" lon="7.927075"><ele>267.0</ele><time>2026-04-26T10:38:09.047Z</time></trkpt><trkpt lat="43.8510283" lon="7.927135"><ele>267.0</ele><time>2026-04-26T10:38:11.047Z</time></trkpt><trkpt lat="43.8509317" lon="7.9272233"><ele>267.0</ele><time>2026-04-26T10:38:13.047Z</time></trkpt><trkpt lat="43.8508883" lon="7.9272867"><ele>267.0</ele><time>2026-04-26T10:38:14.047Z</time></trkpt><trkpt lat="43.850855" lon="7.9273633"><ele>267.0</ele><time>2026-04-26T10:38:15.047Z</time></trkpt><trkpt lat="43.850825" lon="7.927445"><ele>267.0</ele><time>2026-04-26T10:38:16.047Z</time></trkpt><trkpt lat="43.8508017" lon="7.9275367"><ele>264.7142857142857</ele><time>2026-04-26T10:38:17.047Z</time></trkpt><trkpt lat="43.85079" lon="7.9276333"><ele>262.42857142857144</ele><time>2026-04-26T10:38:18.047Z</time></trkpt><trkpt lat="43.85079" lon="7.9277383"><ele>260.1428571428571</ele><time>2026-04-26T10:38:19.047Z</time></trkpt><trkpt lat="43.85079" lon="7.9278417"><ele>257.8571428571429</ele><time>2026-04-26T10:38:20.047Z</time></trkpt><trkpt lat="43.85079" lon="7.9279483"><ele>255.57142857142856</ele><time>2026-04-26T10:38:21.048Z</time></trkpt><trkpt lat="43.85079" lon="7.9280533"><ele>253.28571428571425</ele><time>2026-04-26T10:38:22.047Z</time></trkpt><trkpt lat="43.8507917" lon="7.9281533"><ele>250.99999999999997</ele><time>2026-04-26T10:38:23.047Z</time></trkpt><trkpt lat="43.8508033" lon="7.9282567"><ele>251.00000000000003</ele><time>2026-04-26T10:38:24.047Z</time></trkpt><trkpt lat="43.8508233" lon="7.92836"><ele>251.0</ele><time>2026-04-26T10:38:25.047Z</time></trkpt><trkpt lat="43.8508467" lon="7.9284667"><ele>251.0</ele><time>2026-04-26T10:38:26.047Z</time></trkpt><trkpt lat="43.8508683" lon="7.928575"><ele>251.0</ele><time>2026-04-26T10:38:27.047Z</time></trkpt><trkpt lat="43.850895" lon="7.9286867"><ele>251.00000000000003</ele><time>2026-04-26T10:38:28.047Z</time></trkpt><trkpt lat="43.85092" lon="7.92879"><ele>251.0</ele><time>2026-04-26T10:38:29.047Z</time></trkpt><trkpt lat="43.8509383" lon="7.9288917"><ele>250.33333333333334</ele><time>2026-04-26T10:38:30.048Z</time></trkpt><trkpt lat="43.85096" lon="7.9289867"><ele>249.66666666666669</ele><time>2026-04-26T10:38:31.047Z</time></trkpt><trkpt lat="43.8509867" lon="7.9290783"><ele>249.0</ele><time>2026-04-26T10:38:32.047Z</time></trkpt><trkpt lat="43.8510167" lon="7.9291683"><ele>248.33333333333331</ele><time>2026-04-26T10:38:33.047Z</time></trkpt><trkpt lat="43.851055" lon="7.92926"><ele>247.66666666666666</ele><time>2026-04-26T10:38:34.047Z</time></trkpt><trkpt lat="43.851105" lon="7.929355"><ele>247.0</ele><time>2026-04-26T10:38:35.047Z</time></trkpt><trkpt lat="43.8511717" lon="7.92944"><ele>246.99999999999997</ele><time>2026-04-26T10:38:36.048Z</time></trkpt><trkpt lat="43.851235" lon="7.9295267"><ele>247.0</ele><time>2026-04-26T10:38:37.047Z</time></trkpt><trkpt lat="43.8513" lon="7.9296017"><ele>247.0</ele><time>2026-04-26T10:38:38.047Z</time></trkpt><trkpt lat="43.8513633" lon="7.9296717"><ele>247.0</ele><time>2026-04-26T10:38:39.047Z</time></trkpt><trkpt lat="43.8514317" lon="7.92974"><ele>246.99999999999997</ele><time>2026-04-26T10:38:40.047Z</time></trkpt><trkpt lat="43.8515017" lon="7.9298117"><ele>247.0</ele><time>2026-04-26T10:38:41.047Z</time></trkpt><trkpt lat="43.8515683" lon="7.929885"><ele>247.0</ele><time>2026-04-26T10:38:42.047Z</time></trkpt><trkpt lat="43.8516283" lon="7.9299567"><ele>247.0</ele><time>2026-04-26T10:38:43.047Z</time></trkpt><trkpt lat="43.85168" lon="7.93004"><ele>247.0</ele><time>2026-04-26T10:38:44.047Z</time></trkpt><trkpt lat="43.8517167" lon="7.930125"><ele>247.0</ele><time>2026-04-26T10:38:45.047Z</time></trkpt><trkpt lat="43.8517267" lon="7.9302117"><ele>247.0</ele><time>2026-04-26T10:38:46.047Z</time></trkpt><trkpt lat="43.8517267" lon="7.9303117"><ele>247.0</ele><time>2026-04-26T10:38:47.047Z</time></trkpt><trkpt lat="43.8517133" lon="7.9304167"><ele>247.0</ele><time>2026-04-26T10:38:48.047Z</time></trkpt><trkpt lat="43.8517017" lon="7.9305183"><ele>246.66666666666666</ele><time>2026-04-26T10:38:49.047Z</time></trkpt><trkpt lat="43.85168" lon="7.9306067"><ele>246.33333333333331</ele><time>2026-04-26T10:38:50.047Z</time></trkpt><trkpt lat="43.8516517" lon="7.9306867"><ele>246.0</ele><time>2026-04-26T10:38:51.047Z</time></trkpt><trkpt lat="43.8516317" lon="7.930775"><ele>245.66666666666669</ele><time>2026-04-26T10:38:52.047Z</time></trkpt><trkpt lat="43.851605" lon="7.9308667"><ele>245.33333333333334</ele><time>2026-04-26T10:38:53.047Z</time></trkpt><trkpt lat="43.8515633" lon="7.9310017"><ele>245.0</ele><time>2026-04-26T10:38:55.047Z</time></trkpt><trkpt lat="43.8515483" lon="7.931165"><ele>244.5</ele><time>2026-04-26T10:38:57.048Z</time></trkpt><trkpt lat="43.8515483" lon="7.9313217"><ele>244.0</ele><time>2026-04-26T10:38:59.047Z</time></trkpt><trkpt lat="43.85155" lon="7.9314817"><ele>243.5</ele><time>2026-04-26T10:39:01.047Z</time></trkpt><trkpt lat="43.8515817" lon="7.9316367"><ele>243.0</ele><time>2026-04-26T10:39:03.047Z</time></trkpt><trkpt lat="43.8516483" lon="7.93178"><ele>242.2</ele><time>2026-04-26T10:39:05.047Z</time></trkpt><trkpt lat="43.8517467" lon="7.931875"><ele>241.4</ele><time>2026-04-26T10:39:07.047Z</time></trkpt><trkpt lat="43.8518433" lon="7.931965"><ele>240.59999999999997</ele><time>2026-04-26T10:39:09.047Z</time></trkpt><trkpt lat="43.8518983" lon="7.9320083"><ele>239.79999999999998</ele><time>2026-04-26T10:39:10.047Z</time></trkpt><trkpt lat="43.8520017" lon="7.9321033"><ele>239.0</ele><time>2026-04-26T10:39:12.047Z</time></trkpt><trkpt lat="43.8520583" lon="7.93216"><ele>239.00000000000003</ele><time>2026-04-26T10:39:13.047Z</time></trkpt><trkpt lat="43.8521117" lon="7.9322233"><ele>239.0</ele><time>2026-04-26T10:39:14.047Z</time></trkpt><trkpt lat="43.8521633" lon="7.9322867"><ele>239.00000000000003</ele><time>2026-04-26T10:39:15.047Z</time></trkpt><trkpt lat="43.8522083" lon="7.932355"><ele>239.00000000000003</ele><time>2026-04-26T10:39:16.047Z</time></trkpt><trkpt lat="43.8522517" lon="7.9324233"><ele>239.0</ele><time>2026-04-26T10:39:17.048Z</time></trkpt><trkpt lat="43.8522967" lon="7.932495"><ele>239.00000000000003</ele><time>2026-04-26T10:39:18.047Z</time></trkpt><trkpt lat="43.852345" lon="7.932565"><ele>239.00000000000003</ele><time>2026-04-26T10:39:19.047Z</time></trkpt><trkpt lat="43.8523933" lon="7.9326333"><ele>240.42857142857144</ele><time>2026-04-26T10:39:20.047Z</time></trkpt><trkpt lat="43.8524417" lon="7.9327083"><ele>241.85714285714286</ele><time>2026-04-26T10:39:21.047Z</time></trkpt><trkpt lat="43.8524883" lon="7.9327817"><ele>243.28571428571428</ele><time>2026-04-26T10:39:22.047Z</time></trkpt><trkpt lat="43.8525367" lon="7.9328617"><ele>244.71428571428572</ele><time>2026-04-26T10:39:23.048Z</time></trkpt><trkpt lat="43.8525833" lon="7.9329333"><ele>246.1428571428571</ele><time>2026-04-26T10:39:24.047Z</time></trkpt><trkpt lat="43.852625" lon="7.93301"><ele>247.57142857142856</ele><time>2026-04-26T10:39:25.047Z</time></trkpt><trkpt lat="43.8526617" lon="7.933095"><ele>249.0</ele><time>2026-04-26T10:39:26.047Z</time></trkpt><trkpt lat="43.8526933" lon="7.933185"><ele>249.0</ele><time>2026-04-26T10:39:27.047Z</time></trkpt><trkpt lat="43.852715" lon="7.9332783"><ele>248.99999999999997</ele><time>2026-04-26T10:39:28.047Z</time></trkpt><trkpt lat="43.852735" lon="7.93337"><ele>249.0</ele><time>2026-04-26T10:39:29.047Z</time></trkpt><trkpt lat="43.85276" lon="7.9334617"><ele>249.0</ele><time>2026-04-26T10:39:30.047Z</time></trkpt><trkpt lat="43.852775" lon="7.933555"><ele>248.99999999999997</ele><time>2026-04-26T10:39:31.047Z</time></trkpt><trkpt lat="43.8527833" lon="7.93365"><ele>249.0</ele><time>2026-04-26T10:39:32.047Z</time></trkpt><trkpt lat="43.852785" lon="7.9337467"><ele>249.0</ele><time>2026-04-26T10:39:33.047Z</time></trkpt><trkpt lat="43.8527783" lon="7.9338467"><ele>248.7142857142857</ele><time>2026-04-26T10:39:34.047Z</time></trkpt><trkpt lat="43.8527633" lon="7.9339417"><ele>248.4285714285714</ele><time>2026-04-26T10:39:35.047Z</time></trkpt><trkpt lat="43.8527433" lon="7.9340367"><ele>248.14285714285714</ele><time>2026-04-26T10:39:36.047Z</time></trkpt><trkpt lat="43.8527167" lon="7.9341317"><ele>247.85714285714283</ele><time>2026-04-26T10:39:37.047Z</time></trkpt><trkpt lat="43.8526833" lon="7.93422"><ele>247.57142857142856</ele><time>2026-04-26T10:39:38.047Z</time></trkpt><trkpt lat="43.8526433" lon="7.934305"><ele>247.28571428571428</ele><time>2026-04-26T10:39:39.047Z</time></trkpt><trkpt lat="43.852605" lon="7.9343917"><ele>247.0</ele><time>2026-04-26T10:39:40.048Z</time></trkpt><trkpt lat="43.8525667" lon="7.93448"><ele>245.71428571428572</ele><time>2026-04-26T10:39:41.048Z</time></trkpt><trkpt lat="43.8525267" lon="7.93457"><ele>244.42857142857142</ele><time>2026-04-26T10:39:42.048Z</time></trkpt><trkpt lat="43.852485" lon="7.9346517"><ele>243.14285714285714</ele><time>2026-04-26T10:39:43.047Z</time></trkpt><trkpt lat="43.8524417" lon="7.9347317"><ele>241.85714285714286</ele><time>2026-04-26T10:39:44.047Z</time></trkpt><trkpt lat="43.852405" lon="7.9348133"><ele>240.57142857142856</ele><time>2026-04-26T10:39:45.047Z</time></trkpt><trkpt lat="43.85237" lon="7.9348983"><ele>239.28571428571428</ele><time>2026-04-26T10:39:46.047Z</time></trkpt><trkpt lat="43.8523383" lon="7.9349867"><ele>238.0</ele><time>2026-04-26T10:39:47.047Z</time></trkpt><trkpt lat="43.8523133" lon="7.935075"><ele>238.0</ele><time>2026-04-26T10:39:48.047Z</time></trkpt><trkpt lat="43.8522867" lon="7.9351683"><ele>238.0</ele><time>2026-04-26T10:39:49.047Z</time></trkpt><trkpt lat="43.85226" lon="7.9352633"><ele>238.0</ele><time>2026-04-26T10:39:50.048Z</time></trkpt><trkpt lat="43.85223" lon="7.935355"><ele>238.0</ele><time>2026-04-26T10:39:51.047Z</time></trkpt><trkpt lat="43.8522017" lon="7.93544"><ele>238.0</ele><time>2026-04-26T10:39:52.047Z</time></trkpt><trkpt lat="43.8521717" lon="7.9355267"><ele>238.0</ele><time>2026-04-26T10:39:53.047Z</time></trkpt><trkpt lat="43.8521417" lon="7.9356133"><ele>238.0</ele><time>2026-04-26T10:39:54.047Z</time></trkpt><trkpt lat="43.8521117" lon="7.9357017"><ele>238.0</ele><time>2026-04-26T10:39:55.047Z</time></trkpt><trkpt lat="43.8520833" lon="7.9357867"><ele>238.0</ele><time>2026-04-26T10:39:56.047Z</time></trkpt><trkpt lat="43.852055" lon="7.93588"><ele>238.0</ele><time>2026-04-26T10:39:57.047Z</time></trkpt><trkpt lat="43.8520283" lon="7.9359683"><ele>238.0</ele><time>2026-04-26T10:39:58.047Z</time></trkpt><trkpt lat="43.8520017" lon="7.93605"><ele>238.0</ele><time>2026-04-26T10:39:59.047Z</time></trkpt><trkpt lat="43.8519783" lon="7.9361383"><ele>238.0</ele><time>2026-04-26T10:40:00.047Z</time></trkpt><trkpt lat="43.8519533" lon="7.936225"><ele>238.0</ele><time>2026-04-26T10:40:01.047Z</time></trkpt><trkpt lat="43.85193" lon="7.9363083"><ele>237.66666666666666</ele><time>2026-04-26T10:40:02.047Z</time></trkpt><trkpt lat="43.8519117" lon="7.936395"><ele>237.33333333333331</ele><time>2026-04-26T10:40:03.047Z</time></trkpt><trkpt lat="43.8519" lon="7.9364817"><ele>237.0</ele><time>2026-04-26T10:40:04.047Z</time></trkpt><trkpt lat="43.8518933" lon="7.93657"><ele>236.66666666666669</ele><time>2026-04-26T10:40:05.048Z</time></trkpt><trkpt lat="43.8518933" lon="7.9366583"><ele>236.33333333333334</ele><time>2026-04-26T10:40:06.047Z</time></trkpt><trkpt lat="43.8519133" lon="7.93683"><ele>236.0</ele><time>2026-04-26T10:40:08.048Z</time></trkpt><trkpt lat="43.8519517" lon="7.936985"><ele>232.75</ele><time>2026-04-26T10:40:10.048Z</time></trkpt><trkpt lat="43.85201" lon="7.937125"><ele>229.5</ele><time>2026-04-26T10:40:12.047Z</time></trkpt><trkpt lat="43.8520883" lon="7.9372517"><ele>226.25</ele><time>2026-04-26T10:40:14.047Z</time></trkpt><trkpt lat="43.85219" lon="7.9373433"><ele>223.0</ele><time>2026-04-26T10:40:16.047Z</time></trkpt><trkpt lat="43.8522983" lon="7.9374167"><ele>223.0</ele><time>2026-04-26T10:40:18.047Z</time></trkpt><trkpt lat="43.8524083" lon="7.9374883"><ele>223.0</ele><time>2026-04-26T10:40:20.047Z</time></trkpt><trkpt lat="43.8525217" lon="7.9375517"><ele>223.0</ele><time>2026-04-26T10:40:22.047Z</time></trkpt><trkpt lat="43.8526417" lon="7.9375817"><ele>223.0</ele><time>2026-04-26T10:40:24.047Z</time></trkpt><trkpt lat="43.852765" lon="7.93757"><ele>222.66666666666666</ele><time>2026-04-26T10:40:26.047Z</time></trkpt><trkpt lat="43.852885" lon="7.937525"><ele>222.33333333333331</ele><time>2026-04-26T10:40:28.047Z</time></trkpt><trkpt lat="43.852945" lon="7.937495"><ele>222.0</ele><time>2026-04-26T10:40:29.047Z</time></trkpt><trkpt lat="43.8530067" lon="7.9374667"><ele>221.66666666666669</ele><time>2026-04-26T10:40:30.047Z</time></trkpt><trkpt lat="43.8530717" lon="7.93744"><ele>221.33333333333334</ele><time>2026-04-26T10:40:31.047Z</time></trkpt><trkpt lat="43.8531367" lon="7.9374117"><ele>221.0</ele><time>2026-04-26T10:40:32.047Z</time></trkpt><trkpt lat="43.8532017" lon="7.9373867"><ele>221.00000000000003</ele><time>2026-04-26T10:40:33.047Z</time></trkpt><trkpt lat="43.8532633" lon="7.9373683"><ele>221.0</ele><time>2026-04-26T10:40:34.048Z</time></trkpt><trkpt lat="43.8533317" lon="7.9373483"><ele>221.0</ele><time>2026-04-26T10:40:35.047Z</time></trkpt><trkpt lat="43.8534" lon="7.9373267"><ele>221.0</ele><time>2026-04-26T10:40:36.047Z</time></trkpt><trkpt lat="43.8534633" lon="7.9372967"><ele>221.0</ele><time>2026-04-26T10:40:37.047Z</time></trkpt><trkpt lat="43.8535283" lon="7.937265"><ele>221.00000000000003</ele><time>2026-04-26T10:40:38.048Z</time></trkpt><trkpt lat="43.853595" lon="7.93724"><ele>221.0</ele><time>2026-04-26T10:40:39.047Z</time></trkpt><trkpt lat="43.85366" lon="7.93722"><ele>221.83333333333334</ele><time>2026-04-26T10:40:40.047Z</time></trkpt><trkpt lat="43.853725" lon="7.9372"><ele>222.66666666666669</ele><time>2026-04-26T10:40:41.048Z</time></trkpt><trkpt lat="43.853795" lon="7.9371833"><ele>223.5</ele><time>2026-04-26T10:40:42.047Z</time></trkpt><trkpt lat="43.8538667" lon="7.937185"><ele>224.33333333333331</ele><time>2026-04-26T10:40:43.047Z</time></trkpt><trkpt lat="43.8539333" lon="7.9371917"><ele>225.16666666666666</ele><time>2026-04-26T10:40:44.048Z</time></trkpt><trkpt lat="43.8540483" lon="7.9372633"><ele>226.0</ele><time>2026-04-26T10:40:46.047Z</time></trkpt><trkpt lat="43.854135" lon="7.9373867"><ele>226.0</ele><time>2026-04-26T10:40:48.046Z</time></trkpt><trkpt lat="43.8541867" lon="7.93754"><ele>226.0</ele><time>2026-04-26T10:40:50.046Z</time></trkpt><trkpt lat="43.854205" lon="7.937705"><ele>226.0</ele><time>2026-04-26T10:40:52.046Z</time></trkpt><trkpt lat="43.8541917" lon="7.93786"><ele>226.0</ele><time>2026-04-26T10:40:54.046Z</time></trkpt><trkpt lat="43.8541517" lon="7.9380183"><ele>225.75</ele><time>2026-04-26T10:40:56.046Z</time></trkpt><trkpt lat="43.8541017" lon="7.93817"><ele>225.5</ele><time>2026-04-26T10:40:58.047Z</time></trkpt><trkpt lat="43.854045" lon="7.938315"><ele>225.25</ele><time>2026-04-26T10:41:00.046Z</time></trkpt><trkpt lat="43.8540233" lon="7.9384683"><ele>225.0</ele><time>2026-04-26T10:41:02.048Z</time></trkpt><trkpt lat="43.854035" lon="7.9386333"><ele>223.75</ele><time>2026-04-26T10:41:04.048Z</time></trkpt><trkpt lat="43.8540567" lon="7.9387967"><ele>222.5</ele><time>2026-04-26T10:41:06.047Z</time></trkpt><trkpt lat="43.8540833" lon="7.9389617"><ele>221.25</ele><time>2026-04-26T10:41:08.047Z</time></trkpt><trkpt lat="43.854105" lon="7.9391217"><ele>220.0</ele><time>2026-04-26T10:41:10.047Z</time></trkpt><trkpt lat="43.8541317" lon="7.9392817"><ele>218.75</ele><time>2026-04-26T10:41:12.047Z</time></trkpt><trkpt lat="43.854145" lon="7.9394417"><ele>217.5</ele><time>2026-04-26T10:41:14.047Z</time></trkpt><trkpt lat="43.8541667" lon="7.9396033"><ele>216.25</ele><time>2026-04-26T10:41:16.047Z</time></trkpt><trkpt lat="43.85418" lon="7.9397667"><ele>215.0</ele><time>2026-04-26T10:41:18.047Z</time></trkpt><trkpt lat="43.8541933" lon="7.9399367"><ele>214.25</ele><time>2026-04-26T10:41:20.047Z</time></trkpt><trkpt lat="43.8542067" lon="7.94011"><ele>213.5</ele><time>2026-04-26T10:41:22.048Z</time></trkpt><trkpt lat="43.854225" lon="7.9402783"><ele>212.75</ele><time>2026-04-26T10:41:24.047Z</time></trkpt><trkpt lat="43.8542417" lon="7.9404433"><ele>212.0</ele><time>2026-04-26T10:41:26.047Z</time></trkpt><trkpt lat="43.8542517" lon="7.9406033"><ele>212.0</ele><time>2026-04-26T10:41:28.047Z</time></trkpt><trkpt lat="43.8542583" lon="7.9407667"><ele>212.0</ele><time>2026-04-26T10:41:30.047Z</time></trkpt><trkpt lat="43.85426" lon="7.9409333"><ele>212.0</ele><time>2026-04-26T10:41:32.047Z</time></trkpt><trkpt lat="43.8542467" lon="7.941095"><ele>212.0</ele><time>2026-04-26T10:41:34.047Z</time></trkpt><trkpt lat="43.8542317" lon="7.94126"><ele>211.75</ele><time>2026-04-26T10:41:36.047Z</time></trkpt><trkpt lat="43.8542183" lon="7.9414233"><ele>211.5</ele><time>2026-04-26T10:41:38.047Z</time></trkpt><trkpt lat="43.8542017" lon="7.9415867"><ele>211.25</ele><time>2026-04-26T10:41:40.048Z</time></trkpt><trkpt lat="43.8542017" lon="7.9417467"><ele>211.0</ele><time>2026-04-26T10:41:42.047Z</time></trkpt><trkpt lat="43.8542067" lon="7.9419117"><ele>210.4</ele><time>2026-04-26T10:41:44.048Z</time></trkpt><trkpt lat="43.8542233" lon="7.942075"><ele>209.8</ele><time>2026-04-26T10:41:46.047Z</time></trkpt><trkpt lat="43.85425" lon="7.9422283"><ele>209.20000000000002</ele><time>2026-04-26T10:41:48.047Z</time></trkpt><trkpt lat="43.8542867" lon="7.942365"><ele>208.60000000000002</ele><time>2026-04-26T10:41:50.047Z</time></trkpt><trkpt lat="43.854345" lon="7.942495"><ele>208.0</ele><time>2026-04-26T10:41:52.048Z</time></trkpt><trkpt lat="43.85441" lon="7.9426033"><ele>206.8</ele><time>2026-04-26T10:41:54.047Z</time></trkpt><trkpt lat="43.854455" lon="7.94271"><ele>205.60000000000002</ele><time>2026-04-26T10:41:56.047Z</time></trkpt><trkpt lat="43.8545183" lon="7.9428383"><ele>204.39999999999998</ele><time>2026-04-26T10:41:58.047Z</time></trkpt><trkpt lat="43.85459" lon="7.9429683"><ele>203.2</ele><time>2026-04-26T10:42:00.047Z</time></trkpt><trkpt lat="43.85465" lon="7.9431117"><ele>202.0</ele><time>2026-04-26T10:42:02.047Z</time></trkpt><trkpt lat="43.8546833" lon="7.9432583"><ele>199.2</ele><time>2026-04-26T10:42:04.047Z</time></trkpt><trkpt lat="43.8547483" lon="7.9434"><ele>196.39999999999998</ele><time>2026-04-26T10:42:06.047Z</time></trkpt><trkpt lat="43.8548033" lon="7.9434583"><ele>193.60000000000002</ele><time>2026-04-26T10:42:07.047Z</time></trkpt><trkpt lat="43.8548733" lon="7.9436067"><ele>190.8</ele><time>2026-04-26T10:42:09.048Z</time></trkpt><trkpt lat="43.8548917" lon="7.943695"><ele>188.0</ele><time>2026-04-26T10:42:10.047Z</time></trkpt><trkpt lat="43.8549017" lon="7.9437933"><ele>188.0</ele><time>2026-04-26T10:42:11.047Z</time></trkpt><trkpt lat="43.8549133" lon="7.9438967"><ele>188.0</ele><time>2026-04-26T10:42:12.047Z</time></trkpt><trkpt lat="43.8549167" lon="7.944"><ele>188.0</ele><time>2026-04-26T10:42:13.047Z</time></trkpt><trkpt lat="43.8549133" lon="7.94411"><ele>188.0</ele><time>2026-04-26T10:42:14.047Z</time></trkpt><trkpt lat="43.854915" lon="7.94423"><ele>188.0</ele><time>2026-04-26T10:42:15.047Z</time></trkpt><trkpt lat="43.854905" lon="7.9443583"><ele>188.0</ele><time>2026-04-26T10:42:16.048Z</time></trkpt><trkpt lat="43.8548983" lon="7.9444917"><ele>186.33333333333331</ele><time>2026-04-26T10:42:17.047Z</time></trkpt><trkpt lat="43.8548883" lon="7.9446267"><ele>184.66666666666666</ele><time>2026-04-26T10:42:18.047Z</time></trkpt><trkpt lat="43.8548817" lon="7.9447533"><ele>183.0</ele><time>2026-04-26T10:42:19.047Z</time></trkpt><trkpt lat="43.8548667" lon="7.944875"><ele>181.33333333333334</ele><time>2026-04-26T10:42:20.048Z</time></trkpt><trkpt lat="43.854855" lon="7.9449883"><ele>179.66666666666669</ele><time>2026-04-26T10:42:21.047Z</time></trkpt><trkpt lat="43.854845" lon="7.9450917"><ele>178.0</ele><time>2026-04-26T10:42:22.047Z</time></trkpt><trkpt lat="43.854845" lon="7.9451867"><ele>176.2</ele><time>2026-04-26T10:42:23.047Z</time></trkpt><trkpt lat="43.8548433" lon="7.945275"><ele>174.4</ele><time>2026-04-26T10:42:24.047Z</time></trkpt><trkpt lat="43.8548117" lon="7.94544"><ele>172.6</ele><time>2026-04-26T10:42:26.047Z</time></trkpt><trkpt lat="43.854755" lon="7.94556"><ele>170.79999999999998</ele><time>2026-04-26T10:42:28.047Z</time></trkpt><trkpt lat="43.8546817" lon="7.9456567"><ele>169.0</ele><time>2026-04-26T10:42:30.047Z</time></trkpt><trkpt lat="43.8546217" lon="7.9457533"><ele>169.0</ele><time>2026-04-26T10:42:32.048Z</time></trkpt><trkpt lat="43.8545633" lon="7.9458267"><ele>169.0</ele><time>2026-04-26T10:42:34.047Z</time></trkpt><trkpt lat="43.8545167" lon="7.9459117"><ele>169.0</ele><time>2026-04-26T10:42:36.047Z</time></trkpt><trkpt lat="43.8544667" lon="7.94601"><ele>169.0</ele><time>2026-04-26T10:42:38.047Z</time></trkpt><trkpt lat="43.8544133" lon="7.946115"><ele>169.0</ele><time>2026-04-26T10:42:40.047Z</time></trkpt><trkpt lat="43.8543567" lon="7.946225"><ele>169.0</ele><time>2026-04-26T10:42:42.047Z</time></trkpt><trkpt lat="43.8542967" lon="7.9463567"><ele>169.0</ele><time>2026-04-26T10:42:44.047Z</time></trkpt><trkpt lat="43.8542683" lon="7.9464367"><ele>169.0</ele><time>2026-04-26T10:42:45.047Z</time></trkpt><trkpt lat="43.8542367" lon="7.94652"><ele>169.0</ele><time>2026-04-26T10:42:46.047Z</time></trkpt><trkpt lat="43.8542033" lon="7.94661"><ele>169.0</ele><time>2026-04-26T10:42:47.047Z</time></trkpt><trkpt lat="43.8541667" lon="7.9467"><ele>169.0</ele><time>2026-04-26T10:42:48.047Z</time></trkpt><trkpt lat="43.8541283" lon="7.9467933"><ele>169.0</ele><time>2026-04-26T10:42:49.047Z</time></trkpt><trkpt lat="43.8540917" lon="7.94689"><ele>169.0</ele><time>2026-04-26T10:42:50.047Z</time></trkpt><trkpt lat="43.85405" lon="7.946985"><ele>169.0</ele><time>2026-04-26T10:42:51.047Z</time></trkpt><trkpt lat="43.8540067" lon="7.9470833"><ele>169.0</ele><time>2026-04-26T10:42:52.047Z</time></trkpt><trkpt lat="43.853955" lon="7.947175"><ele>169.0</ele><time>2026-04-26T10:42:53.047Z</time></trkpt><trkpt lat="43.8539" lon="7.947265"><ele>169.0</ele><time>2026-04-26T10:42:54.047Z</time></trkpt><trkpt lat="43.8538467" lon="7.9473567"><ele>169.0</ele><time>2026-04-26T10:42:55.047Z</time></trkpt><trkpt lat="43.85379" lon="7.9474517"><ele>169.0</ele><time>2026-04-26T10:42:56.047Z</time></trkpt><trkpt lat="43.8537333" lon="7.9475483"><ele>170.39999999999998</ele><time>2026-04-26T10:42:57.047Z</time></trkpt><trkpt lat="43.8536767" lon="7.9476483"><ele>171.8</ele><time>2026-04-26T10:42:58.047Z</time></trkpt><trkpt lat="43.85362" lon="7.9477533"><ele>173.2</ele><time>2026-04-26T10:42:59.047Z</time></trkpt><trkpt lat="43.8535617" lon="7.9478567"><ele>174.60000000000002</ele><time>2026-04-26T10:43:00.047Z</time></trkpt><trkpt lat="43.853505" lon="7.9479667"><ele>176.0</ele><time>2026-04-26T10:43:01.047Z</time></trkpt><trkpt lat="43.8534483" lon="7.9480783"><ele>174.60000000000002</ele><time>2026-04-26T10:43:02.047Z</time></trkpt><trkpt lat="43.85339" lon="7.9481917"><ele>173.2</ele><time>2026-04-26T10:43:03.047Z</time></trkpt><trkpt lat="43.85333" lon="7.9483083"><ele>171.8</ele><time>2026-04-26T10:43:04.047Z</time></trkpt><trkpt lat="43.8532683" lon="7.9484233"><ele>170.39999999999998</ele><time>2026-04-26T10:43:05.047Z</time></trkpt><trkpt lat="43.8532067" lon="7.9485433"><ele>169.0</ele><time>2026-04-26T10:43:06.047Z</time></trkpt><trkpt lat="43.853145" lon="7.9486633"><ele>169.0</ele><time>2026-04-26T10:43:07.047Z</time></trkpt><trkpt lat="43.8530767" lon="7.94878"><ele>169.0</ele><time>2026-04-26T10:43:08.047Z</time></trkpt><trkpt lat="43.853005" lon="7.9488967"><ele>169.0</ele><time>2026-04-26T10:43:09.047Z</time></trkpt><trkpt lat="43.852935" lon="7.9490133"><ele>169.0</ele><time>2026-04-26T10:43:10.047Z</time></trkpt><trkpt lat="43.8528633" lon="7.9491333"><ele>169.0</ele><time>2026-04-26T10:43:11.047Z</time></trkpt><trkpt lat="43.8527967" lon="7.94926"><ele>169.75</ele><time>2026-04-26T10:43:12.047Z</time></trkpt><trkpt lat="43.8527267" lon="7.9493783"><ele>170.5</ele><time>2026-04-26T10:43:13.048Z</time></trkpt><trkpt lat="43.8526517" lon="7.9495"><ele>171.25</ele><time>2026-04-26T10:43:14.047Z</time></trkpt><trkpt lat="43.8525783" lon="7.9496183"><ele>172.0</ele><time>2026-04-26T10:43:15.048Z</time></trkpt><trkpt lat="43.852505" lon="7.9497433"><ele>165.75</ele><time>2026-04-26T10:43:16.047Z</time></trkpt><trkpt lat="43.8524367" lon="7.9498733"><ele>159.5</ele><time>2026-04-26T10:43:17.047Z</time></trkpt><trkpt lat="43.852375" lon="7.950015"><ele>153.25</ele><time>2026-04-26T10:43:18.047Z</time></trkpt><trkpt lat="43.85233" lon="7.95016"><ele>147.0</ele><time>2026-04-26T10:43:19.048Z</time></trkpt><trkpt lat="43.8522983" lon="7.9503067"><ele>145.4</ele><time>2026-04-26T10:43:20.047Z</time></trkpt><trkpt lat="43.8522783" lon="7.9504483"><ele>143.79999999999998</ele><time>2026-04-26T10:43:21.048Z</time></trkpt><trkpt lat="43.8522767" lon="7.9505867"><ele>142.2</ele><time>2026-04-26T10:43:22.048Z</time></trkpt><trkpt lat="43.8522933" lon="7.95072"><ele>140.6</ele><time>2026-04-26T10:43:23.047Z</time></trkpt><trkpt lat="43.85233" lon="7.950835"><ele>139.0</ele><time>2026-04-26T10:43:24.047Z</time></trkpt><trkpt lat="43.8523833" lon="7.95093"><ele>140.4</ele><time>2026-04-26T10:43:25.048Z</time></trkpt><trkpt lat="43.852455" lon="7.9509983"><ele>141.8</ele><time>2026-04-26T10:43:26.047Z</time></trkpt><trkpt lat="43.8525417" lon="7.9510383"><ele>143.2</ele><time>2026-04-26T10:43:27.047Z</time></trkpt><trkpt lat="43.8526367" lon="7.95105"><ele>144.6</ele><time>2026-04-26T10:43:28.047Z</time></trkpt><trkpt lat="43.8527283" lon="7.951065"><ele>146.0</ele><time>2026-04-26T10:43:29.047Z</time></trkpt><trkpt lat="43.8528117" lon="7.9511"><ele>146.0</ele><time>2026-04-26T10:43:30.047Z</time></trkpt><trkpt lat="43.8528867" lon="7.9511617"><ele>146.0</ele><time>2026-04-26T10:43:31.047Z</time></trkpt><trkpt lat="43.8529483" lon="7.95125"><ele>146.0</ele><time>2026-04-26T10:43:32.047Z</time></trkpt><trkpt lat="43.8529983" lon="7.951355"><ele>146.0</ele><time>2026-04-26T10:43:33.047Z</time></trkpt><trkpt lat="43.8530383" lon="7.9514683"><ele>146.0</ele><time>2026-04-26T10:43:34.047Z</time></trkpt><trkpt lat="43.8530717" lon="7.9515833"><ele>146.0</ele><time>2026-04-26T10:43:35.047Z</time></trkpt><trkpt lat="43.8531033" lon="7.9517"><ele>144.83333333333331</ele><time>2026-04-26T10:43:36.047Z</time></trkpt><trkpt lat="43.8531217" lon="7.9518167"><ele>143.66666666666666</ele><time>2026-04-26T10:43:37.048Z</time></trkpt><trkpt lat="43.8531267" lon="7.951935"><ele>142.5</ele><time>2026-04-26T10:43:38.047Z</time></trkpt><trkpt lat="43.85311" lon="7.9520517"><ele>141.33333333333334</ele><time>2026-04-26T10:43:39.048Z</time></trkpt><trkpt lat="43.8530717" lon="7.95216"><ele>140.16666666666669</ele><time>2026-04-26T10:43:40.048Z</time></trkpt><trkpt lat="43.8530283" lon="7.9522667"><ele>139.0</ele><time>2026-04-26T10:43:41.047Z</time></trkpt><trkpt lat="43.8529833" lon="7.9523733"><ele>139.0</ele><time>2026-04-26T10:43:42.047Z</time></trkpt><trkpt lat="43.8529417" lon="7.9524817"><ele>139.0</ele><time>2026-04-26T10:43:43.047Z</time></trkpt><trkpt lat="43.8529017" lon="7.952595"><ele>139.0</ele><time>2026-04-26T10:43:44.047Z</time></trkpt><trkpt lat="43.8528667" lon="7.9527133"><ele>139.0</ele><time>2026-04-26T10:43:45.047Z</time></trkpt><trkpt lat="43.852835" lon="7.952835"><ele>139.0</ele><time>2026-04-26T10:43:46.047Z</time></trkpt><trkpt lat="43.8528183" lon="7.9529667"><ele>137.6</ele><time>2026-04-26T10:43:47.047Z</time></trkpt><trkpt lat="43.85281" lon="7.9531017"><ele>136.2</ele><time>2026-04-26T10:43:48.048Z</time></trkpt><trkpt lat="43.8528133" lon="7.9532417"><ele>134.79999999999998</ele><time>2026-04-26T10:43:49.047Z</time></trkpt><trkpt lat="43.852815" lon="7.9533817"><ele>133.4</ele><time>2026-04-26T10:43:50.047Z</time></trkpt><trkpt lat="43.8528233" lon="7.9535267"><ele>132.0</ele><time>2026-04-26T10:43:51.047Z</time></trkpt><trkpt lat="43.852825" lon="7.9536683"><ele>129.4</ele><time>2026-04-26T10:43:52.047Z</time></trkpt><trkpt lat="43.8528267" lon="7.9538133"><ele>126.79999999999998</ele><time>2026-04-26T10:43:53.047Z</time></trkpt><trkpt lat="43.8528133" lon="7.9539583"><ele>124.2</ele><time>2026-04-26T10:43:54.047Z</time></trkpt><trkpt lat="43.852795" lon="7.9541017"><ele>121.6</ele><time>2026-04-26T10:43:55.047Z</time></trkpt><trkpt lat="43.852765" lon="7.9542417"><ele>119.0</ele><time>2026-04-26T10:43:56.047Z</time></trkpt><trkpt lat="43.852735" lon="7.9543833"><ele>117.99999999999999</ele><time>2026-04-26T10:43:57.047Z</time></trkpt><trkpt lat="43.8527033" lon="7.9545183"><ele>117.0</ele><time>2026-04-26T10:43:58.047Z</time></trkpt><trkpt lat="43.8526733" lon="7.954645"><ele>116.0</ele><time>2026-04-26T10:43:59.048Z</time></trkpt><trkpt lat="43.85265" lon="7.9547583"><ele>115.0</ele><time>2026-04-26T10:44:00.047Z</time></trkpt><trkpt lat="43.8526233" lon="7.9548533"><ele>113.99999999999999</ele><time>2026-04-26T10:44:01.047Z</time></trkpt><trkpt lat="43.8525967" lon="7.9549383"><ele>113.0</ele><time>2026-04-26T10:44:02.047Z</time></trkpt><trkpt lat="43.8525567" lon="7.9550867"><ele>113.0</ele><time>2026-04-26T10:44:04.047Z</time></trkpt><trkpt lat="43.8525333" lon="7.9552367"><ele>113.00000000000001</ele><time>2026-04-26T10:44:06.047Z</time></trkpt><trkpt lat="43.85249" lon="7.95537"><ele>113.00000000000001</ele><time>2026-04-26T10:44:08.047Z</time></trkpt><trkpt lat="43.85241" lon="7.9554667"><ele>113.0</ele><time>2026-04-26T10:44:10.047Z</time></trkpt><trkpt lat="43.85234" lon="7.9555867"><ele>113.0</ele><time>2026-04-26T10:44:12.047Z</time></trkpt><trkpt lat="43.8523033" lon="7.9556583"><ele>112.99999999999999</ele><time>2026-04-26T10:44:13.047Z</time></trkpt><trkpt lat="43.8522667" lon="7.95574"><ele>113.0</ele><time>2026-04-26T10:44:14.047Z</time></trkpt><trkpt lat="43.85223" lon="7.9558317"><ele>113.0</ele><time>2026-04-26T10:44:15.047Z</time></trkpt><trkpt lat="43.8521917" lon="7.955915"><ele>113.0</ele><time>2026-04-26T10:44:16.047Z</time></trkpt><trkpt lat="43.8521367" lon="7.9560583"><ele>112.99999999999999</ele><time>2026-04-26T10:44:18.047Z</time></trkpt><trkpt lat="43.8521517" lon="7.956195"><ele>113.0</ele><time>2026-04-26T10:44:20.047Z</time></trkpt><trkpt lat="43.8521933" lon="7.9563117"><ele>111.0</ele><time>2026-04-26T10:44:22.047Z</time></trkpt><trkpt lat="43.8521383" lon="7.9563733"><ele>109.00000000000001</ele><time>2026-04-26T10:44:26.047Z</time></trkpt><trkpt lat="43.8520717" lon="7.9562467"><ele>107.0</ele><time>2026-04-26T10:44:28.048Z</time></trkpt><trkpt lat="43.852055" lon="7.9561133"><ele>105.0</ele><time>2026-04-26T10:44:30.047Z</time></trkpt><trkpt lat="43.8520333" lon="7.9560033"><ele>103.0</ele><time>2026-04-26T10:44:32.047Z</time></trkpt><trkpt lat="43.8519133" lon="7.9559783"><ele>103.0</ele><time>2026-04-26T10:44:34.047Z</time></trkpt><trkpt lat="43.8518" lon="7.956025"><ele>103.0</ele><time>2026-04-26T10:44:36.047Z</time></trkpt><trkpt lat="43.8517383" lon="7.9561883"><ele>103.0</ele><time>2026-04-26T10:44:38.047Z</time></trkpt><trkpt lat="43.8516767" lon="7.9563383"><ele>103.0</ele><time>2026-04-26T10:44:40.048Z</time></trkpt><trkpt lat="43.8516367" lon="7.9564167"><ele>103.0</ele><time>2026-04-26T10:44:41.047Z</time></trkpt><trkpt lat="43.8516017" lon="7.95649"><ele>100.57142857142857</ele><time>2026-04-26T10:44:42.047Z</time></trkpt><trkpt lat="43.85158" lon="7.9565733"><ele>98.14285714285714</ele><time>2026-04-26T10:44:43.047Z</time></trkpt><trkpt lat="43.851565" lon="7.9567167"><ele>95.71428571428572</ele><time>2026-04-26T10:44:45.047Z</time></trkpt><trkpt lat="43.8515867" lon="7.9566167"><ele>93.28571428571428</ele><time>2026-04-26T10:44:52.048Z</time></trkpt><trkpt lat="43.8515817" lon="7.9565283"><ele>90.85714285714286</ele><time>2026-04-26T10:44:53.047Z</time></trkpt><trkpt lat="43.8515717" lon="7.9564333"><ele>88.42857142857143</ele><time>2026-04-26T10:44:54.047Z</time></trkpt><trkpt lat="43.8515533" lon="7.9563383"><ele>86.0</ele><time>2026-04-26T10:44:55.047Z</time></trkpt><trkpt lat="43.8515217" lon="7.9562483"><ele>86.0</ele><time>2026-04-26T10:44:56.047Z</time></trkpt><trkpt lat="43.85149" lon="7.9561683"><ele>86.0</ele><time>2026-04-26T10:44:57.047Z</time></trkpt><trkpt lat="43.8514467" lon="7.9560217"><ele>86.0</ele><time>2026-04-26T10:44:59.047Z</time></trkpt><trkpt lat="43.85143" lon="7.9558517"><ele>86.0</ele><time>2026-04-26T10:45:01.047Z</time></trkpt><trkpt lat="43.8514267" lon="7.9557583"><ele>86.0</ele><time>2026-04-26T10:45:02.047Z</time></trkpt><trkpt lat="43.85143" lon="7.9555983"><ele>85.83333333333334</ele><time>2026-04-26T10:45:04.047Z</time></trkpt><trkpt lat="43.85149" lon="7.9554867"><ele>85.66666666666667</ele><time>2026-04-26T10:45:06.047Z</time></trkpt><trkpt lat="43.8515483" lon="7.9554517"><ele>85.5</ele><time>2026-04-26T10:45:07.048Z</time></trkpt><trkpt lat="43.8516" lon="7.9554017"><ele>85.33333333333333</ele><time>2026-04-26T10:45:08.047Z</time></trkpt><trkpt lat="43.85165" lon="7.955345"><ele>85.16666666666666</ele><time>2026-04-26T10:45:09.047Z</time></trkpt><trkpt lat="43.8517" lon="7.9552083"><ele>85.0</ele><time>2026-04-26T10:45:11.047Z</time></trkpt><trkpt lat="43.8516933" lon="7.95505"><ele>83.8</ele><time>2026-04-26T10:45:13.047Z</time></trkpt><trkpt lat="43.85164" lon="7.954895"><ele>82.6</ele><time>2026-04-26T10:45:15.047Z</time></trkpt><trkpt lat="43.851565" lon="7.9547767"><ele>81.4</ele><time>2026-04-26T10:45:17.047Z</time></trkpt><trkpt lat="43.8514883" lon="7.95471"><ele>80.2</ele><time>2026-04-26T10:45:19.047Z</time></trkpt><trkpt lat="43.8514267" lon="7.9546017"><ele>79.0</ele><time>2026-04-26T10:45:21.047Z</time></trkpt><trkpt lat="43.8513683" lon="7.9545117"><ele>79.0</ele><time>2026-04-26T10:45:23.047Z</time></trkpt><trkpt lat="43.8512783" lon="7.9545117"><ele>79.0</ele><time>2026-04-26T10:45:25.047Z</time></trkpt><trkpt lat="43.8511717" lon="7.954585"><ele>79.0</ele><time>2026-04-26T10:45:27.047Z</time></trkpt><trkpt lat="43.85108" lon="7.9546533"><ele>79.0</ele><time>2026-04-26T10:45:29.047Z</time></trkpt><trkpt lat="43.8509867" lon="7.9547533"><ele>79.0</ele><time>2026-04-26T10:45:31.047Z</time></trkpt><trkpt lat="43.8509" lon="7.9548467"><ele>73.4</ele><time>2026-04-26T10:45:33.048Z</time></trkpt><trkpt lat="43.850805" lon="7.9549183"><ele>67.80000000000001</ele><time>2026-04-26T10:45:35.047Z</time></trkpt><trkpt lat="43.8507" lon="7.9549667"><ele>62.2</ele><time>2026-04-26T10:45:37.047Z</time></trkpt><trkpt lat="43.850625" lon="7.9550117"><ele>56.599999999999994</ele><time>2026-04-26T10:45:39.048Z</time></trkpt><trkpt lat="43.8505533" lon="7.9550783"><ele>51.0</ele><time>2026-04-26T10:45:41.047Z</time></trkpt><trkpt lat="43.850485" lon="7.9552067"><ele>51.0</ele><time>2026-04-26T10:45:43.047Z</time></trkpt><trkpt lat="43.8504367" lon="7.95532"><ele>51.0</ele><time>2026-04-26T10:45:45.047Z</time></trkpt><trkpt lat="43.85037" lon="7.9553333"><ele>51.0</ele><time>2026-04-26T10:45:48.047Z</time></trkpt><trkpt lat="43.8503283" lon="7.95521"><ele>51.0</ele><time>2026-04-26T10:45:50.047Z</time></trkpt><trkpt lat="43.8502983" lon="7.9551183"><ele>51.0</ele><time>2026-04-26T10:45:52.047Z</time></trkpt><trkpt lat="43.850275" lon="7.9550217"><ele>51.0</ele><time>2026-04-26T10:45:54.047Z</time></trkpt><trkpt lat="43.8502417" lon="7.9549083"><ele>51.0</ele><time>2026-04-26T10:45:56.047Z</time></trkpt><trkpt lat="43.850195" lon="7.95478"><ele>51.0</ele><time>2026-04-26T10:45:58.048Z</time></trkpt><trkpt lat="43.8501733" lon="7.9546233"><ele>51.0</ele><time>2026-04-26T10:46:00.047Z</time></trkpt><trkpt lat="43.8501717" lon="7.9544683"><ele>51.0</ele><time>2026-04-26T10:46:02.047Z</time></trkpt><trkpt lat="43.8501717" lon="7.9543483"><ele>51.0</ele><time>2026-04-26T10:46:04.047Z</time></trkpt><trkpt lat="43.8501283" lon="7.95424"><ele>48.4</ele><time>2026-04-26T10:46:06.047Z</time></trkpt><trkpt lat="43.8500317" lon="7.9541783"><ele>45.8</ele><time>2026-04-26T10:46:08.047Z</time></trkpt><trkpt lat="43.8499333" lon="7.9541433"><ele>43.199999999999996</ele><time>2026-04-26T10:46:10.047Z</time></trkpt><trkpt lat="43.8498283" lon="7.9540967"><ele>40.599999999999994</ele><time>2026-04-26T10:46:12.047Z</time></trkpt><trkpt lat="43.8497317" lon="7.95401"><ele>38.0</ele><time>2026-04-26T10:46:14.047Z</time></trkpt><trkpt lat="43.8496283" lon="7.9539183"><ele>38.0</ele><time>2026-04-26T10:46:16.048Z</time></trkpt><trkpt lat="43.8495267" lon="7.9538233"><ele>38.0</ele><time>2026-04-26T10:46:18.047Z</time></trkpt><trkpt lat="43.849485" lon="7.9537567"><ele>38.0</ele><time>2026-04-26T10:46:19.047Z</time></trkpt><trkpt lat="43.84941" lon="7.9536233"><ele>38.0</ele><time>2026-04-26T10:46:21.047Z</time></trkpt><trkpt lat="43.849345" lon="7.9534767"><ele>38.0</ele><time>2026-04-26T10:46:23.047Z</time></trkpt><trkpt lat="43.84931" lon="7.953395"><ele>35.666666666666664</ele><time>2026-04-26T10:46:24.047Z</time></trkpt><trkpt lat="43.8492783" lon="7.9533033"><ele>33.33333333333333</ele><time>2026-04-26T10:46:25.047Z</time></trkpt><trkpt lat="43.8492533" lon="7.9532117"><ele>31.0</ele><time>2026-04-26T10:46:26.047Z</time></trkpt><trkpt lat="43.8492283" lon="7.9531117"><ele>28.666666666666664</ele><time>2026-04-26T10:46:27.047Z</time></trkpt><trkpt lat="43.849205" lon="7.953005"><ele>26.333333333333332</ele><time>2026-04-26T10:46:28.047Z</time></trkpt><trkpt lat="43.8491917" lon="7.9528883"><ele>24.0</ele><time>2026-04-26T10:46:29.047Z</time></trkpt><trkpt lat="43.8491867" lon="7.95277"><ele>23.999999999999996</ele><time>2026-04-26T10:46:30.047Z</time></trkpt><trkpt lat="43.8491967" lon="7.9526583"><ele>24.0</ele><time>2026-04-26T10:46:31.047Z</time></trkpt><trkpt lat="43.84922" lon="7.952555"><ele>24.0</ele><time>2026-04-26T10:46:32.047Z</time></trkpt><trkpt lat="43.8492433" lon="7.9524683"><ele>24.0</ele><time>2026-04-26T10:46:33.048Z</time></trkpt><trkpt lat="43.8492617" lon="7.9523667"><ele>24.0</ele><time>2026-04-26T10:46:34.048Z</time></trkpt><trkpt lat="43.8492517" lon="7.95227"><ele>23.999999999999996</ele><time>2026-04-26T10:46:35.047Z</time></trkpt><trkpt lat="43.8492233" lon="7.9521833"><ele>24.0</ele><time>2026-04-26T10:46:36.047Z</time></trkpt><trkpt lat="43.84918" lon="7.95211"><ele>24.57142857142857</ele><time>2026-04-26T10:46:37.047Z</time></trkpt><trkpt lat="43.8491333" lon="7.952035"><ele>25.142857142857142</ele><time>2026-04-26T10:46:38.048Z</time></trkpt><trkpt lat="43.8490983" lon="7.95195"><ele>25.714285714285715</ele><time>2026-04-26T10:46:39.048Z</time></trkpt><trkpt lat="43.8490667" lon="7.9518567"><ele>26.285714285714285</ele><time>2026-04-26T10:46:40.047Z</time></trkpt><trkpt lat="43.84904" lon="7.951765"><ele>26.857142857142858</ele><time>2026-04-26T10:46:41.047Z</time></trkpt><trkpt lat="43.8490117" lon="7.951685"><ele>27.428571428571427</ele><time>2026-04-26T10:46:42.048Z</time></trkpt><trkpt lat="43.84896" lon="7.9515867"><ele>28.0</ele><time>2026-04-26T10:46:44.048Z</time></trkpt><trkpt lat="43.8488867" lon="7.9515717"><ele>28.000000000000004</ele><time>2026-04-26T10:46:48.047Z</time></trkpt><trkpt lat="43.8488367" lon="7.9516317"><ele>28.0</ele><time>2026-04-26T10:46:51.047Z</time></trkpt><trkpt lat="43.8488283" lon="7.95173"><ele>28.0</ele><time>2026-04-26T10:46:54.047Z</time></trkpt><trkpt lat="43.8488267" lon="7.9518317"><ele>28.0</ele><time>2026-04-26T10:47:01.047Z</time></trkpt><trkpt lat="43.8488417" lon="7.9519417"><ele>28.000000000000004</ele><time>2026-04-26T10:47:05.048Z</time></trkpt><trkpt lat="43.848865" lon="7.9520683"><ele>28.0</ele><time>2026-04-26T10:47:08.048Z</time></trkpt><trkpt lat="43.8488583" lon="7.9521783"><ele>28.0</ele><time>2026-04-26T10:47:10.047Z</time></trkpt><trkpt lat="43.8488433" lon="7.9522983"><ele>27.999999999999996</ele><time>2026-04-26T10:47:12.048Z</time></trkpt><trkpt lat="43.8488233" lon="7.952425"><ele>27.999999999999996</ele><time>2026-04-26T10:47:14.047Z</time></trkpt><trkpt lat="43.8488" lon="7.9525617"><ele>28.0</ele><time>2026-04-26T10:47:16.047Z</time></trkpt><trkpt lat="43.8487733" lon="7.952695"><ele>28.0</ele><time>2026-04-26T10:47:18.048Z</time></trkpt><trkpt lat="43.848755" lon="7.952825"><ele>27.333333333333336</ele><time>2026-04-26T10:47:20.047Z</time></trkpt><trkpt lat="43.8487517" lon="7.952985"><ele>26.666666666666668</ele><time>2026-04-26T10:47:22.047Z</time></trkpt><trkpt lat="43.848755" lon="7.9531083"><ele>26.0</ele><time>2026-04-26T10:47:24.047Z</time></trkpt><trkpt lat="43.8487067" lon="7.953045"><ele>25.333333333333336</ele><time>2026-04-26T10:47:30.047Z</time></trkpt><trkpt lat="43.8486417" lon="7.9530483"><ele>24.666666666666668</ele><time>2026-04-26T10:47:32.047Z</time></trkpt><trkpt lat="43.84863" lon="7.953135"><ele>24.0</ele><time>2026-04-26T10:47:34.047Z</time></trkpt><trkpt lat="43.8486683" lon="7.9532467"><ele>22.0</ele><time>2026-04-26T10:47:36.047Z</time></trkpt><trkpt lat="43.8487167" lon="7.9533833"><ele>20.0</ele><time>2026-04-26T10:47:38.047Z</time></trkpt><trkpt lat="43.8487567" lon="7.9535383"><ele>18.0</ele><time>2026-04-26T10:47:40.047Z</time></trkpt><trkpt lat="43.8488033" lon="7.9536967"><ele>16.0</ele><time>2026-04-26T10:47:42.047Z</time></trkpt><trkpt lat="43.8488267" lon="7.9537783"><ele>14.0</ele><time>2026-04-26T10:47:43.047Z</time></trkpt><trkpt lat="43.84887" lon="7.9539317"><ele>14.0</ele><time>2026-04-26T10:47:45.047Z</time></trkpt><trkpt lat="43.8489283" lon="7.9540717"><ele>13.999999999999998</ele><time>2026-04-26T10:47:47.047Z</time></trkpt><trkpt lat="43.8490067" lon="7.9542"><ele>13.999999999999998</ele><time>2026-04-26T10:47:49.047Z</time></trkpt><trkpt lat="43.8490933" lon="7.95431"><ele>14.0</ele><time>2026-04-26T10:47:51.047Z</time></trkpt><trkpt lat="43.8491533" lon="7.9543983"><ele>14.0</ele><time>2026-04-26T10:47:53.047Z</time></trkpt><trkpt lat="43.8492117" lon="7.9545033"><ele>11.75</ele><time>2026-04-26T10:47:55.047Z</time></trkpt><trkpt lat="43.849285" lon="7.9546133"><ele>9.5</ele><time>2026-04-26T10:47:57.047Z</time></trkpt><trkpt lat="43.8493867" lon="7.9547167"><ele>7.25</ele><time>2026-04-26T10:47:59.047Z</time></trkpt><trkpt lat="43.8494917" lon="7.9547967"><ele>5.0</ele><time>2026-04-26T10:48:01.047Z</time></trkpt><trkpt lat="43.8495783" lon="7.9549083"><ele>6.6</ele><time>2026-04-26T10:48:03.047Z</time></trkpt><trkpt lat="43.84964" lon="7.9550317"><ele>8.2</ele><time>2026-04-26T10:48:05.047Z</time></trkpt><trkpt lat="43.8496917" lon="7.9551517"><ele>9.8</ele><time>2026-04-26T10:48:07.048Z</time></trkpt><trkpt lat="43.849745" lon="7.95528"><ele>11.4</ele><time>2026-04-26T10:48:09.047Z</time></trkpt><trkpt lat="43.8498083" lon="7.9553983"><ele>13.0</ele><time>2026-04-26T10:48:11.047Z</time></trkpt><trkpt lat="43.8498633" lon="7.955525"><ele>13.0</ele><time>2026-04-26T10:48:13.047Z</time></trkpt><trkpt lat="43.8499117" lon="7.955665"><ele>13.0</ele><time>2026-04-26T10:48:15.047Z</time></trkpt><trkpt lat="43.8499617" lon="7.9558117"><ele>13.0</ele><time>2026-04-26T10:48:17.047Z</time></trkpt><trkpt lat="43.8500117" lon="7.9559567"><ele>13.0</ele><time>2026-04-26T10:48:19.047Z</time></trkpt><trkpt lat="43.850075" lon="7.9560933"><ele>17.8</ele><time>2026-04-26T10:48:21.047Z</time></trkpt><trkpt lat="43.8501283" lon="7.9562233"><ele>22.6</ele><time>2026-04-26T10:48:23.047Z</time></trkpt><trkpt lat="43.8501767" lon="7.9563567"><ele>27.400000000000002</ele><time>2026-04-26T10:48:25.047Z</time></trkpt><trkpt lat="43.8502083" lon="7.9564967"><ele>32.2</ele><time>2026-04-26T10:48:27.047Z</time></trkpt><trkpt lat="43.8502233" lon="7.9566633"><ele>37.0</ele><time>2026-04-26T10:48:29.047Z</time></trkpt><trkpt lat="43.8502433" lon="7.95683"><ele>37.0</ele><time>2026-04-26T10:48:31.047Z</time></trkpt><trkpt lat="43.8502633" lon="7.95699"><ele>37.0</ele><time>2026-04-26T10:48:33.047Z</time></trkpt><trkpt lat="43.85028" lon="7.9571533"><ele>37.0</ele><time>2026-04-26T10:48:35.047Z</time></trkpt><trkpt lat="43.8502983" lon="7.9573167"><ele>37.0</ele><time>2026-04-26T10:48:37.047Z</time></trkpt><trkpt lat="43.8503133" lon="7.9574817"><ele>35.0</ele><time>2026-04-26T10:48:39.047Z</time></trkpt><trkpt lat="43.8503283" lon="7.9576433"><ele>33.0</ele><time>2026-04-26T10:48:41.047Z</time></trkpt><trkpt lat="43.8503417" lon="7.9578017"><ele>31.0</ele><time>2026-04-26T10:48:43.047Z</time></trkpt><trkpt lat="43.8503567" lon="7.9579633"><ele>29.0</ele><time>2026-04-26T10:48:45.047Z</time></trkpt><trkpt lat="43.85037" lon="7.958125"><ele>29.0</ele><time>2026-04-26T10:48:47.047Z</time></trkpt><trkpt lat="43.8503917" lon="7.9582833"><ele>29.0</ele><time>2026-04-26T10:48:49.048Z</time></trkpt><trkpt lat="43.8504033" lon="7.958445"><ele>29.0</ele><time>2026-04-26T10:48:51.047Z</time></trkpt><trkpt lat="43.8504217" lon="7.9586"><ele>29.0</ele><time>2026-04-26T10:48:53.047Z</time></trkpt><trkpt lat="43.8504483" lon="7.958755"><ele>27.0</ele><time>2026-04-26T10:48:55.047Z</time></trkpt><trkpt lat="43.850455" lon="7.9589183"><ele>25.0</ele><time>2026-04-26T10:48:57.047Z</time></trkpt><trkpt lat="43.8504817" lon="7.9590783"><ele>23.0</ele><time>2026-04-26T10:48:59.047Z</time></trkpt><trkpt lat="43.8505033" lon="7.95924"><ele>21.0</ele><time>2026-04-26T10:49:01.047Z</time></trkpt><trkpt lat="43.8505267" lon="7.95939"><ele>19.25</ele><time>2026-04-26T10:49:03.047Z</time></trkpt><trkpt lat="43.8505517" lon="7.9595483"><ele>17.5</ele><time>2026-04-26T10:49:05.047Z</time></trkpt><trkpt lat="43.850585" lon="7.9597"><ele>15.75</ele><time>2026-04-26T10:49:07.047Z</time></trkpt><trkpt lat="43.8506233" lon="7.9598517"><ele>14.0</ele><time>2026-04-26T10:49:09.047Z</time></trkpt><trkpt lat="43.85067" lon="7.9599933"><ele>12.25</ele><time>2026-04-26T10:49:11.047Z</time></trkpt><trkpt lat="43.8507133" lon="7.96014"><ele>10.5</ele><time>2026-04-26T10:49:13.047Z</time></trkpt><trkpt lat="43.8507617" lon="7.9602867"><ele>8.75</ele><time>2026-04-26T10:49:15.047Z</time></trkpt><trkpt lat="43.8508167" lon="7.960435"><ele>7.0</ele><time>2026-04-26T10:49:17.047Z</time></trkpt><trkpt lat="43.850875" lon="7.960575"><ele>7.0</ele><time>2026-04-26T10:49:19.047Z</time></trkpt><trkpt lat="43.8509417" lon="7.9607167"><ele>7.0</ele><time>2026-04-26T10:49:21.047Z</time></trkpt><trkpt lat="43.8510117" lon="7.96086"><ele>7.0</ele><time>2026-04-26T10:49:23.047Z</time></trkpt><trkpt lat="43.8510867" lon="7.9609933"><ele>7.0</ele><time>2026-04-26T10:49:25.047Z</time></trkpt><trkpt lat="43.851155" lon="7.9611267"><ele>9.75</ele><time>2026-04-26T10:49:27.047Z</time></trkpt><trkpt lat="43.85122" lon="7.9612633"><ele>12.5</ele><time>2026-04-26T10:49:29.047Z</time></trkpt><trkpt lat="43.8512967" lon="7.961385"><ele>15.25</ele><time>2026-04-26T10:49:31.047Z</time></trkpt><trkpt lat="43.85137" lon="7.961515"><ele>18.0</ele><time>2026-04-26T10:49:33.047Z</time></trkpt><trkpt lat="43.851445" lon="7.961645"><ele>17.8</ele><time>2026-04-26T10:49:35.047Z</time></trkpt><trkpt lat="43.8515217" lon="7.961755"><ele>17.6</ele><time>2026-04-26T10:49:37.047Z</time></trkpt><trkpt lat="43.8515883" lon="7.9618667"><ele>17.4</ele><time>2026-04-26T10:49:39.047Z</time></trkpt><trkpt lat="43.8516533" lon="7.96198"><ele>17.2</ele><time>2026-04-26T10:49:41.047Z</time></trkpt><trkpt lat="43.8517267" lon="7.9621"><ele>17.0</ele><time>2026-04-26T10:49:43.047Z</time></trkpt><trkpt lat="43.85181" lon="7.9622133"><ele>17.0</ele><time>2026-04-26T10:49:45.048Z</time></trkpt><trkpt lat="43.8518817" lon="7.9623317"><ele>17.0</ele><time>2026-04-26T10:49:47.047Z</time></trkpt><trkpt lat="43.851965" lon="7.9624483"><ele>17.0</ele><time>2026-04-26T10:49:49.048Z</time></trkpt><trkpt lat="43.8520417" lon="7.9625633"><ele>17.0</ele><time>2026-04-26T10:49:51.047Z</time></trkpt><trkpt lat="43.85213" lon="7.96268"><ele>15.6</ele><time>2026-04-26T10:49:53.047Z</time></trkpt><trkpt lat="43.852205" lon="7.9627817"><ele>14.2</ele><time>2026-04-26T10:49:55.047Z</time></trkpt><trkpt lat="43.8522867" lon="7.9628883"><ele>12.8</ele><time>2026-04-26T10:49:57.047Z</time></trkpt><trkpt lat="43.852355" lon="7.9629967"><ele>11.4</ele><time>2026-04-26T10:49:59.047Z</time></trkpt><trkpt lat="43.8524217" lon="7.9631217"><ele>10.0</ele><time>2026-04-26T10:50:01.047Z</time></trkpt><trkpt lat="43.85249" lon="7.9632383"><ele>10.0</ele><time>2026-04-26T10:50:03.047Z</time></trkpt><trkpt lat="43.85255" lon="7.9633617"><ele>10.0</ele><time>2026-04-26T10:50:05.047Z</time></trkpt><trkpt lat="43.8526083" lon="7.9634833"><ele>10.0</ele><time>2026-04-26T10:50:07.047Z</time></trkpt><trkpt lat="43.852665" lon="7.963605"><ele>10.0</ele><time>2026-04-26T10:50:09.047Z</time></trkpt><trkpt lat="43.852725" lon="7.963715"><ele>10.0</ele><time>2026-04-26T10:50:11.047Z</time></trkpt><trkpt lat="43.852775" lon="7.9638283"><ele>10.0</ele><time>2026-04-26T10:50:13.047Z</time></trkpt><trkpt lat="43.8528283" lon="7.963945"><ele>10.0</ele><time>2026-04-26T10:50:15.048Z</time></trkpt><trkpt lat="43.8528783" lon="7.964075"><ele>10.0</ele><time>2026-04-26T10:50:17.047Z</time></trkpt><trkpt lat="43.8529367" lon="7.9641983"><ele>10.0</ele><time>2026-04-26T10:50:19.047Z</time></trkpt><trkpt lat="43.8529917" lon="7.964325"><ele>10.0</ele><time>2026-04-26T10:50:21.047Z</time></trkpt><trkpt lat="43.8530417" lon="7.964455"><ele>10.0</ele><time>2026-04-26T10:50:23.047Z</time></trkpt><trkpt lat="43.853085" lon="7.9645783"><ele>10.0</ele><time>2026-04-26T10:50:25.048Z</time></trkpt><trkpt lat="43.85313" lon="7.9646983"><ele>10.0</ele><time>2026-04-26T10:50:27.047Z</time></trkpt><trkpt lat="43.853185" lon="7.9648183"><ele>10.0</ele><time>2026-04-26T10:50:29.047Z</time></trkpt><trkpt lat="43.8532517" lon="7.9649383"><ele>10.0</ele><time>2026-04-26T10:50:31.047Z</time></trkpt><trkpt lat="43.8533233" lon="7.96504"><ele>9.6</ele><time>2026-04-26T10:50:33.047Z</time></trkpt><trkpt lat="43.8533917" lon="7.9651417"><ele>9.2</ele><time>2026-04-26T10:50:35.047Z</time></trkpt><trkpt lat="43.85347" lon="7.9652483"><ele>8.8</ele><time>2026-04-26T10:50:37.047Z</time></trkpt><trkpt lat="43.8535483" lon="7.96535"><ele>8.4</ele><time>2026-04-26T10:50:39.047Z</time></trkpt><trkpt lat="43.8536283" lon="7.9654467"><ele>8.0</ele><time>2026-04-26T10:50:41.047Z</time></trkpt><trkpt lat="43.85371" lon="7.9655333"><ele>7.4</ele><time>2026-04-26T10:50:43.047Z</time></trkpt><trkpt lat="43.8537983" lon="7.96562"><ele>6.800000000000001</ele><time>2026-04-26T10:50:45.048Z</time></trkpt><trkpt lat="43.8538883" lon="7.9656983"><ele>6.2</ele><time>2026-04-26T10:50:47.047Z</time></trkpt><trkpt lat="43.8539783" lon="7.9657833"><ele>5.6</ele><time>2026-04-26T10:50:49.047Z</time></trkpt><trkpt lat="43.85407" lon="7.9658683"><ele>5.0</ele><time>2026-04-26T10:50:51.048Z</time></trkpt><trkpt lat="43.8541667" lon="7.9659483"><ele>5.0</ele><time>2026-04-26T10:50:53.048Z</time></trkpt><trkpt lat="43.854265" lon="7.9660133"><ele>5.0</ele><time>2026-04-26T10:50:55.047Z</time></trkpt><trkpt lat="43.8543583" lon="7.9660783"><ele>5.0</ele><time>2026-04-26T10:50:57.047Z</time></trkpt><trkpt lat="43.854445" lon="7.96614"><ele>5.0</ele><time>2026-04-26T10:50:59.048Z</time></trkpt><trkpt lat="43.8545367" lon="7.9661817"><ele>5.0</ele><time>2026-04-26T10:51:01.047Z</time></trkpt><trkpt lat="43.8546283" lon="7.9662283"><ele>5.8</ele><time>2026-04-26T10:51:03.047Z</time></trkpt><trkpt lat="43.8547183" lon="7.96628"><ele>6.6</ele><time>2026-04-26T10:51:05.047Z</time></trkpt><trkpt lat="43.8548133" lon="7.9663183"><ele>7.4</ele><time>2026-04-26T10:51:07.047Z</time></trkpt><trkpt lat="43.8549067" lon="7.96635"><ele>8.2</ele><time>2026-04-26T10:51:09.047Z</time></trkpt><trkpt lat="43.8550033" lon="7.9663783"><ele>9.0</ele><time>2026-04-26T10:51:11.047Z</time></trkpt><trkpt lat="43.8550917" lon="7.9664117"><ele>10.0</ele><time>2026-04-26T10:51:13.047Z</time></trkpt><trkpt lat="43.8551817" lon="7.9664533"><ele>11.0</ele><time>2026-04-26T10:51:15.047Z</time></trkpt><trkpt lat="43.8552733" lon="7.9665083"><ele>11.999999999999998</ele><time>2026-04-26T10:51:17.047Z</time></trkpt><trkpt lat="43.8553683" lon="7.966555"><ele>13.0</ele><time>2026-04-26T10:51:19.047Z</time></trkpt><trkpt lat="43.8554667" lon="7.9666033"><ele>14.0</ele><time>2026-04-26T10:51:21.047Z</time></trkpt><trkpt lat="43.85557" lon="7.9666433"><ele>14.0</ele><time>2026-04-26T10:51:23.048Z</time></trkpt><trkpt lat="43.8556733" lon="7.96668"><ele>13.999999999999998</ele><time>2026-04-26T10:51:25.047Z</time></trkpt><trkpt lat="43.855775" lon="7.966715"><ele>13.999999999999998</ele><time>2026-04-26T10:51:27.047Z</time></trkpt><trkpt lat="43.85588" lon="7.96675"><ele>14.0</ele><time>2026-04-26T10:51:29.048Z</time></trkpt><trkpt lat="43.8559833" lon="7.9667883"><ele>14.0</ele><time>2026-04-26T10:51:31.048Z</time></trkpt><trkpt lat="43.856085" lon="7.9668267"><ele>11.399999999999999</ele><time>2026-04-26T10:51:33.047Z</time></trkpt><trkpt lat="43.85618" lon="7.9668767"><ele>8.799999999999999</ele><time>2026-04-26T10:51:35.047Z</time></trkpt><trkpt lat="43.8562833" lon="7.966915"><ele>6.199999999999999</ele><time>2026-04-26T10:51:37.048Z</time></trkpt><trkpt lat="43.8563883" lon="7.9669433"><ele>3.5999999999999996</ele><time>2026-04-26T10:51:39.047Z</time></trkpt><trkpt lat="43.85649" lon="7.9669733"><ele>1.0</ele><time>2026-04-26T10:51:41.047Z</time></trkpt><trkpt lat="43.8565933" lon="7.9670083"><ele>1.0</ele><time>2026-04-26T10:51:43.047Z</time></trkpt><trkpt lat="43.8566967" lon="7.9670383"><ele>1.0</ele><time>2026-04-26T10:51:45.047Z</time></trkpt><trkpt lat="43.8568017" lon="7.9670733"><ele>1.0</ele><time>2026-04-26T10:51:47.047Z</time></trkpt><trkpt lat="43.8569067" lon="7.96711"><ele>1.0</ele><time>2026-04-26T10:51:49.047Z</time></trkpt><trkpt lat="43.8570117" lon="7.9671567"><ele>1.0</ele><time>2026-04-26T10:51:51.047Z</time></trkpt><trkpt lat="43.857115" lon="7.967205"><ele>2.0</ele><time>2026-04-26T10:51:53.047Z</time></trkpt><trkpt lat="43.8572167" lon="7.9672633"><ele>3.0</ele><time>2026-04-26T10:51:55.047Z</time></trkpt><trkpt lat="43.8573233" lon="7.96731"><ele>3.9999999999999996</ele><time>2026-04-26T10:51:57.047Z</time></trkpt><trkpt lat="43.8574333" lon="7.9673483"><ele>5.0</ele><time>2026-04-26T10:51:59.047Z</time></trkpt><trkpt lat="43.8575417" lon="7.967385"><ele>6.0</ele><time>2026-04-26T10:52:01.048Z</time></trkpt><trkpt lat="43.8576483" lon="7.9674267"><ele>5.3999999999999995</ele><time>2026-04-26T10:52:03.047Z</time></trkpt><trkpt lat="43.857755" lon="7.9674667"><ele>4.8</ele><time>2026-04-26T10:52:05.047Z</time></trkpt><trkpt lat="43.8578617" lon="7.9675117"><ele>4.199999999999999</ele><time>2026-04-26T10:52:07.047Z</time></trkpt><trkpt lat="43.85797" lon="7.9675517"><ele>3.5999999999999996</ele><time>2026-04-26T10:52:09.047Z</time></trkpt><trkpt lat="43.858075" lon="7.9675967"><ele>3.0</ele><time>2026-04-26T10:52:11.047Z</time></trkpt><trkpt lat="43.8581783" lon="7.9676633"><ele>3.0</ele><time>2026-04-26T10:52:13.047Z</time></trkpt><trkpt lat="43.858285" lon="7.96772"><ele>3.0</ele><time>2026-04-26T10:52:15.047Z</time></trkpt><trkpt lat="43.85839" lon="7.9677683"><ele>3.0</ele><time>2026-04-26T10:52:17.047Z</time></trkpt><trkpt lat="43.8585017" lon="7.9678067"><ele>3.0</ele><time>2026-04-26T10:52:19.047Z</time></trkpt><trkpt lat="43.858615" lon="7.9678417"><ele>4.25</ele><time>2026-04-26T10:52:21.047Z</time></trkpt><trkpt lat="43.8587317" lon="7.9678667"><ele>5.5</ele><time>2026-04-26T10:52:23.047Z</time></trkpt><trkpt lat="43.85884" lon="7.9679083"><ele>6.75</ele><time>2026-04-26T10:52:25.047Z</time></trkpt><trkpt lat="43.85895" lon="7.9679733"><ele>8.0</ele><time>2026-04-26T10:52:27.047Z</time></trkpt><trkpt lat="43.8590633" lon="7.9680333"><ele>8.0</ele><time>2026-04-26T10:52:29.048Z</time></trkpt><trkpt lat="43.8591733" lon="7.9680933"><ele>8.0</ele><time>2026-04-26T10:52:31.047Z</time></trkpt><trkpt lat="43.8592767" lon="7.968175"><ele>8.0</ele><time>2026-04-26T10:52:33.047Z</time></trkpt><trkpt lat="43.8593767" lon="7.9682567"><ele>8.0</ele><time>2026-04-26T10:52:35.047Z</time></trkpt><trkpt lat="43.8594733" lon="7.96834"><ele>8.0</ele><time>2026-04-26T10:52:37.047Z</time></trkpt><trkpt lat="43.859565" lon="7.9684267"><ele>8.0</ele><time>2026-04-26T10:52:39.047Z</time></trkpt><trkpt lat="43.8596483" lon="7.9685233"><ele>8.0</ele><time>2026-04-26T10:52:41.048Z</time></trkpt><trkpt lat="43.8597433" lon="7.968605"><ele>8.0</ele><time>2026-04-26T10:52:43.047Z</time></trkpt><trkpt lat="43.859835" lon="7.9687067"><ele>8.0</ele><time>2026-04-26T10:52:45.048Z</time></trkpt><trkpt lat="43.859925" lon="7.9688117"><ele>8.0</ele><time>2026-04-26T10:52:47.047Z</time></trkpt><trkpt lat="43.86001" lon="7.9689233"><ele>8.0</ele><time>2026-04-26T10:52:49.047Z</time></trkpt><trkpt lat="43.8600917" lon="7.9690317"><ele>8.0</ele><time>2026-04-26T10:52:51.047Z</time></trkpt><trkpt lat="43.8601633" lon="7.9691533"><ele>8.0</ele><time>2026-04-26T10:52:53.047Z</time></trkpt><trkpt lat="43.8602333" lon="7.96927"><ele>8.0</ele><time>2026-04-26T10:52:55.048Z</time></trkpt><trkpt lat="43.86031" lon="7.9693767"><ele>8.0</ele><time>2026-04-26T10:52:57.047Z</time></trkpt><trkpt lat="43.8603833" lon="7.96949"><ele>8.0</ele><time>2026-04-26T10:52:59.047Z</time></trkpt><trkpt lat="43.8604583" lon="7.9696"><ele>8.0</ele><time>2026-04-26T10:53:01.047Z</time></trkpt><trkpt lat="43.86053" lon="7.96972"><ele>8.0</ele><time>2026-04-26T10:53:03.047Z</time></trkpt><trkpt lat="43.8606017" lon="7.969835"><ele>7.999999999999999</ele><time>2026-04-26T10:53:05.047Z</time></trkpt><trkpt lat="43.8606683" lon="7.9699583"><ele>8.0</ele><time>2026-04-26T10:53:07.047Z</time></trkpt><trkpt lat="43.8607333" lon="7.97009"><ele>8.0</ele><time>2026-04-26T10:53:09.047Z</time></trkpt><trkpt lat="43.8607667" lon="7.970165"><ele>8.0</ele><time>2026-04-26T10:53:10.047Z</time></trkpt><trkpt lat="43.860805" lon="7.97024"><ele>7.999999999999999</ele><time>2026-04-26T10:53:11.047Z</time></trkpt><trkpt lat="43.8608367" lon="7.97032"><ele>8.0</ele><time>2026-04-26T10:53:12.047Z</time></trkpt><trkpt lat="43.86087" lon="7.9704017"><ele>7.857142857142857</ele><time>2026-04-26T10:53:13.047Z</time></trkpt><trkpt lat="43.8609017" lon="7.970485"><ele>7.7142857142857135</ele><time>2026-04-26T10:53:14.047Z</time></trkpt><trkpt lat="43.860935" lon="7.97057"><ele>7.571428571428571</ele><time>2026-04-26T10:53:15.047Z</time></trkpt><trkpt lat="43.8609667" lon="7.9706583"><ele>7.428571428571429</ele><time>2026-04-26T10:53:16.048Z</time></trkpt><trkpt lat="43.860995" lon="7.970745"><ele>7.285714285714286</ele><time>2026-04-26T10:53:17.047Z</time></trkpt><trkpt lat="43.8610267" lon="7.97083"><ele>7.142857142857142</ele><time>2026-04-26T10:53:18.047Z</time></trkpt><trkpt lat="43.8610567" lon="7.9709117"><ele>7.0</ele><time>2026-04-26T10:53:19.047Z</time></trkpt><trkpt lat="43.861105" lon="7.971065"><ele>10.25</ele><time>2026-04-26T10:53:21.047Z</time></trkpt><trkpt lat="43.86115" lon="7.97121"><ele>13.5</ele><time>2026-04-26T10:53:23.047Z</time></trkpt><trkpt lat="43.8611917" lon="7.9713533"><ele>16.75</ele><time>2026-04-26T10:53:25.047Z</time></trkpt><trkpt lat="43.8612317" lon="7.971505"><ele>20.0</ele><time>2026-04-26T10:53:27.047Z</time></trkpt><trkpt lat="43.8612533" lon="7.9716633"><ele>20.0</ele><time>2026-04-26T10:53:29.047Z</time></trkpt><trkpt lat="43.861265" lon="7.9718167"><ele>20.0</ele><time>2026-04-26T10:53:31.047Z</time></trkpt><trkpt lat="43.8612783" lon="7.9719717"><ele>20.0</ele><time>2026-04-26T10:53:33.047Z</time></trkpt><trkpt lat="43.8612933" lon="7.972125"><ele>20.0</ele><time>2026-04-26T10:53:35.047Z</time></trkpt><trkpt lat="43.86131" lon="7.97228"><ele>20.0</ele><time>2026-04-26T10:53:37.047Z</time></trkpt><trkpt lat="43.8613317" lon="7.9724383"><ele>19.75</ele><time>2026-04-26T10:53:39.047Z</time></trkpt><trkpt lat="43.861355" lon="7.9725983"><ele>19.5</ele><time>2026-04-26T10:53:41.047Z</time></trkpt><trkpt lat="43.861375" lon="7.9727617"><ele>19.25</ele><time>2026-04-26T10:53:43.048Z</time></trkpt><trkpt lat="43.861405" lon="7.9729267"><ele>19.0</ele><time>2026-04-26T10:53:45.047Z</time></trkpt><trkpt lat="43.8614367" lon="7.973085"><ele>19.0</ele><time>2026-04-26T10:53:47.046Z</time></trkpt><trkpt lat="43.86147" lon="7.9732433"><ele>19.0</ele><time>2026-04-26T10:53:49.046Z</time></trkpt><trkpt lat="43.8615083" lon="7.9734017"><ele>19.0</ele><time>2026-04-26T10:53:51.046Z</time></trkpt><trkpt lat="43.8615517" lon="7.9735517"><ele>19.0</ele><time>2026-04-26T10:53:53.046Z</time></trkpt><trkpt lat="43.8615967" lon="7.973705"><ele>20.75</ele><time>2026-04-26T10:53:55.046Z</time></trkpt><trkpt lat="43.8616467" lon="7.9738533"><ele>22.5</ele><time>2026-04-26T10:53:57.048Z</time></trkpt><trkpt lat="43.8617" lon="7.9739967"><ele>24.25</ele><time>2026-04-26T10:53:59.047Z</time></trkpt><trkpt lat="43.8617567" lon="7.9741417"><ele>26.0</ele><time>2026-04-26T10:54:01.047Z</time></trkpt><trkpt lat="43.8618233" lon="7.9742717"><ele>26.0</ele><time>2026-04-26T10:54:03.047Z</time></trkpt><trkpt lat="43.8618817" lon="7.9744017"><ele>26.0</ele><time>2026-04-26T10:54:05.047Z</time></trkpt><trkpt lat="43.8619517" lon="7.9745267"><ele>26.0</ele><time>2026-04-26T10:54:07.048Z</time></trkpt><trkpt lat="43.8620183" lon="7.9746583"><ele>26.0</ele><time>2026-04-26T10:54:09.047Z</time></trkpt><trkpt lat="43.862075" lon="7.974805"><ele>26.0</ele><time>2026-04-26T10:54:11.047Z</time></trkpt><trkpt lat="43.8621333" lon="7.9749467"><ele>26.0</ele><time>2026-04-26T10:54:13.047Z</time></trkpt><trkpt lat="43.8622033" lon="7.9750767"><ele>26.0</ele><time>2026-04-26T10:54:15.047Z</time></trkpt><trkpt lat="43.8622717" lon="7.975215"><ele>26.0</ele><time>2026-04-26T10:54:17.047Z</time></trkpt><trkpt lat="43.8623417" lon="7.975345"><ele>23.25</ele><time>2026-04-26T10:54:19.047Z</time></trkpt><trkpt lat="43.8624083" lon="7.9754867"><ele>20.5</ele><time>2026-04-26T10:54:21.047Z</time></trkpt><trkpt lat="43.8624733" lon="7.9756183"><ele>17.75</ele><time>2026-04-26T10:54:23.047Z</time></trkpt><trkpt lat="43.86253" lon="7.975755"><ele>15.0</ele><time>2026-04-26T10:54:25.047Z</time></trkpt><trkpt lat="43.86258" lon="7.975905"><ele>21.25</ele><time>2026-04-26T10:54:27.047Z</time></trkpt><trkpt lat="43.8626267" lon="7.9760567"><ele>27.5</ele><time>2026-04-26T10:54:29.047Z</time></trkpt><trkpt lat="43.8626683" lon="7.9762167"><ele>33.75</ele><time>2026-04-26T10:54:31.047Z</time></trkpt><trkpt lat="43.86271" lon="7.9763767"><ele>40.0</ele><time>2026-04-26T10:54:33.047Z</time></trkpt><trkpt lat="43.8627433" lon="7.9765333"><ele>39.25</ele><time>2026-04-26T10:54:35.047Z</time></trkpt><trkpt lat="43.8627767" lon="7.9766867"><ele>38.5</ele><time>2026-04-26T10:54:37.047Z</time></trkpt><trkpt lat="43.86281" lon="7.97684"><ele>37.75</ele><time>2026-04-26T10:54:39.048Z</time></trkpt><trkpt lat="43.8628417" lon="7.9769983"><ele>37.0</ele><time>2026-04-26T10:54:41.048Z</time></trkpt><trkpt lat="43.86287" lon="7.9771533"><ele>37.0</ele><time>2026-04-26T10:54:43.047Z</time></trkpt><trkpt lat="43.86289" lon="7.9773183"><ele>37.0</ele><time>2026-04-26T10:54:45.047Z</time></trkpt><trkpt lat="43.8629117" lon="7.977485"><ele>37.0</ele><time>2026-04-26T10:54:47.048Z</time></trkpt><trkpt lat="43.8629283" lon="7.9776533"><ele>37.0</ele><time>2026-04-26T10:54:49.047Z</time></trkpt><trkpt lat="43.86294" lon="7.977815"><ele>36.0</ele><time>2026-04-26T10:54:51.047Z</time></trkpt><trkpt lat="43.862955" lon="7.9779783"><ele>35.0</ele><time>2026-04-26T10:54:53.048Z</time></trkpt><trkpt lat="43.8629667" lon="7.9781433"><ele>34.0</ele><time>2026-04-26T10:54:55.047Z</time></trkpt><trkpt lat="43.86298" lon="7.9783033"><ele>33.0</ele><time>2026-04-26T10:54:57.047Z</time></trkpt><trkpt lat="43.862995" lon="7.9784667"><ele>32.0</ele><time>2026-04-26T10:54:59.047Z</time></trkpt><trkpt lat="43.8630167" lon="7.97863"><ele>30.999999999999996</ele><time>2026-04-26T10:55:01.047Z</time></trkpt><trkpt lat="43.8630417" lon="7.9787917"><ele>29.999999999999996</ele><time>2026-04-26T10:55:03.047Z</time></trkpt><trkpt lat="43.8630683" lon="7.9789517"><ele>29.0</ele><time>2026-04-26T10:55:05.047Z</time></trkpt><trkpt lat="43.863085" lon="7.9790367"><ele>28.0</ele><time>2026-04-26T10:55:06.047Z</time></trkpt><trkpt lat="43.86312" lon="7.979195"><ele>25.25</ele><time>2026-04-26T10:55:08.047Z</time></trkpt><trkpt lat="43.86316" lon="7.979355"><ele>22.5</ele><time>2026-04-26T10:55:10.047Z</time></trkpt><trkpt lat="43.8632033" lon="7.9795083"><ele>19.75</ele><time>2026-04-26T10:55:12.047Z</time></trkpt><trkpt lat="43.863245" lon="7.9796567"><ele>17.0</ele><time>2026-04-26T10:55:14.047Z</time></trkpt><trkpt lat="43.8632883" lon="7.9798067"><ele>17.0</ele><time>2026-04-26T10:55:16.048Z</time></trkpt><trkpt lat="43.86334" lon="7.97996"><ele>17.0</ele><time>2026-04-26T10:55:18.047Z</time></trkpt><trkpt lat="43.8633933" lon="7.98011"><ele>17.0</ele><time>2026-04-26T10:55:20.047Z</time></trkpt><trkpt lat="43.863445" lon="7.9802583"><ele>17.0</ele><time>2026-04-26T10:55:22.047Z</time></trkpt><trkpt lat="43.863495" lon="7.9804133"><ele>22.75</ele><time>2026-04-26T10:55:24.047Z</time></trkpt><trkpt lat="43.86354" lon="7.98057"><ele>28.5</ele><time>2026-04-26T10:55:26.047Z</time></trkpt><trkpt lat="43.8635817" lon="7.9807267"><ele>34.25</ele><time>2026-04-26T10:55:28.047Z</time></trkpt><trkpt lat="43.8636283" lon="7.9808783"><ele>40.0</ele><time>2026-04-26T10:55:30.048Z</time></trkpt><trkpt lat="43.8636717" lon="7.981035"><ele>40.0</ele><time>2026-04-26T10:55:32.047Z</time></trkpt><trkpt lat="43.863705" lon="7.9812"><ele>40.0</ele><time>2026-04-26T10:55:34.048Z</time></trkpt><trkpt lat="43.8637367" lon="7.9813617"><ele>40.0</ele><time>2026-04-26T10:55:36.047Z</time></trkpt><trkpt lat="43.8637633" lon="7.9815217"><ele>40.0</ele><time>2026-04-26T10:55:38.048Z</time></trkpt><trkpt lat="43.863795" lon="7.9816817"><ele>37.25</ele><time>2026-04-26T10:55:40.048Z</time></trkpt><trkpt lat="43.863825" lon="7.981845"><ele>34.5</ele><time>2026-04-26T10:55:42.047Z</time></trkpt><trkpt lat="43.8638567" lon="7.9820117"><ele>31.75</ele><time>2026-04-26T10:55:44.047Z</time></trkpt><trkpt lat="43.863885" lon="7.98217"><ele>29.0</ele><time>2026-04-26T10:55:46.047Z</time></trkpt><trkpt lat="43.8639067" lon="7.98233"><ele>29.0</ele><time>2026-04-26T10:55:48.047Z</time></trkpt><trkpt lat="43.8639383" lon="7.9824917"><ele>29.0</ele><time>2026-04-26T10:55:50.047Z</time></trkpt><trkpt lat="43.86397" lon="7.9826583"><ele>29.0</ele><time>2026-04-26T10:55:52.047Z</time></trkpt><trkpt lat="43.8640033" lon="7.9828233"><ele>29.0</ele><time>2026-04-26T10:55:54.047Z</time></trkpt><trkpt lat="43.8640217" lon="7.98291"><ele>29.0</ele><time>2026-04-26T10:55:55.047Z</time></trkpt><trkpt lat="43.8640383" lon="7.982995"><ele>26.599999999999998</ele><time>2026-04-26T10:55:56.047Z</time></trkpt><trkpt lat="43.86406" lon="7.9831617"><ele>24.2</ele><time>2026-04-26T10:55:58.047Z</time></trkpt><trkpt lat="43.8640767" lon="7.98333"><ele>21.799999999999997</ele><time>2026-04-26T10:56:00.047Z</time></trkpt><trkpt lat="43.8640917" lon="7.983415"><ele>19.4</ele><time>2026-04-26T10:56:01.048Z</time></trkpt><trkpt lat="43.8641133" lon="7.9835833"><ele>17.0</ele><time>2026-04-26T10:56:03.047Z</time></trkpt><trkpt lat="43.864135" lon="7.9837467"><ele>16.25</ele><time>2026-04-26T10:56:05.047Z</time></trkpt><trkpt lat="43.8641633" lon="7.9839083"><ele>15.5</ele><time>2026-04-26T10:56:07.047Z</time></trkpt><trkpt lat="43.8641983" lon="7.9840633"><ele>14.75</ele><time>2026-04-26T10:56:09.047Z</time></trkpt><trkpt lat="43.8642383" lon="7.9842283"><ele>14.0</ele><time>2026-04-26T10:56:11.047Z</time></trkpt><trkpt lat="43.8642667" lon="7.9843933"><ele>22.5</ele><time>2026-04-26T10:56:13.047Z</time></trkpt><trkpt lat="43.8642883" lon="7.9845533"><ele>31.0</ele><time>2026-04-26T10:56:15.047Z</time></trkpt><trkpt lat="43.8643133" lon="7.984715"><ele>39.5</ele><time>2026-04-26T10:56:17.047Z</time></trkpt><trkpt lat="43.8643317" lon="7.984875"><ele>48.0</ele><time>2026-04-26T10:56:19.047Z</time></trkpt><trkpt lat="43.864345" lon="7.985035"><ele>49.0</ele><time>2026-04-26T10:56:21.047Z</time></trkpt><trkpt lat="43.86436" lon="7.9852"><ele>50.0</ele><time>2026-04-26T10:56:23.047Z</time></trkpt><trkpt lat="43.8643783" lon="7.9853667"><ele>51.0</ele><time>2026-04-26T10:56:25.047Z</time></trkpt><trkpt lat="43.86439" lon="7.9855333"><ele>52.0</ele><time>2026-04-26T10:56:27.047Z</time></trkpt><trkpt lat="43.864395" lon="7.9856967"><ele>51.75</ele><time>2026-04-26T10:56:29.047Z</time></trkpt><trkpt lat="43.8644" lon="7.98586"><ele>51.5</ele><time>2026-04-26T10:56:31.047Z</time></trkpt><trkpt lat="43.8644017" lon="7.986025"><ele>51.25</ele><time>2026-04-26T10:56:33.047Z</time></trkpt><trkpt lat="43.864405" lon="7.9861883"><ele>51.0</ele><time>2026-04-26T10:56:35.047Z</time></trkpt><trkpt lat="43.864405" lon="7.98635"><ele>51.0</ele><time>2026-04-26T10:56:37.047Z</time></trkpt><trkpt lat="43.864405" lon="7.9865133"><ele>51.0</ele><time>2026-04-26T10:56:39.047Z</time></trkpt><trkpt lat="43.8644067" lon="7.9866833"><ele>51.0</ele><time>2026-04-26T10:56:41.047Z</time></trkpt><trkpt lat="43.86441" lon="7.9868467"><ele>51.0</ele><time>2026-04-26T10:56:43.047Z</time></trkpt><trkpt lat="43.8644167" lon="7.9870033"><ele>50.199999999999996</ele><time>2026-04-26T10:56:45.047Z</time></trkpt><trkpt lat="43.864425" lon="7.9871483"><ele>49.4</ele><time>2026-04-26T10:56:47.047Z</time></trkpt><trkpt lat="43.8644317" lon="7.987285"><ele>48.6</ele><time>2026-04-26T10:56:49.047Z</time></trkpt><trkpt lat="43.8644333" lon="7.9874133"><ele>47.8</ele><time>2026-04-26T10:56:51.047Z</time></trkpt><trkpt lat="43.86443" lon="7.9875383"><ele>47.0</ele><time>2026-04-26T10:56:53.047Z</time></trkpt><trkpt lat="43.86443" lon="7.9876667"><ele>45.4</ele><time>2026-04-26T10:56:55.047Z</time></trkpt><trkpt lat="43.8644333" lon="7.9877917"><ele>43.800000000000004</ele><time>2026-04-26T10:56:57.048Z</time></trkpt><trkpt lat="43.86445" lon="7.9879167"><ele>42.2</ele><time>2026-04-26T10:56:59.047Z</time></trkpt><trkpt lat="43.8644533" lon="7.9880433"><ele>40.6</ele><time>2026-04-26T10:57:01.047Z</time></trkpt><trkpt lat="43.8644583" lon="7.9881733"><ele>39.0</ele><time>2026-04-26T10:57:03.047Z</time></trkpt><trkpt lat="43.8644767" lon="7.9883083"><ele>38.6</ele><time>2026-04-26T10:57:05.048Z</time></trkpt><trkpt lat="43.8644867" lon="7.9884417"><ele>38.2</ele><time>2026-04-26T10:57:07.047Z</time></trkpt><trkpt lat="43.8645" lon="7.9885833"><ele>37.800000000000004</ele><time>2026-04-26T10:57:09.047Z</time></trkpt><trkpt lat="43.8645167" lon="7.98873"><ele>37.4</ele><time>2026-04-26T10:57:11.047Z</time></trkpt><trkpt lat="43.8645367" lon="7.9888767"><ele>37.0</ele><time>2026-04-26T10:57:13.048Z</time></trkpt><trkpt lat="43.86456" lon="7.9890217"><ele>37.0</ele><time>2026-04-26T10:57:15.048Z</time></trkpt><trkpt lat="43.8645817" lon="7.989165"><ele>37.0</ele><time>2026-04-26T10:57:17.048Z</time></trkpt><trkpt lat="43.8646" lon="7.98931"><ele>37.0</ele><time>2026-04-26T10:57:19.047Z</time></trkpt><trkpt lat="43.86462" lon="7.989455"><ele>37.0</ele><time>2026-04-26T10:57:21.047Z</time></trkpt><trkpt lat="43.86464" lon="7.9896"><ele>37.0</ele><time>2026-04-26T10:57:23.048Z</time></trkpt><trkpt lat="43.8646617" lon="7.9897467"><ele>35.4</ele><time>2026-04-26T10:57:25.047Z</time></trkpt><trkpt lat="43.8646833" lon="7.989895"><ele>33.800000000000004</ele><time>2026-04-26T10:57:27.047Z</time></trkpt><trkpt lat="43.8647117" lon="7.9900467"><ele>32.2</ele><time>2026-04-26T10:57:29.047Z</time></trkpt><trkpt lat="43.8647367" lon="7.9901983"><ele>30.6</ele><time>2026-04-26T10:57:31.047Z</time></trkpt><trkpt lat="43.8647683" lon="7.9903483"><ele>29.0</ele><time>2026-04-26T10:57:33.047Z</time></trkpt><trkpt lat="43.864795" lon="7.9904967"><ele>27.0</ele><time>2026-04-26T10:57:35.047Z</time></trkpt><trkpt lat="43.8648217" lon="7.9906467"><ele>25.0</ele><time>2026-04-26T10:57:37.047Z</time></trkpt><trkpt lat="43.8648517" lon="7.9908"><ele>23.0</ele><time>2026-04-26T10:57:39.047Z</time></trkpt><trkpt lat="43.86488" lon="7.9909567"><ele>21.0</ele><time>2026-04-26T10:57:41.047Z</time></trkpt><trkpt lat="43.8649067" lon="7.9911067"><ele>20.0</ele><time>2026-04-26T10:57:43.047Z</time></trkpt><trkpt lat="43.8649383" lon="7.9912533"><ele>19.0</ele><time>2026-04-26T10:57:45.047Z</time></trkpt><trkpt lat="43.8649683" lon="7.9914083"><ele>18.0</ele><time>2026-04-26T10:57:47.047Z</time></trkpt><trkpt lat="43.8649983" lon="7.9915633"><ele>17.0</ele><time>2026-04-26T10:57:49.047Z</time></trkpt><trkpt lat="43.865025" lon="7.991715"><ele>15.2</ele><time>2026-04-26T10:57:51.047Z</time></trkpt><trkpt lat="43.8650567" lon="7.9918667"><ele>13.399999999999999</ele><time>2026-04-26T10:57:53.047Z</time></trkpt><trkpt lat="43.8650917" lon="7.992015"><ele>11.600000000000001</ele><time>2026-04-26T10:57:55.048Z</time></trkpt><trkpt lat="43.8651367" lon="7.99215"><ele>9.8</ele><time>2026-04-26T10:57:57.047Z</time></trkpt><trkpt lat="43.865175" lon="7.9922783"><ele>8.0</ele><time>2026-04-26T10:57:59.047Z</time></trkpt><trkpt lat="43.8652083" lon="7.992405"><ele>13.600000000000001</ele><time>2026-04-26T10:58:01.047Z</time></trkpt><trkpt lat="43.86525" lon="7.992535"><ele>19.200000000000003</ele><time>2026-04-26T10:58:03.047Z</time></trkpt><trkpt lat="43.8653" lon="7.99267"><ele>24.8</ele><time>2026-04-26T10:58:05.048Z</time></trkpt><trkpt lat="43.865355" lon="7.9927983"><ele>30.400000000000002</ele><time>2026-04-26T10:58:07.047Z</time></trkpt><trkpt lat="43.86541" lon="7.9929333"><ele>36.0</ele><time>2026-04-26T10:58:09.047Z</time></trkpt><trkpt lat="43.86547" lon="7.99307"><ele>36.0</ele><time>2026-04-26T10:58:11.047Z</time></trkpt><trkpt lat="43.8655317" lon="7.9932083"><ele>36.0</ele><time>2026-04-26T10:58:13.047Z</time></trkpt><trkpt lat="43.8655983" lon="7.99334"><ele>36.0</ele><time>2026-04-26T10:58:15.048Z</time></trkpt><trkpt lat="43.8656633" lon="7.993465"><ele>36.0</ele><time>2026-04-26T10:58:17.047Z</time></trkpt><trkpt lat="43.8657317" lon="7.9935933"><ele>9.0</ele><time>2026-04-26T10:58:19.047Z</time></trkpt><trkpt lat="43.8667683" lon="7.9956917"><ele>11.75</ele><time>2026-04-26T10:58:49.047Z</time></trkpt><trkpt lat="43.8667883" lon="7.9958383"><ele>14.5</ele><time>2026-04-26T10:58:51.047Z</time></trkpt><trkpt lat="43.8668583" lon="7.9959767"><ele>17.25</ele><time>2026-04-26T10:58:53.047Z</time></trkpt><trkpt lat="43.8669217" lon="7.9961133"><ele>20.0</ele><time>2026-04-26T10:58:55.047Z</time></trkpt><trkpt lat="43.8669833" lon="7.9962517"><ele>20.0</ele><time>2026-04-26T10:58:57.047Z</time></trkpt><trkpt lat="43.86705" lon="7.9963917"><ele>20.0</ele><time>2026-04-26T10:58:59.047Z</time></trkpt><trkpt lat="43.8671133" lon="7.9965267"><ele>20.0</ele><time>2026-04-26T10:59:01.047Z</time></trkpt><trkpt lat="43.86718" lon="7.9966633"><ele>20.0</ele><time>2026-04-26T10:59:03.047Z</time></trkpt><trkpt lat="43.8672333" lon="7.9968033"><ele>16.75</ele><time>2026-04-26T10:59:05.047Z</time></trkpt><trkpt lat="43.867295" lon="7.99694"><ele>13.5</ele><time>2026-04-26T10:59:07.047Z</time></trkpt><trkpt lat="43.867355" lon="7.9970733"><ele>10.25</ele><time>2026-04-26T10:59:09.047Z</time></trkpt><trkpt lat="43.8674183" lon="7.99722"><ele>7.0</ele><time>2026-04-26T10:59:11.047Z</time></trkpt><trkpt lat="43.8674767" lon="7.9973583"><ele>7.0</ele><time>2026-04-26T10:59:13.047Z</time></trkpt><trkpt lat="43.8675417" lon="7.9974967"><ele>7.0</ele><time>2026-04-26T10:59:15.047Z</time></trkpt><trkpt lat="43.8675933" lon="7.9976433"><ele>7.0</ele><time>2026-04-26T10:59:17.047Z</time></trkpt><trkpt lat="43.8676533" lon="7.99778"><ele>7.0</ele><time>2026-04-26T10:59:19.047Z</time></trkpt><trkpt lat="43.8677117" lon="7.9979167"><ele>7.0</ele><time>2026-04-26T10:59:21.047Z</time></trkpt><trkpt lat="43.867765" lon="7.9980633"><ele>7.0</ele><time>2026-04-26T10:59:23.047Z</time></trkpt><trkpt lat="43.8678317" lon="7.9982033"><ele>7.0</ele><time>2026-04-26T10:59:25.047Z</time></trkpt><trkpt lat="43.8678917" lon="7.998345"><ele>7.0</ele><time>2026-04-26T10:59:27.047Z</time></trkpt><trkpt lat="43.8679533" lon="7.9984767"><ele>6.199999999999999</ele><time>2026-04-26T10:59:29.047Z</time></trkpt><trkpt lat="43.8680133" lon="7.9986017"><ele>5.3999999999999995</ele><time>2026-04-26T10:59:31.047Z</time></trkpt><trkpt lat="43.8680683" lon="7.9987183"><ele>4.6</ele><time>2026-04-26T10:59:33.047Z</time></trkpt><trkpt lat="43.8681267" lon="7.99884"><ele>3.8</ele><time>2026-04-26T10:59:35.047Z</time></trkpt><trkpt lat="43.86819" lon="7.9989717"><ele>3.0</ele><time>2026-04-26T10:59:37.048Z</time></trkpt><trkpt lat="43.8682533" lon="7.999115"><ele>3.0</ele><time>2026-04-26T10:59:39.047Z</time></trkpt><trkpt lat="43.86832" lon="7.999255"><ele>3.0</ele><time>2026-04-26T10:59:41.047Z</time></trkpt><trkpt lat="43.8683883" lon="7.9994"><ele>3.0</ele><time>2026-04-26T10:59:43.047Z</time></trkpt><trkpt lat="43.8684217" lon="7.999475"><ele>3.0</ele><time>2026-04-26T10:59:44.047Z</time></trkpt><trkpt lat="43.8684867" lon="7.9996217"><ele>3.0</ele><time>2026-04-26T10:59:46.047Z</time></trkpt><trkpt lat="43.8685533" lon="7.9997633"><ele>3.0</ele><time>2026-04-26T10:59:48.047Z</time></trkpt><trkpt lat="43.8686167" lon="7.9998983"><ele>3.0</ele><time>2026-04-26T10:59:50.047Z</time></trkpt><trkpt lat="43.8686867" lon="8.0000367"><ele>3.0</ele><time>2026-04-26T10:59:52.047Z</time></trkpt><trkpt lat="43.8687517" lon="8.0001733"><ele>3.0</ele><time>2026-04-26T10:59:54.047Z</time></trkpt><trkpt lat="43.8688167" lon="8.0003183"><ele>3.0</ele><time>2026-04-26T10:59:56.047Z</time></trkpt><trkpt lat="43.8688817" lon="8.0004667"><ele>3.0</ele><time>2026-04-26T10:59:58.048Z</time></trkpt><trkpt lat="43.8689467" lon="8.00061"><ele>3.0</ele><time>2026-04-26T11:00:00.047Z</time></trkpt><trkpt lat="43.8690183" lon="8.0007533"><ele>3.0</ele><time>2026-04-26T11:00:02.047Z</time></trkpt><trkpt lat="43.8690767" lon="8.0009017"><ele>2.8</ele><time>2026-04-26T11:00:04.047Z</time></trkpt><trkpt lat="43.8691117" lon="8.000975"><ele>2.5999999999999996</ele><time>2026-04-26T11:00:05.047Z</time></trkpt><trkpt lat="43.869175" lon="8.0011167"><ele>2.4000000000000004</ele><time>2026-04-26T11:00:07.047Z</time></trkpt><trkpt lat="43.8692317" lon="8.001255"><ele>2.2</ele><time>2026-04-26T11:00:09.047Z</time></trkpt><trkpt lat="43.869305" lon="8.00139"><ele>2.0</ele><time>2026-04-26T11:00:11.047Z</time></trkpt><trkpt lat="43.8693717" lon="8.001525"><ele>2.75</ele><time>2026-04-26T11:00:13.047Z</time></trkpt><trkpt lat="43.86943" lon="8.0016617"><ele>3.5</ele><time>2026-04-26T11:00:15.047Z</time></trkpt><trkpt lat="43.8694883" lon="8.0018033"><ele>4.25</ele><time>2026-04-26T11:00:17.047Z</time></trkpt><trkpt lat="43.8695483" lon="8.0019367"><ele>5.0</ele><time>2026-04-26T11:00:19.047Z</time></trkpt><trkpt lat="43.8696117" lon="8.0020717"><ele>5.0</ele><time>2026-04-26T11:00:21.047Z</time></trkpt><trkpt lat="43.8696733" lon="8.0021967"><ele>5.0</ele><time>2026-04-26T11:00:23.047Z</time></trkpt><trkpt lat="43.8697333" lon="8.0023267"><ele>5.0</ele><time>2026-04-26T11:00:25.047Z</time></trkpt><trkpt lat="43.869795" lon="8.0024517"><ele>5.0</ele><time>2026-04-26T11:00:27.048Z</time></trkpt><trkpt lat="43.86986" lon="8.0025767"><ele>5.0</ele><time>2026-04-26T11:00:29.048Z</time></trkpt><trkpt lat="43.8699233" lon="8.002705"><ele>4.8</ele><time>2026-04-26T11:00:31.047Z</time></trkpt><trkpt lat="43.869985" lon="8.00283"><ele>4.6</ele><time>2026-04-26T11:00:33.047Z</time></trkpt><trkpt lat="43.8700383" lon="8.00295"><ele>4.4</ele><time>2026-04-26T11:00:35.047Z</time></trkpt><trkpt lat="43.8700933" lon="8.0030633"><ele>4.2</ele><time>2026-04-26T11:00:37.047Z</time></trkpt><trkpt lat="43.8701467" lon="8.0031767"><ele>4.0</ele><time>2026-04-26T11:00:39.047Z</time></trkpt><trkpt lat="43.8702033" lon="8.0033"><ele>6.25</ele><time>2026-04-26T11:00:41.047Z</time></trkpt><trkpt lat="43.87027" lon="8.0034267"><ele>8.5</ele><time>2026-04-26T11:00:43.047Z</time></trkpt><trkpt lat="43.8703317" lon="8.00357"><ele>10.75</ele><time>2026-04-26T11:00:45.047Z</time></trkpt><trkpt lat="43.8703883" lon="8.0037167"><ele>13.0</ele><time>2026-04-26T11:00:47.047Z</time></trkpt><trkpt lat="43.87045" lon="8.0038533"><ele>13.0</ele><time>2026-04-26T11:00:49.047Z</time></trkpt><trkpt lat="43.8705117" lon="8.0039933"><ele>13.0</ele><time>2026-04-26T11:00:51.047Z</time></trkpt><trkpt lat="43.8705733" lon="8.0041283"><ele>13.0</ele><time>2026-04-26T11:00:53.047Z</time></trkpt><trkpt lat="43.8706333" lon="8.0042617"><ele>13.0</ele><time>2026-04-26T11:00:55.047Z</time></trkpt><trkpt lat="43.8707" lon="8.00439"><ele>13.0</ele><time>2026-04-26T11:00:57.047Z</time></trkpt><trkpt lat="43.8707567" lon="8.0045267"><ele>13.0</ele><time>2026-04-26T11:00:59.047Z</time></trkpt><trkpt lat="43.87082" lon="8.0046617"><ele>13.0</ele><time>2026-04-26T11:01:01.047Z</time></trkpt><trkpt lat="43.8708817" lon="8.0048017"><ele>13.0</ele><time>2026-04-26T11:01:03.047Z</time></trkpt><trkpt lat="43.87094" lon="8.004945"><ele>16.333333333333332</ele><time>2026-04-26T11:01:05.047Z</time></trkpt><trkpt lat="43.8709983" lon="8.0050933"><ele>19.666666666666668</ele><time>2026-04-26T11:01:07.047Z</time></trkpt><trkpt lat="43.87106" lon="8.005245"><ele>23.0</ele><time>2026-04-26T11:01:09.047Z</time></trkpt><trkpt lat="43.873321" lon="8.0089787"><ele>23.0</ele><time>2026-04-26T11:02:08.477Z</time></trkpt><trkpt lat="43.8733267" lon="8.0090933"><ele>23.0</ele><time>2026-04-26T11:02:11.047Z</time></trkpt><trkpt lat="43.873375" lon="8.0091533"><ele>23.0</ele><time>2026-04-26T11:02:12.047Z</time></trkpt><trkpt lat="43.873425" lon="8.0092133"><ele>23.0</ele><time>2026-04-26T11:02:13.047Z</time></trkpt><trkpt lat="43.8734783" lon="8.0092633"><ele>23.0</ele><time>2026-04-26T11:02:14.047Z</time></trkpt><trkpt lat="43.873535" lon="8.0093083"><ele>23.0</ele><time>2026-04-26T11:02:15.047Z</time></trkpt><trkpt lat="43.87359" lon="8.009355"><ele>23.0</ele><time>2026-04-26T11:02:16.048Z</time></trkpt><trkpt lat="43.873695" lon="8.0094483"><ele>19.5</ele><time>2026-04-26T11:02:18.047Z</time></trkpt><trkpt lat="43.8738017" lon="8.00953"><ele>16.0</ele><time>2026-04-26T11:02:20.047Z</time></trkpt><trkpt lat="43.87391" lon="8.009585"><ele>12.5</ele><time>2026-04-26T11:02:22.047Z</time></trkpt><trkpt lat="43.8740217" lon="8.0096217"><ele>9.0</ele><time>2026-04-26T11:02:24.047Z</time></trkpt><trkpt lat="43.8741333" lon="8.0096717"><ele>9.0</ele><time>2026-04-26T11:02:26.048Z</time></trkpt><trkpt lat="43.874245" lon="8.0097217"><ele>9.0</ele><time>2026-04-26T11:02:28.047Z</time></trkpt><trkpt lat="43.8743583" lon="8.0097733"><ele>9.0</ele><time>2026-04-26T11:02:30.047Z</time></trkpt><trkpt lat="43.8744717" lon="8.009825"><ele>9.0</ele><time>2026-04-26T11:02:32.047Z</time></trkpt><trkpt lat="43.87459" lon="8.0098683"><ele>9.0</ele><time>2026-04-26T11:02:34.047Z</time></trkpt><trkpt lat="43.8747017" lon="8.0099083"><ele>9.0</ele><time>2026-04-26T11:02:36.047Z</time></trkpt><trkpt lat="43.8748167" lon="8.00995"><ele>9.0</ele><time>2026-04-26T11:02:38.047Z</time></trkpt><trkpt lat="43.8748783" lon="8.0099767"><ele>9.0</ele><time>2026-04-26T11:02:39.047Z</time></trkpt><trkpt lat="43.8749983" lon="8.0100133"><ele>9.0</ele><time>2026-04-26T11:02:41.047Z</time></trkpt><trkpt lat="43.8751183" lon="8.01004"><ele>9.5</ele><time>2026-04-26T11:02:43.047Z</time></trkpt><trkpt lat="43.8752333" lon="8.0100783"><ele>10.0</ele><time>2026-04-26T11:02:45.047Z</time></trkpt><trkpt lat="43.8753517" lon="8.010115"><ele>10.5</ele><time>2026-04-26T11:02:47.047Z</time></trkpt><trkpt lat="43.8754683" lon="8.010155"><ele>11.0</ele><time>2026-04-26T11:02:49.048Z</time></trkpt><trkpt lat="43.875575" lon="8.0102217"><ele>11.0</ele><time>2026-04-26T11:02:51.047Z</time></trkpt><trkpt lat="43.8756767" lon="8.0102783"><ele>11.0</ele><time>2026-04-26T11:02:53.047Z</time></trkpt><trkpt lat="43.875785" lon="8.0103267"><ele>11.0</ele><time>2026-04-26T11:02:55.047Z</time></trkpt><trkpt lat="43.8758883" lon="8.0103833"><ele>11.0</ele><time>2026-04-26T11:02:57.047Z</time></trkpt><trkpt lat="43.8759917" lon="8.0104183"><ele>11.0</ele><time>2026-04-26T11:02:59.047Z</time></trkpt><trkpt lat="43.8760617" lon="8.010445"><ele>11.666666666666666</ele><time>2026-04-26T11:03:01.047Z</time></trkpt><trkpt lat="43.87614" lon="8.0104167"><ele>12.333333333333332</ele><time>2026-04-26T11:03:07.047Z</time></trkpt><trkpt lat="43.8761783" lon="8.010315"><ele>13.0</ele><time>2026-04-26T11:03:09.047Z</time></trkpt><trkpt lat="43.8762267" lon="8.0102033"><ele>13.666666666666666</ele><time>2026-04-26T11:03:11.047Z</time></trkpt><trkpt lat="43.87629" lon="8.0101333"><ele>14.333333333333334</ele><time>2026-04-26T11:03:13.047Z</time></trkpt><trkpt lat="43.8763467" lon="8.0100733"><ele>15.0</ele><time>2026-04-26T11:03:16.047Z</time></trkpt><trkpt lat="43.8764033" lon="8.010115"><ele>15.0</ele><time>2026-04-26T11:03:18.047Z</time></trkpt><trkpt lat="43.8764567" lon="8.010265"><ele>15.0</ele><time>2026-04-26T11:03:20.047Z</time></trkpt><trkpt lat="43.87649" lon="8.0103733"><ele>15.0</ele><time>2026-04-26T11:03:21.047Z</time></trkpt><trkpt lat="43.87659" lon="8.0105983"><ele>15.0</ele><time>2026-04-26T11:03:24.047Z</time></trkpt><trkpt lat="43.876665" lon="8.01073"><ele>15.0</ele><time>2026-04-26T11:03:26.047Z</time></trkpt><trkpt lat="43.8767183" lon="8.0107867"><ele>15.0</ele><time>2026-04-26T11:03:27.047Z</time></trkpt><trkpt lat="43.87677" lon="8.01084"><ele>15.0</ele><time>2026-04-26T11:03:28.048Z</time></trkpt><trkpt lat="43.876855" lon="8.01093"><ele>15.0</ele><time>2026-04-26T11:03:30.047Z</time></trkpt><trkpt lat="43.8769433" lon="8.0110167"><ele>15.0</ele><time>2026-04-26T11:03:32.047Z</time></trkpt><trkpt lat="43.8770283" lon="8.0111167"><ele>17.25</ele><time>2026-04-26T11:03:34.048Z</time></trkpt><trkpt lat="43.8771183" lon="8.0112217"><ele>19.5</ele><time>2026-04-26T11:03:36.047Z</time></trkpt><trkpt lat="43.8772117" lon="8.0113283"><ele>21.75</ele><time>2026-04-26T11:03:38.047Z</time></trkpt><trkpt lat="43.8772983" lon="8.0114367"><ele>24.0</ele><time>2026-04-26T11:03:40.048Z</time></trkpt><trkpt lat="43.87739" lon="8.0115233"><ele>24.0</ele><time>2026-04-26T11:03:42.047Z</time></trkpt><trkpt lat="43.8774783" lon="8.01162"><ele>24.0</ele><time>2026-04-26T11:03:44.047Z</time></trkpt><trkpt lat="43.877575" lon="8.0117167"><ele>24.0</ele><time>2026-04-26T11:03:46.047Z</time></trkpt><trkpt lat="43.8776717" lon="8.0118033"><ele>24.0</ele><time>2026-04-26T11:03:48.047Z</time></trkpt><trkpt lat="43.8777733" lon="8.0118833"><ele>24.0</ele><time>2026-04-26T11:03:50.047Z</time></trkpt><trkpt lat="43.8778683" lon="8.01197"><ele>24.0</ele><time>2026-04-26T11:03:52.047Z</time></trkpt><trkpt lat="43.87794" lon="8.0120883"><ele>24.0</ele><time>2026-04-26T11:03:54.047Z</time></trkpt><trkpt lat="43.87801" lon="8.0122033"><ele>24.0</ele><time>2026-04-26T11:03:56.047Z</time></trkpt><trkpt lat="43.878045" lon="8.012335"><ele>24.0</ele><time>2026-04-26T11:03:58.047Z</time></trkpt><trkpt lat="43.878055" lon="8.0124817"><ele>23.4</ele><time>2026-04-26T11:04:00.047Z</time></trkpt><trkpt lat="43.878055" lon="8.0126283"><ele>22.799999999999997</ele><time>2026-04-26T11:04:02.047Z</time></trkpt><trkpt lat="43.878015" lon="8.0127683"><ele>22.200000000000003</ele><time>2026-04-26T11:04:04.047Z</time></trkpt><trkpt lat="43.87795" lon="8.0128917"><ele>21.6</ele><time>2026-04-26T11:04:06.048Z</time></trkpt><trkpt lat="43.8778767" lon="8.012995"><ele>21.0</ele><time>2026-04-26T11:04:08.048Z</time></trkpt><trkpt lat="43.8777967" lon="8.0130867"><ele>21.0</ele><time>2026-04-26T11:04:10.048Z</time></trkpt><trkpt lat="43.8776983" lon="8.0131417"><ele>21.0</ele><time>2026-04-26T11:04:12.047Z</time></trkpt><trkpt lat="43.8775783" lon="8.01316"><ele>21.0</ele><time>2026-04-26T11:04:14.047Z</time></trkpt><trkpt lat="43.8774583" lon="8.013165"><ele>21.0</ele><time>2026-04-26T11:04:16.047Z</time></trkpt><trkpt lat="43.877345" lon="8.0131717"><ele>21.200000000000003</ele><time>2026-04-26T11:04:18.047Z</time></trkpt><trkpt lat="43.8772383" lon="8.01316"><ele>21.400000000000002</ele><time>2026-04-26T11:04:20.047Z</time></trkpt><trkpt lat="43.8771267" lon="8.0131383"><ele>21.6</ele><time>2026-04-26T11:04:22.048Z</time></trkpt><trkpt lat="43.8770217" lon="8.0131167"><ele>21.8</ele><time>2026-04-26T11:04:24.047Z</time></trkpt><trkpt lat="43.876915" lon="8.0130917"><ele>22.0</ele><time>2026-04-26T11:04:26.047Z</time></trkpt><trkpt lat="43.8768033" lon="8.0130667"><ele>22.200000000000003</ele><time>2026-04-26T11:04:28.047Z</time></trkpt><trkpt lat="43.8766967" lon="8.0130283"><ele>22.4</ele><time>2026-04-26T11:04:30.047Z</time></trkpt><trkpt lat="43.8766033" lon="8.01302"><ele>22.6</ele><time>2026-04-26T11:04:32.047Z</time></trkpt><trkpt lat="43.8765" lon="8.0130467"><ele>22.799999999999997</ele><time>2026-04-26T11:04:34.047Z</time></trkpt><trkpt lat="43.8764083" lon="8.0130767"><ele>23.0</ele><time>2026-04-26T11:04:36.047Z</time></trkpt><trkpt lat="43.876305" lon="8.0131367"><ele>23.0</ele><time>2026-04-26T11:04:38.047Z</time></trkpt><trkpt lat="43.8762067" lon="8.0132033"><ele>23.0</ele><time>2026-04-26T11:04:40.047Z</time></trkpt><trkpt lat="43.8761117" lon="8.0132533"><ele>23.0</ele><time>2026-04-26T11:04:42.047Z</time></trkpt><trkpt lat="43.8760133" lon="8.01334"><ele>23.0</ele><time>2026-04-26T11:04:44.047Z</time></trkpt><trkpt lat="43.876" lon="8.0134633"><ele>23.0</ele><time>2026-04-26T11:04:47.047Z</time></trkpt><trkpt lat="43.876055" lon="8.0135667"><ele>24.333333333333336</ele><time>2026-04-26T11:04:49.047Z</time></trkpt><trkpt lat="43.8760983" lon="8.01364"><ele>25.666666666666668</ele><time>2026-04-26T11:04:51.047Z</time></trkpt><trkpt lat="43.8761367" lon="8.0137217"><ele>27.0</ele><time>2026-04-26T11:04:53.047Z</time></trkpt><trkpt lat="43.87618" lon="8.0138217"><ele>28.333333333333336</ele><time>2026-04-26T11:04:55.047Z</time></trkpt><trkpt lat="43.87623" lon="8.01392"><ele>29.666666666666668</ele><time>2026-04-26T11:04:57.047Z</time></trkpt><trkpt lat="43.87628" lon="8.01402"><ele>31.0</ele><time>2026-04-26T11:04:59.047Z</time></trkpt><trkpt lat="43.8763417" lon="8.0141267"><ele>31.833333333333336</ele><time>2026-04-26T11:05:01.047Z</time></trkpt><trkpt lat="43.8763933" lon="8.0142267"><ele>32.66666666666667</ele><time>2026-04-26T11:05:03.047Z</time></trkpt><trkpt lat="43.87644" lon="8.0143117"><ele>33.5</ele><time>2026-04-26T11:05:05.047Z</time></trkpt><trkpt lat="43.8764817" lon="8.014395"><ele>34.333333333333336</ele><time>2026-04-26T11:05:07.047Z</time></trkpt><trkpt lat="43.876525" lon="8.0144733"><ele>35.166666666666664</ele><time>2026-04-26T11:05:09.047Z</time></trkpt><trkpt lat="43.8765667" lon="8.0145583"><ele>36.0</ele><time>2026-04-26T11:05:11.047Z</time></trkpt><trkpt lat="43.8766183" lon="8.0146467"><ele>36.00000000000001</ele><time>2026-04-26T11:05:13.048Z</time></trkpt><trkpt lat="43.87665" lon="8.01473"><ele>36.0</ele><time>2026-04-26T11:05:15.047Z</time></trkpt><trkpt lat="43.876695" lon="8.014805"><ele>36.0</ele><time>2026-04-26T11:05:17.047Z</time></trkpt><trkpt lat="43.876735" lon="8.014885"><ele>36.0</ele><time>2026-04-26T11:05:19.047Z</time></trkpt><trkpt lat="43.8767683" lon="8.014995"><ele>36.0</ele><time>2026-04-26T11:05:21.047Z</time></trkpt><trkpt lat="43.8768083" lon="8.0150817"><ele>36.00000000000001</ele><time>2026-04-26T11:05:23.047Z</time></trkpt><trkpt lat="43.8768467" lon="8.0151717"><ele>36.0</ele><time>2026-04-26T11:05:25.047Z</time></trkpt><trkpt lat="43.87691" lon="8.0152617"><ele>37.5</ele><time>2026-04-26T11:05:28.047Z</time></trkpt><trkpt lat="43.8769833" lon="8.015315"><ele>39.0</ele><time>2026-04-26T11:05:31.048Z</time></trkpt><trkpt lat="43.8770017" lon="8.0154283"><ele>40.5</ele><time>2026-04-26T11:05:34.047Z</time></trkpt><trkpt lat="43.877035" lon="8.0155267"><ele>42.0</ele><time>2026-04-26T11:05:36.047Z</time></trkpt><trkpt lat="43.8770717" lon="8.0156233"><ele>43.5</ele><time>2026-04-26T11:05:38.047Z</time></trkpt><trkpt lat="43.8771133" lon="8.0157217"><ele>45.0</ele><time>2026-04-26T11:05:40.047Z</time></trkpt><trkpt lat="43.8771533" lon="8.0158"><ele>44.166666666666664</ele><time>2026-04-26T11:05:43.047Z</time></trkpt><trkpt lat="43.8772383" lon="8.0159083"><ele>43.333333333333336</ele><time>2026-04-26T11:06:14.047Z</time></trkpt><trkpt lat="43.8773217" lon="8.0159483"><ele>42.5</ele><time>2026-04-26T11:06:17.047Z</time></trkpt><trkpt lat="43.8774083" lon="8.0159883"><ele>41.66666666666667</ele><time>2026-04-26T11:06:19.047Z</time></trkpt><trkpt lat="43.87748" lon="8.0159833"><ele>40.833333333333336</ele><time>2026-04-26T11:06:21.048Z</time></trkpt><trkpt lat="43.8775483" lon="8.0159767"><ele>40.0</ele><time>2026-04-26T11:06:23.047Z</time></trkpt><trkpt lat="43.8776217" lon="8.01597"><ele>40.0</ele><time>2026-04-26T11:06:26.047Z</time></trkpt><trkpt lat="43.877685" lon="8.0159633"><ele>40.0</ele><time>2026-04-26T11:06:31.047Z</time></trkpt><trkpt lat="43.8777583" lon="8.0158483"><ele>40.0</ele><time>2026-04-26T11:07:20.047Z</time></trkpt><trkpt lat="43.8776683" lon="8.0158933"><ele>40.0</ele><time>2026-04-26T11:09:03.047Z</time></trkpt><trkpt lat="43.8777683" lon="8.01592"><ele>40.0</ele><time>2026-04-26T12:01:06.047Z</time></trkpt><trkpt lat="43.8776967" lon="8.0159233"><ele>40.0</ele><time>2026-04-26T12:03:03.047Z</time></trkpt><trkpt lat="43.8776083" lon="8.0158967"><ele>39.57142857142857</ele><time>2026-04-26T12:03:06.047Z</time></trkpt><trkpt lat="43.8775383" lon="8.0158933"><ele>39.142857142857146</ele><time>2026-04-26T12:03:08.047Z</time></trkpt><trkpt lat="43.877475" lon="8.0159067"><ele>38.714285714285715</ele><time>2026-04-26T12:03:10.047Z</time></trkpt><trkpt lat="43.877395" lon="8.0159083"><ele>38.285714285714285</ele><time>2026-04-26T12:03:12.047Z</time></trkpt><trkpt lat="43.87733" lon="8.0159"><ele>37.857142857142854</ele><time>2026-04-26T12:03:14.047Z</time></trkpt><trkpt lat="43.8772667" lon="8.01589"><ele>37.42857142857143</ele><time>2026-04-26T12:03:16.047Z</time></trkpt><trkpt lat="43.8771883" lon="8.015855"><ele>37.0</ele><time>2026-04-26T12:03:18.047Z</time></trkpt><trkpt lat="43.8771367" lon="8.0157983"><ele>38.333333333333336</ele><time>2026-04-26T12:03:20.047Z</time></trkpt><trkpt lat="43.8770833" lon="8.01573"><ele>39.66666666666667</ele><time>2026-04-26T12:03:22.047Z</time></trkpt><trkpt lat="43.8770317" lon="8.01563"><ele>41.0</ele><time>2026-04-26T12:03:24.047Z</time></trkpt><trkpt lat="43.8770017" lon="8.015505"><ele>42.333333333333336</ele><time>2026-04-26T12:03:26.047Z</time></trkpt><trkpt lat="43.8769817" lon="8.0153867"><ele>43.666666666666664</ele><time>2026-04-26T12:03:28.047Z</time></trkpt><trkpt lat="43.8769433" lon="8.0152983"><ele>45.0</ele><time>2026-04-26T12:03:30.047Z</time></trkpt><trkpt lat="43.8769067" lon="8.015205"><ele>45.0</ele><time>2026-04-26T12:03:32.047Z</time></trkpt><trkpt lat="43.876865" lon="8.0151317"><ele>45.0</ele><time>2026-04-26T12:03:34.047Z</time></trkpt><trkpt lat="43.8768233" lon="8.0150433"><ele>45.0</ele><time>2026-04-26T12:03:36.047Z</time></trkpt><trkpt lat="43.8767533" lon="8.0149483"><ele>45.0</ele><time>2026-04-26T12:03:39.047Z</time></trkpt><trkpt lat="43.8766967" lon="8.0148567"><ele>45.0</ele><time>2026-04-26T12:03:41.047Z</time></trkpt><trkpt lat="43.8766383" lon="8.0147517"><ele>45.0</ele><time>2026-04-26T12:03:43.047Z</time></trkpt><trkpt lat="43.8765833" lon="8.0146167"><ele>43.5</ele><time>2026-04-26T12:03:45.047Z</time></trkpt><trkpt lat="43.8765517" lon="8.0145333"><ele>42.0</ele><time>2026-04-26T12:03:46.048Z</time></trkpt><trkpt lat="43.8764883" lon="8.0144067"><ele>40.5</ele><time>2026-04-26T12:03:48.047Z</time></trkpt><trkpt lat="43.8764283" lon="8.0142717"><ele>39.0</ele><time>2026-04-26T12:03:50.047Z</time></trkpt><trkpt lat="43.8763883" lon="8.0141983"><ele>37.5</ele><time>2026-04-26T12:03:51.048Z</time></trkpt><trkpt lat="43.8763467" lon="8.0141033"><ele>36.0</ele><time>2026-04-26T12:03:52.048Z</time></trkpt><trkpt lat="43.8763033" lon="8.014035"><ele>35.166666666666664</ele><time>2026-04-26T12:03:53.048Z</time></trkpt><trkpt lat="43.87626" lon="8.013965"><ele>34.333333333333336</ele><time>2026-04-26T12:03:54.048Z</time></trkpt><trkpt lat="43.876215" lon="8.01389"><ele>33.5</ele><time>2026-04-26T12:03:55.047Z</time></trkpt><trkpt lat="43.8761733" lon="8.0138183"><ele>32.66666666666667</ele><time>2026-04-26T12:03:56.047Z</time></trkpt><trkpt lat="43.8761317" lon="8.0137483"><ele>31.833333333333336</ele><time>2026-04-26T12:03:57.048Z</time></trkpt><trkpt lat="43.8760667" lon="8.0136283"><ele>31.0</ele><time>2026-04-26T12:03:59.047Z</time></trkpt><trkpt lat="43.8760267" lon="8.0135283"><ele>31.0</ele><time>2026-04-26T12:04:01.047Z</time></trkpt><trkpt lat="43.8760383" lon="8.013435"><ele>31.0</ele><time>2026-04-26T12:04:03.047Z</time></trkpt><trkpt lat="43.87609" lon="8.013365"><ele>31.0</ele><time>2026-04-26T12:04:05.047Z</time></trkpt><trkpt lat="43.876235" lon="8.0133333"><ele>31.0</ele><time>2026-04-26T12:04:07.047Z</time></trkpt><trkpt lat="43.8763333" lon="8.01328"><ele>31.0</ele><time>2026-04-26T12:04:09.047Z</time></trkpt><trkpt lat="43.876435" lon="8.0132117"><ele>29.0</ele><time>2026-04-26T12:04:11.047Z</time></trkpt><trkpt lat="43.876545" lon="8.0131433"><ele>27.0</ele><time>2026-04-26T12:04:13.047Z</time></trkpt><trkpt lat="43.8766533" lon="8.0131017"><ele>25.0</ele><time>2026-04-26T12:04:15.047Z</time></trkpt><trkpt lat="43.8767683" lon="8.0131083"><ele>23.0</ele><time>2026-04-26T12:04:17.047Z</time></trkpt><trkpt lat="43.87688" lon="8.0131483"><ele>22.75</ele><time>2026-04-26T12:04:19.048Z</time></trkpt><trkpt lat="43.876995" lon="8.0131883"><ele>22.5</ele><time>2026-04-26T12:04:21.047Z</time></trkpt><trkpt lat="43.877115" lon="8.0132167"><ele>22.25</ele><time>2026-04-26T12:04:23.048Z</time></trkpt><trkpt lat="43.8772883" lon="8.0132417"><ele>22.0</ele><time>2026-04-26T12:04:26.047Z</time></trkpt><trkpt lat="43.8774067" lon="8.0132533"><ele>22.0</ele><time>2026-04-26T12:04:28.047Z</time></trkpt><trkpt lat="43.87751" lon="8.0132567"><ele>22.0</ele><time>2026-04-26T12:04:30.047Z</time></trkpt><trkpt lat="43.8775783" lon="8.0132583"><ele>22.0</ele><time>2026-04-26T12:04:31.047Z</time></trkpt><trkpt lat="43.8776417" lon="8.0132483"><ele>22.0</ele><time>2026-04-26T12:04:32.047Z</time></trkpt><trkpt lat="43.8777083" lon="8.0132333"><ele>22.0</ele><time>2026-04-26T12:04:33.048Z</time></trkpt><trkpt lat="43.877825" lon="8.013185"><ele>22.0</ele><time>2026-04-26T12:04:35.047Z</time></trkpt><trkpt lat="43.8779233" lon="8.0131117"><ele>21.833333333333332</ele><time>2026-04-26T12:04:37.047Z</time></trkpt><trkpt lat="43.8780233" lon="8.012995"><ele>21.666666666666664</ele><time>2026-04-26T12:04:39.047Z</time></trkpt><trkpt lat="43.878075" lon="8.0129233"><ele>21.5</ele><time>2026-04-26T12:04:40.048Z</time></trkpt><trkpt lat="43.8781233" lon="8.0128383"><ele>21.333333333333332</ele><time>2026-04-26T12:04:41.047Z</time></trkpt><trkpt lat="43.8781417" lon="8.0127367"><ele>21.166666666666668</ele><time>2026-04-26T12:04:42.048Z</time></trkpt><trkpt lat="43.878155" lon="8.0126433"><ele>21.0</ele><time>2026-04-26T12:04:43.047Z</time></trkpt><trkpt lat="43.8781567" lon="8.0125417"><ele>21.428571428571427</ele><time>2026-04-26T12:04:44.047Z</time></trkpt><trkpt lat="43.8781483" lon="8.01244"><ele>21.857142857142858</ele><time>2026-04-26T12:04:45.047Z</time></trkpt><trkpt lat="43.8781333" lon="8.0123433"><ele>22.285714285714285</ele><time>2026-04-26T12:04:46.047Z</time></trkpt><trkpt lat="43.8781083" lon="8.0122533"><ele>22.714285714285715</ele><time>2026-04-26T12:04:47.047Z</time></trkpt><trkpt lat="43.878085" lon="8.01216"><ele>23.142857142857142</ele><time>2026-04-26T12:04:48.047Z</time></trkpt><trkpt lat="43.878065" lon="8.0120717"><ele>23.57142857142857</ele><time>2026-04-26T12:04:49.047Z</time></trkpt><trkpt lat="43.8780283" lon="8.01199"><ele>24.0</ele><time>2026-04-26T12:04:50.047Z</time></trkpt><trkpt lat="43.8779783" lon="8.0119133"><ele>23.999999999999996</ele><time>2026-04-26T12:04:51.047Z</time></trkpt><trkpt lat="43.87793" lon="8.0118433"><ele>24.0</ele><time>2026-04-26T12:04:52.047Z</time></trkpt><trkpt lat="43.8778717" lon="8.01178"><ele>24.0</ele><time>2026-04-26T12:04:53.047Z</time></trkpt><trkpt lat="43.8778067" lon="8.0117267"><ele>24.0</ele><time>2026-04-26T12:04:54.048Z</time></trkpt><trkpt lat="43.8777483" lon="8.0116717"><ele>24.0</ele><time>2026-04-26T12:04:55.047Z</time></trkpt><trkpt lat="43.87769" lon="8.0116183"><ele>23.999999999999996</ele><time>2026-04-26T12:04:56.047Z</time></trkpt><trkpt lat="43.87763" lon="8.0115733"><ele>24.0</ele><time>2026-04-26T12:04:57.048Z</time></trkpt><trkpt lat="43.8775717" lon="8.0115217"><ele>23.999999999999996</ele><time>2026-04-26T12:04:58.047Z</time></trkpt><trkpt lat="43.8775133" lon="8.0114667"><ele>24.0</ele><time>2026-04-26T12:04:59.047Z</time></trkpt><trkpt lat="43.87746" lon="8.01141"><ele>24.0</ele><time>2026-04-26T12:05:00.047Z</time></trkpt><trkpt lat="43.877405" lon="8.0113417"><ele>24.0</ele><time>2026-04-26T12:05:01.047Z</time></trkpt><trkpt lat="43.8773567" lon="8.0112717"><ele>24.0</ele><time>2026-04-26T12:05:02.047Z</time></trkpt><trkpt lat="43.877305" lon="8.0112033"><ele>23.999999999999996</ele><time>2026-04-26T12:05:03.047Z</time></trkpt><trkpt lat="43.8772483" lon="8.0111417"><ele>24.0</ele><time>2026-04-26T12:05:04.047Z</time></trkpt><trkpt lat="43.87719" lon="8.0110783"><ele>23.999999999999996</ele><time>2026-04-26T12:05:05.048Z</time></trkpt><trkpt lat="43.877135" lon="8.011015"><ele>24.0</ele><time>2026-04-26T12:05:06.047Z</time></trkpt><trkpt lat="43.8770717" lon="8.010965"><ele>24.0</ele><time>2026-04-26T12:05:07.047Z</time></trkpt><trkpt lat="43.8770083" lon="8.01091"><ele>24.0</ele><time>2026-04-26T12:05:08.047Z</time></trkpt><trkpt lat="43.87695" lon="8.0108467"><ele>24.0</ele><time>2026-04-26T12:05:09.047Z</time></trkpt><trkpt lat="43.876895" lon="8.01079"><ele>23.999999999999996</ele><time>2026-04-26T12:05:10.047Z</time></trkpt><trkpt lat="43.8768417" lon="8.0107267"><ele>24.0</ele><time>2026-04-26T12:05:11.047Z</time></trkpt><trkpt lat="43.8767867" lon="8.0106617"><ele>22.5</ele><time>2026-04-26T12:05:12.047Z</time></trkpt><trkpt lat="43.8767333" lon="8.01059"><ele>21.0</ele><time>2026-04-26T12:05:13.047Z</time></trkpt><trkpt lat="43.8766917" lon="8.0105017"><ele>19.5</ele><time>2026-04-26T12:05:14.047Z</time></trkpt><trkpt lat="43.8766517" lon="8.01041"><ele>18.0</ele><time>2026-04-26T12:05:15.047Z</time></trkpt><trkpt lat="43.87662" lon="8.010315"><ele>16.5</ele><time>2026-04-26T12:05:16.047Z</time></trkpt><trkpt lat="43.876595" lon="8.0102133"><ele>15.0</ele><time>2026-04-26T12:05:17.047Z</time></trkpt><trkpt lat="43.876565" lon="8.0101233"><ele>15.0</ele><time>2026-04-26T12:05:18.047Z</time></trkpt><trkpt lat="43.87655" lon="8.0100267"><ele>15.0</ele><time>2026-04-26T12:05:19.048Z</time></trkpt><trkpt lat="43.8765567" lon="8.0099233"><ele>15.0</ele><time>2026-04-26T12:05:20.047Z</time></trkpt><trkpt lat="43.8765467" lon="8.00983"><ele>15.0</ele><time>2026-04-26T12:05:21.047Z</time></trkpt><trkpt lat="43.8765683" lon="8.00968"><ele>15.0</ele><time>2026-04-26T12:05:23.048Z</time></trkpt><trkpt lat="43.8766267" lon="8.0096317"><ele>15.0</ele><time>2026-04-26T12:05:24.047Z</time></trkpt><trkpt lat="43.876685" lon="8.0095933"><ele>15.2</ele><time>2026-04-26T12:05:25.047Z</time></trkpt><trkpt lat="43.8767567" lon="8.0095567"><ele>15.4</ele><time>2026-04-26T12:05:26.047Z</time></trkpt><trkpt lat="43.876875" lon="8.0094917"><ele>15.600000000000001</ele><time>2026-04-26T12:05:28.047Z</time></trkpt><trkpt lat="43.8769317" lon="8.0094517"><ele>15.8</ele><time>2026-04-26T12:05:29.047Z</time></trkpt><trkpt lat="43.8769883" lon="8.00941"><ele>16.0</ele><time>2026-04-26T12:05:30.047Z</time></trkpt><trkpt lat="43.8770983" lon="8.0093333"><ele>16.0</ele><time>2026-04-26T12:05:32.047Z</time></trkpt><trkpt lat="43.8772017" lon="8.009245"><ele>16.0</ele><time>2026-04-26T12:05:34.047Z</time></trkpt><trkpt lat="43.8772917" lon="8.0091417"><ele>16.0</ele><time>2026-04-26T12:05:36.047Z</time></trkpt><trkpt lat="43.8773767" lon="8.0090217"><ele>16.0</ele><time>2026-04-26T12:05:38.047Z</time></trkpt><trkpt lat="43.8774567" lon="8.0089"><ele>16.25</ele><time>2026-04-26T12:05:40.047Z</time></trkpt><trkpt lat="43.8775317" lon="8.0087633"><ele>16.5</ele><time>2026-04-26T12:05:42.047Z</time></trkpt><trkpt lat="43.8776083" lon="8.0086383"><ele>16.75</ele><time>2026-04-26T12:05:44.047Z</time></trkpt><trkpt lat="43.87768" lon="8.0085067"><ele>17.0</ele><time>2026-04-26T12:05:46.048Z</time></trkpt><trkpt lat="43.877755" lon="8.0083883"><ele>15.8</ele><time>2026-04-26T12:05:48.047Z</time></trkpt><trkpt lat="43.8778233" lon="8.00825"><ele>14.6</ele><time>2026-04-26T12:05:50.047Z</time></trkpt><trkpt lat="43.8778617" lon="8.00817"><ele>13.4</ele><time>2026-04-26T12:05:51.047Z</time></trkpt><trkpt lat="43.8779333" lon="8.0080367"><ele>12.200000000000001</ele><time>2026-04-26T12:05:53.047Z</time></trkpt><trkpt lat="43.87801" lon="8.007915"><ele>11.0</ele><time>2026-04-26T12:05:55.047Z</time></trkpt><trkpt lat="43.878095" lon="8.007805"><ele>11.0</ele><time>2026-04-26T12:05:57.047Z</time></trkpt><trkpt lat="43.878185" lon="8.007695"><ele>11.0</ele><time>2026-04-26T12:05:59.048Z</time></trkpt><trkpt lat="43.8782717" lon="8.0075817"><ele>11.0</ele><time>2026-04-26T12:06:01.047Z</time></trkpt><trkpt lat="43.878355" lon="8.00747"><ele>11.0</ele><time>2026-04-26T12:06:03.047Z</time></trkpt><trkpt lat="43.878435" lon="8.0073633"><ele>11.8</ele><time>2026-04-26T12:06:05.047Z</time></trkpt><trkpt lat="43.8785133" lon="8.00725"><ele>12.600000000000001</ele><time>2026-04-26T12:06:07.047Z</time></trkpt><trkpt lat="43.8786017" lon="8.0071667"><ele>13.4</ele><time>2026-04-26T12:06:09.047Z</time></trkpt><trkpt lat="43.878685" lon="8.00707"><ele>14.2</ele><time>2026-04-26T12:06:11.047Z</time></trkpt><trkpt lat="43.878765" lon="8.006965"><ele>15.0</ele><time>2026-04-26T12:06:13.048Z</time></trkpt><trkpt lat="43.87885" lon="8.0068717"><ele>15.0</ele><time>2026-04-26T12:06:15.048Z</time></trkpt><trkpt lat="43.8789417" lon="8.006785"><ele>15.0</ele><time>2026-04-26T12:06:17.047Z</time></trkpt><trkpt lat="43.8790217" lon="8.0066883"><ele>15.0</ele><time>2026-04-26T12:06:19.047Z</time></trkpt><trkpt lat="43.879105" lon="8.0065833"><ele>15.0</ele><time>2026-04-26T12:06:21.047Z</time></trkpt><trkpt lat="43.879185" lon="8.0064667"><ele>15.0</ele><time>2026-04-26T12:06:23.047Z</time></trkpt><trkpt lat="43.87927" lon="8.00636"><ele>16.8</ele><time>2026-04-26T12:06:25.047Z</time></trkpt><trkpt lat="43.879345" lon="8.006255"><ele>18.6</ele><time>2026-04-26T12:06:27.047Z</time></trkpt><trkpt lat="43.8794067" lon="8.0061467"><ele>20.4</ele><time>2026-04-26T12:06:29.047Z</time></trkpt><trkpt lat="43.8794667" lon="8.0060483"><ele>22.2</ele><time>2026-04-26T12:06:31.048Z</time></trkpt><trkpt lat="43.87954" lon="8.005945"><ele>24.0</ele><time>2026-04-26T12:06:33.047Z</time></trkpt><trkpt lat="43.8796133" lon="8.0058317"><ele>22.2</ele><time>2026-04-26T12:06:35.047Z</time></trkpt><trkpt lat="43.8796717" lon="8.0057083"><ele>20.4</ele><time>2026-04-26T12:06:37.047Z</time></trkpt><trkpt lat="43.8797467" lon="8.0056"><ele>18.6</ele><time>2026-04-26T12:06:39.047Z</time></trkpt><trkpt lat="43.8798083" lon="8.0054817"><ele>16.8</ele><time>2026-04-26T12:06:41.047Z</time></trkpt><trkpt lat="43.8798733" lon="8.0053667"><ele>15.0</ele><time>2026-04-26T12:06:43.047Z</time></trkpt><trkpt lat="43.87994" lon="8.0052533"><ele>15.0</ele><time>2026-04-26T12:06:45.047Z</time></trkpt><trkpt lat="43.879995" lon="8.00513"><ele>15.0</ele><time>2026-04-26T12:06:47.047Z</time></trkpt><trkpt lat="43.8800583" lon="8.005005"><ele>15.0</ele><time>2026-04-26T12:06:49.048Z</time></trkpt><trkpt lat="43.8801133" lon="8.0048833"><ele>15.0</ele><time>2026-04-26T12:06:51.047Z</time></trkpt><trkpt lat="43.880165" lon="8.0047517"><ele>15.0</ele><time>2026-04-26T12:06:53.047Z</time></trkpt><trkpt lat="43.8802133" lon="8.0046133"><ele>17.25</ele><time>2026-04-26T12:06:55.047Z</time></trkpt><trkpt lat="43.88024" lon="8.004465"><ele>19.5</ele><time>2026-04-26T12:06:57.048Z</time></trkpt><trkpt lat="43.8802467" lon="8.0043033"><ele>21.75</ele><time>2026-04-26T12:06:59.047Z</time></trkpt><trkpt lat="43.8802483" lon="8.00414"><ele>24.0</ele><time>2026-04-26T12:07:01.047Z</time></trkpt><trkpt lat="43.8802617" lon="8.0039817"><ele>24.799999999999997</ele><time>2026-04-26T12:07:03.048Z</time></trkpt><trkpt lat="43.8802783" lon="8.0038317"><ele>25.599999999999998</ele><time>2026-04-26T12:07:05.047Z</time></trkpt><trkpt lat="43.8802917" lon="8.0036817"><ele>26.4</ele><time>2026-04-26T12:07:07.047Z</time></trkpt><trkpt lat="43.8802783" lon="8.0035333"><ele>27.2</ele><time>2026-04-26T12:07:09.048Z</time></trkpt><trkpt lat="43.8802633" lon="8.0033783"><ele>28.0</ele><time>2026-04-26T12:07:11.047Z</time></trkpt><trkpt lat="43.880255" lon="8.0032233"><ele>28.0</ele><time>2026-04-26T12:07:13.047Z</time></trkpt><trkpt lat="43.880255" lon="8.0030733"><ele>27.999999999999996</ele><time>2026-04-26T12:07:15.047Z</time></trkpt><trkpt lat="43.880245" lon="8.0029267"><ele>27.999999999999996</ele><time>2026-04-26T12:07:17.047Z</time></trkpt><trkpt lat="43.8802267" lon="8.0027783"><ele>28.0</ele><time>2026-04-26T12:07:19.047Z</time></trkpt><trkpt lat="43.8802117" lon="8.0026317"><ele>28.0</ele><time>2026-04-26T12:07:21.047Z</time></trkpt><trkpt lat="43.880195" lon="8.0024817"><ele>26.799999999999997</ele><time>2026-04-26T12:07:23.047Z</time></trkpt><trkpt lat="43.8801933" lon="8.0023317"><ele>25.599999999999998</ele><time>2026-04-26T12:07:25.047Z</time></trkpt><trkpt lat="43.8802033" lon="8.0021817"><ele>24.4</ele><time>2026-04-26T12:07:27.047Z</time></trkpt><trkpt lat="43.880225" lon="8.002045"><ele>23.200000000000003</ele><time>2026-04-26T12:07:29.047Z</time></trkpt><trkpt lat="43.880275" lon="8.0019317"><ele>22.0</ele><time>2026-04-26T12:07:31.047Z</time></trkpt><trkpt lat="43.8803433" lon="8.0018317"><ele>22.0</ele><time>2026-04-26T12:07:33.047Z</time></trkpt><trkpt lat="43.8804217" lon="8.0017333"><ele>22.0</ele><time>2026-04-26T12:07:35.047Z</time></trkpt><trkpt lat="43.8804833" lon="8.0016283"><ele>22.0</ele><time>2026-04-26T12:07:37.047Z</time></trkpt><trkpt lat="43.8805233" lon="8.0015183"><ele>22.0</ele><time>2026-04-26T12:07:39.047Z</time></trkpt><trkpt lat="43.8805417" lon="8.0013967"><ele>22.0</ele><time>2026-04-26T12:07:41.048Z</time></trkpt><trkpt lat="43.8805817" lon="8.001265"><ele>21.6</ele><time>2026-04-26T12:07:43.047Z</time></trkpt><trkpt lat="43.8806183" lon="8.0011217"><ele>21.200000000000003</ele><time>2026-04-26T12:07:45.047Z</time></trkpt><trkpt lat="43.8806667" lon="8.0009667"><ele>20.8</ele><time>2026-04-26T12:07:47.047Z</time></trkpt><trkpt lat="43.8807033" lon="8.00083"><ele>20.4</ele><time>2026-04-26T12:07:49.047Z</time></trkpt><trkpt lat="43.88074" lon="8.0006983"><ele>20.0</ele><time>2026-04-26T12:07:51.047Z</time></trkpt><trkpt lat="43.8807667" lon="8.0005733"><ele>19.6</ele><time>2026-04-26T12:07:53.047Z</time></trkpt><trkpt lat="43.88079" lon="8.0004433"><ele>19.2</ele><time>2026-04-26T12:07:55.047Z</time></trkpt><trkpt lat="43.880825" lon="8.0003"><ele>18.8</ele><time>2026-04-26T12:07:57.047Z</time></trkpt><trkpt lat="43.8808633" lon="8.0001583"><ele>18.4</ele><time>2026-04-26T12:07:59.047Z</time></trkpt><trkpt lat="43.880905" lon="8.00002"><ele>18.0</ele><time>2026-04-26T12:08:01.047Z</time></trkpt><trkpt lat="43.8809417" lon="7.999875"><ele>20.2</ele><time>2026-04-26T12:08:03.047Z</time></trkpt><trkpt lat="43.8809817" lon="7.999735"><ele>22.4</ele><time>2026-04-26T12:08:05.047Z</time></trkpt><trkpt lat="43.881035" lon="7.9995983"><ele>24.599999999999998</ele><time>2026-04-26T12:08:07.047Z</time></trkpt><trkpt lat="43.8810883" lon="7.99946"><ele>26.8</ele><time>2026-04-26T12:08:09.047Z</time></trkpt><trkpt lat="43.8811517" lon="7.99935"><ele>29.0</ele><time>2026-04-26T12:08:11.047Z</time></trkpt><trkpt lat="43.8812267" lon="7.9992483"><ele>27.799999999999997</ele><time>2026-04-26T12:08:13.047Z</time></trkpt><trkpt lat="43.8813017" lon="7.9991467"><ele>26.599999999999998</ele><time>2026-04-26T12:08:15.047Z</time></trkpt><trkpt lat="43.8813917" lon="7.99904"><ele>25.4</ele><time>2026-04-26T12:08:17.047Z</time></trkpt><trkpt lat="43.881475" lon="7.9989417"><ele>24.2</ele><time>2026-04-26T12:08:19.047Z</time></trkpt><trkpt lat="43.8815617" lon="7.9988433"><ele>23.0</ele><time>2026-04-26T12:08:21.047Z</time></trkpt><trkpt lat="43.88164" lon="7.9987333"><ele>23.0</ele><time>2026-04-26T12:08:23.048Z</time></trkpt><trkpt lat="43.8817217" lon="7.9986067"><ele>23.0</ele><time>2026-04-26T12:08:25.047Z</time></trkpt><trkpt lat="43.8817867" lon="7.99848"><ele>23.0</ele><time>2026-04-26T12:08:27.047Z</time></trkpt><trkpt lat="43.8818567" lon="7.9983533"><ele>23.0</ele><time>2026-04-26T12:08:29.047Z</time></trkpt><trkpt lat="43.8819283" lon="7.9982217"><ele>24.0</ele><time>2026-04-26T12:08:31.047Z</time></trkpt><trkpt lat="43.8820033" lon="7.998095"><ele>25.0</ele><time>2026-04-26T12:08:33.048Z</time></trkpt><trkpt lat="43.8820617" lon="7.9979667"><ele>26.0</ele><time>2026-04-26T12:08:35.047Z</time></trkpt><trkpt lat="43.882125" lon="7.9978367"><ele>27.0</ele><time>2026-04-26T12:08:37.047Z</time></trkpt><trkpt lat="43.8821767" lon="7.997695"><ele>27.0</ele><time>2026-04-26T12:08:39.047Z</time></trkpt><trkpt lat="43.88223" lon="7.99756"><ele>27.000000000000004</ele><time>2026-04-26T12:08:41.047Z</time></trkpt><trkpt lat="43.8822783" lon="7.9974317"><ele>27.000000000000004</ele><time>2026-04-26T12:08:43.047Z</time></trkpt><trkpt lat="43.8823317" lon="7.9973"><ele>27.0</ele><time>2026-04-26T12:08:45.047Z</time></trkpt><trkpt lat="43.8823833" lon="7.9971733"><ele>27.0</ele><time>2026-04-26T12:08:47.047Z</time></trkpt><trkpt lat="43.8824317" lon="7.9970433"><ele>27.400000000000002</ele><time>2026-04-26T12:08:49.048Z</time></trkpt><trkpt lat="43.88248" lon="7.9969217"><ele>27.800000000000004</ele><time>2026-04-26T12:08:51.047Z</time></trkpt><trkpt lat="43.882525" lon="7.9967833"><ele>28.2</ele><time>2026-04-26T12:08:53.047Z</time></trkpt><trkpt lat="43.882575" lon="7.9966683"><ele>28.6</ele><time>2026-04-26T12:08:55.048Z</time></trkpt><trkpt lat="43.88263" lon="7.99654"><ele>29.0</ele><time>2026-04-26T12:08:57.047Z</time></trkpt><trkpt lat="43.8826833" lon="7.996425"><ele>28.999999999999996</ele><time>2026-04-26T12:08:59.047Z</time></trkpt><trkpt lat="43.8827367" lon="7.99632"><ele>29.0</ele><time>2026-04-26T12:09:01.047Z</time></trkpt><trkpt lat="43.882785" lon="7.9962567"><ele>29.0</ele><time>2026-04-26T12:09:03.047Z</time></trkpt><trkpt lat="43.8828617" lon="7.9963017"><ele>29.0</ele><time>2026-04-26T12:09:06.047Z</time></trkpt><trkpt lat="43.8829283" lon="7.996385"><ele>28.999999999999996</ele><time>2026-04-26T12:09:09.047Z</time></trkpt><trkpt lat="43.883" lon="7.9964683"><ele>29.0</ele><time>2026-04-26T12:09:12.047Z</time></trkpt><trkpt lat="43.8830467" lon="7.99653"><ele>29.000000000000004</ele><time>2026-04-26T12:09:14.047Z</time></trkpt><trkpt lat="43.8831" lon="7.9965883"><ele>29.0</ele><time>2026-04-26T12:09:16.047Z</time></trkpt><trkpt lat="43.883155" lon="7.9966467"><ele>29.000000000000004</ele><time>2026-04-26T12:09:18.047Z</time></trkpt><trkpt lat="43.8832183" lon="7.9967017"><ele>29.000000000000004</ele><time>2026-04-26T12:09:20.047Z</time></trkpt><trkpt lat="43.8832767" lon="7.9967483"><ele>29.0</ele><time>2026-04-26T12:09:22.047Z</time></trkpt><trkpt lat="43.88333" lon="7.9968067"><ele>29.000000000000004</ele><time>2026-04-26T12:09:24.047Z</time></trkpt><trkpt lat="43.883385" lon="7.996855"><ele>29.000000000000004</ele><time>2026-04-26T12:09:26.047Z</time></trkpt><trkpt lat="43.8834383" lon="7.9969067"><ele>30.85714285714286</ele><time>2026-04-26T12:09:28.047Z</time></trkpt><trkpt lat="43.8834917" lon="7.9969633"><ele>32.714285714285715</ele><time>2026-04-26T12:09:30.047Z</time></trkpt><trkpt lat="43.883545" lon="7.9970183"><ele>34.57142857142857</ele><time>2026-04-26T12:09:32.048Z</time></trkpt><trkpt lat="43.883605" lon="7.9970567"><ele>36.42857142857143</ele><time>2026-04-26T12:09:34.048Z</time></trkpt><trkpt lat="43.8836617" lon="7.9971"><ele>38.285714285714285</ele><time>2026-04-26T12:09:36.047Z</time></trkpt><trkpt lat="43.88372" lon="7.9971417"><ele>40.142857142857146</ele><time>2026-04-26T12:09:38.047Z</time></trkpt><trkpt lat="43.8837833" lon="7.9971433"><ele>42.0</ele><time>2026-04-26T12:09:41.047Z</time></trkpt><trkpt lat="43.8838433" lon="7.9971749"><ele>42.0</ele><time>2026-04-26T12:13:52.323Z</time></trkpt><trkpt lat="43.8837913" lon="7.9972459"><ele>42.0</ele><time>2026-04-26T12:13:58.201Z</time></trkpt><trkpt lat="43.8837331" lon="7.9972829"><ele>42.0</ele><time>2026-04-26T12:14:26.317Z</time></trkpt><trkpt lat="43.8837893" lon="7.9972033"><ele>42.0</ele><time>2026-04-26T12:21:51.254Z</time></trkpt><trkpt lat="43.8838628" lon="7.9972029"><ele>42.0</ele><time>2026-04-26T12:35:53.198Z</time></trkpt><trkpt lat="43.8839015" lon="7.9971223"><ele>42.0</ele><time>2026-04-26T12:35:57.277Z</time></trkpt><trkpt lat="43.8839456" lon="7.9970431"><ele>42.0</ele><time>2026-04-26T12:36:02.315Z</time></trkpt><trkpt lat="43.8839298" lon="7.9971311"><ele>42.0</ele><time>2026-04-26T12:36:24.174Z</time></trkpt><trkpt lat="43.8838868" lon="7.9972014"><ele>42.0</ele><time>2026-04-26T12:36:33.266Z</time></trkpt></trkseg></trk></gpx>